Wetterdaten: Dienstag, 18.12.2018
Datum Zeit Temp. A. Feuchte A. Luftdruck Regen Wind Richtung Richtung Sonnenschein ET UV Solar Taupunkt Windchill Windböen
18.12.2018 00:00 1,2 °C 87 % 1029,9 hPa 0,0 mm 7,3 km/h (2 Bft) SW 223 ° 0 min 0,000 mm 0,0 UV-I 0 W/m² -0,7 °C -1,1 °C 11,3 km/h (2 Bft)
18.12.2018 00:01 1,2 °C 87 % 1029,9 hPa 0,0 mm 4,8 km/h (1 Bft) S-SW 194 ° 0 min 0,000 mm 0,0 UV-I 0 W/m² -0,7 °C -0,1 °C 6,4 km/h (2 Bft)
18.12.2018 00:02 1,2 °C 88 % 1029,9 hPa 0,0 mm 4,7 km/h (1 Bft) SW 214 ° 0 min 0,000 mm 0,0 UV-I 0 W/m² -0,6 °C -0,1 °C 8,0 km/h (2 Bft)
18.12.2018 00:03 1,1 °C 88 % 1029,8 hPa 0,0 mm 2,8 km/h (1 Bft) S-SW 207 ° 0 min 0,000 mm 0,0 UV-I 0 W/m² -0,7 °C 1,1 °C 6,4 km/h (2 Bft)
18.12.2018 00:04 1,1 °C 88 % 1029,8 hPa 0,0 mm 2,7 km/h (1 Bft) S-SW 207 ° 0 min 0,000 mm 0,0 UV-I 0 W/m² -0,7 °C 1,1 °C 4,8 km/h (1 Bft)
18.12.2018 00:05 1,1 °C 88 % 1029,9 hPa 0,0 mm 3,6 km/h (1 Bft) S 185 ° 0 min 0,000 mm 0,0 UV-I 0 W/m² -0,7 °C 1,1 °C 8,0 km/h (2 Bft)
18.12.2018 00:06 1,1 °C 88 % 1029,9 hPa 0,0 mm 4,3 km/h (1 Bft) S 169 ° 0 min 0,000 mm 0,0 UV-I 0 W/m² -0,7 °C 1,1 °C 6,4 km/h (2 Bft)
18.12.2018 00:07 1,1 °C 88 % 1029,9 hPa 0,0 mm 4,2 km/h (1 Bft) S-SW 211 ° 0 min 0,000 mm 0,0 UV-I 0 W/m² -0,7 °C 1,1 °C 6,4 km/h (2 Bft)
18.12.2018 00:08 1,0 °C 88 % 1029,8 hPa 0,0 mm 6,0 km/h (2 Bft) S-SW 202 ° 0 min 0,000 mm 0,0 UV-I 0 W/m² -0,8 °C -0,9 °C 8,0 km/h (2 Bft)
18.12.2018 00:09 0,9 °C 88 % 1029,8 hPa 0,0 mm 4,2 km/h (1 Bft) S-SW 198 ° 0 min 0,000 mm 0,0 UV-I 0 W/m² -0,9 °C 0,9 °C 6,4 km/h (2 Bft)
18.12.2018 00:10 0,9 °C 88 % 1029,8 hPa 0,0 mm 5,6 km/h (1 Bft) S-SW 195 ° 0 min 0,000 mm 0,0 UV-I 0 W/m² -0,9 °C -0,8 °C 8,0 km/h (2 Bft)
18.12.2018 00:11 0,9 °C 88 % 1029,8 hPa 0,0 mm 4,1 km/h (1 Bft) SW 215 ° 0 min 0,000 mm 0,0 UV-I 0 W/m² -0,9 °C 0,9 °C 8,0 km/h (2 Bft)
18.12.2018 00:12 0,9 °C 88 % 1029,8 hPa 0,0 mm 6,6 km/h (2 Bft) S 180 ° 0 min 0,000 mm 0,0 UV-I 0 W/m² -0,9 °C -1,2 °C 11,3 km/h (2 Bft)
18.12.2018 00:13 0,9 °C 88 % 1029,8 hPa 0,0 mm 5,5 km/h (1 Bft) S-SO 164 ° 0 min 0,000 mm 0,0 UV-I 0 W/m² -0,9 °C -0,8 °C 11,3 km/h (2 Bft)
18.12.2018 00:14 0,8 °C 88 % 1029,8 hPa 0,0 mm 4,8 km/h (1 Bft) S 181 ° 0 min 0,000 mm 0,0 UV-I 0 W/m² -1,0 °C -0,6 °C 8,0 km/h (2 Bft)
18.12.2018 00:15 0,8 °C 88 % 1029,7 hPa 0,0 mm 3,8 km/h (1 Bft) S-SW 212 ° 0 min 0,000 mm 0,0 UV-I 0 W/m² -1,0 °C 0,8 °C 6,4 km/h (2 Bft)
18.12.2018 00:16 0,8 °C 88 % 1029,7 hPa 0,0 mm 6,0 km/h (2 Bft) S-SW 196 ° 0 min 0,000 mm 0,0 UV-I 0 W/m² -1,0 °C -1,1 °C 9,7 km/h (2 Bft)
18.12.2018 00:17 0,8 °C 88 % 1029,7 hPa 0,0 mm 6,6 km/h (2 Bft) S-SW 194 ° 0 min 0,000 mm 0,0 UV-I 0 W/m² -1,0 °C -1,3 °C 11,3 km/h (2 Bft)
18.12.2018 00:18 0,8 °C 88 % 1029,7 hPa 0,0 mm 7,9 km/h (2 Bft) S 182 ° 0 min 0,000 mm 0,0 UV-I 0 W/m² -1,0 °C -1,8 °C 11,3 km/h (2 Bft)
18.12.2018 00:19 0,8 °C 88 % 1029,7 hPa 0,0 mm 5,3 km/h (1 Bft) S 178 ° 0 min 0,000 mm 0,0 UV-I 0 W/m² -1,0 °C -0,8 °C 8,0 km/h (2 Bft)
18.12.2018 00:20 0,7 °C 88 % 1029,7 hPa 0,0 mm 4,1 km/h (1 Bft) S-SW 200 ° 0 min 0,000 mm 0,0 UV-I 0 W/m² -1,1 °C 0,7 °C 9,7 km/h (2 Bft)
18.12.2018 00:21 0,7 °C 88 % 1029,7 hPa 0,0 mm 4,1 km/h (1 Bft) S 187 ° 0 min 0,000 mm 0,0 UV-I 0 W/m² -1,1 °C 0,7 °C 8,0 km/h (2 Bft)
18.12.2018 00:22 0,7 °C 88 % 1029,6 hPa 0,0 mm 2,8 km/h (1 Bft) S-SW 194 ° 0 min 0,000 mm 0,0 UV-I 0 W/m² -1,1 °C 0,7 °C 6,4 km/h (2 Bft)
18.12.2018 00:23 0,7 °C 88 % 1029,6 hPa 0,0 mm 5,9 km/h (2 Bft) S-SW 211 ° 0 min 0,000 mm 0,0 UV-I 0 W/m² -1,1 °C -1,2 °C 8,0 km/h (2 Bft)
18.12.2018 00:24 0,7 °C 88 % 1029,6 hPa 0,0 mm 3,3 km/h (1 Bft) S-SW 199 ° 0 min 0,000 mm 0,0 UV-I 0 W/m² -1,1 °C 0,7 °C 6,4 km/h (2 Bft)
18.12.2018 00:25 0,7 °C 88 % 1029,7 hPa 0,0 mm 1,7 km/h (1 Bft) S-SO 161 ° 0 min 0,000 mm 0,0 UV-I 0 W/m² -1,1 °C 0,7 °C 6,4 km/h (2 Bft)
18.12.2018 00:26 0,7 °C 87 % 1029,7 hPa 0,0 mm 4,0 km/h (1 Bft) SW 222 ° 0 min 0,000 mm 0,0 UV-I 0 W/m² -1,2 °C 0,7 °C 6,4 km/h (2 Bft)
18.12.2018 00:27 0,7 °C 87 % 1029,7 hPa 0,0 mm 4,8 km/h (1 Bft) S-SW 196 ° 0 min 0,000 mm 0,0 UV-I 0 W/m² -1,2 °C -0,7 °C 8,0 km/h (2 Bft)
18.12.2018 00:28 0,6 °C 87 % 1029,6 hPa 0,0 mm 1,8 km/h (1 Bft) S 169 ° 0 min 0,000 mm 0,0 UV-I 0 W/m² -1,3 °C 0,6 °C 3,2 km/h (1 Bft)
18.12.2018 00:29 0,7 °C 87 % 1029,6 hPa 0,0 mm 2,5 km/h (1 Bft) S-SO 156 ° 0 min 0,000 mm 0,0 UV-I 0 W/m² -1,2 °C 0,7 °C 6,4 km/h (2 Bft)
18.12.2018 00:30 0,6 °C 88 % 1029,6 hPa 0,0 mm 2,8 km/h (1 Bft) SW 234 ° 0 min 0,000 mm 0,0 UV-I 0 W/m² -1,2 °C 0,6 °C 6,4 km/h (2 Bft)
18.12.2018 00:31 0,6 °C 88 % 1029,6 hPa 0,0 mm 3,2 km/h (1 Bft) SW 215 ° 0 min 0,000 mm 0,0 UV-I 0 W/m² -1,2 °C 0,6 °C 4,8 km/h (1 Bft)
18.12.2018 00:32 0,6 °C 88 % 1029,6 hPa 0,0 mm 2,6 km/h (1 Bft) SW 215 ° 0 min 0,000 mm 0,0 UV-I 0 W/m² -1,2 °C 0,6 °C 3,2 km/h (1 Bft)
18.12.2018 00:33 0,6 °C 88 % 1029,6 hPa 0,0 mm 3,2 km/h (1 Bft) SW 227 ° 0 min 0,000 mm 0,0 UV-I 0 W/m² -1,2 °C 0,6 °C 8,0 km/h (2 Bft)
18.12.2018 00:34 0,6 °C 88 % 1029,6 hPa 0,0 mm 3,0 km/h (1 Bft) SW 229 ° 0 min 0,000 mm 0,0 UV-I 0 W/m² -1,2 °C 0,6 °C 4,8 km/h (1 Bft)
18.12.2018 00:35 0,6 °C 88 % 1029,5 hPa 0,0 mm 3,4 km/h (1 Bft) S-SW 205 ° 0 min 0,000 mm 0,0 UV-I 0 W/m² -1,2 °C 0,6 °C 4,8 km/h (1 Bft)
18.12.2018 00:36 0,6 °C 88 % 1029,5 hPa 0,0 mm 4,7 km/h (1 Bft) S-SW 213 ° 0 min 0,000 mm 0,0 UV-I 0 W/m² -1,2 °C -0,8 °C 9,7 km/h (2 Bft)
18.12.2018 00:37 0,6 °C 88 % 1029,5 hPa 0,0 mm 4,4 km/h (1 Bft) S 184 ° 0 min 0,000 mm 0,0 UV-I 0 W/m² -1,2 °C 0,6 °C 8,0 km/h (2 Bft)
18.12.2018 00:38 0,6 °C 88 % 1029,5 hPa 0,0 mm 0,4 km/h (0 Bft) S 184 ° 0 min 0,000 mm 0,0 UV-I 0 W/m² -1,2 °C 0,6 °C 1,6 km/h (1 Bft)
18.12.2018 00:39 0,5 °C 88 % 1029,5 hPa 0,0 mm 1,4 km/h (1 Bft) S 184 ° 0 min 0,000 mm 0,0 UV-I 0 W/m² -1,3 °C 0,5 °C 3,2 km/h (1 Bft)
18.12.2018 00:40 0,5 °C 88 % 1029,5 hPa 0,0 mm 2,3 km/h (1 Bft) S 169 ° 0 min 0,000 mm 0,0 UV-I 0 W/m² -1,3 °C 0,5 °C 6,4 km/h (2 Bft)
18.12.2018 00:41 0,5 °C 88 % 1029,5 hPa 0,0 mm 0,6 km/h (0 Bft) S-SW 201 ° 0 min 0,000 mm 0,0 UV-I 0 W/m² -1,3 °C 0,5 °C 1,6 km/h (1 Bft)
18.12.2018 00:42 0,5 °C 88 % 1029,5 hPa 0,0 mm 0,8 km/h (0 Bft) S-SW 201 ° 0 min 0,000 mm 0,0 UV-I 0 W/m² -1,3 °C 0,5 °C 3,2 km/h (1 Bft)
18.12.2018 00:43 0,5 °C 88 % 1029,5 hPa 0,0 mm 1,1 km/h (1 Bft) S-SW 201 ° 0 min 0,000 mm 0,0 UV-I 0 W/m² -1,3 °C 0,5 °C 3,2 km/h (1 Bft)
18.12.2018 00:44 0,4 °C 88 % 1029,4 hPa 0,0 mm 0,3 km/h (0 Bft) S-SW 201 ° 0 min 0,000 mm 0,0 UV-I 0 W/m² -1,3 °C 0,4 °C 1,6 km/h (1 Bft)
18.12.2018 00:45 0,4 °C 88 % 1029,4 hPa 0,0 mm 2,8 km/h (1 Bft) O-SO 120 ° 0 min 0,000 mm 0,0 UV-I 0 W/m² -1,3 °C 0,4 °C 8,0 km/h (2 Bft)
18.12.2018 00:46 0,4 °C 88 % 1029,4 hPa 0,0 mm 2,0 km/h (1 Bft) S-SW 207 ° 0 min 0,000 mm 0,0 UV-I 0 W/m² -1,3 °C 0,4 °C 4,8 km/h (1 Bft)
18.12.2018 00:47 0,4 °C 88 % 1029,4 hPa 0,0 mm 1,1 km/h (1 Bft) S-SW 198 ° 0 min 0,000 mm 0,0 UV-I 0 W/m² -1,3 °C 0,4 °C 4,8 km/h (1 Bft)
18.12.2018 00:48 0,4 °C 88 % 1029,3 hPa 0,0 mm 1,4 km/h (1 Bft) S-SW 196 ° 0 min 0,000 mm 0,0 UV-I 0 W/m² -1,3 °C 0,4 °C 4,8 km/h (1 Bft)
18.12.2018 00:49 0,4 °C 88 % 1029,4 hPa 0,0 mm 1,0 km/h (0 Bft) S-SW 198 ° 0 min 0,000 mm 0,0 UV-I 0 W/m² -1,3 °C 0,4 °C 3,2 km/h (1 Bft)
18.12.2018 00:50 0,4 °C 88 % 1029,3 hPa 0,0 mm 0,0 km/h (0 Bft) S-SW 198 ° 0 min 0,000 mm 0,0 UV-I 0 W/m² -1,3 °C 0,4 °C 0,0 km/h (0 Bft)
18.12.2018 00:51 0,3 °C 88 % 1029,3 hPa 0,0 mm 0,0 km/h (0 Bft) S-SW 198 ° 0 min 0,000 mm 0,0 UV-I 0 W/m² -1,4 °C 0,3 °C 0,0 km/h (0 Bft)
18.12.2018 00:52 0,3 °C 88 % 1029,3 hPa 0,0 mm 0,0 km/h (0 Bft) S-SW 198 ° 0 min 0,000 mm 0,0 UV-I 0 W/m² -1,4 °C 0,3 °C 0,0 km/h (0 Bft)
18.12.2018 00:53 0,3 °C 88 % 1029,3 hPa 0,0 mm 0,7 km/h (0 Bft) S-SW 198 ° 0 min 0,000 mm 0,0 UV-I 0 W/m² -1,4 °C 0,3 °C 1,6 km/h (1 Bft)
18.12.2018 00:54 0,3 °C 88 % 1029,2 hPa 0,0 mm 2,8 km/h (1 Bft) S 169 ° 0 min 0,000 mm 0,0 UV-I 0 W/m² -1,4 °C 0,3 °C 6,4 km/h (2 Bft)
18.12.2018 00:55 0,3 °C 88 % 1029,2 hPa 0,0 mm 0,2 km/h (0 Bft) S 169 ° 0 min 0,000 mm 0,0 UV-I 0 W/m² -1,4 °C 0,3 °C 1,6 km/h (1 Bft)
18.12.2018 00:56 0,2 °C 88 % 1029,2 hPa 0,0 mm 0,0 km/h (0 Bft) S 169 ° 0 min 0,000 mm 0,0 UV-I 0 W/m² -1,5 °C 0,2 °C 0,0 km/h (0 Bft)
18.12.2018 00:57 0,2 °C 88 % 1029,2 hPa 0,0 mm 0,6 km/h (0 Bft) S-SW 208 ° 0 min 0,000 mm 0,0 UV-I 0 W/m² -1,5 °C 0,2 °C 3,2 km/h (1 Bft)
18.12.2018 00:58 0,2 °C 88 % 1029,2 hPa 0,0 mm 0,8 km/h (0 Bft) S-SW 208 ° 0 min 0,000 mm 0,0 UV-I 0 W/m² -1,5 °C 0,2 °C 3,2 km/h (1 Bft)
18.12.2018 00:59 0,2 °C 88 % 1029,1 hPa 0,0 mm 0,9 km/h (0 Bft) SW 236 ° 0 min 0,000 mm 0,0 UV-I 0 W/m² -1,5 °C 0,2 °C 3,2 km/h (1 Bft)
18.12.2018 01:00 0,2 °C 88 % 1029,1 hPa 0,0 mm 0,0 km/h (0 Bft) SW 236 ° 0 min 0,000 mm 0,0 UV-I 0 W/m² -1,5 °C 0,2 °C 0,0 km/h (0 Bft)
18.12.2018 01:01 0,2 °C 88 % 1029,1 hPa 0,0 mm 0,1 km/h (0 Bft) SW 236 ° 0 min 0,000 mm 0,0 UV-I 0 W/m² -1,5 °C 0,2 °C 1,6 km/h (1 Bft)
18.12.2018 01:02 0,1 °C 88 % 1029,1 hPa 0,0 mm 0,3 km/h (0 Bft) SW 236 ° 0 min 0,000 mm 0,0 UV-I 0 W/m² -1,6 °C 0,1 °C 1,6 km/h (1 Bft)
18.12.2018 01:03 0,1 °C 88 % 1029,1 hPa 0,0 mm 0,2 km/h (0 Bft) SW 236 ° 0 min 0,000 mm 0,0 UV-I 0 W/m² -1,6 °C 0,1 °C 1,6 km/h (1 Bft)
18.12.2018 01:04 0,1 °C 88 % 1029,2 hPa 0,0 mm 0,3 km/h (0 Bft) SW 236 ° 0 min 0,000 mm 0,0 UV-I 0 W/m² -1,6 °C 0,1 °C 1,6 km/h (1 Bft)
18.12.2018 01:05 0,1 °C 88 % 1029,2 hPa 0,0 mm 0,1 km/h (0 Bft) SW 236 ° 0 min 0,000 mm 0,0 UV-I 0 W/m² -1,6 °C 0,1 °C 1,6 km/h (1 Bft)
18.12.2018 01:06 0,1 °C 88 % 1029,1 hPa 0,0 mm 0,0 km/h (0 Bft) SW 236 ° 0 min 0,000 mm 0,0 UV-I 0 W/m² -1,6 °C 0,1 °C 0,0 km/h (0 Bft)
18.12.2018 01:07 0,1 °C 88 % 1029,1 hPa 0,0 mm 0,2 km/h (0 Bft) SW 236 ° 0 min 0,000 mm 0,0 UV-I 0 W/m² -1,6 °C 0,1 °C 1,6 km/h (1 Bft)
18.12.2018 01:08 0,1 °C 88 % 1029,1 hPa 0,0 mm 0,0 km/h (0 Bft) SW 236 ° 0 min 0,000 mm 0,0 UV-I 0 W/m² -1,6 °C 0,1 °C 0,0 km/h (0 Bft)
18.12.2018 01:09 0,1 °C 88 % 1029,1 hPa 0,0 mm 0,9 km/h (0 Bft) SW 215 ° 0 min 0,000 mm 0,0 UV-I 0 W/m² -1,6 °C 0,1 °C 3,2 km/h (1 Bft)
18.12.2018 01:10 0,0 °C 88 % 1029,2 hPa 0,0 mm 0,0 km/h (0 Bft) SW 215 ° 0 min 0,000 mm 0,0 UV-I 0 W/m² -1,7 °C 0,0 °C 0,0 km/h (0 Bft)
18.12.2018 01:11 0,0 °C 88 % 1029,2 hPa 0,0 mm 0,2 km/h (0 Bft) SW 215 ° 0 min 0,000 mm 0,0 UV-I 0 W/m² -1,7 °C 0,0 °C 1,6 km/h (1 Bft)
18.12.2018 01:12 0,0 °C 88 % 1029,2 hPa 0,0 mm 0,1 km/h (0 Bft) S-SW 195 ° 0 min 0,000 mm 0,0 UV-I 0 W/m² -1,7 °C 0,0 °C 1,6 km/h (1 Bft)
18.12.2018 01:13 0,0 °C 88 % 1029,2 hPa 0,0 mm 0,3 km/h (0 Bft) S-SW 195 ° 0 min 0,000 mm 0,0 UV-I 0 W/m² -1,7 °C 0,0 °C 1,6 km/h (1 Bft)
18.12.2018 01:14 -0,1 °C 88 % 1029,2 hPa 0,0 mm 1,7 km/h (1 Bft) S-SW 194 ° 0 min 0,000 mm 0,0 UV-I 0 W/m² -1,8 °C -0,1 °C 3,2 km/h (1 Bft)
18.12.2018 01:15 -0,1 °C 88 % 1029,2 hPa 0,0 mm 0,7 km/h (0 Bft) S-SW 194 ° 0 min 0,000 mm 0,0 UV-I 0 W/m² -1,8 °C -0,1 °C 3,2 km/h (1 Bft)
18.12.2018 01:16 -0,1 °C 88 % 1029,2 hPa 0,0 mm 0,7 km/h (0 Bft) S-SW 194 ° 0 min 0,000 mm 0,0 UV-I 0 W/m² -1,8 °C -0,1 °C 3,2 km/h (1 Bft)
18.12.2018 01:17 -0,1 °C 88 % 1029,2 hPa 0,0 mm 0,8 km/h (0 Bft) SW 217 ° 0 min 0,000 mm 0,0 UV-I 0 W/m² -1,8 °C -0,1 °C 1,6 km/h (1 Bft)
18.12.2018 01:18 -0,2 °C 88 % 1029,2 hPa 0,0 mm 0,0 km/h (0 Bft) SW 217 ° 0 min 0,000 mm 0,0 UV-I 0 W/m² -1,9 °C -0,2 °C 0,0 km/h (0 Bft)
18.12.2018 01:19 -0,2 °C 88 % 1029,2 hPa 0,0 mm 0,0 km/h (0 Bft) SW 217 ° 0 min 0,000 mm 0,0 UV-I 0 W/m² -1,9 °C -0,2 °C 0,0 km/h (0 Bft)
18.12.2018 01:20 -0,2 °C 88 % 1029,2 hPa 0,0 mm 0,0 km/h (0 Bft) SW 217 ° 0 min 0,000 mm 0,0 UV-I 0 W/m² -1,9 °C -0,2 °C 0,0 km/h (0 Bft)
18.12.2018 01:21 -0,2 °C 88 % 1029,2 hPa 0,0 mm 0,0 km/h (0 Bft) SW 217 ° 0 min 0,000 mm 0,0 UV-I 0 W/m² -1,9 °C -0,2 °C 0,0 km/h (0 Bft)
18.12.2018 01:22 -0,3 °C 89 % 1029,2 hPa 0,0 mm 0,0 km/h (0 Bft) SW 217 ° 0 min 0,000 mm 0,0 UV-I 0 W/m² -1,9 °C -0,3 °C 0,0 km/h (0 Bft)
18.12.2018 01:23 -0,2 °C 89 % 1029,2 hPa 0,0 mm 0,0 km/h (0 Bft) SW 217 ° 0 min 0,000 mm 0,0 UV-I 0 W/m² -1,8 °C -0,2 °C 0,0 km/h (0 Bft)
18.12.2018 01:24 -0,3 °C 89 % 1029,2 hPa 0,0 mm 0,3 km/h (0 Bft) SW 217 ° 0 min 0,000 mm 0,0 UV-I 0 W/m² -1,9 °C -0,3 °C 1,6 km/h (1 Bft)
18.12.2018 01:25 -0,3 °C 89 % 1029,2 hPa 0,0 mm 0,0 km/h (0 Bft) SW 217 ° 0 min 0,000 mm 0,0 UV-I 0 W/m² -1,9 °C -0,3 °C 0,0 km/h (0 Bft)
18.12.2018 01:26 -0,3 °C 89 % 1029,2 hPa 0,0 mm 0,0 km/h (0 Bft) SW 217 ° 0 min 0,000 mm 0,0 UV-I 0 W/m² -1,9 °C -0,3 °C 0,0 km/h (0 Bft)
18.12.2018 01:27 -0,3 °C 89 % 1029,2 hPa 0,0 mm 0,0 km/h (0 Bft) SW 217 ° 0 min 0,000 mm 0,0 UV-I 0 W/m² -1,9 °C -0,3 °C 0,0 km/h (0 Bft)
18.12.2018 01:28 -0,3 °C 89 % 1029,2 hPa 0,0 mm 0,0 km/h (0 Bft) SW 217 ° 0 min 0,000 mm 0,0 UV-I 0 W/m² -1,9 °C -0,3 °C 0,0 km/h (0 Bft)
18.12.2018 01:29 -0,3 °C 89 % 1029,2 hPa 0,0 mm 0,0 km/h (0 Bft) SW 217 ° 0 min 0,000 mm 0,0 UV-I 0 W/m² -1,9 °C -0,3 °C 0,0 km/h (0 Bft)
18.12.2018 01:30 -0,3 °C 89 % 1029,1 hPa 0,0 mm 0,0 km/h (0 Bft) SW 217 ° 0 min 0,000 mm 0,0 UV-I 0 W/m² -1,9 °C -0,3 °C 0,0 km/h (0 Bft)
18.12.2018 01:31 -0,3 °C 89 % 1029,2 hPa 0,0 mm 0,0 km/h (0 Bft) SW 217 ° 0 min 0,000 mm 0,0 UV-I 0 W/m² -1,9 °C -0,3 °C 0,0 km/h (0 Bft)
18.12.2018 01:32 -0,4 °C 89 % 1029,2 hPa 0,0 mm 0,0 km/h (0 Bft) SW 217 ° 0 min 0,000 mm 0,0 UV-I 0 W/m² -2,0 °C -0,4 °C 0,0 km/h (0 Bft)
18.12.2018 01:33 -0,4 °C 89 % 1029,2 hPa 0,0 mm 0,1 km/h (0 Bft) SW 217 ° 0 min 0,000 mm 0,0 UV-I 0 W/m² -2,0 °C -0,4 °C 1,6 km/h (1 Bft)
18.12.2018 01:34 -0,4 °C 89 % 1029,2 hPa 0,0 mm 0,6 km/h (0 Bft) SW 217 ° 0 min 0,000 mm 0,0 UV-I 0 W/m² -2,0 °C -0,4 °C 3,2 km/h (1 Bft)
18.12.2018 01:35 -0,4 °C 89 % 1029,2 hPa 0,0 mm 1,4 km/h (1 Bft) SW 217 ° 0 min 0,000 mm 0,0 UV-I 0 W/m² -2,0 °C -0,4 °C 3,2 km/h (1 Bft)
18.12.2018 01:36 -0,4 °C 89 % 1029,2 hPa 0,0 mm 2,3 km/h (1 Bft) S-SW 202 ° 0 min 0,000 mm 0,0 UV-I 0 W/m² -2,0 °C -0,4 °C 3,2 km/h (1 Bft)
18.12.2018 01:37 -0,4 °C 89 % 1029,1 hPa 0,0 mm 3,4 km/h (1 Bft) S-SW 202 ° 0 min 0,000 mm 0,0 UV-I 0 W/m² -2,0 °C -0,4 °C 4,8 km/h (1 Bft)
18.12.2018 01:38 -0,4 °C 89 % 1029,1 hPa 0,0 mm 1,8 km/h (1 Bft) S-SW 202 ° 0 min 0,000 mm 0,0 UV-I 0 W/m² -2,0 °C -0,4 °C 3,2 km/h (1 Bft)
18.12.2018 01:39 -0,3 °C 89 % 1029,2 hPa 0,0 mm 0,0 km/h (0 Bft) S-SW 202 ° 0 min 0,000 mm 0,0 UV-I 0 W/m² -1,9 °C -0,3 °C 0,0 km/h (0 Bft)
18.12.2018 01:40 -0,3 °C 89 % 1029,2 hPa 0,0 mm 0,0 km/h (0 Bft) S-SW 202 ° 0 min 0,000 mm 0,0 UV-I 0 W/m² -1,9 °C -0,3 °C 0,0 km/h (0 Bft)
18.12.2018 01:41 -0,3 °C 89 % 1029,2 hPa 0,0 mm 0,0 km/h (0 Bft) S-SW 202 ° 0 min 0,000 mm 0,0 UV-I 0 W/m² -1,9 °C -0,3 °C 0,0 km/h (0 Bft)
18.12.2018 01:42 -0,3 °C 89 % 1029,2 hPa 0,0 mm 0,0 km/h (0 Bft) S-SW 202 ° 0 min 0,000 mm 0,0 UV-I 0 W/m² -1,9 °C -0,3 °C 0,0 km/h (0 Bft)
18.12.2018 01:43 -0,3 °C 88 % 1029,2 hPa 0,0 mm 0,0 km/h (0 Bft) S-SW 202 ° 0 min 0,000 mm 0,0 UV-I 0 W/m² -2,0 °C -0,3 °C 0,0 km/h (0 Bft)
18.12.2018 01:44 -0,3 °C 88 % 1029,2 hPa 0,0 mm 0,0 km/h (0 Bft) S-SW 202 ° 0 min 0,000 mm 0,0 UV-I 0 W/m² -2,0 °C -0,3 °C 0,0 km/h (0 Bft)
18.12.2018 01:45 -0,3 °C 88 % 1029,2 hPa 0,0 mm 0,0 km/h (0 Bft) S-SW 202 ° 0 min 0,000 mm 0,0 UV-I 0 W/m² -2,0 °C -0,3 °C 0,0 km/h (0 Bft)
18.12.2018 01:46 -0,3 °C 88 % 1029,2 hPa 0,0 mm 0,0 km/h (0 Bft) S-SW 202 ° 0 min 0,000 mm 0,0 UV-I 0 W/m² -2,0 °C -0,3 °C 0,0 km/h (0 Bft)
18.12.2018 01:47 -0,3 °C 88 % 1029,2 hPa 0,0 mm 0,0 km/h (0 Bft) S-SW 202 ° 0 min 0,000 mm 0,0 UV-I 0 W/m² -2,0 °C -0,3 °C 0,0 km/h (0 Bft)
18.12.2018 01:48 -0,3 °C 88 % 1029,2 hPa 0,0 mm 0,0 km/h (0 Bft) S-SW 202 ° 0 min 0,000 mm 0,0 UV-I 0 W/m² -2,0 °C -0,3 °C 0,0 km/h (0 Bft)
18.12.2018 01:49 -0,4 °C 88 % 1029,3 hPa 0,0 mm 0,0 km/h (0 Bft) S-SW 202 ° 0 min 0,000 mm 0,0 UV-I 0 W/m² -2,1 °C -0,4 °C 0,0 km/h (0 Bft)
18.12.2018 01:50 -0,4 °C 88 % 1029,3 hPa 0,0 mm 0,0 km/h (0 Bft) S-SW 202 ° 0 min 0,000 mm 0,0 UV-I 0 W/m² -2,1 °C -0,4 °C 0,0 km/h (0 Bft)
18.12.2018 01:51 -0,4 °C 88 % 1029,2 hPa 0,0 mm 0,0 km/h (0 Bft) S-SW 202 ° 0 min 0,000 mm 0,0 UV-I 0 W/m² -2,1 °C -0,4 °C 0,0 km/h (0 Bft)
18.12.2018 01:52 -0,4 °C 88 % 1029,3 hPa 0,0 mm 0,0 km/h (0 Bft) S-SW 202 ° 0 min 0,000 mm 0,0 UV-I 0 W/m² -2,1 °C -0,4 °C 0,0 km/h (0 Bft)
18.12.2018 01:53 -0,4 °C 88 % 1029,3 hPa 0,0 mm 0,0 km/h (0 Bft) S-SW 202 ° 0 min 0,000 mm 0,0 UV-I 0 W/m² -2,1 °C -0,4 °C 0,0 km/h (0 Bft)
18.12.2018 01:54 -0,4 °C 88 % 1029,3 hPa 0,0 mm 0,0 km/h (0 Bft) S-SW 202 ° 0 min 0,000 mm 0,0 UV-I 0 W/m² -2,1 °C -0,4 °C 0,0 km/h (0 Bft)
18.12.2018 01:55 -0,4 °C 88 % 1029,3 hPa 0,0 mm 0,8 km/h (0 Bft) S-SW 202 ° 0 min 0,000 mm 0,0 UV-I 0 W/m² -2,1 °C -0,4 °C 3,2 km/h (1 Bft)
18.12.2018 01:56 -0,4 °C 88 % 1029,3 hPa 0,0 mm 0,0 km/h (0 Bft) S-SW 202 ° 0 min 0,000 mm 0,0 UV-I 0 W/m² -2,1 °C -0,4 °C 0,0 km/h (0 Bft)
18.12.2018 01:57 -0,4 °C 89 % 1029,3 hPa 0,0 mm 0,9 km/h (0 Bft) S-SW 202 ° 0 min 0,000 mm 0,0 UV-I 0 W/m² -2,0 °C -0,4 °C 3,2 km/h (1 Bft)
18.12.2018 01:58 -0,4 °C 89 % 1029,3 hPa 0,0 mm 1,8 km/h (1 Bft) S-SW 202 ° 0 min 0,000 mm 0,0 UV-I 0 W/m² -2,0 °C -0,4 °C 3,2 km/h (1 Bft)
18.12.2018 01:59 -0,4 °C 89 % 1029,3 hPa 0,0 mm 0,5 km/h (0 Bft) S-SW 202 ° 0 min 0,000 mm 0,0 UV-I 0 W/m² -2,0 °C -0,4 °C 3,2 km/h (1 Bft)
18.12.2018 02:00 -0,4 °C 89 % 1029,3 hPa 0,0 mm 0,1 km/h (0 Bft) S-SW 202 ° 0 min 0,000 mm 0,0 UV-I 0 W/m² -2,0 °C -0,4 °C 1,6 km/h (1 Bft)
18.12.2018 02:01 -0,4 °C 89 % 1029,3 hPa 0,0 mm 0,0 km/h (0 Bft) S-SW 202 ° 0 min 0,000 mm 0,0 UV-I 0 W/m² -2,0 °C -0,4 °C 0,0 km/h (0 Bft)
18.12.2018 02:02 -0,4 °C 89 % 1029,3 hPa 0,0 mm 0,0 km/h (0 Bft) S-SW 202 ° 0 min 0,000 mm 0,0 UV-I 0 W/m² -2,0 °C -0,4 °C 0,0 km/h (0 Bft)
18.12.2018 02:03 -0,4 °C 89 % 1029,3 hPa 0,0 mm 0,0 km/h (0 Bft) S-SW 202 ° 0 min 0,000 mm 0,0 UV-I 0 W/m² -2,0 °C -0,4 °C 0,0 km/h (0 Bft)
18.12.2018 02:04 -0,4 °C 89 % 1029,3 hPa 0,0 mm 0,0 km/h (0 Bft) S-SW 202 ° 0 min 0,000 mm 0,0 UV-I 0 W/m² -2,0 °C -0,4 °C 0,0 km/h (0 Bft)
18.12.2018 02:05 -0,4 °C 89 % 1029,3 hPa 0,0 mm 0,0 km/h (0 Bft) S-SW 202 ° 0 min 0,000 mm 0,0 UV-I 0 W/m² -2,0 °C -0,4 °C 0,0 km/h (0 Bft)
18.12.2018 02:06 -0,4 °C 89 % 1029,4 hPa 0,0 mm 0,0 km/h (0 Bft) S-SW 202 ° 0 min 0,000 mm 0,0 UV-I 0 W/m² -2,0 °C -0,4 °C 0,0 km/h (0 Bft)
18.12.2018 02:07 -0,4 °C 90 % 1029,3 hPa 0,0 mm 0,0 km/h (0 Bft) S-SW 202 ° 0 min 0,000 mm 0,0 UV-I 0 W/m² -1,8 °C -0,4 °C 0,0 km/h (0 Bft)
18.12.2018 02:08 -0,3 °C 90 % 1029,3 hPa 0,0 mm 0,0 km/h (0 Bft) S-SW 202 ° 0 min 0,000 mm 0,0 UV-I 0 W/m² -1,7 °C -0,3 °C 0,0 km/h (0 Bft)
18.12.2018 02:09 -0,4 °C 90 % 1029,3 hPa 0,0 mm 0,0 km/h (0 Bft) S-SW 202 ° 0 min 0,000 mm 0,0 UV-I 0 W/m² -1,8 °C -0,4 °C 0,0 km/h (0 Bft)
18.12.2018 02:10 -0,3 °C 90 % 1029,3 hPa 0,0 mm 0,0 km/h (0 Bft) S-SW 202 ° 0 min 0,000 mm 0,0 UV-I 0 W/m² -1,7 °C -0,3 °C 0,0 km/h (0 Bft)
18.12.2018 02:11 -0,3 °C 90 % 1029,3 hPa 0,0 mm 0,0 km/h (0 Bft) S-SW 202 ° 0 min 0,000 mm 0,0 UV-I 0 W/m² -1,7 °C -0,3 °C 0,0 km/h (0 Bft)
18.12.2018 02:12 -0,3 °C 90 % 1029,3 hPa 0,0 mm 0,0 km/h (0 Bft) S-SW 202 ° 0 min 0,000 mm 0,0 UV-I 0 W/m² -1,7 °C -0,3 °C 0,0 km/h (0 Bft)
18.12.2018 02:13 -0,3 °C 90 % 1029,4 hPa 0,0 mm 0,0 km/h (0 Bft) S-SW 202 ° 0 min 0,000 mm 0,0 UV-I 0 W/m² -1,7 °C -0,3 °C 0,0 km/h (0 Bft)
18.12.2018 02:14 -0,3 °C 90 % 1029,3 hPa 0,0 mm 0,0 km/h (0 Bft) S-SW 202 ° 0 min 0,000 mm 0,0 UV-I 0 W/m² -1,7 °C -0,3 °C 0,0 km/h (0 Bft)
18.12.2018 02:15 -0,3 °C 90 % 1029,3 hPa 0,0 mm 0,0 km/h (0 Bft) S-SW 202 ° 0 min 0,000 mm 0,0 UV-I 0 W/m² -1,7 °C -0,3 °C 0,0 km/h (0 Bft)
18.12.2018 02:16 -0,3 °C 90 % 1029,3 hPa 0,0 mm 0,0 km/h (0 Bft) S-SW 202 ° 0 min 0,000 mm 0,0 UV-I 0 W/m² -1,7 °C -0,3 °C 0,0 km/h (0 Bft)
18.12.2018 02:17 -0,3 °C 90 % 1029,3 hPa 0,0 mm 0,0 km/h (0 Bft) S-SW 202 ° 0 min 0,000 mm 0,0 UV-I 0 W/m² -1,7 °C -0,3 °C 0,0 km/h (0 Bft)
18.12.2018 02:18 -0,3 °C 90 % 1029,3 hPa 0,0 mm 0,0 km/h (0 Bft) S-SW 202 ° 0 min 0,000 mm 0,0 UV-I 0 W/m² -1,7 °C -0,3 °C 0,0 km/h (0 Bft)
18.12.2018 02:19 -0,3 °C 90 % 1029,3 hPa 0,0 mm 0,0 km/h (0 Bft) S-SW 202 ° 0 min 0,000 mm 0,0 UV-I 0 W/m² -1,7 °C -0,3 °C 0,0 km/h (0 Bft)
18.12.2018 02:20 -0,2 °C 90 % 1029,3 hPa 0,0 mm 0,0 km/h (0 Bft) S-SW 202 ° 0 min 0,000 mm 0,0 UV-I 0 W/m² -1,6 °C -0,2 °C 0,0 km/h (0 Bft)
18.12.2018 02:21 -0,3 °C 90 % 1029,2 hPa 0,0 mm 0,0 km/h (0 Bft) S-SW 202 ° 0 min 0,000 mm 0,0 UV-I 0 W/m² -1,7 °C -0,3 °C 0,0 km/h (0 Bft)
18.12.2018 02:22 -0,3 °C 90 % 1029,2 hPa 0,0 mm 0,0 km/h (0 Bft) S-SW 202 ° 0 min 0,000 mm 0,0 UV-I 0 W/m² -1,7 °C -0,3 °C 0,0 km/h (0 Bft)
18.12.2018 02:23 -0,3 °C 90 % 1029,2 hPa 0,0 mm 0,0 km/h (0 Bft) S-SW 202 ° 0 min 0,000 mm 0,0 UV-I 0 W/m² -1,7 °C -0,3 °C 0,0 km/h (0 Bft)
18.12.2018 02:24 -0,3 °C 90 % 1029,3 hPa 0,0 mm 0,0 km/h (0 Bft) S-SW 202 ° 0 min 0,000 mm 0,0 UV-I 0 W/m² -1,7 °C -0,3 °C 0,0 km/h (0 Bft)
18.12.2018 02:25 -0,3 °C 90 % 1029,2 hPa 0,0 mm 0,0 km/h (0 Bft) S-SW 202 ° 0 min 0,000 mm 0,0 UV-I 0 W/m² -1,7 °C -0,3 °C 0,0 km/h (0 Bft)
18.12.2018 02:26 -0,3 °C 90 % 1029,2 hPa 0,0 mm 0,0 km/h (0 Bft) S-SW 202 ° 0 min 0,000 mm 0,0 UV-I 0 W/m² -1,7 °C -0,3 °C 0,0 km/h (0 Bft)
18.12.2018 02:27 -0,3 °C 90 % 1029,3 hPa 0,0 mm 0,0 km/h (0 Bft) S-SW 202 ° 0 min 0,000 mm 0,0 UV-I 0 W/m² -1,7 °C -0,3 °C 0,0 km/h (0 Bft)
18.12.2018 02:28 -0,3 °C 90 % 1029,3 hPa 0,0 mm 0,0 km/h (0 Bft) S-SW 202 ° 0 min 0,000 mm 0,0 UV-I 0 W/m² -1,7 °C -0,3 °C 0,0 km/h (0 Bft)
18.12.2018 02:29 -0,3 °C 90 % 1029,3 hPa 0,0 mm 0,0 km/h (0 Bft) S-SW 202 ° 0 min 0,000 mm 0,0 UV-I 0 W/m² -1,7 °C -0,3 °C 0,0 km/h (0 Bft)
18.12.2018 02:30 -0,3 °C 90 % 1029,3 hPa 0,0 mm 0,0 km/h (0 Bft) S-SW 202 ° 0 min 0,000 mm 0,0 UV-I 0 W/m² -1,7 °C -0,3 °C 0,0 km/h (0 Bft)
18.12.2018 02:31 -0,3 °C 90 % 1029,3 hPa 0,0 mm 0,0 km/h (0 Bft) S-SW 202 ° 0 min 0,000 mm 0,0 UV-I 0 W/m² -1,7 °C -0,3 °C 0,0 km/h (0 Bft)
18.12.2018 02:32 -0,3 °C 90 % 1029,3 hPa 0,0 mm 0,0 km/h (0 Bft) S-SW 202 ° 0 min 0,000 mm 0,0 UV-I 0 W/m² -1,7 °C -0,3 °C 0,0 km/h (0 Bft)
18.12.2018 02:33 -0,3 °C 90 % 1029,3 hPa 0,0 mm 0,0 km/h (0 Bft) S-SW 202 ° 0 min 0,000 mm 0,0 UV-I 0 W/m² -1,7 °C -0,3 °C 0,0 km/h (0 Bft)
18.12.2018 02:34 -0,3 °C 90 % 1029,3 hPa 0,0 mm 0,0 km/h (0 Bft) S-SW 202 ° 0 min 0,000 mm 0,0 UV-I 0 W/m² -1,7 °C -0,3 °C 0,0 km/h (0 Bft)
18.12.2018 02:35 -0,3 °C 90 % 1029,3 hPa 0,0 mm 0,0 km/h (0 Bft) S-SW 202 ° 0 min 0,000 mm 0,0 UV-I 0 W/m² -1,7 °C -0,3 °C 0,0 km/h (0 Bft)
18.12.2018 02:36 -0,3 °C 90 % 1029,2 hPa 0,0 mm 0,0 km/h (0 Bft) S-SW 202 ° 0 min 0,000 mm 0,0 UV-I 0 W/m² -1,7 °C -0,3 °C 0,0 km/h (0 Bft)
18.12.2018 02:37 -0,3 °C 90 % 1029,3 hPa 0,0 mm 0,0 km/h (0 Bft) S-SW 202 ° 0 min 0,000 mm 0,0 UV-I 0 W/m² -1,7 °C -0,3 °C 0,0 km/h (0 Bft)
18.12.2018 02:38 -0,3 °C 90 % 1029,4 hPa 0,0 mm 0,0 km/h (0 Bft) S-SW 202 ° 0 min 0,000 mm 0,0 UV-I 0 W/m² -1,7 °C -0,3 °C 0,0 km/h (0 Bft)
18.12.2018 02:39 -0,4 °C 90 % 1029,4 hPa 0,0 mm 0,0 km/h (0 Bft) S-SW 202 ° 0 min 0,000 mm 0,0 UV-I 0 W/m² -1,8 °C -0,4 °C 0,0 km/h (0 Bft)
18.12.2018 02:40 -0,4 °C 90 % 1029,3 hPa 0,0 mm 0,0 km/h (0 Bft) S-SW 202 ° 0 min 0,000 mm 0,0 UV-I 0 W/m² -1,8 °C -0,4 °C 0,0 km/h (0 Bft)
18.12.2018 02:41 -0,4 °C 90 % 1029,4 hPa 0,0 mm 0,0 km/h (0 Bft) S-SW 202 ° 0 min 0,000 mm 0,0 UV-I 0 W/m² -1,8 °C -0,4 °C 0,0 km/h (0 Bft)
18.12.2018 02:42 -0,4 °C 90 % 1029,2 hPa 0,0 mm 0,0 km/h (0 Bft) S-SW 202 ° 0 min 0,000 mm 0,0 UV-I 0 W/m² -1,8 °C -0,4 °C 0,0 km/h (0 Bft)
18.12.2018 02:43 -0,4 °C 90 % 1029,2 hPa 0,0 mm 0,0 km/h (0 Bft) S-SW 202 ° 0 min 0,000 mm 0,0 UV-I 0 W/m² -1,8 °C -0,4 °C 0,0 km/h (0 Bft)
18.12.2018 02:44 -0,4 °C 90 % 1029,2 hPa 0,0 mm 0,0 km/h (0 Bft) S-SW 202 ° 0 min 0,000 mm 0,0 UV-I 0 W/m² -1,8 °C -0,4 °C 0,0 km/h (0 Bft)
18.12.2018 02:45 -0,4 °C 90 % 1029,2 hPa 0,0 mm 0,0 km/h (0 Bft) S-SW 202 ° 0 min 0,000 mm 0,0 UV-I 0 W/m² -1,8 °C -0,4 °C 0,0 km/h (0 Bft)
18.12.2018 02:46 -0,5 °C 90 % 1029,2 hPa 0,0 mm 0,0 km/h (0 Bft) S-SW 202 ° 0 min 0,000 mm 0,0 UV-I 0 W/m² -1,9 °C -0,5 °C 0,0 km/h (0 Bft)
18.12.2018 02:47 -0,5 °C 90 % 1029,2 hPa 0,0 mm 0,0 km/h (0 Bft) S-SW 202 ° 0 min 0,000 mm 0,0 UV-I 0 W/m² -1,9 °C -0,5 °C 0,0 km/h (0 Bft)
18.12.2018 02:48 -0,5 °C 90 % 1029,3 hPa 0,0 mm 0,0 km/h (0 Bft) S-SW 202 ° 0 min 0,000 mm 0,0 UV-I 0 W/m² -1,9 °C -0,5 °C 0,0 km/h (0 Bft)
18.12.2018 02:49 -0,5 °C 90 % 1029,3 hPa 0,0 mm 0,0 km/h (0 Bft) S-SW 202 ° 0 min 0,000 mm 0,0 UV-I 0 W/m² -1,9 °C -0,5 °C 0,0 km/h (0 Bft)
18.12.2018 02:50 -0,5 °C 90 % 1029,3 hPa 0,0 mm 0,0 km/h (0 Bft) S-SW 202 ° 0 min 0,000 mm 0,0 UV-I 0 W/m² -1,9 °C -0,5 °C 0,0 km/h (0 Bft)
18.12.2018 02:51 -0,6 °C 90 % 1029,3 hPa 0,0 mm 0,0 km/h (0 Bft) S-SW 202 ° 0 min 0,000 mm 0,0 UV-I 0 W/m² -2,0 °C -0,6 °C 0,0 km/h (0 Bft)
18.12.2018 02:52 -0,6 °C 90 % 1029,3 hPa 0,0 mm 0,5 km/h (0 Bft) S-SW 203 ° 0 min 0,000 mm 0,0 UV-I 0 W/m² -2,0 °C -0,6 °C 3,2 km/h (1 Bft)
18.12.2018 02:53 -0,6 °C 90 % 1029,2 hPa 0,0 mm 0,0 km/h (0 Bft) S-SW 203 ° 0 min 0,000 mm 0,0 UV-I 0 W/m² -2,0 °C -0,6 °C 0,0 km/h (0 Bft)
18.12.2018 02:54 -0,6 °C 90 % 1029,2 hPa 0,0 mm 0,0 km/h (0 Bft) S-SW 203 ° 0 min 0,000 mm 0,0 UV-I 0 W/m² -2,0 °C -0,6 °C 0,0 km/h (0 Bft)
18.12.2018 02:55 -0,6 °C 90 % 1029,2 hPa 0,0 mm 0,0 km/h (0 Bft) S-SW 203 ° 0 min 0,000 mm 0,0 UV-I 0 W/m² -2,0 °C -0,6 °C 0,0 km/h (0 Bft)
18.12.2018 02:56 -0,7 °C 90 % 1029,3 hPa 0,0 mm 0,0 km/h (0 Bft) S-SW 203 ° 0 min 0,000 mm 0,0 UV-I 0 W/m² -2,1 °C -0,7 °C 0,0 km/h (0 Bft)
18.12.2018 02:57 -0,7 °C 90 % 1029,2 hPa 0,0 mm 0,0 km/h (0 Bft) S-SW 203 ° 0 min 0,000 mm 0,0 UV-I 0 W/m² -2,1 °C -0,7 °C 0,0 km/h (0 Bft)
18.12.2018 02:58 -0,7 °C 90 % 1029,2 hPa 0,0 mm 0,0 km/h (0 Bft) S-SW 203 ° 0 min 0,000 mm 0,0 UV-I 0 W/m² -2,1 °C -0,7 °C 0,0 km/h (0 Bft)
18.12.2018 02:59 -0,7 °C 90 % 1029,2 hPa 0,0 mm 0,0 km/h (0 Bft) S-SW 203 ° 0 min 0,000 mm 0,0 UV-I 0 W/m² -2,1 °C -0,7 °C 0,0 km/h (0 Bft)
18.12.2018 03:00 -0,7 °C 90 % 1029,2 hPa 0,0 mm 0,0 km/h (0 Bft) S-SW 203 ° 0 min 0,000 mm 0,0 UV-I 0 W/m² -2,1 °C -0,7 °C 0,0 km/h (0 Bft)
18.12.2018 03:01 -0,7 °C 90 % 1029,2 hPa 0,0 mm 0,0 km/h (0 Bft) S-SW 203 ° 0 min 0,000 mm 0,0 UV-I 0 W/m² -2,1 °C -0,7 °C 0,0 km/h (0 Bft)
18.12.2018 03:02 -0,7 °C 90 % 1029,2 hPa 0,0 mm 0,0 km/h (0 Bft) S-SW 203 ° 0 min 0,000 mm 0,0 UV-I 0 W/m² -2,1 °C -0,7 °C 0,0 km/h (0 Bft)
18.12.2018 03:03 -0,8 °C 90 % 1029,2 hPa 0,0 mm 0,0 km/h (0 Bft) S-SW 203 ° 0 min 0,000 mm 0,0 UV-I 0 W/m² -2,2 °C -0,8 °C 0,0 km/h (0 Bft)
18.12.2018 03:04 -0,8 °C 90 % 1029,1 hPa 0,0 mm 0,0 km/h (0 Bft) S-SW 203 ° 0 min 0,000 mm 0,0 UV-I 0 W/m² -2,2 °C -0,8 °C 0,0 km/h (0 Bft)
18.12.2018 03:05 -0,8 °C 90 % 1029,1 hPa 0,0 mm 0,0 km/h (0 Bft) S-SW 203 ° 0 min 0,000 mm 0,0 UV-I 0 W/m² -2,2 °C -0,8 °C 0,0 km/h (0 Bft)
18.12.2018 03:06 -0,8 °C 90 % 1029,1 hPa 0,0 mm 0,0 km/h (0 Bft) S-SW 202 ° 0 min 0,000 mm 0,0 UV-I 0 W/m² -2,2 °C -0,8 °C 0,0 km/h (0 Bft)
18.12.2018 03:07 -0,8 °C 90 % 1029,1 hPa 0,0 mm 0,0 km/h (0 Bft) S-SW 202 ° 0 min 0,000 mm 0,0 UV-I 0 W/m² -2,2 °C -0,8 °C 0,0 km/h (0 Bft)
18.12.2018 03:08 -0,8 °C 90 % 1029,1 hPa 0,0 mm 0,0 km/h (0 Bft) S-SW 202 ° 0 min 0,000 mm 0,0 UV-I 0 W/m² -2,2 °C -0,8 °C 0,0 km/h (0 Bft)
18.12.2018 03:09 -0,8 °C 90 % 1029,1 hPa 0,0 mm 0,0 km/h (0 Bft) S-SW 202 ° 0 min 0,000 mm 0,0 UV-I 0 W/m² -2,2 °C -0,8 °C 0,0 km/h (0 Bft)
18.12.2018 03:10 -0,8 °C 90 % 1029,1 hPa 0,0 mm 0,0 km/h (0 Bft) S-SW 202 ° 0 min 0,000 mm 0,0 UV-I 0 W/m² -2,2 °C -0,8 °C 0,0 km/h (0 Bft)
18.12.2018 03:11 -0,9 °C 90 % 1029,1 hPa 0,0 mm 0,0 km/h (0 Bft) S-SW 203 ° 0 min 0,000 mm 0,0 UV-I 0 W/m² -2,3 °C -0,9 °C 0,0 km/h (0 Bft)
18.12.2018 03:12 -0,9 °C 90 % 1029,1 hPa 0,0 mm 0,0 km/h (0 Bft) S-SW 202 ° 0 min 0,000 mm 0,0 UV-I 0 W/m² -2,3 °C -0,9 °C 0,0 km/h (0 Bft)
18.12.2018 03:13 -0,9 °C 90 % 1029,1 hPa 0,0 mm 0,0 km/h (0 Bft) S-SW 203 ° 0 min 0,000 mm 0,0 UV-I 0 W/m² -2,3 °C -0,9 °C 0,0 km/h (0 Bft)
18.12.2018 03:14 -0,9 °C 90 % 1029,1 hPa 0,0 mm 0,0 km/h (0 Bft) S-SW 202 ° 0 min 0,000 mm 0,0 UV-I 0 W/m² -2,3 °C -0,9 °C 0,0 km/h (0 Bft)
18.12.2018 03:15 -0,9 °C 90 % 1029,1 hPa 0,0 mm 0,0 km/h (0 Bft) S-SW 202 ° 0 min 0,000 mm 0,0 UV-I 0 W/m² -2,3 °C -0,9 °C 0,0 km/h (0 Bft)
18.12.2018 03:16 -0,9 °C 90 % 1029,0 hPa 0,0 mm 0,0 km/h (0 Bft) S-SW 203 ° 0 min 0,000 mm 0,0 UV-I 0 W/m² -2,3 °C -0,9 °C 0,0 km/h (0 Bft)
18.12.2018 03:17 -0,9 °C 90 % 1029,1 hPa 0,0 mm 0,0 km/h (0 Bft) S-SW 202 ° 0 min 0,000 mm 0,0 UV-I 0 W/m² -2,3 °C -0,9 °C 0,0 km/h (0 Bft)
18.12.2018 03:18 -1,0 °C 90 % 1029,1 hPa 0,0 mm 0,0 km/h (0 Bft) S-SW 203 ° 0 min 0,000 mm 0,0 UV-I 0 W/m² -2,4 °C -1,0 °C 0,0 km/h (0 Bft)
18.12.2018 03:19 -1,0 °C 90 % 1029,1 hPa 0,0 mm 0,0 km/h (0 Bft) S-SW 203 ° 0 min 0,000 mm 0,0 UV-I 0 W/m² -2,4 °C -1,0 °C 0,0 km/h (0 Bft)
18.12.2018 03:20 -1,1 °C 90 % 1029,0 hPa 0,0 mm 0,0 km/h (0 Bft) S-SW 203 ° 0 min 0,000 mm 0,0 UV-I 0 W/m² -2,5 °C -1,1 °C 0,0 km/h (0 Bft)
18.12.2018 03:21 -1,1 °C 90 % 1029,0 hPa 0,0 mm 0,0 km/h (0 Bft) S-SW 202 ° 0 min 0,000 mm 0,0 UV-I 0 W/m² -2,5 °C -1,1 °C 0,0 km/h (0 Bft)
18.12.2018 03:22 -1,1 °C 90 % 1029,1 hPa 0,0 mm 0,0 km/h (0 Bft) S-SW 202 ° 0 min 0,000 mm 0,0 UV-I 0 W/m² -2,5 °C -1,1 °C 0,0 km/h (0 Bft)
18.12.2018 03:23 -1,1 °C 90 % 1029,1 hPa 0,0 mm 0,0 km/h (0 Bft) S-SW 203 ° 0 min 0,000 mm 0,0 UV-I 0 W/m² -2,5 °C -1,1 °C 0,0 km/h (0 Bft)
18.12.2018 03:24 -1,1 °C 90 % 1029,0 hPa 0,0 mm 0,0 km/h (0 Bft) S-SW 202 ° 0 min 0,000 mm 0,0 UV-I 0 W/m² -2,5 °C -1,1 °C 0,0 km/h (0 Bft)
18.12.2018 03:25 -1,1 °C 90 % 1029,0 hPa 0,0 mm 0,0 km/h (0 Bft) S-SW 203 ° 0 min 0,000 mm 0,0 UV-I 0 W/m² -2,5 °C -1,1 °C 0,0 km/h (0 Bft)
18.12.2018 03:26 -1,2 °C 90 % 1028,9 hPa 0,0 mm 0,0 km/h (0 Bft) S-SW 203 ° 0 min 0,000 mm 0,0 UV-I 0 W/m² -2,6 °C -1,2 °C 0,0 km/h (0 Bft)
18.12.2018 03:27 -1,2 °C 90 % 1028,9 hPa 0,0 mm 0,0 km/h (0 Bft) S-SW 202 ° 0 min 0,000 mm 0,0 UV-I 0 W/m² -2,6 °C -1,2 °C 0,0 km/h (0 Bft)
18.12.2018 03:28 -1,2 °C 90 % 1028,9 hPa 0,0 mm 0,0 km/h (0 Bft) S-SW 202 ° 0 min 0,000 mm 0,0 UV-I 0 W/m² -2,6 °C -1,2 °C 0,0 km/h (0 Bft)
18.12.2018 03:29 -1,2 °C 90 % 1028,9 hPa 0,0 mm 0,0 km/h (0 Bft) S-SW 203 ° 0 min 0,000 mm 0,0 UV-I 0 W/m² -2,6 °C -1,2 °C 0,0 km/h (0 Bft)
18.12.2018 03:30 -1,2 °C 90 % 1028,9 hPa 0,0 mm 0,0 km/h (0 Bft) S-SW 203 ° 0 min 0,000 mm 0,0 UV-I 0 W/m² -2,6 °C -1,2 °C 0,0 km/h (0 Bft)
18.12.2018 03:31 -1,3 °C 90 % 1028,9 hPa 0,0 mm 0,0 km/h (0 Bft) S-SW 202 ° 0 min 0,000 mm 0,0 UV-I 0 W/m² -2,7 °C -1,3 °C 0,0 km/h (0 Bft)
18.12.2018 03:32 -1,3 °C 90 % 1028,8 hPa 0,0 mm 0,0 km/h (0 Bft) S-SW 202 ° 0 min 0,000 mm 0,0 UV-I 0 W/m² -2,7 °C -1,3 °C 0,0 km/h (0 Bft)
18.12.2018 03:33 -1,3 °C 90 % 1028,9 hPa 0,0 mm 0,0 km/h (0 Bft) S-SW 203 ° 0 min 0,000 mm 0,0 UV-I 0 W/m² -2,7 °C -1,3 °C 0,0 km/h (0 Bft)
18.12.2018 03:34 -1,3 °C 90 % 1028,9 hPa 0,0 mm 0,0 km/h (0 Bft) S-SW 203 ° 0 min 0,000 mm 0,0 UV-I 0 W/m² -2,7 °C -1,3 °C 0,0 km/h (0 Bft)
18.12.2018 03:35 -1,3 °C 90 % 1028,9 hPa 0,0 mm 0,0 km/h (0 Bft) S-SW 203 ° 0 min 0,000 mm 0,0 UV-I 0 W/m² -2,7 °C -1,3 °C 0,0 km/h (0 Bft)
18.12.2018 03:36 -1,3 °C 90 % 1028,8 hPa 0,0 mm 0,0 km/h (0 Bft) S-SW 202 ° 0 min 0,000 mm 0,0 UV-I 0 W/m² -2,7 °C -1,3 °C 0,0 km/h (0 Bft)
18.12.2018 03:37 -1,3 °C 90 % 1028,8 hPa 0,0 mm 0,0 km/h (0 Bft) S-SW 202 ° 0 min 0,000 mm 0,0 UV-I 0 W/m² -2,7 °C -1,3 °C 0,0 km/h (0 Bft)
18.12.2018 03:38 -1,4 °C 90 % 1028,8 hPa 0,0 mm 0,0 km/h (0 Bft) S-SW 202 ° 0 min 0,000 mm 0,0 UV-I 0 W/m² -2,8 °C -1,4 °C 0,0 km/h (0 Bft)
18.12.2018 03:39 -1,4 °C 90 % 1028,8 hPa 0,0 mm 0,0 km/h (0 Bft) S-SW 202 ° 0 min 0,000 mm 0,0 UV-I 0 W/m² -2,8 °C -1,4 °C 0,0 km/h (0 Bft)
18.12.2018 03:40 -1,4 °C 90 % 1028,8 hPa 0,0 mm 0,0 km/h (0 Bft) S-SW 203 ° 0 min 0,000 mm 0,0 UV-I 0 W/m² -2,8 °C -1,4 °C 0,0 km/h (0 Bft)
18.12.2018 03:41 -1,4 °C 90 % 1028,8 hPa 0,0 mm 0,0 km/h (0 Bft) S-SW 203 ° 0 min 0,000 mm 0,0 UV-I 0 W/m² -2,8 °C -1,4 °C 0,0 km/h (0 Bft)
18.12.2018 03:42 -1,4 °C 90 % 1028,8 hPa 0,0 mm 0,0 km/h (0 Bft) S-SW 202 ° 0 min 0,000 mm 0,0 UV-I 0 W/m² -2,8 °C -1,4 °C 0,0 km/h (0 Bft)
18.12.2018 03:43 -1,4 °C 90 % 1028,9 hPa 0,0 mm 2,6 km/h (1 Bft) SO 141 ° 0 min 0,000 mm 0,0 UV-I 0 W/m² -2,8 °C -1,4 °C 6,4 km/h (2 Bft)
18.12.2018 03:44 -1,4 °C 90 % 1028,9 hPa 0,0 mm 1,7 km/h (1 Bft) O-SO 103 ° 0 min 0,000 mm 0,0 UV-I 0 W/m² -2,8 °C -1,4 °C 3,2 km/h (1 Bft)
18.12.2018 03:45 -1,4 °C 90 % 1028,9 hPa 0,0 mm 1,6 km/h (1 Bft) NW 323 ° 0 min 0,000 mm 0,0 UV-I 0 W/m² -2,8 °C -1,4 °C 3,2 km/h (1 Bft)
18.12.2018 03:46 -1,5 °C 90 % 1028,9 hPa 0,0 mm 1,1 km/h (1 Bft) N-NW 333 ° 0 min 0,000 mm 0,0 UV-I 0 W/m² -2,9 °C -1,5 °C 3,2 km/h (1 Bft)
18.12.2018 03:47 -1,5 °C 90 % 1028,9 hPa 0,0 mm 0,1 km/h (0 Bft) N-NW 333 ° 0 min 0,000 mm 0,0 UV-I 0 W/m² -2,9 °C -1,5 °C 1,6 km/h (1 Bft)
18.12.2018 03:48 -1,6 °C 90 % 1028,9 hPa 0,0 mm 0,9 km/h (0 Bft) N-NW 333 ° 0 min 0,000 mm 0,0 UV-I 0 W/m² -3,0 °C -1,6 °C 3,2 km/h (1 Bft)
18.12.2018 03:49 -1,6 °C 90 % 1028,9 hPa 0,0 mm 0,0 km/h (0 Bft) N-NW 333 ° 0 min 0,000 mm 0,0 UV-I 0 W/m² -3,0 °C -1,6 °C 0,0 km/h (0 Bft)
18.12.2018 03:50 -1,6 °C 90 % 1028,9 hPa 0,0 mm 0,0 km/h (0 Bft) N-NW 333 ° 0 min 0,000 mm 0,0 UV-I 0 W/m² -3,0 °C -1,6 °C 0,0 km/h (0 Bft)
18.12.2018 03:51 -1,6 °C 90 % 1028,9 hPa 0,0 mm 0,0 km/h (0 Bft) N-NW 333 ° 0 min 0,000 mm 0,0 UV-I 0 W/m² -3,0 °C -1,6 °C 0,0 km/h (0 Bft)
18.12.2018 03:52 -1,6 °C 90 % 1028,8 hPa 0,0 mm 0,0 km/h (0 Bft) N-NW 333 ° 0 min 0,000 mm 0,0 UV-I 0 W/m² -3,0 °C -1,6 °C 0,0 km/h (0 Bft)
18.12.2018 03:53 -1,6 °C 90 % 1028,8 hPa 0,0 mm 0,0 km/h (0 Bft) N-NW 333 ° 0 min 0,000 mm 0,0 UV-I 0 W/m² -3,0 °C -1,6 °C 0,0 km/h (0 Bft)
18.12.2018 03:54 -1,7 °C 90 % 1028,8 hPa 0,0 mm 0,0 km/h (0 Bft) N-NW 333 ° 0 min 0,000 mm 0,0 UV-I 0 W/m² -3,1 °C -1,7 °C 0,0 km/h (0 Bft)
18.12.2018 03:55 -1,7 °C 90 % 1028,8 hPa 0,0 mm 0,0 km/h (0 Bft) N-NW 333 ° 0 min 0,000 mm 0,0 UV-I 0 W/m² -3,1 °C -1,7 °C 0,0 km/h (0 Bft)
18.12.2018 03:56 -1,7 °C 90 % 1028,8 hPa 0,0 mm 0,0 km/h (0 Bft) N-NW 333 ° 0 min 0,000 mm 0,0 UV-I 0 W/m² -3,1 °C -1,7 °C 0,0 km/h (0 Bft)
18.12.2018 03:57 -1,7 °C 90 % 1028,9 hPa 0,0 mm 0,0 km/h (0 Bft) N-NW 333 ° 0 min 0,000 mm 0,0 UV-I 0 W/m² -3,1 °C -1,7 °C 0,0 km/h (0 Bft)
18.12.2018 03:58 -1,7 °C 90 % 1028,9 hPa 0,0 mm 0,0 km/h (0 Bft) N-NW 333 ° 0 min 0,000 mm 0,0 UV-I 0 W/m² -3,1 °C -1,7 °C 0,0 km/h (0 Bft)
18.12.2018 03:59 -1,7 °C 90 % 1028,8 hPa 0,0 mm 0,0 km/h (0 Bft) N-NW 333 ° 0 min 0,000 mm 0,0 UV-I 0 W/m² -3,1 °C -1,7 °C 0,0 km/h (0 Bft)
18.12.2018 04:00 -1,7 °C 90 % 1028,8 hPa 0,0 mm 0,0 km/h (0 Bft) N-NW 333 ° 0 min 0,000 mm 0,0 UV-I 0 W/m² -3,1 °C -1,7 °C 0,0 km/h (0 Bft)
18.12.2018 04:02 -1,8 °C 90 % 1028,8 hPa 0,0 mm 0,0 km/h (0 Bft) N-NW 333 ° 0 min 0,000 mm 0,0 UV-I 0 W/m² -3,2 °C -1,8 °C 0,0 km/h (0 Bft)
18.12.2018 04:03 -1,8 °C 90 % 1028,8 hPa 0,0 mm 0,0 km/h (0 Bft) N-NW 333 ° 0 min 0,000 mm 0,0 UV-I 0 W/m² -3,2 °C -1,8 °C 0,0 km/h (0 Bft)
18.12.2018 04:04 -1,8 °C 90 % 1028,8 hPa 0,0 mm 0,0 km/h (0 Bft) N-NW 333 ° 0 min 0,000 mm 0,0 UV-I 0 W/m² -3,2 °C -1,8 °C 0,0 km/h (0 Bft)
18.12.2018 04:05 -1,8 °C 90 % 1028,8 hPa 0,0 mm 0,0 km/h (0 Bft) N-NW 333 ° 0 min 0,000 mm 0,0 UV-I 0 W/m² -3,2 °C -1,8 °C 0,0 km/h (0 Bft)
18.12.2018 04:06 -1,8 °C 90 % 1028,7 hPa 0,0 mm 0,0 km/h (0 Bft) N-NW 333 ° 0 min 0,000 mm 0,0 UV-I 0 W/m² -3,2 °C -1,8 °C 0,0 km/h (0 Bft)
18.12.2018 04:07 -1,8 °C 90 % 1028,7 hPa 0,0 mm 0,0 km/h (0 Bft) N-NW 333 ° 0 min 0,000 mm 0,0 UV-I 0 W/m² -3,2 °C -1,8 °C 0,0 km/h (0 Bft)
18.12.2018 04:08 -1,8 °C 90 % 1028,7 hPa 0,0 mm 0,0 km/h (0 Bft) N-NW 333 ° 0 min 0,000 mm 0,0 UV-I 0 W/m² -3,2 °C -1,8 °C 0,0 km/h (0 Bft)
18.12.2018 04:09 -1,9 °C 90 % 1028,7 hPa 0,0 mm 0,0 km/h (0 Bft) N-NW 333 ° 0 min 0,000 mm 0,0 UV-I 0 W/m² -3,3 °C -1,9 °C 0,0 km/h (0 Bft)
18.12.2018 04:10 -1,9 °C 89 % 1028,7 hPa 0,0 mm 0,0 km/h (0 Bft) N-NW 333 ° 0 min 0,000 mm 0,0 UV-I 0 W/m² -3,5 °C -1,9 °C 0,0 km/h (0 Bft)
18.12.2018 04:11 -1,9 °C 89 % 1028,7 hPa 0,0 mm 0,0 km/h (0 Bft) N-NW 333 ° 0 min 0,000 mm 0,0 UV-I 0 W/m² -3,5 °C -1,9 °C 0,0 km/h (0 Bft)
18.12.2018 04:12 -1,9 °C 89 % 1028,7 hPa 0,0 mm 0,0 km/h (0 Bft) N-NW 333 ° 0 min 0,000 mm 0,0 UV-I 0 W/m² -3,5 °C -1,9 °C 0,0 km/h (0 Bft)
18.12.2018 04:13 -1,9 °C 89 % 1028,7 hPa 0,0 mm 0,0 km/h (0 Bft) N-NW 333 ° 0 min 0,000 mm 0,0 UV-I 0 W/m² -3,5 °C -1,9 °C 0,0 km/h (0 Bft)
18.12.2018 04:14 -2,0 °C 89 % 1028,7 hPa 0,0 mm 0,0 km/h (0 Bft) N-NW 333 ° 0 min 0,000 mm 0,0 UV-I 0 W/m² -3,6 °C -2,0 °C 0,0 km/h (0 Bft)
18.12.2018 04:15 -2,0 °C 89 % 1028,6 hPa 0,0 mm 0,0 km/h (0 Bft) N-NW 333 ° 0 min 0,000 mm 0,0 UV-I 0 W/m² -3,6 °C -2,0 °C 0,0 km/h (0 Bft)
18.12.2018 04:16 -2,1 °C 90 % 1028,7 hPa 0,0 mm 0,0 km/h (0 Bft) N-NW 333 ° 0 min 0,000 mm 0,0 UV-I 0 W/m² -3,5 °C -2,1 °C 0,0 km/h (0 Bft)
18.12.2018 04:17 -2,1 °C 90 % 1028,7 hPa 0,0 mm 0,0 km/h (0 Bft) N-NW 333 ° 0 min 0,000 mm 0,0 UV-I 0 W/m² -3,5 °C -2,1 °C 0,0 km/h (0 Bft)
18.12.2018 04:18 -2,1 °C 89 % 1028,7 hPa 0,0 mm 0,0 km/h (0 Bft) N-NW 333 ° 0 min 0,000 mm 0,0 UV-I 0 W/m² -3,7 °C -2,1 °C 0,0 km/h (0 Bft)
18.12.2018 04:19 -2,1 °C 89 % 1028,7 hPa 0,0 mm 0,0 km/h (0 Bft) N-NW 333 ° 0 min 0,000 mm 0,0 UV-I 0 W/m² -3,7 °C -2,1 °C 0,0 km/h (0 Bft)
18.12.2018 04:20 -2,1 °C 90 % 1028,7 hPa 0,0 mm 0,0 km/h (0 Bft) N-NW 333 ° 0 min 0,000 mm 0,0 UV-I 0 W/m² -3,5 °C -2,1 °C 0,0 km/h (0 Bft)
18.12.2018 04:21 -2,1 °C 90 % 1028,6 hPa 0,0 mm 0,0 km/h (0 Bft) N-NW 333 ° 0 min 0,000 mm 0,0 UV-I 0 W/m² -3,5 °C -2,1 °C 0,0 km/h (0 Bft)
18.12.2018 04:22 -2,2 °C 90 % 1028,6 hPa 0,0 mm 0,0 km/h (0 Bft) N-NW 333 ° 0 min 0,000 mm 0,0 UV-I 0 W/m² -3,6 °C -2,2 °C 0,0 km/h (0 Bft)
18.12.2018 04:23 -2,2 °C 90 % 1028,7 hPa 0,0 mm 0,0 km/h (0 Bft) N-NW 333 ° 0 min 0,000 mm 0,0 UV-I 0 W/m² -3,6 °C -2,2 °C 0,0 km/h (0 Bft)
18.12.2018 04:24 -2,2 °C 90 % 1028,6 hPa 0,0 mm 0,0 km/h (0 Bft) N-NW 333 ° 0 min 0,000 mm 0,0 UV-I 0 W/m² -3,6 °C -2,2 °C 0,0 km/h (0 Bft)
18.12.2018 04:25 -2,2 °C 89 % 1028,6 hPa 0,0 mm 0,0 km/h (0 Bft) N-NW 333 ° 0 min 0,000 mm 0,0 UV-I 0 W/m² -3,8 °C -2,2 °C 0,0 km/h (0 Bft)
18.12.2018 04:26 -2,2 °C 89 % 1028,6 hPa 0,0 mm 0,0 km/h (0 Bft) N-NW 333 ° 0 min 0,000 mm 0,0 UV-I 0 W/m² -3,8 °C -2,2 °C 0,0 km/h (0 Bft)
18.12.2018 04:27 -2,2 °C 89 % 1028,6 hPa 0,0 mm 0,0 km/h (0 Bft) N-NW 333 ° 0 min 0,000 mm 0,0 UV-I 0 W/m² -3,8 °C -2,2 °C 0,0 km/h (0 Bft)
18.12.2018 04:28 -2,2 °C 89 % 1028,6 hPa 0,0 mm 0,0 km/h (0 Bft) N-NW 333 ° 0 min 0,000 mm 0,0 UV-I 0 W/m² -3,8 °C -2,2 °C 0,0 km/h (0 Bft)
18.12.2018 04:29 -2,3 °C 89 % 1028,6 hPa 0,0 mm 0,0 km/h (0 Bft) N-NW 333 ° 0 min 0,000 mm 0,0 UV-I 0 W/m² -3,9 °C -2,3 °C 0,0 km/h (0 Bft)
18.12.2018 04:30 -2,3 °C 89 % 1028,6 hPa 0,0 mm 0,0 km/h (0 Bft) N-NW 333 ° 0 min 0,000 mm 0,0 UV-I 0 W/m² -3,9 °C -2,3 °C 0,0 km/h (0 Bft)
18.12.2018 04:31 -2,3 °C 89 % 1028,5 hPa 0,0 mm 0,0 km/h (0 Bft) N-NW 333 ° 0 min 0,000 mm 0,0 UV-I 0 W/m² -3,9 °C -2,3 °C 0,0 km/h (0 Bft)
18.12.2018 04:32 -2,3 °C 89 % 1028,5 hPa 0,0 mm 0,0 km/h (0 Bft) N-NW 333 ° 0 min 0,000 mm 0,0 UV-I 0 W/m² -3,9 °C -2,3 °C 0,0 km/h (0 Bft)
18.12.2018 04:33 -2,3 °C 89 % 1028,5 hPa 0,0 mm 0,0 km/h (0 Bft) N-NW 333 ° 0 min 0,000 mm 0,0 UV-I 0 W/m² -3,9 °C -2,3 °C 0,0 km/h (0 Bft)
18.12.2018 04:34 -2,3 °C 89 % 1028,4 hPa 0,0 mm 0,0 km/h (0 Bft) N-NW 333 ° 0 min 0,000 mm 0,0 UV-I 0 W/m² -3,9 °C -2,3 °C 0,0 km/h (0 Bft)
18.12.2018 04:35 -2,3 °C 89 % 1028,4 hPa 0,0 mm 0,0 km/h (0 Bft) N-NW 333 ° 0 min 0,000 mm 0,0 UV-I 0 W/m² -3,9 °C -2,3 °C 0,0 km/h (0 Bft)
18.12.2018 04:36 -2,3 °C 89 % 1028,4 hPa 0,0 mm 0,0 km/h (0 Bft) N-NW 333 ° 0 min 0,000 mm 0,0 UV-I 0 W/m² -3,9 °C -2,3 °C 0,0 km/h (0 Bft)
18.12.2018 04:37 -2,4 °C 90 % 1028,4 hPa 0,0 mm 0,0 km/h (0 Bft) N-NW 333 ° 0 min 0,000 mm 0,0 UV-I 0 W/m² -3,8 °C -2,4 °C 0,0 km/h (0 Bft)
18.12.2018 04:38 -2,4 °C 90 % 1028,4 hPa 0,0 mm 0,0 km/h (0 Bft) N-NW 333 ° 0 min 0,000 mm 0,0 UV-I 0 W/m² -3,8 °C -2,4 °C 0,0 km/h (0 Bft)
18.12.2018 04:39 -2,4 °C 90 % 1028,4 hPa 0,0 mm 0,0 km/h (0 Bft) N-NW 333 ° 0 min 0,000 mm 0,0 UV-I 0 W/m² -3,8 °C -2,4 °C 0,0 km/h (0 Bft)
18.12.2018 04:40 -2,4 °C 90 % 1028,4 hPa 0,0 mm 0,0 km/h (0 Bft) N-NW 333 ° 0 min 0,000 mm 0,0 UV-I 0 W/m² -3,8 °C -2,4 °C 0,0 km/h (0 Bft)
18.12.2018 04:41 -2,4 °C 90 % 1028,4 hPa 0,0 mm 0,0 km/h (0 Bft) N-NW 333 ° 0 min 0,000 mm 0,0 UV-I 0 W/m² -3,8 °C -2,4 °C 0,0 km/h (0 Bft)
18.12.2018 04:42 -2,4 °C 90 % 1028,4 hPa 0,0 mm 0,0 km/h (0 Bft) N-NW 333 ° 0 min 0,000 mm 0,0 UV-I 0 W/m² -3,8 °C -2,4 °C 0,0 km/h (0 Bft)
18.12.2018 04:43 -2,4 °C 89 % 1028,4 hPa 0,0 mm 0,0 km/h (0 Bft) N-NW 333 ° 0 min 0,000 mm 0,0 UV-I 0 W/m² -4,0 °C -2,4 °C 0,0 km/h (0 Bft)
18.12.2018 04:44 -2,4 °C 89 % 1028,4 hPa 0,0 mm 0,0 km/h (0 Bft) N-NW 333 ° 0 min 0,000 mm 0,0 UV-I 0 W/m² -4,0 °C -2,4 °C 0,0 km/h (0 Bft)
18.12.2018 04:45 -2,5 °C 90 % 1028,4 hPa 0,0 mm 0,0 km/h (0 Bft) N-NW 333 ° 0 min 0,000 mm 0,0 UV-I 0 W/m² -3,9 °C -2,5 °C 0,0 km/h (0 Bft)
18.12.2018 04:46 -2,5 °C 90 % 1028,4 hPa 0,0 mm 0,0 km/h (0 Bft) N-NW 333 ° 0 min 0,000 mm 0,0 UV-I 0 W/m² -3,9 °C -2,5 °C 0,0 km/h (0 Bft)
18.12.2018 04:47 -2,5 °C 90 % 1028,3 hPa 0,0 mm 0,0 km/h (0 Bft) N-NW 333 ° 0 min 0,000 mm 0,0 UV-I 0 W/m² -3,9 °C -2,5 °C 0,0 km/h (0 Bft)
18.12.2018 04:48 -2,5 °C 90 % 1028,3 hPa 0,0 mm 0,0 km/h (0 Bft) N-NW 333 ° 0 min 0,000 mm 0,0 UV-I 0 W/m² -3,9 °C -2,5 °C 0,0 km/h (0 Bft)
18.12.2018 04:49 -2,5 °C 90 % 1028,3 hPa 0,0 mm 0,0 km/h (0 Bft) N-NW 333 ° 0 min 0,000 mm 0,0 UV-I 0 W/m² -3,9 °C -2,5 °C 0,0 km/h (0 Bft)
18.12.2018 04:50 -2,5 °C 90 % 1028,3 hPa 0,0 mm 0,0 km/h (0 Bft) N-NW 333 ° 0 min 0,000 mm 0,0 UV-I 0 W/m² -3,9 °C -2,5 °C 0,0 km/h (0 Bft)
18.12.2018 04:51 -2,5 °C 90 % 1028,3 hPa 0,0 mm 0,0 km/h (0 Bft) N-NW 333 ° 0 min 0,000 mm 0,0 UV-I 0 W/m² -3,9 °C -2,5 °C 0,0 km/h (0 Bft)
18.12.2018 04:52 -2,6 °C 90 % 1028,3 hPa 0,0 mm 0,0 km/h (0 Bft) N-NW 333 ° 0 min 0,000 mm 0,0 UV-I 0 W/m² -4,0 °C -2,6 °C 0,0 km/h (0 Bft)
18.12.2018 04:53 -2,6 °C 90 % 1028,3 hPa 0,0 mm 0,0 km/h (0 Bft) N-NW 333 ° 0 min 0,000 mm 0,0 UV-I 0 W/m² -4,0 °C -2,6 °C 0,0 km/h (0 Bft)
18.12.2018 04:54 -2,6 °C 90 % 1028,3 hPa 0,0 mm 0,0 km/h (0 Bft) N-NW 333 ° 0 min 0,000 mm 0,0 UV-I 0 W/m² -4,0 °C -2,6 °C 0,0 km/h (0 Bft)
18.12.2018 04:55 -2,6 °C 90 % 1028,2 hPa 0,0 mm 0,0 km/h (0 Bft) N-NW 333 ° 0 min 0,000 mm 0,0 UV-I 0 W/m² -4,0 °C -2,6 °C 0,0 km/h (0 Bft)
18.12.2018 04:56 -2,6 °C 90 % 1028,2 hPa 0,0 mm 0,0 km/h (0 Bft) N-NW 333 ° 0 min 0,000 mm 0,0 UV-I 0 W/m² -4,0 °C -2,6 °C 0,0 km/h (0 Bft)
18.12.2018 04:57 -2,6 °C 90 % 1028,2 hPa 0,0 mm 0,0 km/h (0 Bft) N-NW 333 ° 0 min 0,000 mm 0,0 UV-I 0 W/m² -4,0 °C -2,6 °C 0,0 km/h (0 Bft)
18.12.2018 04:58 -2,6 °C 90 % 1028,2 hPa 0,0 mm 0,0 km/h (0 Bft) N-NW 333 ° 0 min 0,000 mm 0,0 UV-I 0 W/m² -4,0 °C -2,6 °C 0,0 km/h (0 Bft)
18.12.2018 04:59 -2,6 °C 90 % 1028,2 hPa 0,0 mm 0,0 km/h (0 Bft) N-NW 333 ° 0 min 0,000 mm 0,0 UV-I 0 W/m² -4,0 °C -2,6 °C 0,0 km/h (0 Bft)
18.12.2018 05:00 -2,6 °C 90 % 1028,2 hPa 0,0 mm 0,0 km/h (0 Bft) N-NW 333 ° 0 min 0,000 mm 0,0 UV-I 0 W/m² -4,0 °C -2,6 °C 0,0 km/h (0 Bft)
18.12.2018 05:01 -2,6 °C 90 % 1028,2 hPa 0,0 mm 0,0 km/h (0 Bft) N-NW 333 ° 0 min 0,000 mm 0,0 UV-I 0 W/m² -4,0 °C -2,6 °C 0,0 km/h (0 Bft)
18.12.2018 05:02 -2,6 °C 90 % 1028,2 hPa 0,0 mm 0,0 km/h (0 Bft) N-NW 333 ° 0 min 0,000 mm 0,0 UV-I 0 W/m² -4,0 °C -2,6 °C 0,0 km/h (0 Bft)
18.12.2018 05:03 -2,6 °C 90 % 1028,2 hPa 0,0 mm 0,0 km/h (0 Bft) N-NW 333 ° 0 min 0,000 mm 0,0 UV-I 0 W/m² -4,0 °C -2,6 °C 0,0 km/h (0 Bft)
18.12.2018 05:04 -2,6 °C 90 % 1028,2 hPa 0,0 mm 0,0 km/h (0 Bft) N-NW 333 ° 0 min 0,000 mm 0,0 UV-I 0 W/m² -4,0 °C -2,6 °C 0,0 km/h (0 Bft)
18.12.2018 05:05 -2,6 °C 90 % 1028,2 hPa 0,0 mm 0,0 km/h (0 Bft) N-NW 333 ° 0 min 0,000 mm 0,0 UV-I 0 W/m² -4,0 °C -2,6 °C 0,0 km/h (0 Bft)
18.12.2018 05:06 -2,6 °C 90 % 1028,2 hPa 0,0 mm 0,0 km/h (0 Bft) N-NW 333 ° 0 min 0,000 mm 0,0 UV-I 0 W/m² -4,0 °C -2,6 °C 0,0 km/h (0 Bft)
18.12.2018 05:07 -2,6 °C 90 % 1028,1 hPa 0,0 mm 0,0 km/h (0 Bft) N-NW 333 ° 0 min 0,000 mm 0,0 UV-I 0 W/m² -4,0 °C -2,6 °C 0,0 km/h (0 Bft)
18.12.2018 05:08 -2,6 °C 90 % 1028,1 hPa 0,0 mm 0,0 km/h (0 Bft) N-NW 333 ° 0 min 0,000 mm 0,0 UV-I 0 W/m² -4,0 °C -2,6 °C 0,0 km/h (0 Bft)
18.12.2018 05:09 -2,6 °C 90 % 1028,1 hPa 0,0 mm 0,0 km/h (0 Bft) N-NW 333 ° 0 min 0,000 mm 0,0 UV-I 0 W/m² -4,0 °C -2,6 °C 0,0 km/h (0 Bft)
18.12.2018 05:10 -2,6 °C 90 % 1028,2 hPa 0,0 mm 0,0 km/h (0 Bft) N-NW 333 ° 0 min 0,000 mm 0,0 UV-I 0 W/m² -4,0 °C -2,6 °C 0,0 km/h (0 Bft)
18.12.2018 05:11 -2,6 °C 90 % 1028,2 hPa 0,0 mm 0,0 km/h (0 Bft) N-NW 333 ° 0 min 0,000 mm 0,0 UV-I 0 W/m² -4,0 °C -2,6 °C 0,0 km/h (0 Bft)
18.12.2018 05:12 -2,6 °C 90 % 1028,1 hPa 0,0 mm 0,0 km/h (0 Bft) N-NW 333 ° 0 min 0,000 mm 0,0 UV-I 0 W/m² -4,0 °C -2,6 °C 0,0 km/h (0 Bft)
18.12.2018 05:13 -2,6 °C 90 % 1028,1 hPa 0,0 mm 0,0 km/h (0 Bft) N-NW 333 ° 0 min 0,000 mm 0,0 UV-I 0 W/m² -4,0 °C -2,6 °C 0,0 km/h (0 Bft)
18.12.2018 05:14 -2,6 °C 90 % 1028,1 hPa 0,0 mm 0,0 km/h (0 Bft) N-NW 333 ° 0 min 0,000 mm 0,0 UV-I 0 W/m² -4,0 °C -2,6 °C 0,0 km/h (0 Bft)
18.12.2018 05:15 -2,6 °C 90 % 1028,1 hPa 0,0 mm 0,0 km/h (0 Bft) N-NW 333 ° 0 min 0,000 mm 0,0 UV-I 0 W/m² -4,0 °C -2,6 °C 0,0 km/h (0 Bft)
18.12.2018 05:16 -2,6 °C 90 % 1028,1 hPa 0,0 mm 0,0 km/h (0 Bft) N-NW 333 ° 0 min 0,000 mm 0,0 UV-I 0 W/m² -4,0 °C -2,6 °C 0,0 km/h (0 Bft)
18.12.2018 05:17 -2,6 °C 90 % 1028,1 hPa 0,0 mm 0,0 km/h (0 Bft) N-NW 333 ° 0 min 0,000 mm 0,0 UV-I 0 W/m² -4,0 °C -2,6 °C 0,0 km/h (0 Bft)
18.12.2018 05:18 -2,7 °C 90 % 1028,0 hPa 0,0 mm 0,0 km/h (0 Bft) N-NW 333 ° 0 min 0,000 mm 0,0 UV-I 0 W/m² -4,1 °C -2,7 °C 0,0 km/h (0 Bft)
18.12.2018 05:19 -2,7 °C 90 % 1028,0 hPa 0,0 mm 0,0 km/h (0 Bft) N-NW 333 ° 0 min 0,000 mm 0,0 UV-I 0 W/m² -4,1 °C -2,7 °C 0,0 km/h (0 Bft)
18.12.2018 05:20 -2,7 °C 90 % 1028,0 hPa 0,0 mm 0,8 km/h (0 Bft) O-SO 117 ° 0 min 0,000 mm 0,0 UV-I 0 W/m² -4,1 °C -2,7 °C 3,2 km/h (1 Bft)
18.12.2018 05:21 -2,7 °C 90 % 1028,1 hPa 0,0 mm 1,0 km/h (0 Bft) O-SO 123 ° 0 min 0,000 mm 0,0 UV-I 0 W/m² -4,1 °C -2,7 °C 3,2 km/h (1 Bft)
18.12.2018 05:22 -2,7 °C 90 % 1028,1 hPa 0,0 mm 1,5 km/h (1 Bft) SO 132 ° 0 min 0,000 mm 0,0 UV-I 0 W/m² -4,1 °C -2,7 °C 3,2 km/h (1 Bft)
18.12.2018 05:23 -2,7 °C 90 % 1028,1 hPa 0,0 mm 0,1 km/h (0 Bft) SO 132 ° 0 min 0,000 mm 0,0 UV-I 0 W/m² -4,1 °C -2,7 °C 1,6 km/h (1 Bft)
18.12.2018 05:24 -2,7 °C 90 % 1028,1 hPa 0,0 mm 0,0 km/h (0 Bft) SO 132 ° 0 min 0,000 mm 0,0 UV-I 0 W/m² -4,1 °C -2,7 °C 0,0 km/h (0 Bft)
18.12.2018 05:25 -2,7 °C 90 % 1028,1 hPa 0,0 mm 0,0 km/h (0 Bft) SO 132 ° 0 min 0,000 mm 0,0 UV-I 0 W/m² -4,1 °C -2,7 °C 0,0 km/h (0 Bft)
18.12.2018 05:26 -2,7 °C 90 % 1028,1 hPa 0,0 mm 0,0 km/h (0 Bft) SO 132 ° 0 min 0,000 mm 0,0 UV-I 0 W/m² -4,1 °C -2,7 °C 0,0 km/h (0 Bft)
18.12.2018 05:27 -2,7 °C 90 % 1028,1 hPa 0,0 mm 0,0 km/h (0 Bft) SO 132 ° 0 min 0,000 mm 0,0 UV-I 0 W/m² -4,1 °C -2,7 °C 0,0 km/h (0 Bft)
18.12.2018 05:28 -2,7 °C 90 % 1028,1 hPa 0,0 mm 0,3 km/h (0 Bft) O-NO 67 ° 0 min 0,000 mm 0,0 UV-I 0 W/m² -4,1 °C -2,7 °C 3,2 km/h (1 Bft)
18.12.2018 05:29 -2,7 °C 90 % 1028,2 hPa 0,0 mm 0,0 km/h (0 Bft) O-NO 67 ° 0 min 0,000 mm 0,0 UV-I 0 W/m² -4,1 °C -2,7 °C 0,0 km/h (0 Bft)
18.12.2018 05:30 -2,7 °C 90 % 1028,1 hPa 0,0 mm 0,0 km/h (0 Bft) O-NO 67 ° 0 min 0,000 mm 0,0 UV-I 0 W/m² -4,1 °C -2,7 °C 0,0 km/h (0 Bft)
18.12.2018 05:31 -2,7 °C 90 % 1028,2 hPa 0,0 mm 0,0 km/h (0 Bft) O-NO 67 ° 0 min 0,000 mm 0,0 UV-I 0 W/m² -4,1 °C -2,7 °C 0,0 km/h (0 Bft)
18.12.2018 05:32 -2,7 °C 90 % 1028,1 hPa 0,0 mm 0,0 km/h (0 Bft) O-NO 67 ° 0 min 0,000 mm 0,0 UV-I 0 W/m² -4,1 °C -2,7 °C 0,0 km/h (0 Bft)
18.12.2018 05:33 -2,7 °C 90 % 1028,1 hPa 0,0 mm 0,0 km/h (0 Bft) O-NO 67 ° 0 min 0,000 mm 0,0 UV-I 0 W/m² -4,1 °C -2,7 °C 0,0 km/h (0 Bft)
18.12.2018 05:34 -2,7 °C 90 % 1028,1 hPa 0,0 mm 0,0 km/h (0 Bft) O-NO 67 ° 0 min 0,000 mm 0,0 UV-I 0 W/m² -4,1 °C -2,7 °C 0,0 km/h (0 Bft)
18.12.2018 05:35 -2,7 °C 90 % 1028,1 hPa 0,0 mm 0,0 km/h (0 Bft) O-NO 67 ° 0 min 0,000 mm 0,0 UV-I 0 W/m² -4,1 °C -2,7 °C 0,0 km/h (0 Bft)
18.12.2018 05:36 -2,7 °C 90 % 1028,1 hPa 0,0 mm 0,0 km/h (0 Bft) O-NO 67 ° 0 min 0,000 mm 0,0 UV-I 0 W/m² -4,1 °C -2,7 °C 0,0 km/h (0 Bft)
18.12.2018 05:37 -2,7 °C 90 % 1028,1 hPa 0,0 mm 0,0 km/h (0 Bft) O-NO 67 ° 0 min 0,000 mm 0,0 UV-I 0 W/m² -4,1 °C -2,7 °C 0,0 km/h (0 Bft)
18.12.2018 05:38 -2,7 °C 90 % 1028,1 hPa 0,0 mm 0,0 km/h (0 Bft) O-NO 67 ° 0 min 0,000 mm 0,0 UV-I 0 W/m² -4,1 °C -2,7 °C 0,0 km/h (0 Bft)
18.12.2018 05:39 -2,7 °C 90 % 1028,1 hPa 0,0 mm 0,0 km/h (0 Bft) O-NO 67 ° 0 min 0,000 mm 0,0 UV-I 0 W/m² -4,1 °C -2,7 °C 0,0 km/h (0 Bft)
18.12.2018 05:40 -2,7 °C 90 % 1028,1 hPa 0,0 mm 0,3 km/h (0 Bft) W-SW 245 ° 0 min 0,000 mm 0,0 UV-I 0 W/m² -4,1 °C -2,7 °C 4,8 km/h (1 Bft)
18.12.2018 05:41 -2,8 °C 90 % 1028,1 hPa 0,0 mm 0,5 km/h (0 Bft) W-SW 244 ° 0 min 0,000 mm 0,0 UV-I 0 W/m² -4,2 °C -2,8 °C 1,6 km/h (1 Bft)
18.12.2018 05:42 -2,7 °C 90 % 1028,1 hPa 0,0 mm 0,0 km/h (0 Bft) W-SW 244 ° 0 min 0,000 mm 0,0 UV-I 0 W/m² -4,1 °C -2,7 °C 0,0 km/h (0 Bft)
18.12.2018 05:43 -2,7 °C 90 % 1028,1 hPa 0,0 mm 0,0 km/h (0 Bft) W-SW 244 ° 0 min 0,000 mm 0,0 UV-I 0 W/m² -4,1 °C -2,7 °C 0,0 km/h (0 Bft)
18.12.2018 05:44 -2,7 °C 90 % 1028,1 hPa 0,0 mm 0,0 km/h (0 Bft) W-SW 244 ° 0 min 0,000 mm 0,0 UV-I 0 W/m² -4,1 °C -2,7 °C 0,0 km/h (0 Bft)
18.12.2018 05:45 -2,8 °C 90 % 1028,1 hPa 0,0 mm 0,0 km/h (0 Bft) W-SW 244 ° 0 min 0,000 mm 0,0 UV-I 0 W/m² -4,2 °C -2,8 °C 0,0 km/h (0 Bft)
18.12.2018 05:46 -2,8 °C 90 % 1028,1 hPa 0,0 mm 0,0 km/h (0 Bft) W-SW 244 ° 0 min 0,000 mm 0,0 UV-I 0 W/m² -4,2 °C -2,8 °C 0,0 km/h (0 Bft)
18.12.2018 05:47 -2,8 °C 90 % 1028,1 hPa 0,0 mm 0,0 km/h (0 Bft) W-SW 244 ° 0 min 0,000 mm 0,0 UV-I 0 W/m² -4,2 °C -2,8 °C 0,0 km/h (0 Bft)
18.12.2018 05:48 -2,8 °C 90 % 1028,1 hPa 0,0 mm 0,0 km/h (0 Bft) W-SW 244 ° 0 min 0,000 mm 0,0 UV-I 0 W/m² -4,2 °C -2,8 °C 0,0 km/h (0 Bft)
18.12.2018 05:49 -2,8 °C 90 % 1028,1 hPa 0,0 mm 0,0 km/h (0 Bft) W-SW 244 ° 0 min 0,000 mm 0,0 UV-I 0 W/m² -4,2 °C -2,8 °C 0,0 km/h (0 Bft)
18.12.2018 05:50 -2,8 °C 90 % 1028,1 hPa 0,0 mm 0,0 km/h (0 Bft) W-SW 244 ° 0 min 0,000 mm 0,0 UV-I 0 W/m² -4,2 °C -2,8 °C 0,0 km/h (0 Bft)
18.12.2018 05:51 -2,8 °C 90 % 1028,1 hPa 0,0 mm 0,0 km/h (0 Bft) W-SW 244 ° 0 min 0,000 mm 0,0 UV-I 0 W/m² -4,2 °C -2,8 °C 0,0 km/h (0 Bft)
18.12.2018 05:52 -2,8 °C 90 % 1028,2 hPa 0,0 mm 0,0 km/h (0 Bft) W-SW 244 ° 0 min 0,000 mm 0,0 UV-I 0 W/m² -4,2 °C -2,8 °C 0,0 km/h (0 Bft)
18.12.2018 05:53 -2,8 °C 90 % 1028,1 hPa 0,0 mm 0,0 km/h (0 Bft) W-SW 244 ° 0 min 0,000 mm 0,0 UV-I 0 W/m² -4,2 °C -2,8 °C 0,0 km/h (0 Bft)
18.12.2018 05:54 -2,8 °C 90 % 1028,2 hPa 0,0 mm 0,0 km/h (0 Bft) W-SW 244 ° 0 min 0,000 mm 0,0 UV-I 0 W/m² -4,2 °C -2,8 °C 0,0 km/h (0 Bft)
18.12.2018 05:55 -2,8 °C 90 % 1028,2 hPa 0,0 mm 0,0 km/h (0 Bft) W-SW 244 ° 0 min 0,000 mm 0,0 UV-I 0 W/m² -4,2 °C -2,8 °C 0,0 km/h (0 Bft)
18.12.2018 05:56 -2,8 °C 90 % 1028,2 hPa 0,0 mm 0,0 km/h (0 Bft) W-SW 244 ° 0 min 0,000 mm 0,0 UV-I 0 W/m² -4,2 °C -2,8 °C 0,0 km/h (0 Bft)
18.12.2018 05:57 -2,8 °C 90 % 1028,2 hPa 0,0 mm 0,0 km/h (0 Bft) W-SW 245 ° 0 min 0,000 mm 0,0 UV-I 0 W/m² -4,2 °C -2,8 °C 0,0 km/h (0 Bft)
18.12.2018 05:58 -2,8 °C 90 % 1028,2 hPa 0,0 mm 0,0 km/h (0 Bft) W-SW 245 ° 0 min 0,000 mm 0,0 UV-I 0 W/m² -4,2 °C -2,8 °C 0,0 km/h (0 Bft)
18.12.2018 05:59 -2,8 °C 90 % 1028,3 hPa 0,0 mm 0,0 km/h (0 Bft) W-SW 245 ° 0 min 0,000 mm 0,0 UV-I 0 W/m² -4,2 °C -2,8 °C 0,0 km/h (0 Bft)
18.12.2018 06:00 -2,8 °C 90 % 1028,2 hPa 0,0 mm 0,0 km/h (0 Bft) W-SW 245 ° 0 min 0,000 mm 0,0 UV-I 0 W/m² -4,2 °C -2,8 °C 0,0 km/h (0 Bft)
18.12.2018 06:01 -2,8 °C 90 % 1028,2 hPa 0,0 mm 0,0 km/h (0 Bft) W-SW 245 ° 0 min 0,000 mm 0,0 UV-I 0 W/m² -4,2 °C -2,8 °C 0,0 km/h (0 Bft)
18.12.2018 06:02 -2,8 °C 90 % 1028,2 hPa 0,0 mm 0,0 km/h (0 Bft) W-SW 245 ° 0 min 0,000 mm 0,0 UV-I 0 W/m² -4,2 °C -2,8 °C 0,0 km/h (0 Bft)
18.12.2018 06:03 -2,8 °C 90 % 1028,1 hPa 0,0 mm 0,0 km/h (0 Bft) W-SW 245 ° 0 min 0,000 mm 0,0 UV-I 0 W/m² -4,2 °C -2,8 °C 0,0 km/h (0 Bft)
18.12.2018 06:04 -2,8 °C 90 % 1028,2 hPa 0,0 mm 0,0 km/h (0 Bft) W-SW 245 ° 0 min 0,000 mm 0,0 UV-I 0 W/m² -4,2 °C -2,8 °C 0,0 km/h (0 Bft)
18.12.2018 06:05 -2,9 °C 90 % 1028,1 hPa 0,0 mm 0,0 km/h (0 Bft) W-SW 245 ° 0 min 0,000 mm 0,0 UV-I 0 W/m² -4,3 °C -2,9 °C 0,0 km/h (0 Bft)
18.12.2018 06:06 -2,9 °C 90 % 1028,1 hPa 0,0 mm 0,0 km/h (0 Bft) W-SW 245 ° 0 min 0,000 mm 0,0 UV-I 0 W/m² -4,3 °C -2,9 °C 0,0 km/h (0 Bft)
18.12.2018 06:07 -2,8 °C 90 % 1028,1 hPa 0,0 mm 0,0 km/h (0 Bft) W-SW 245 ° 0 min 0,000 mm 0,0 UV-I 0 W/m² -4,2 °C -2,8 °C 0,0 km/h (0 Bft)
18.12.2018 06:08 -2,9 °C 90 % 1028,1 hPa 0,0 mm 0,0 km/h (0 Bft) W-SW 245 ° 0 min 0,000 mm 0,0 UV-I 0 W/m² -4,3 °C -2,9 °C 0,0 km/h (0 Bft)
18.12.2018 06:09 -2,9 °C 90 % 1028,1 hPa 0,0 mm 0,0 km/h (0 Bft) W-SW 245 ° 0 min 0,000 mm 0,0 UV-I 0 W/m² -4,3 °C -2,9 °C 0,0 km/h (0 Bft)
18.12.2018 06:10 -2,9 °C 90 % 1028,1 hPa 0,0 mm 0,0 km/h (0 Bft) W-SW 245 ° 0 min 0,000 mm 0,0 UV-I 0 W/m² -4,3 °C -2,9 °C 0,0 km/h (0 Bft)
18.12.2018 06:11 -2,9 °C 90 % 1028,2 hPa 0,0 mm 0,0 km/h (0 Bft) W-SW 245 ° 0 min 0,000 mm 0,0 UV-I 0 W/m² -4,3 °C -2,9 °C 0,0 km/h (0 Bft)
18.12.2018 06:12 -2,9 °C 90 % 1028,2 hPa 0,0 mm 0,5 km/h (0 Bft) W-SW 246 ° 0 min 0,000 mm 0,0 UV-I 0 W/m² -4,3 °C -2,9 °C 3,2 km/h (1 Bft)
18.12.2018 06:13 -2,9 °C 89 % 1028,2 hPa 0,0 mm 1,2 km/h (1 Bft) S 186 ° 0 min 0,000 mm 0,0 UV-I 0 W/m² -4,5 °C -2,9 °C 3,2 km/h (1 Bft)
18.12.2018 06:14 -2,9 °C 89 % 1028,2 hPa 0,0 mm 0,8 km/h (0 Bft) S 186 ° 0 min 0,000 mm 0,0 UV-I 0 W/m² -4,5 °C -2,9 °C 3,2 km/h (1 Bft)
18.12.2018 06:15 -2,9 °C 89 % 1028,2 hPa 0,0 mm 0,0 km/h (0 Bft) S 186 ° 0 min 0,000 mm 0,0 UV-I 0 W/m² -4,5 °C -2,9 °C 0,0 km/h (0 Bft)
18.12.2018 06:16 -2,9 °C 89 % 1028,2 hPa 0,0 mm 0,0 km/h (0 Bft) S 186 ° 0 min 0,000 mm 0,0 UV-I 0 W/m² -4,5 °C -2,9 °C 0,0 km/h (0 Bft)
18.12.2018 06:17 -2,9 °C 89 % 1028,1 hPa 0,0 mm 0,0 km/h (0 Bft) S 186 ° 0 min 0,000 mm 0,0 UV-I 0 W/m² -4,5 °C -2,9 °C 0,0 km/h (0 Bft)
18.12.2018 06:18 -2,9 °C 89 % 1028,1 hPa 0,0 mm 0,0 km/h (0 Bft) S 186 ° 0 min 0,000 mm 0,0 UV-I 0 W/m² -4,5 °C -2,9 °C 0,0 km/h (0 Bft)
18.12.2018 06:19 -2,9 °C 89 % 1028,1 hPa 0,0 mm 0,0 km/h (0 Bft) S 186 ° 0 min 0,000 mm 0,0 UV-I 0 W/m² -4,5 °C -2,9 °C 0,0 km/h (0 Bft)
18.12.2018 06:20 -3,0 °C 89 % 1028,0 hPa 0,0 mm 0,0 km/h (0 Bft) S 186 ° 0 min 0,000 mm 0,0 UV-I 0 W/m² -4,6 °C -3,0 °C 0,0 km/h (0 Bft)
18.12.2018 06:21 -3,0 °C 89 % 1028,0 hPa 0,0 mm 0,0 km/h (0 Bft) S 186 ° 0 min 0,000 mm 0,0 UV-I 0 W/m² -4,6 °C -3,0 °C 0,0 km/h (0 Bft)
18.12.2018 06:22 -3,1 °C 89 % 1028,0 hPa 0,0 mm 0,0 km/h (0 Bft) S 186 ° 0 min 0,000 mm 0,0 UV-I 0 W/m² -4,6 °C -3,1 °C 0,0 km/h (0 Bft)
18.12.2018 06:23 -3,1 °C 89 % 1028,0 hPa 0,0 mm 0,0 km/h (0 Bft) S 186 ° 0 min 0,000 mm 0,0 UV-I 0 W/m² -4,6 °C -3,1 °C 0,0 km/h (0 Bft)
18.12.2018 06:24 -3,1 °C 89 % 1028,0 hPa 0,0 mm 0,0 km/h (0 Bft) S 186 ° 0 min 0,000 mm 0,0 UV-I 0 W/m² -4,6 °C -3,1 °C 0,0 km/h (0 Bft)
18.12.2018 06:25 -3,1 °C 89 % 1028,0 hPa 0,0 mm 0,0 km/h (0 Bft) S 186 ° 0 min 0,000 mm 0,0 UV-I 0 W/m² -4,6 °C -3,1 °C 0,0 km/h (0 Bft)
18.12.2018 06:26 -3,1 °C 89 % 1028,0 hPa 0,0 mm 0,0 km/h (0 Bft) S 186 ° 0 min 0,000 mm 0,0 UV-I 0 W/m² -4,6 °C -3,1 °C 0,0 km/h (0 Bft)
18.12.2018 06:27 -3,1 °C 89 % 1028,0 hPa 0,0 mm 0,3 km/h (0 Bft) S-SW 206 ° 0 min 0,000 mm 0,0 UV-I 0 W/m² -4,6 °C -3,1 °C 1,6 km/h (1 Bft)
18.12.2018 06:28 -3,1 °C 89 % 1028,0 hPa 0,0 mm 0,0 km/h (0 Bft) S-SW 206 ° 0 min 0,000 mm 0,0 UV-I 0 W/m² -4,6 °C -3,1 °C 0,0 km/h (0 Bft)
18.12.2018 06:29 -3,1 °C 89 % 1028,1 hPa 0,0 mm 0,0 km/h (0 Bft) S-SW 206 ° 0 min 0,000 mm 0,0 UV-I 0 W/m² -4,6 °C -3,1 °C 0,0 km/h (0 Bft)
18.12.2018 06:30 -3,1 °C 89 % 1028,1 hPa 0,0 mm 0,0 km/h (0 Bft) S-SW 206 ° 0 min 0,000 mm 0,0 UV-I 0 W/m² -4,6 °C -3,1 °C 0,0 km/h (0 Bft)
18.12.2018 06:31 -3,2 °C 89 % 1028,1 hPa 0,0 mm 0,0 km/h (0 Bft) S-SW 206 ° 0 min 0,000 mm 0,0 UV-I 0 W/m² -4,7 °C -3,2 °C 0,0 km/h (0 Bft)
18.12.2018 06:32 -3,2 °C 89 % 1028,2 hPa 0,0 mm 0,0 km/h (0 Bft) S-SW 206 ° 0 min 0,000 mm 0,0 UV-I 0 W/m² -4,7 °C -3,2 °C 0,0 km/h (0 Bft)
18.12.2018 06:33 -3,2 °C 89 % 1028,1 hPa 0,0 mm 0,0 km/h (0 Bft) S-SW 206 ° 0 min 0,000 mm 0,0 UV-I 0 W/m² -4,7 °C -3,2 °C 0,0 km/h (0 Bft)
18.12.2018 06:34 -3,2 °C 89 % 1028,1 hPa 0,0 mm 0,0 km/h (0 Bft) S-SW 206 ° 0 min 0,000 mm 0,0 UV-I 0 W/m² -4,7 °C -3,2 °C 0,0 km/h (0 Bft)
18.12.2018 06:35 -3,2 °C 90 % 1028,2 hPa 0,0 mm 0,0 km/h (0 Bft) S-SW 206 ° 0 min 0,000 mm 0,0 UV-I 0 W/m² -4,6 °C -3,2 °C 0,0 km/h (0 Bft)
18.12.2018 06:36 -3,2 °C 89 % 1028,2 hPa 0,0 mm 0,0 km/h (0 Bft) S-SW 206 ° 0 min 0,000 mm 0,0 UV-I 0 W/m² -4,7 °C -3,2 °C 0,0 km/h (0 Bft)
18.12.2018 06:37 -3,2 °C 89 % 1028,2 hPa 0,0 mm 0,0 km/h (0 Bft) S-SW 206 ° 0 min 0,000 mm 0,0 UV-I 0 W/m² -4,7 °C -3,2 °C 0,0 km/h (0 Bft)
18.12.2018 06:38 -3,2 °C 89 % 1028,2 hPa 0,0 mm 0,5 km/h (0 Bft) S-SW 206 ° 0 min 0,000 mm 0,0 UV-I 0 W/m² -4,7 °C -3,2 °C 1,6 km/h (1 Bft)
18.12.2018 06:39 -3,2 °C 89 % 1028,1 hPa 0,0 mm 0,1 km/h (0 Bft) S-SW 206 ° 0 min 0,000 mm 0,0 UV-I 0 W/m² -4,7 °C -3,2 °C 1,6 km/h (1 Bft)
18.12.2018 06:40 -3,2 °C 89 % 1028,1 hPa 0,0 mm 0,0 km/h (0 Bft) S-SW 206 ° 0 min 0,000 mm 0,0 UV-I 0 W/m² -4,7 °C -3,2 °C 0,0 km/h (0 Bft)
18.12.2018 06:41 -3,2 °C 89 % 1028,1 hPa 0,0 mm 0,0 km/h (0 Bft) S-SW 206 ° 0 min 0,000 mm 0,0 UV-I 0 W/m² -4,7 °C -3,2 °C 0,0 km/h (0 Bft)
18.12.2018 06:42 -3,2 °C 89 % 1028,1 hPa 0,0 mm 0,0 km/h (0 Bft) S-SW 206 ° 0 min 0,000 mm 0,0 UV-I 0 W/m² -4,7 °C -3,2 °C 0,0 km/h (0 Bft)
18.12.2018 06:43 -3,2 °C 90 % 1028,1 hPa 0,0 mm 0,0 km/h (0 Bft) S-SW 206 ° 0 min 0,000 mm 0,0 UV-I 0 W/m² -4,6 °C -3,2 °C 0,0 km/h (0 Bft)
18.12.2018 06:44 -3,2 °C 90 % 1028,1 hPa 0,0 mm 0,0 km/h (0 Bft) S-SW 206 ° 0 min 0,000 mm 0,0 UV-I 0 W/m² -4,6 °C -3,2 °C 0,0 km/h (0 Bft)
18.12.2018 06:45 -3,2 °C 90 % 1028,1 hPa 0,0 mm 0,0 km/h (0 Bft) S-SW 206 ° 0 min 0,000 mm 0,0 UV-I 0 W/m² -4,6 °C -3,2 °C 0,0 km/h (0 Bft)
18.12.2018 06:46 -3,2 °C 90 % 1028,1 hPa 0,0 mm 0,0 km/h (0 Bft) S-SW 206 ° 0 min 0,000 mm 0,0 UV-I 0 W/m² -4,6 °C -3,2 °C 0,0 km/h (0 Bft)
18.12.2018 06:47 -3,2 °C 90 % 1028,1 hPa 0,0 mm 1,2 km/h (1 Bft) N-NW 342 ° 0 min 0,000 mm 0,0 UV-I 0 W/m² -4,6 °C -3,2 °C 3,2 km/h (1 Bft)
18.12.2018 06:48 -3,2 °C 90 % 1028,0 hPa 0,0 mm 0,2 km/h (0 Bft) N-NW 342 ° 0 min 0,000 mm 0,0 UV-I 0 W/m² -4,6 °C -3,2 °C 1,6 km/h (1 Bft)
18.12.2018 06:49 -3,2 °C 90 % 1028,0 hPa 0,0 mm 0,0 km/h (0 Bft) N-NW 342 ° 0 min 0,000 mm 0,0 UV-I 0 W/m² -4,6 °C -3,2 °C 0,0 km/h (0 Bft)
18.12.2018 06:50 -3,2 °C 90 % 1028,1 hPa 0,0 mm 0,0 km/h (0 Bft) N-NW 342 ° 0 min 0,000 mm 0,0 UV-I 0 W/m² -4,6 °C -3,2 °C 0,0 km/h (0 Bft)
18.12.2018 06:51 -3,2 °C 90 % 1028,0 hPa 0,0 mm 0,0 km/h (0 Bft) N-NW 342 ° 0 min 0,000 mm 0,0 UV-I 0 W/m² -4,6 °C -3,2 °C 0,0 km/h (0 Bft)
18.12.2018 06:52 -3,2 °C 90 % 1028,0 hPa 0,0 mm 0,0 km/h (0 Bft) N-NW 342 ° 0 min 0,000 mm 0,0 UV-I 0 W/m² -4,6 °C -3,2 °C 0,0 km/h (0 Bft)
18.12.2018 06:53 -3,2 °C 90 % 1028,1 hPa 0,0 mm 0,0 km/h (0 Bft) N-NW 342 ° 0 min 0,000 mm 0,0 UV-I 0 W/m² -4,6 °C -3,2 °C 0,0 km/h (0 Bft)
18.12.2018 06:54 -3,2 °C 90 % 1028,0 hPa 0,0 mm 0,0 km/h (0 Bft) N-NW 342 ° 0 min 0,000 mm 0,0 UV-I 0 W/m² -4,6 °C -3,2 °C 0,0 km/h (0 Bft)
18.12.2018 06:55 -3,2 °C 90 % 1028,0 hPa 0,0 mm 0,0 km/h (0 Bft) N-NW 342 ° 0 min 0,000 mm 0,0 UV-I 0 W/m² -4,6 °C -3,2 °C 0,0 km/h (0 Bft)
18.12.2018 06:56 -3,2 °C 90 % 1028,1 hPa 0,0 mm 0,0 km/h (0 Bft) N-NW 342 ° 0 min 0,000 mm 0,0 UV-I 0 W/m² -4,6 °C -3,2 °C 0,0 km/h (0 Bft)
18.12.2018 06:57 -3,2 °C 90 % 1028,0 hPa 0,0 mm 0,1 km/h (0 Bft) N-NW 342 ° 0 min 0,000 mm 0,0 UV-I 0 W/m² -4,6 °C -3,2 °C 1,6 km/h (1 Bft)
18.12.2018 06:58 -3,2 °C 90 % 1028,1 hPa 0,0 mm 0,0 km/h (0 Bft) N-NW 342 ° 0 min 0,000 mm 0,0 UV-I 0 W/m² -4,6 °C -3,2 °C 0,0 km/h (0 Bft)
18.12.2018 06:59 -3,2 °C 90 % 1028,1 hPa 0,0 mm 0,0 km/h (0 Bft) N-NW 342 ° 0 min 0,000 mm 0,0 UV-I 0 W/m² -4,6 °C -3,2 °C 0,0 km/h (0 Bft)
18.12.2018 07:00 -3,2 °C 90 % 1028,1 hPa 0,0 mm 0,7 km/h (0 Bft) N-NW 337 ° 0 min 0,000 mm 0,0 UV-I 0 W/m² -4,6 °C -3,2 °C 1,6 km/h (1 Bft)
18.12.2018 07:01 -3,2 °C 90 % 1028,1 hPa 0,0 mm 0,4 km/h (0 Bft) N-NW 337 ° 0 min 0,000 mm 0,0 UV-I 0 W/m² -4,6 °C -3,2 °C 1,6 km/h (1 Bft)
18.12.2018 07:02 -3,2 °C 90 % 1028,0 hPa 0,0 mm 1,5 km/h (1 Bft) N-NW 337 ° 0 min 0,000 mm 0,0 UV-I 0 W/m² -4,6 °C -3,2 °C 3,2 km/h (1 Bft)
18.12.2018 07:03 -3,1 °C 90 % 1028,0 hPa 0,0 mm 0,0 km/h (0 Bft) N-NW 337 ° 0 min 0,000 mm 0,0 UV-I 0 W/m² -4,5 °C -3,1 °C 0,0 km/h (0 Bft)
18.12.2018 07:04 -3,1 °C 90 % 1028,1 hPa 0,0 mm 0,0 km/h (0 Bft) N-NW 337 ° 0 min 0,000 mm 0,0 UV-I 0 W/m² -4,5 °C -3,1 °C 0,0 km/h (0 Bft)
18.12.2018 07:05 -3,1 °C 90 % 1028,0 hPa 0,0 mm 0,1 km/h (0 Bft) N-NW 337 ° 0 min 0,000 mm 0,0 UV-I 0 W/m² -4,5 °C -3,1 °C 1,6 km/h (1 Bft)
18.12.2018 07:06 -3,1 °C 90 % 1028,1 hPa 0,0 mm 0,4 km/h (0 Bft) N-NW 336 ° 0 min 0,000 mm 0,0 UV-I 0 W/m² -4,5 °C -3,1 °C 1,6 km/h (1 Bft)
18.12.2018 07:07 -3,1 °C 90 % 1028,1 hPa 0,0 mm 0,2 km/h (0 Bft) N-NW 337 ° 0 min 0,000 mm 0,0 UV-I 0 W/m² -4,5 °C -3,1 °C 1,6 km/h (1 Bft)
18.12.2018 07:08 -3,1 °C 90 % 1028,1 hPa 0,0 mm 0,0 km/h (0 Bft) N-NW 337 ° 0 min 0,000 mm 0,0 UV-I 0 W/m² -4,5 °C -3,1 °C 0,0 km/h (0 Bft)
18.12.2018 07:09 -3,1 °C 90 % 1028,1 hPa 0,0 mm 0,0 km/h (0 Bft) N-NW 337 ° 0 min 0,000 mm 0,0 UV-I 0 W/m² -4,5 °C -3,1 °C 0,0 km/h (0 Bft)
18.12.2018 07:10 -3,1 °C 90 % 1028,1 hPa 0,0 mm 0,0 km/h (0 Bft) N-NW 337 ° 0 min 0,000 mm 0,0 UV-I 0 W/m² -4,5 °C -3,1 °C 0,0 km/h (0 Bft)
18.12.2018 07:11 -3,1 °C 90 % 1028,2 hPa 0,0 mm 0,1 km/h (0 Bft) N-NW 337 ° 0 min 0,000 mm 0,0 UV-I 0 W/m² -4,5 °C -3,1 °C 1,6 km/h (1 Bft)
18.12.2018 07:12 -3,1 °C 90 % 1028,2 hPa 0,0 mm 0,1 km/h (0 Bft) N-NW 337 ° 0 min 0,000 mm 0,0 UV-I 0 W/m² -4,5 °C -3,1 °C 1,6 km/h (1 Bft)
18.12.2018 07:13 -3,1 °C 90 % 1028,1 hPa 0,0 mm 0,0 km/h (0 Bft) N-NW 337 ° 0 min 0,000 mm 0,0 UV-I 0 W/m² -4,5 °C -3,1 °C 0,0 km/h (0 Bft)
18.12.2018 07:14 -3,1 °C 90 % 1028,1 hPa 0,0 mm 0,0 km/h (0 Bft) N-NW 337 ° 0 min 0,000 mm 0,0 UV-I 0 W/m² -4,5 °C -3,1 °C 0,0 km/h (0 Bft)
18.12.2018 07:15 -3,1 °C 90 % 1028,1 hPa 0,0 mm 0,0 km/h (0 Bft) N-NW 337 ° 0 min 0,000 mm 0,0 UV-I 0 W/m² -4,5 °C -3,1 °C 0,0 km/h (0 Bft)
18.12.2018 07:16 -3,1 °C 90 % 1028,2 hPa 0,0 mm 0,0 km/h (0 Bft) N-NW 337 ° 0 min 0,000 mm 0,0 UV-I 0 W/m² -4,5 °C -3,1 °C 0,0 km/h (0 Bft)
18.12.2018 07:17 -3,1 °C 90 % 1028,2 hPa 0,0 mm 0,0 km/h (0 Bft) N-NW 337 ° 0 min 0,000 mm 0,0 UV-I 0 W/m² -4,5 °C -3,1 °C 0,0 km/h (0 Bft)
18.12.2018 07:18 -3,1 °C 90 % 1028,2 hPa 0,0 mm 0,0 km/h (0 Bft) N-NW 337 ° 0 min 0,000 mm 0,0 UV-I 0 W/m² -4,5 °C -3,1 °C 0,0 km/h (0 Bft)
18.12.2018 07:19 -3,1 °C 90 % 1028,2 hPa 0,0 mm 0,0 km/h (0 Bft) N-NW 337 ° 0 min 0,000 mm 0,0 UV-I 0 W/m² -4,5 °C -3,1 °C 0,0 km/h (0 Bft)
18.12.2018 07:20 -3,1 °C 90 % 1028,2 hPa 0,0 mm 0,0 km/h (0 Bft) N-NW 337 ° 0 min 0,000 mm 0,0 UV-I 0 W/m² -4,5 °C -3,1 °C 0,0 km/h (0 Bft)
18.12.2018 07:21 -3,2 °C 90 % 1028,2 hPa 0,0 mm 0,0 km/h (0 Bft) N-NW 337 ° 0 min 0,000 mm 0,0 UV-I 0 W/m² -4,6 °C -3,2 °C 0,0 km/h (0 Bft)
18.12.2018 07:22 -3,1 °C 90 % 1028,2 hPa 0,0 mm 0,0 km/h (0 Bft) N-NW 337 ° 0 min 0,000 mm 0,0 UV-I 0 W/m² -4,5 °C -3,1 °C 0,0 km/h (0 Bft)
18.12.2018 07:23 -3,2 °C 90 % 1028,2 hPa 0,0 mm 0,0 km/h (0 Bft) N-NW 337 ° 0 min 0,000 mm 0,0 UV-I 0 W/m² -4,6 °C -3,2 °C 0,0 km/h (0 Bft)
18.12.2018 07:24 -3,2 °C 90 % 1028,2 hPa 0,0 mm 0,5 km/h (0 Bft) N-NW 337 ° 0 min 0,000 mm 0,0 UV-I 0 W/m² -4,6 °C -3,2 °C 1,6 km/h (1 Bft)
18.12.2018 07:25 -3,2 °C 90 % 1028,2 hPa 0,0 mm 0,7 km/h (0 Bft) N-NW 337 ° 0 min 0,000 mm 0,0 UV-I 0 W/m² -4,6 °C -3,2 °C 1,6 km/h (1 Bft)
18.12.2018 07:26 -3,2 °C 90 % 1028,3 hPa 0,0 mm 0,0 km/h (0 Bft) W-NW 303 ° 0 min 0,000 mm 0,0 UV-I 0 W/m² -4,6 °C -3,2 °C 0,0 km/h (0 Bft)
18.12.2018 07:27 -3,2 °C 89 % 1028,3 hPa 0,0 mm 0,0 km/h (0 Bft) W-NW 303 ° 0 min 0,000 mm 0,0 UV-I 0 W/m² -4,7 °C -3,2 °C 0,0 km/h (0 Bft)
18.12.2018 07:28 -3,2 °C 89 % 1028,4 hPa 0,0 mm 0,0 km/h (0 Bft) NW 316 ° 0 min 0,000 mm 0,0 UV-I 0 W/m² -4,7 °C -3,2 °C 0,0 km/h (0 Bft)
18.12.2018 07:29 -3,2 °C 89 % 1028,4 hPa 0,0 mm 0,0 km/h (0 Bft) NW 315 ° 0 min 0,000 mm 0,0 UV-I 0 W/m² -4,7 °C -3,2 °C 0,0 km/h (0 Bft)
18.12.2018 07:30 -3,2 °C 89 % 1028,4 hPa 0,0 mm 0,0 km/h (0 Bft) NW 316 ° 0 min 0,000 mm 0,0 UV-I 0 W/m² -4,7 °C -3,2 °C 0,0 km/h (0 Bft)
18.12.2018 07:31 -3,2 °C 89 % 1028,4 hPa 0,0 mm 0,0 km/h (0 Bft) NW 315 ° 0 min 0,000 mm 0,0 UV-I 0 W/m² -4,7 °C -3,2 °C 0,0 km/h (0 Bft)
18.12.2018 07:32 -3,2 °C 89 % 1028,4 hPa 0,0 mm 0,0 km/h (0 Bft) NW 315 ° 0 min 0,000 mm 0,0 UV-I 0 W/m² -4,7 °C -3,2 °C 0,0 km/h (0 Bft)
18.12.2018 07:33 -3,3 °C 89 % 1028,4 hPa 0,0 mm 0,0 km/h (0 Bft) NW 315 ° 0 min 0,000 mm 0,0 UV-I 0 W/m² -4,8 °C -3,3 °C 0,0 km/h (0 Bft)
18.12.2018 07:34 -3,3 °C 89 % 1028,4 hPa 0,0 mm 0,0 km/h (0 Bft) NW 315 ° 0 min 0,000 mm 0,0 UV-I 0 W/m² -4,8 °C -3,3 °C 0,0 km/h (0 Bft)
18.12.2018 07:35 -3,3 °C 89 % 1028,3 hPa 0,0 mm 0,0 km/h (0 Bft) NW 315 ° 0 min 0,000 mm 0,0 UV-I 0 W/m² -4,8 °C -3,3 °C 0,0 km/h (0 Bft)
18.12.2018 07:36 -3,3 °C 89 % 1028,3 hPa 0,0 mm 0,0 km/h (0 Bft) NW 315 ° 0 min 0,000 mm 0,0 UV-I 0 W/m² -4,8 °C -3,3 °C 0,0 km/h (0 Bft)
18.12.2018 07:37 -3,3 °C 89 % 1028,3 hPa 0,0 mm 0,0 km/h (0 Bft) NW 315 ° 0 min 0,000 mm 0,0 UV-I 0 W/m² -4,8 °C -3,3 °C 0,0 km/h (0 Bft)
18.12.2018 07:38 -3,3 °C 89 % 1028,3 hPa 0,0 mm 0,0 km/h (0 Bft) NW 315 ° 0 min 0,000 mm 0,0 UV-I 0 W/m² -4,8 °C -3,3 °C 0,0 km/h (0 Bft)
18.12.2018 07:39 -3,3 °C 89 % 1028,3 hPa 0,0 mm 0,0 km/h (0 Bft) NW 315 ° 0 min 0,000 mm 0,0 UV-I 0 W/m² -4,8 °C -3,3 °C 0,0 km/h (0 Bft)
18.12.2018 07:40 -3,3 °C 89 % 1028,4 hPa 0,0 mm 0,0 km/h (0 Bft) NW 315 ° 0 min 0,000 mm 0,0 UV-I 0 W/m² -4,8 °C -3,3 °C 0,0 km/h (0 Bft)
18.12.2018 07:41 -3,3 °C 89 % 1028,4 hPa 0,0 mm 0,0 km/h (0 Bft) NW 315 ° 0 min 0,000 mm 0,0 UV-I 0 W/m² -4,8 °C -3,3 °C 0,0 km/h (0 Bft)
18.12.2018 07:42 -3,3 °C 89 % 1028,4 hPa 0,0 mm 0,0 km/h (0 Bft) NW 315 ° 0 min 0,000 mm 0,0 UV-I 0 W/m² -4,8 °C -3,3 °C 0,0 km/h (0 Bft)
18.12.2018 07:43 -3,3 °C 89 % 1028,3 hPa 0,0 mm 0,0 km/h (0 Bft) NW 315 ° 0 min 0,000 mm 0,0 UV-I 0 W/m² -4,8 °C -3,3 °C 0,0 km/h (0 Bft)
18.12.2018 07:44 -3,3 °C 89 % 1028,4 hPa 0,0 mm 0,0 km/h (0 Bft) NW 315 ° 0 min 0,000 mm 0,0 UV-I 0 W/m² -4,8 °C -3,3 °C 0,0 km/h (0 Bft)
18.12.2018 07:45 -3,3 °C 89 % 1028,3 hPa 0,0 mm 0,0 km/h (0 Bft) NW 315 ° 0 min 0,000 mm 0,0 UV-I 0 W/m² -4,8 °C -3,3 °C 0,0 km/h (0 Bft)
18.12.2018 07:46 -3,4 °C 89 % 1028,3 hPa 0,0 mm 0,0 km/h (0 Bft) NW 315 ° 0 min 0,000 mm 0,0 UV-I 0 W/m² -4,9 °C -3,4 °C 0,0 km/h (0 Bft)
18.12.2018 07:47 -3,4 °C 89 % 1028,3 hPa 0,0 mm 0,0 km/h (0 Bft) NW 315 ° 0 min 0,000 mm 0,0 UV-I 0 W/m² -4,9 °C -3,4 °C 0,0 km/h (0 Bft)
18.12.2018 07:48 -3,4 °C 89 % 1028,3 hPa 0,0 mm 0,0 km/h (0 Bft) NW 315 ° 0 min 0,000 mm 0,0 UV-I 0 W/m² -4,9 °C -3,4 °C 0,0 km/h (0 Bft)
18.12.2018 07:49 -3,4 °C 89 % 1028,3 hPa 0,0 mm 0,0 km/h (0 Bft) NW 315 ° 0 min 0,000 mm 0,0 UV-I 0 W/m² -4,9 °C -3,4 °C 0,0 km/h (0 Bft)
18.12.2018 07:50 -3,4 °C 89 % 1028,3 hPa 0,0 mm 0,0 km/h (0 Bft) NW 315 ° 0 min 0,000 mm 0,0 UV-I 0 W/m² -4,9 °C -3,4 °C 0,0 km/h (0 Bft)
18.12.2018 07:51 -3,4 °C 89 % 1028,2 hPa 0,0 mm 0,0 km/h (0 Bft) NW 315 ° 0 min 0,000 mm 0,0 UV-I 0 W/m² -4,9 °C -3,4 °C 0,0 km/h (0 Bft)
18.12.2018 07:52 -3,4 °C 89 % 1028,3 hPa 0,0 mm 0,0 km/h (0 Bft) NW 315 ° 0 min 0,000 mm 0,0 UV-I 0 W/m² -4,9 °C -3,4 °C 0,0 km/h (0 Bft)
18.12.2018 07:53 -3,5 °C 89 % 1028,3 hPa 0,0 mm 0,0 km/h (0 Bft) NW 315 ° 0 min 0,000 mm 0,0 UV-I 0 W/m² -5,0 °C -3,5 °C 0,0 km/h (0 Bft)
18.12.2018 07:54 -3,5 °C 89 % 1028,2 hPa 0,0 mm 0,0 km/h (0 Bft) NW 315 ° 0 min 0,000 mm 0,0 UV-I 0 W/m² -5,0 °C -3,5 °C 0,0 km/h (0 Bft)
18.12.2018 07:55 -3,5 °C 89 % 1028,2 hPa 0,0 mm 1,3 km/h (1 Bft) NW 315 ° 0 min 0,000 mm 0,0 UV-I 0 W/m² -5,0 °C -3,5 °C 3,2 km/h (1 Bft)
18.12.2018 07:56 -3,6 °C 89 % 1028,2 hPa 0,0 mm 0,6 km/h (0 Bft) NW 315 ° 0 min 0,000 mm 0,0 UV-I 0 W/m² -5,1 °C -3,6 °C 3,2 km/h (1 Bft)
18.12.2018 07:57 -3,6 °C 89 % 1028,2 hPa 0,0 mm 0,0 km/h (0 Bft) NW 315 ° 0 min 0,000 mm 0,0 UV-I 0 W/m² -5,1 °C -3,6 °C 0,0 km/h (0 Bft)
18.12.2018 07:58 -3,6 °C 88 % 1028,2 hPa 0,0 mm 0,0 km/h (0 Bft) NW 315 ° 0 min 0,000 mm 0,0 UV-I 0 W/m² -5,3 °C -3,6 °C 0,0 km/h (0 Bft)
18.12.2018 07:59 -3,6 °C 88 % 1028,3 hPa 0,0 mm 0,0 km/h (0 Bft) NW 315 ° 0 min 0,000 mm 0,0 UV-I 0 W/m² -5,3 °C -3,6 °C 0,0 km/h (0 Bft)
18.12.2018 08:00 -3,7 °C 88 % 1028,3 hPa 0,0 mm 0,0 km/h (0 Bft) NW 315 ° 0 min 0,000 mm 0,0 UV-I 0 W/m² -5,4 °C -3,7 °C 0,0 km/h (0 Bft)
18.12.2018 08:01 -3,7 °C 88 % 1028,3 hPa 0,0 mm 0,0 km/h (0 Bft) NW 315 ° 0 min 0,000 mm 0,0 UV-I 0 W/m² -5,4 °C -3,7 °C 0,0 km/h (0 Bft)
18.12.2018 08:02 -3,7 °C 88 % 1028,4 hPa 0,0 mm 0,0 km/h (0 Bft) NW 315 ° 0 min 0,000 mm 0,0 UV-I 0 W/m² -5,4 °C -3,7 °C 0,0 km/h (0 Bft)
18.12.2018 08:03 -3,7 °C 88 % 1028,4 hPa 0,0 mm 0,0 km/h (0 Bft) NW 315 ° 0 min 0,000 mm 0,0 UV-I 5 W/m² -5,4 °C -3,7 °C 0,0 km/h (0 Bft)
18.12.2018 08:04 -3,7 °C 88 % 1028,4 hPa 0,0 mm 0,0 km/h (0 Bft) NW 315 ° 0 min 0,000 mm 0,0 UV-I 5 W/m² -5,4 °C -3,7 °C 0,0 km/h (0 Bft)
18.12.2018 08:05 -3,8 °C 88 % 1028,4 hPa 0,0 mm 0,0 km/h (0 Bft) NW 315 ° 0 min 0,000 mm 0,0 UV-I 5 W/m² -5,5 °C -3,8 °C 0,0 km/h (0 Bft)
18.12.2018 08:06 -3,8 °C 89 % 1028,3 hPa 0,0 mm 0,0 km/h (0 Bft) NW 315 ° 0 min 0,000 mm 0,0 UV-I 5 W/m² -5,3 °C -3,8 °C 0,0 km/h (0 Bft)
18.12.2018 08:07 -3,8 °C 89 % 1028,3 hPa 0,0 mm 0,0 km/h (0 Bft) NW 315 ° 0 min 0,000 mm 0,0 UV-I 5 W/m² -5,3 °C -3,8 °C 0,0 km/h (0 Bft)
18.12.2018 08:08 -3,8 °C 89 % 1028,4 hPa 0,0 mm 0,0 km/h (0 Bft) NW 315 ° 0 min 0,000 mm 0,0 UV-I 5 W/m² -5,3 °C -3,8 °C 0,0 km/h (0 Bft)
18.12.2018 08:09 -3,8 °C 89 % 1028,4 hPa 0,0 mm 0,0 km/h (0 Bft) NW 315 ° 0 min 0,000 mm 0,0 UV-I 5 W/m² -5,3 °C -3,8 °C 0,0 km/h (0 Bft)
18.12.2018 08:10 -3,9 °C 89 % 1028,4 hPa 0,0 mm 0,0 km/h (0 Bft) NW 315 ° 0 min 0,000 mm 0,0 UV-I 5 W/m² -5,4 °C -3,9 °C 0,0 km/h (0 Bft)
18.12.2018 08:11 -3,9 °C 89 % 1028,4 hPa 0,0 mm 0,0 km/h (0 Bft) NW 315 ° 0 min 0,000 mm 0,0 UV-I 7 W/m² -5,4 °C -3,9 °C 0,0 km/h (0 Bft)
18.12.2018 08:12 -3,9 °C 89 % 1028,4 hPa 0,0 mm 0,0 km/h (0 Bft) NW 315 ° 0 min 0,000 mm 0,0 UV-I 7 W/m² -5,4 °C -3,9 °C 0,0 km/h (0 Bft)
18.12.2018 08:13 -3,9 °C 89 % 1028,4 hPa 0,0 mm 0,0 km/h (0 Bft) NW 315 ° 0 min 0,000 mm 0,0 UV-I 7 W/m² -5,4 °C -3,9 °C 0,0 km/h (0 Bft)
18.12.2018 08:14 -3,9 °C 89 % 1028,4 hPa 0,0 mm 0,0 km/h (0 Bft) NW 315 ° 0 min 0,000 mm 0,0 UV-I 7 W/m² -5,4 °C -3,9 °C 0,0 km/h (0 Bft)
18.12.2018 08:15 -4,0 °C 88 % 1028,3 hPa 0,0 mm 0,0 km/h (0 Bft) NW 315 ° 0 min 0,000 mm 0,0 UV-I 7 W/m² -5,7 °C -4,0 °C 0,0 km/h (0 Bft)
18.12.2018 08:16 -4,0 °C 88 % 1028,3 hPa 0,0 mm 0,0 km/h (0 Bft) NW 315 ° 0 min 0,000 mm 0,0 UV-I 7 W/m² -5,7 °C -4,0 °C 0,0 km/h (0 Bft)
18.12.2018 08:17 -4,1 °C 89 % 1028,3 hPa 0,0 mm 0,0 km/h (0 Bft) NW 315 ° 0 min 0,000 mm 0,0 UV-I 7 W/m² -5,6 °C -4,1 °C 0,0 km/h (0 Bft)
18.12.2018 08:18 -4,1 °C 89 % 1028,3 hPa 0,0 mm 0,0 km/h (0 Bft) NW 315 ° 0 min 0,000 mm 0,0 UV-I 7 W/m² -5,6 °C -4,1 °C 0,0 km/h (0 Bft)
18.12.2018 08:19 -4,1 °C 89 % 1028,3 hPa 0,0 mm 0,0 km/h (0 Bft) NW 315 ° 0 min 0,000 mm 0,0 UV-I 7 W/m² -5,6 °C -4,1 °C 0,0 km/h (0 Bft)
18.12.2018 08:20 -4,1 °C 89 % 1028,3 hPa 0,0 mm 0,0 km/h (0 Bft) NW 315 ° 0 min 0,000 mm 0,0 UV-I 9 W/m² -5,6 °C -4,1 °C 0,0 km/h (0 Bft)
18.12.2018 08:21 -4,1 °C 89 % 1028,3 hPa 0,0 mm 0,0 km/h (0 Bft) NW 315 ° 0 min 0,000 mm 0,0 UV-I 9 W/m² -5,6 °C -4,1 °C 0,0 km/h (0 Bft)
18.12.2018 08:22 -4,1 °C 89 % 1028,3 hPa 0,0 mm 0,0 km/h (0 Bft) NW 315 ° 0 min 0,000 mm 0,0 UV-I 9 W/m² -5,6 °C -4,1 °C 0,0 km/h (0 Bft)
18.12.2018 08:23 -4,2 °C 89 % 1028,3 hPa 0,0 mm 0,0 km/h (0 Bft) NW 315 ° 0 min 0,000 mm 0,0 UV-I 9 W/m² -5,7 °C -4,2 °C 0,0 km/h (0 Bft)
18.12.2018 08:24 -4,2 °C 89 % 1028,3 hPa 0,0 mm 0,0 km/h (0 Bft) NW 315 ° 0 min 0,000 mm 0,0 UV-I 9 W/m² -5,7 °C -4,2 °C 0,0 km/h (0 Bft)
18.12.2018 08:25 -4,1 °C 89 % 1028,3 hPa 0,0 mm 0,0 km/h (0 Bft) NW 315 ° 0 min 0,000 mm 0,0 UV-I 9 W/m² -5,6 °C -4,1 °C 0,0 km/h (0 Bft)
18.12.2018 08:26 -4,2 °C 89 % 1028,3 hPa 0,0 mm 0,0 km/h (0 Bft) NW 315 ° 0 min 0,000 mm 0,0 UV-I 9 W/m² -5,7 °C -4,2 °C 0,0 km/h (0 Bft)
18.12.2018 08:27 -4,2 °C 89 % 1028,3 hPa 0,0 mm 0,0 km/h (0 Bft) NW 315 ° 0 min 0,000 mm 0,0 UV-I 9 W/m² -5,7 °C -4,2 °C 0,0 km/h (0 Bft)
18.12.2018 08:28 -4,2 °C 89 % 1028,3 hPa 0,0 mm 0,0 km/h (0 Bft) NW 315 ° 0 min 0,000 mm 0,0 UV-I 11 W/m² -5,7 °C -4,2 °C 0,0 km/h (0 Bft)
18.12.2018 08:29 -4,2 °C 89 % 1028,3 hPa 0,0 mm 0,0 km/h (0 Bft) NW 315 ° 0 min 0,000 mm 0,0 UV-I 11 W/m² -5,7 °C -4,2 °C 0,0 km/h (0 Bft)
18.12.2018 08:30 -4,3 °C 89 % 1028,3 hPa 0,0 mm 0,0 km/h (0 Bft) NW 315 ° 0 min 0,000 mm 0,0 UV-I 11 W/m² -5,8 °C -4,3 °C 0,0 km/h (0 Bft)
18.12.2018 08:31 -4,3 °C 89 % 1028,3 hPa 0,0 mm 0,0 km/h (0 Bft) NW 315 ° 0 min 0,000 mm 0,0 UV-I 11 W/m² -5,8 °C -4,3 °C 0,0 km/h (0 Bft)
18.12.2018 08:32 -4,3 °C 89 % 1028,3 hPa 0,0 mm 0,0 km/h (0 Bft) NW 315 ° 0 min 0,000 mm 0,0 UV-I 11 W/m² -5,8 °C -4,3 °C 0,0 km/h (0 Bft)
18.12.2018 08:33 -4,3 °C 89 % 1028,3 hPa 0,0 mm 0,0 km/h (0 Bft) NW 315 ° 0 min 0,000 mm 0,0 UV-I 11 W/m² -5,8 °C -4,3 °C 0,0 km/h (0 Bft)
18.12.2018 08:34 -4,3 °C 89 % 1028,3 hPa 0,0 mm 0,0 km/h (0 Bft) NW 315 ° 0 min 0,000 mm 0,0 UV-I 11 W/m² -5,8 °C -4,3 °C 0,0 km/h (0 Bft)
18.12.2018 08:35 -4,3 °C 89 % 1028,3 hPa 0,0 mm 0,0 km/h (0 Bft) NW 315 ° 0 min 0,000 mm 0,0 UV-I 11 W/m² -5,8 °C -4,3 °C 0,0 km/h (0 Bft)
18.12.2018 08:36 -4,4 °C 89 % 1028,3 hPa 0,0 mm 0,0 km/h (0 Bft) NW 315 ° 0 min 0,000 mm 0,0 UV-I 11 W/m² -5,9 °C -4,4 °C 0,0 km/h (0 Bft)
18.12.2018 08:37 -4,4 °C 89 % 1028,3 hPa 0,0 mm 0,0 km/h (0 Bft) NW 315 ° 0 min 0,000 mm 0,0 UV-I 11 W/m² -5,9 °C -4,4 °C 0,0 km/h (0 Bft)
18.12.2018 08:38 -4,4 °C 89 % 1028,4 hPa 0,0 mm 0,0 km/h (0 Bft) NW 315 ° 0 min 0,000 mm 0,0 UV-I 11 W/m² -5,9 °C -4,4 °C 0,0 km/h (0 Bft)
18.12.2018 08:39 -4,4 °C 89 % 1028,4 hPa 0,0 mm 0,0 km/h (0 Bft) NW 315 ° 0 min 0,000 mm 0,0 UV-I 11 W/m² -5,9 °C -4,4 °C 0,0 km/h (0 Bft)
18.12.2018 08:40 -4,4 °C 89 % 1028,4 hPa 0,0 mm 0,0 km/h (0 Bft) NW 315 ° 0 min 0,000 mm 0,0 UV-I 12 W/m² -5,9 °C -4,4 °C 0,0 km/h (0 Bft)
18.12.2018 08:41 -4,5 °C 89 % 1028,4 hPa 0,0 mm 0,0 km/h (0 Bft) NW 315 ° 0 min 0,000 mm 0,0 UV-I 12 W/m² -6,0 °C -4,5 °C 0,0 km/h (0 Bft)
18.12.2018 08:42 -4,5 °C 89 % 1028,4 hPa 0,0 mm 0,0 km/h (0 Bft) NW 315 ° 0 min 0,000 mm 0,0 UV-I 12 W/m² -6,0 °C -4,5 °C 0,0 km/h (0 Bft)
18.12.2018 08:43 -4,5 °C 89 % 1028,5 hPa 0,0 mm 0,0 km/h (0 Bft) NW 315 ° 0 min 0,000 mm 0,0 UV-I 12 W/m² -6,0 °C -4,5 °C 0,0 km/h (0 Bft)
18.12.2018 08:44 -4,5 °C 89 % 1028,4 hPa 0,0 mm 0,0 km/h (0 Bft) NW 315 ° 0 min 0,000 mm 0,0 UV-I 12 W/m² -6,0 °C -4,5 °C 0,0 km/h (0 Bft)
18.12.2018 08:45 -4,5 °C 89 % 1028,4 hPa 0,0 mm 0,0 km/h (0 Bft) NW 315 ° 0 min 0,000 mm 0,0 UV-I 12 W/m² -6,0 °C -4,5 °C 0,0 km/h (0 Bft)
18.12.2018 08:46 -4,6 °C 89 % 1028,5 hPa 0,0 mm 0,0 km/h (0 Bft) NW 315 ° 0 min 0,000 mm 0,0 UV-I 12 W/m² -6,1 °C -4,6 °C 0,0 km/h (0 Bft)
18.12.2018 08:47 -4,6 °C 89 % 1028,4 hPa 0,0 mm 0,0 km/h (0 Bft) NW 315 ° 0 min 0,000 mm 0,0 UV-I 12 W/m² -6,1 °C -4,6 °C 0,0 km/h (0 Bft)
18.12.2018 08:48 -4,6 °C 89 % 1028,5 hPa 0,0 mm 0,0 km/h (0 Bft) NW 315 ° 0 min 0,000 mm 0,0 UV-I 12 W/m² -6,1 °C -4,6 °C 0,0 km/h (0 Bft)
18.12.2018 08:49 -4,6 °C 89 % 1028,5 hPa 0,0 mm 0,0 km/h (0 Bft) NW 315 ° 0 min 0,000 mm 0,0 UV-I 12 W/m² -6,1 °C -4,6 °C 0,0 km/h (0 Bft)
18.12.2018 08:50 -4,6 °C 89 % 1028,5 hPa 0,0 mm 0,0 km/h (0 Bft) NW 315 ° 0 min 0,000 mm 0,0 UV-I 12 W/m² -6,1 °C -4,6 °C 0,0 km/h (0 Bft)
18.12.2018 08:51 -4,6 °C 89 % 1028,5 hPa 0,0 mm 0,0 km/h (0 Bft) NW 315 ° 0 min 0,000 mm 0,0 UV-I 12 W/m² -6,1 °C -4,6 °C 0,0 km/h (0 Bft)
18.12.2018 08:52 -4,7 °C 89 % 1028,5 hPa 0,0 mm 0,0 km/h (0 Bft) NW 315 ° 0 min 0,000 mm 0,0 UV-I 12 W/m² -6,2 °C -4,7 °C 0,0 km/h (0 Bft)
18.12.2018 08:53 -4,6 °C 89 % 1028,5 hPa 0,0 mm 0,0 km/h (0 Bft) NW 315 ° 0 min 0,000 mm 0,0 UV-I 12 W/m² -6,1 °C -4,6 °C 0,0 km/h (0 Bft)
18.12.2018 08:54 -4,7 °C 89 % 1028,5 hPa 0,0 mm 0,0 km/h (0 Bft) NW 315 ° 0 min 0,000 mm 0,0 UV-I 12 W/m² -6,2 °C -4,7 °C 0,0 km/h (0 Bft)
18.12.2018 08:55 -4,7 °C 89 % 1028,5 hPa 0,0 mm 0,0 km/h (0 Bft) NW 315 ° 0 min 0,000 mm 0,0 UV-I 14 W/m² -6,2 °C -4,7 °C 0,0 km/h (0 Bft)
18.12.2018 08:56 -4,7 °C 89 % 1028,4 hPa 0,0 mm 0,0 km/h (0 Bft) NW 315 ° 0 min 0,000 mm 0,0 UV-I 14 W/m² -6,2 °C -4,7 °C 0,0 km/h (0 Bft)
18.12.2018 08:57 -4,7 °C 89 % 1028,5 hPa 0,0 mm 0,0 km/h (0 Bft) NW 315 ° 0 min 0,000 mm 0,0 UV-I 14 W/m² -6,2 °C -4,7 °C 0,0 km/h (0 Bft)
18.12.2018 08:58 -4,7 °C 89 % 1028,5 hPa 0,0 mm 0,0 km/h (0 Bft) NW 315 ° 0 min 0,000 mm 0,0 UV-I 14 W/m² -6,2 °C -4,7 °C 0,0 km/h (0 Bft)
18.12.2018 08:59 -4,7 °C 89 % 1028,4 hPa 0,0 mm 0,0 km/h (0 Bft) NW 315 ° 0 min 0,000 mm 0,0 UV-I 14 W/m² -6,2 °C -4,7 °C 0,0 km/h (0 Bft)
18.12.2018 09:00 -4,7 °C 89 % 1028,4 hPa 0,0 mm 0,0 km/h (0 Bft) NW 315 ° 0 min 0,000 mm 0,0 UV-I 14 W/m² -6,2 °C -4,7 °C 0,0 km/h (0 Bft)
18.12.2018 09:01 -4,7 °C 90 % 1028,4 hPa 0,0 mm 0,0 km/h (0 Bft) NW 315 ° 0 min 0,000 mm 0,0 UV-I 14 W/m² -6,1 °C -4,7 °C 0,0 km/h (0 Bft)
18.12.2018 09:02 -4,7 °C 90 % 1028,4 hPa 0,0 mm 0,0 km/h (0 Bft) NW 315 ° 0 min 0,000 mm 0,0 UV-I 14 W/m² -6,1 °C -4,7 °C 0,0 km/h (0 Bft)
18.12.2018 09:03 -4,7 °C 90 % 1028,4 hPa 0,0 mm 0,0 km/h (0 Bft) NW 315 ° 0 min 0,000 mm 0,0 UV-I 14 W/m² -6,1 °C -4,7 °C 0,0 km/h (0 Bft)
18.12.2018 09:04 -4,7 °C 90 % 1028,4 hPa 0,0 mm 0,0 km/h (0 Bft) NW 315 ° 0 min 0,000 mm 0,0 UV-I 14 W/m² -6,1 °C -4,7 °C 0,0 km/h (0 Bft)
18.12.2018 09:05 -4,7 °C 90 % 1028,4 hPa 0,0 mm 0,0 km/h (0 Bft) NW 315 ° 0 min 0,000 mm 0,0 UV-I 14 W/m² -6,1 °C -4,7 °C 0,0 km/h (0 Bft)
18.12.2018 09:06 -4,7 °C 90 % 1028,4 hPa 0,0 mm 0,0 km/h (0 Bft) NW 315 ° 0 min 0,000 mm 0,0 UV-I 14 W/m² -6,1 °C -4,7 °C 0,0 km/h (0 Bft)
18.12.2018 09:07 -4,8 °C 90 % 1028,4 hPa 0,0 mm 0,0 km/h (0 Bft) NW 315 ° 0 min 0,000 mm 0,0 UV-I 14 W/m² -6,2 °C -4,8 °C 0,0 km/h (0 Bft)
18.12.2018 09:08 -4,8 °C 90 % 1028,4 hPa 0,0 mm 0,0 km/h (0 Bft) NW 315 ° 0 min 0,000 mm 0,0 UV-I 14 W/m² -6,2 °C -4,8 °C 0,0 km/h (0 Bft)
18.12.2018 09:09 -4,8 °C 90 % 1028,4 hPa 0,0 mm 0,0 km/h (0 Bft) NW 315 ° 0 min 0,000 mm 0,0 UV-I 14 W/m² -6,2 °C -4,8 °C 0,0 km/h (0 Bft)
18.12.2018 09:10 -4,7 °C 90 % 1028,3 hPa 0,0 mm 0,0 km/h (0 Bft) NW 315 ° 0 min 0,000 mm 0,0 UV-I 14 W/m² -6,1 °C -4,7 °C 0,0 km/h (0 Bft)
18.12.2018 09:11 -4,8 °C 90 % 1028,3 hPa 0,0 mm 0,0 km/h (0 Bft) NW 315 ° 0 min 0,000 mm 0,0 UV-I 14 W/m² -6,2 °C -4,8 °C 0,0 km/h (0 Bft)
18.12.2018 09:12 -4,8 °C 90 % 1028,3 hPa 0,0 mm 0,0 km/h (0 Bft) NW 315 ° 0 min 0,000 mm 0,0 UV-I 14 W/m² -6,2 °C -4,8 °C 0,0 km/h (0 Bft)
18.12.2018 09:13 -4,8 °C 90 % 1028,3 hPa 0,0 mm 0,0 km/h (0 Bft) NW 315 ° 0 min 0,000 mm 0,0 UV-I 16 W/m² -6,2 °C -4,8 °C 0,0 km/h (0 Bft)
18.12.2018 09:14 -4,8 °C 90 % 1028,3 hPa 0,0 mm 0,0 km/h (0 Bft) NW 315 ° 0 min 0,000 mm 0,0 UV-I 16 W/m² -6,2 °C -4,8 °C 0,0 km/h (0 Bft)
18.12.2018 09:15 -4,8 °C 90 % 1028,3 hPa 0,0 mm 0,0 km/h (0 Bft) NW 315 ° 0 min 0,000 mm 0,0 UV-I 16 W/m² -6,2 °C -4,8 °C 0,0 km/h (0 Bft)
18.12.2018 09:16 -4,7 °C 90 % 1028,2 hPa 0,0 mm 0,0 km/h (0 Bft) NW 315 ° 0 min 0,000 mm 0,0 UV-I 16 W/m² -6,1 °C -4,7 °C 0,0 km/h (0 Bft)
18.12.2018 09:17 -4,7 °C 90 % 1028,2 hPa 0,0 mm 0,0 km/h (0 Bft) NW 315 ° 0 min 0,000 mm 0,0 UV-I 16 W/m² -6,1 °C -4,7 °C 0,0 km/h (0 Bft)
18.12.2018 09:18 -4,7 °C 90 % 1028,2 hPa 0,0 mm 0,0 km/h (0 Bft) NW 315 ° 0 min 0,000 mm 0,0 UV-I 16 W/m² -6,1 °C -4,7 °C 0,0 km/h (0 Bft)
18.12.2018 09:19 -4,8 °C 90 % 1028,2 hPa 0,0 mm 0,0 km/h (0 Bft) NW 315 ° 0 min 0,000 mm 0,0 UV-I 16 W/m² -6,2 °C -4,8 °C 0,0 km/h (0 Bft)
18.12.2018 09:20 -4,8 °C 90 % 1028,2 hPa 0,0 mm 0,0 km/h (0 Bft) NW 315 ° 0 min 0,000 mm 0,0 UV-I 16 W/m² -6,2 °C -4,8 °C 0,0 km/h (0 Bft)
18.12.2018 09:21 -4,7 °C 91 % 1028,2 hPa 0,0 mm 0,0 km/h (0 Bft) NW 315 ° 0 min 0,000 mm 0,0 UV-I 16 W/m² -5,9 °C -4,7 °C 0,0 km/h (0 Bft)
18.12.2018 09:22 -4,7 °C 91 % 1028,2 hPa 0,0 mm 0,0 km/h (0 Bft) NW 315 ° 0 min 0,000 mm 0,0 UV-I 16 W/m² -5,9 °C -4,7 °C 0,0 km/h (0 Bft)
18.12.2018 09:23 -4,7 °C 91 % 1028,2 hPa 0,0 mm 0,0 km/h (0 Bft) NW 315 ° 0 min 0,000 mm 0,0 UV-I 16 W/m² -5,9 °C -4,7 °C 0,0 km/h (0 Bft)
18.12.2018 09:24 -4,7 °C 91 % 1028,1 hPa 0,0 mm 0,0 km/h (0 Bft) NW 315 ° 0 min 0,000 mm 0,0 UV-I 16 W/m² -5,9 °C -4,7 °C 0,0 km/h (0 Bft)
18.12.2018 09:25 -4,7 °C 91 % 1028,1 hPa 0,0 mm 0,0 km/h (0 Bft) NW 315 ° 0 min 0,000 mm 0,0 UV-I 16 W/m² -5,9 °C -4,7 °C 0,0 km/h (0 Bft)
18.12.2018 09:26 -4,7 °C 91 % 1028,1 hPa 0,0 mm 0,0 km/h (0 Bft) NW 315 ° 0 min 0,000 mm 0,0 UV-I 16 W/m² -5,9 °C -4,7 °C 0,0 km/h (0 Bft)
18.12.2018 09:27 -4,7 °C 91 % 1028,1 hPa 0,0 mm 0,0 km/h (0 Bft) NW 315 ° 0 min 0,000 mm 0,0 UV-I 16 W/m² -5,9 °C -4,7 °C 0,0 km/h (0 Bft)
18.12.2018 09:28 -4,6 °C 91 % 1028,1 hPa 0,0 mm 0,0 km/h (0 Bft) NW 315 ° 0 min 0,000 mm 0,0 UV-I 16 W/m² -5,8 °C -4,6 °C 0,0 km/h (0 Bft)
18.12.2018 09:29 -4,6 °C 91 % 1028,1 hPa 0,0 mm 0,0 km/h (0 Bft) NW 315 ° 0 min 0,000 mm 0,0 UV-I 16 W/m² -5,8 °C -4,6 °C 0,0 km/h (0 Bft)
18.12.2018 09:30 -4,6 °C 91 % 1028,1 hPa 0,0 mm 0,0 km/h (0 Bft) NW 315 ° 0 min 0,000 mm 0,0 UV-I 16 W/m² -5,8 °C -4,6 °C 0,0 km/h (0 Bft)
18.12.2018 09:31 -4,6 °C 91 % 1028,1 hPa 0,0 mm 0,0 km/h (0 Bft) NW 315 ° 0 min 0,000 mm 0,0 UV-I 16 W/m² -5,8 °C -4,6 °C 0,0 km/h (0 Bft)
18.12.2018 09:32 -4,6 °C 91 % 1028,1 hPa 0,0 mm 0,0 km/h (0 Bft) NW 315 ° 0 min 0,000 mm 0,0 UV-I 16 W/m² -5,8 °C -4,6 °C 0,0 km/h (0 Bft)
18.12.2018 09:33 -4,6 °C 91 % 1028,1 hPa 0,0 mm 0,0 km/h (0 Bft) NW 315 ° 0 min 0,000 mm 0,0 UV-I 16 W/m² -5,8 °C -4,6 °C 0,0 km/h (0 Bft)
18.12.2018 09:34 -4,6 °C 91 % 1028,1 hPa 0,0 mm 0,0 km/h (0 Bft) NW 315 ° 0 min 0,000 mm 0,0 UV-I 16 W/m² -5,8 °C -4,6 °C 0,0 km/h (0 Bft)
18.12.2018 09:35 -4,6 °C 91 % 1028,1 hPa 0,0 mm 0,0 km/h (0 Bft) NW 315 ° 0 min 0,000 mm 0,0 UV-I 16 W/m² -5,8 °C -4,6 °C 0,0 km/h (0 Bft)
18.12.2018 09:36 -4,6 °C 91 % 1028,0 hPa 0,0 mm 0,0 km/h (0 Bft) NW 315 ° 0 min 0,000 mm 0,0 UV-I 16 W/m² -5,8 °C -4,6 °C 0,0 km/h (0 Bft)
18.12.2018 09:37 -4,6 °C 91 % 1028,1 hPa 0,0 mm 0,0 km/h (0 Bft) NW 315 ° 0 min 0,000 mm 0,0 UV-I 18 W/m² -5,8 °C -4,6 °C 0,0 km/h (0 Bft)
18.12.2018 09:38 -4,6 °C 91 % 1028,0 hPa 0,0 mm 0,0 km/h (0 Bft) NW 315 ° 0 min 0,000 mm 0,0 UV-I 18 W/m² -5,8 °C -4,6 °C 0,0 km/h (0 Bft)
18.12.2018 09:39 -4,6 °C 91 % 1028,0 hPa 0,0 mm 0,0 km/h (0 Bft) NW 315 ° 0 min 0,000 mm 0,0 UV-I 18 W/m² -5,8 °C -4,6 °C 0,0 km/h (0 Bft)
18.12.2018 09:40 -4,5 °C 91 % 1028,0 hPa 0,0 mm 0,1 km/h (0 Bft) NW 315 ° 0 min 0,000 mm 0,0 UV-I 18 W/m² -5,7 °C -4,5 °C 1,6 km/h (1 Bft)
18.12.2018 09:41 -4,5 °C 91 % 1027,9 hPa 0,0 mm 0,0 km/h (0 Bft) NW 315 ° 0 min 0,000 mm 0,0 UV-I 18 W/m² -5,7 °C -4,5 °C 0,0 km/h (0 Bft)
18.12.2018 09:42 -4,5 °C 91 % 1027,9 hPa 0,0 mm 0,0 km/h (0 Bft) NW 315 ° 0 min 0,000 mm 0,0 UV-I 18 W/m² -5,7 °C -4,5 °C 0,0 km/h (0 Bft)
18.12.2018 09:43 -4,5 °C 91 % 1027,9 hPa 0,0 mm 0,0 km/h (0 Bft) NW 315 ° 0 min 0,000 mm 0,0 UV-I 18 W/m² -5,7 °C -4,5 °C 0,0 km/h (0 Bft)
18.12.2018 09:44 -4,5 °C 91 % 1027,9 hPa 0,0 mm 0,0 km/h (0 Bft) NW 315 ° 0 min 0,000 mm 0,0 UV-I 18 W/m² -5,7 °C -4,5 °C 0,0 km/h (0 Bft)
18.12.2018 09:45 -4,4 °C 91 % 1027,9 hPa 0,0 mm 0,0 km/h (0 Bft) NW 315 ° 0 min 0,000 mm 0,0 UV-I 18 W/m² -5,6 °C -4,4 °C 0,0 km/h (0 Bft)
18.12.2018 09:46 -4,4 °C 91 % 1027,9 hPa 0,0 mm 0,0 km/h (0 Bft) NW 315 ° 0 min 0,000 mm 0,0 UV-I 18 W/m² -5,6 °C -4,4 °C 0,0 km/h (0 Bft)
18.12.2018 09:47 -4,4 °C 92 % 1027,9 hPa 0,0 mm 0,0 km/h (0 Bft) NW 315 ° 0 min 0,000 mm 0,0 UV-I 18 W/m² -5,5 °C -4,4 °C 0,0 km/h (0 Bft)
18.12.2018 09:48 -4,4 °C 92 % 1027,8 hPa 0,0 mm 0,0 km/h (0 Bft) NW 315 ° 0 min 0,000 mm 0,0 UV-I 18 W/m² -5,5 °C -4,4 °C 0,0 km/h (0 Bft)
18.12.2018 09:49 -4,4 °C 92 % 1027,9 hPa 0,0 mm 0,0 km/h (0 Bft) NW 315 ° 0 min 0,000 mm 0,0 UV-I 18 W/m² -5,5 °C -4,4 °C 0,0 km/h (0 Bft)
18.12.2018 09:50 -4,3 °C 92 % 1027,8 hPa 0,0 mm 0,0 km/h (0 Bft) NW 315 ° 0 min 0,000 mm 0,0 UV-I 18 W/m² -5,4 °C -4,3 °C 0,0 km/h (0 Bft)
18.12.2018 09:51 -4,4 °C 92 % 1027,8 hPa 0,0 mm 0,0 km/h (0 Bft) NW 315 ° 0 min 0,000 mm 0,0 UV-I 18 W/m² -5,5 °C -4,4 °C 0,0 km/h (0 Bft)
18.12.2018 09:52 -4,3 °C 91 % 1027,8 hPa 0,0 mm 0,0 km/h (0 Bft) NW 315 ° 0 min 0,000 mm 0,0 UV-I 18 W/m² -5,5 °C -4,3 °C 0,0 km/h (0 Bft)
18.12.2018 09:53 -4,3 °C 92 % 1027,8 hPa 0,0 mm 0,0 km/h (0 Bft) NW 315 ° 0 min 0,000 mm 0,0 UV-I 18 W/m² -5,4 °C -4,3 °C 0,0 km/h (0 Bft)
18.12.2018 09:54 -4,3 °C 92 % 1027,8 hPa 0,0 mm 0,0 km/h (0 Bft) NW 315 ° 0 min 0,000 mm 0,0 UV-I 18 W/m² -5,4 °C -4,3 °C 0,0 km/h (0 Bft)
18.12.2018 09:55 -4,3 °C 92 % 1027,8 hPa 0,0 mm 0,0 km/h (0 Bft) NW 315 ° 0 min 0,000 mm 0,0 UV-I 18 W/m² -5,4 °C -4,3 °C 0,0 km/h (0 Bft)
18.12.2018 09:56 -4,3 °C 92 % 1027,7 hPa 0,0 mm 0,0 km/h (0 Bft) NW 315 ° 0 min 0,000 mm 0,0 UV-I 18 W/m² -5,4 °C -4,3 °C 0,0 km/h (0 Bft)
18.12.2018 09:57 -4,3 °C 92 % 1027,6 hPa 0,0 mm 0,0 km/h (0 Bft) NW 315 ° 0 min 0,000 mm 0,0 UV-I 18 W/m² -5,4 °C -4,3 °C 0,0 km/h (0 Bft)
18.12.2018 09:58 -4,3 °C 92 % 1027,6 hPa 0,0 mm 0,0 km/h (0 Bft) NW 315 ° 0 min 0,000 mm 0,0 UV-I 18 W/m² -5,4 °C -4,3 °C 0,0 km/h (0 Bft)
18.12.2018 09:59 -4,2 °C 92 % 1027,6 hPa 0,0 mm 0,0 km/h (0 Bft) NW 315 ° 0 min 0,000 mm 0,0 UV-I 18 W/m² -5,3 °C -4,2 °C 0,0 km/h (0 Bft)
18.12.2018 10:00 -4,2 °C 92 % 1027,5 hPa 0,0 mm 0,0 km/h (0 Bft) NW 315 ° 0 min 0,000 mm 0,0 UV-I 18 W/m² -5,3 °C -4,2 °C 0,0 km/h (0 Bft)
18.12.2018 10:01 -4,2 °C 92 % 1027,5 hPa 0,0 mm 0,0 km/h (0 Bft) NW 315 ° 0 min 0,000 mm 0,0 UV-I 18 W/m² -5,3 °C -4,2 °C 0,0 km/h (0 Bft)
18.12.2018 10:02 -4,2 °C 92 % 1027,5 hPa 0,0 mm 0,0 km/h (0 Bft) NW 315 ° 0 min 0,000 mm 0,0 UV-I 18 W/m² -5,3 °C -4,2 °C 0,0 km/h (0 Bft)
18.12.2018 10:03 -4,2 °C 92 % 1027,5 hPa 0,0 mm 0,0 km/h (0 Bft) NW 315 ° 0 min 0,000 mm 0,0 UV-I 18 W/m² -5,3 °C -4,2 °C 0,0 km/h (0 Bft)
18.12.2018 10:04 -4,2 °C 92 % 1027,5 hPa 0,0 mm 0,0 km/h (0 Bft) NW 315 ° 0 min 0,000 mm 0,0 UV-I 18 W/m² -5,3 °C -4,2 °C 0,0 km/h (0 Bft)
18.12.2018 10:05 -4,2 °C 92 % 1027,5 hPa 0,0 mm 0,0 km/h (0 Bft) NW 315 ° 0 min 0,000 mm 0,0 UV-I 18 W/m² -5,3 °C -4,2 °C 0,0 km/h (0 Bft)
18.12.2018 10:06 -4,2 °C 92 % 1027,5 hPa 0,0 mm 0,0 km/h (0 Bft) NW 315 ° 0 min 0,000 mm 0,0 UV-I 18 W/m² -5,3 °C -4,2 °C 0,0 km/h (0 Bft)
18.12.2018 10:07 -4,2 °C 92 % 1027,4 hPa 0,0 mm 0,4 km/h (0 Bft) NW 315 ° 0 min 0,000 mm 0,0 UV-I 18 W/m² -5,3 °C -4,2 °C 3,2 km/h (1 Bft)
18.12.2018 10:08 -4,2 °C 92 % 1027,4 hPa 0,0 mm 0,0 km/h (0 Bft) NW 315 ° 0 min 0,000 mm 0,0 UV-I 18 W/m² -5,3 °C -4,2 °C 0,0 km/h (0 Bft)
18.12.2018 10:09 -4,2 °C 92 % 1027,4 hPa 0,0 mm 0,0 km/h (0 Bft) NW 315 ° 0 min 0,000 mm 0,0 UV-I 18 W/m² -5,3 °C -4,2 °C 0,0 km/h (0 Bft)
18.12.2018 10:10 -4,2 °C 92 % 1027,4 hPa 0,0 mm 0,0 km/h (0 Bft) NW 315 ° 0 min 0,000 mm 0,0 UV-I 18 W/m² -5,3 °C -4,2 °C 0,0 km/h (0 Bft)
18.12.2018 10:11 -4,1 °C 92 % 1027,4 hPa 0,0 mm 0,0 km/h (0 Bft) NW 315 ° 0 min 0,000 mm 0,0 UV-I 18 W/m² -5,2 °C -4,1 °C 0,0 km/h (0 Bft)
18.12.2018 10:12 -4,1 °C 92 % 1027,4 hPa 0,0 mm 0,0 km/h (0 Bft) NW 315 ° 0 min 0,000 mm 0,0 UV-I 19 W/m² -5,2 °C -4,1 °C 0,0 km/h (0 Bft)
18.12.2018 10:13 -4,1 °C 92 % 1027,4 hPa 0,0 mm 0,0 km/h (0 Bft) NW 315 ° 0 min 0,000 mm 0,0 UV-I 19 W/m² -5,2 °C -4,1 °C 0,0 km/h (0 Bft)
18.12.2018 10:14 -4,1 °C 92 % 1027,4 hPa 0,0 mm 0,0 km/h (0 Bft) NW 315 ° 0 min 0,000 mm 0,0 UV-I 19 W/m² -5,2 °C -4,1 °C 0,0 km/h (0 Bft)
18.12.2018 10:15 -4,1 °C 92 % 1027,4 hPa 0,0 mm 0,0 km/h (0 Bft) NW 315 ° 0 min 0,000 mm 0,0 UV-I 19 W/m² -5,2 °C -4,1 °C 0,0 km/h (0 Bft)
18.12.2018 10:16 -4,1 °C 92 % 1027,4 hPa 0,0 mm 0,0 km/h (0 Bft) NW 315 ° 0 min 0,000 mm 0,0 UV-I 19 W/m² -5,2 °C -4,1 °C 0,0 km/h (0 Bft)
18.12.2018 10:17 -4,0 °C 92 % 1027,4 hPa 0,0 mm 0,0 km/h (0 Bft) NW 315 ° 0 min 0,000 mm 0,0 UV-I 19 W/m² -5,1 °C -4,0 °C 0,0 km/h (0 Bft)
18.12.2018 10:18 -3,9 °C 92 % 1027,4 hPa 0,0 mm 0,0 km/h (0 Bft) NW 315 ° 0 min 0,000 mm 0,0 UV-I 19 W/m² -5,0 °C -3,9 °C 0,0 km/h (0 Bft)
18.12.2018 10:19 -3,9 °C 92 % 1027,4 hPa 0,0 mm 0,0 km/h (0 Bft) NW 315 ° 0 min 0,000 mm 0,0 UV-I 19 W/m² -5,0 °C -3,9 °C 0,0 km/h (0 Bft)
18.12.2018 10:20 -3,9 °C 92 % 1027,4 hPa 0,0 mm 0,0 km/h (0 Bft) NW 315 ° 0 min 0,000 mm 0,0 UV-I 19 W/m² -5,0 °C -3,9 °C 0,0 km/h (0 Bft)
18.12.2018 10:21 -3,8 °C 92 % 1027,4 hPa 0,0 mm 0,0 km/h (0 Bft) NW 315 ° 0 min 0,000 mm 0,0 UV-I 19 W/m² -4,9 °C -3,8 °C 0,0 km/h (0 Bft)
18.12.2018 10:22 -3,8 °C 92 % 1027,3 hPa 0,0 mm 0,0 km/h (0 Bft) NW 315 ° 0 min 0,000 mm 0,0 UV-I 19 W/m² -4,9 °C -3,8 °C 0,0 km/h (0 Bft)
18.12.2018 10:23 -3,8 °C 92 % 1027,3 hPa 0,0 mm 0,0 km/h (0 Bft) NW 315 ° 0 min 0,000 mm 0,0 UV-I 19 W/m² -4,9 °C -3,8 °C 0,0 km/h (0 Bft)
18.12.2018 10:24 -3,8 °C 92 % 1027,3 hPa 0,0 mm 0,0 km/h (0 Bft) NW 315 ° 0 min 0,000 mm 0,0 UV-I 19 W/m² -4,9 °C -3,8 °C 0,0 km/h (0 Bft)
18.12.2018 10:25 -3,7 °C 92 % 1027,4 hPa 0,0 mm 0,0 km/h (0 Bft) NW 315 ° 0 min 0,000 mm 0,0 UV-I 19 W/m² -4,8 °C -3,7 °C 0,0 km/h (0 Bft)
18.12.2018 10:26 -3,7 °C 92 % 1027,3 hPa 0,0 mm 0,0 km/h (0 Bft) NW 315 ° 0 min 0,000 mm 0,0 UV-I 19 W/m² -4,8 °C -3,7 °C 0,0 km/h (0 Bft)
18.12.2018 10:27 -3,7 °C 92 % 1027,3 hPa 0,0 mm 0,0 km/h (0 Bft) NW 315 ° 0 min 0,000 mm 0,0 UV-I 19 W/m² -4,8 °C -3,7 °C 0,0 km/h (0 Bft)
18.12.2018 10:28 -3,6 °C 92 % 1027,3 hPa 0,0 mm 0,0 km/h (0 Bft) NW 315 ° 0 min 0,000 mm 0,0 UV-I 19 W/m² -4,7 °C -3,6 °C 0,0 km/h (0 Bft)
18.12.2018 10:29 -3,6 °C 92 % 1027,3 hPa 0,0 mm 0,0 km/h (0 Bft) NW 315 ° 0 min 0,000 mm 0,0 UV-I 19 W/m² -4,7 °C -3,6 °C 0,0 km/h (0 Bft)
18.12.2018 10:30 -3,6 °C 92 % 1027,2 hPa 0,0 mm 0,0 km/h (0 Bft) NW 320 ° 0 min 0,000 mm 0,0 UV-I 19 W/m² -4,7 °C -3,6 °C 0,0 km/h (0 Bft)
18.12.2018 10:31 -3,5 °C 92 % 1027,2 hPa 0,0 mm 0,4 km/h (0 Bft) N-NW 329 ° 0 min 0,000 mm 0,0 UV-I 19 W/m² -4,6 °C -3,5 °C 1,6 km/h (1 Bft)
18.12.2018 10:32 -3,5 °C 92 % 1027,2 hPa 0,0 mm 0,2 km/h (0 Bft) N-NW 329 ° 0 min 0,000 mm 0,0 UV-I 19 W/m² -4,6 °C -3,5 °C 1,6 km/h (1 Bft)
18.12.2018 10:33 -3,4 °C 92 % 1027,1 hPa 0,0 mm 0,0 km/h (0 Bft) N-NW 329 ° 0 min 0,000 mm 0,0 UV-I 19 W/m² -4,5 °C -3,4 °C 0,0 km/h (0 Bft)
18.12.2018 10:34 -3,4 °C 92 % 1027,1 hPa 0,0 mm 0,0 km/h (0 Bft) N-NW 329 ° 0 min 0,000 mm 0,0 UV-I 19 W/m² -4,5 °C -3,4 °C 0,0 km/h (0 Bft)
18.12.2018 10:35 -3,4 °C 92 % 1027,1 hPa 0,0 mm 0,0 km/h (0 Bft) N-NW 329 ° 0 min 0,000 mm 0,0 UV-I 19 W/m² -4,5 °C -3,4 °C 0,0 km/h (0 Bft)
18.12.2018 10:36 -3,4 °C 92 % 1027,0 hPa 0,0 mm 0,4 km/h (0 Bft) N-NW 330 ° 0 min 0,000 mm 0,0 UV-I 19 W/m² -4,5 °C -3,4 °C 1,6 km/h (1 Bft)
18.12.2018 10:37 -3,3 °C 92 % 1027,0 hPa 0,0 mm 2,2 km/h (1 Bft) N-NW 330 ° 0 min 0,000 mm 0,0 UV-I 19 W/m² -4,4 °C -3,3 °C 3,2 km/h (1 Bft)
18.12.2018 10:38 -3,3 °C 92 % 1026,9 hPa 0,0 mm 0,5 km/h (0 Bft) N-NW 331 ° 0 min 0,000 mm 0,0 UV-I 19 W/m² -4,4 °C -3,3 °C 1,6 km/h (1 Bft)
18.12.2018 10:39 -3,3 °C 92 % 1026,9 hPa 0,0 mm 0,2 km/h (0 Bft) N-NW 331 ° 0 min 0,000 mm 0,0 UV-I 19 W/m² -4,4 °C -3,3 °C 1,6 km/h (1 Bft)
18.12.2018 10:40 -3,2 °C 92 % 1026,9 hPa 0,0 mm 0,0 km/h (0 Bft) N-NW 331 ° 0 min 0,000 mm 0,0 UV-I 19 W/m² -4,3 °C -3,2 °C 0,0 km/h (0 Bft)
18.12.2018 10:41 -3,2 °C 92 % 1026,9 hPa 0,0 mm 0,0 km/h (0 Bft) N-NW 331 ° 0 min 0,000 mm 0,0 UV-I 19 W/m² -4,3 °C -3,2 °C 0,0 km/h (0 Bft)
18.12.2018 10:42 -3,2 °C 92 % 1026,9 hPa 0,0 mm 0,0 km/h (0 Bft) N-NW 331 ° 0 min 0,000 mm 0,0 UV-I 19 W/m² -4,3 °C -3,2 °C 0,0 km/h (0 Bft)
18.12.2018 10:43 -3,1 °C 92 % 1026,9 hPa 0,0 mm 0,0 km/h (0 Bft) N-NW 330 ° 0 min 0,000 mm 0,0 UV-I 19 W/m² -4,2 °C -3,1 °C 0,0 km/h (0 Bft)
18.12.2018 10:44 -3,1 °C 92 % 1026,9 hPa 0,0 mm 0,0 km/h (0 Bft) N-NW 331 ° 0 min 0,000 mm 0,0 UV-I 19 W/m² -4,2 °C -3,1 °C 0,0 km/h (0 Bft)
18.12.2018 10:45 -3,1 °C 92 % 1026,8 hPa 0,0 mm 0,0 km/h (0 Bft) N-NW 330 ° 0 min 0,000 mm 0,0 UV-I 19 W/m² -4,2 °C -3,1 °C 0,0 km/h (0 Bft)
18.12.2018 10:46 -3,0 °C 92 % 1026,8 hPa 0,0 mm 0,0 km/h (0 Bft) N-NW 331 ° 0 min 0,000 mm 0,0 UV-I 19 W/m² -4,1 °C -3,0 °C 0,0 km/h (0 Bft)
18.12.2018 10:47 -2,9 °C 92 % 1026,8 hPa 0,0 mm 0,0 km/h (0 Bft) N-NW 331 ° 0 min 0,000 mm 0,0 UV-I 19 W/m² -4,0 °C -2,9 °C 0,0 km/h (0 Bft)
18.12.2018 10:48 -2,9 °C 92 % 1026,9 hPa 0,0 mm 0,0 km/h (0 Bft) N-NW 330 ° 0 min 0,000 mm 0,0 UV-I 19 W/m² -4,0 °C -2,9 °C 0,0 km/h (0 Bft)
18.12.2018 10:49 -2,8 °C 92 % 1026,9 hPa 0,0 mm 0,0 km/h (0 Bft) N-NW 331 ° 0 min 0,000 mm 0,0 UV-I 19 W/m² -3,9 °C -2,8 °C 0,0 km/h (0 Bft)
18.12.2018 10:50 -2,8 °C 92 % 1026,9 hPa 0,0 mm 0,0 km/h (0 Bft) N-NW 330 ° 0 min 0,000 mm 0,0 UV-I 19 W/m² -3,9 °C -2,8 °C 0,0 km/h (0 Bft)
18.12.2018 10:51 -2,7 °C 92 % 1026,9 hPa 0,0 mm 0,0 km/h (0 Bft) N-NW 330 ° 0 min 0,000 mm 0,0 UV-I 19 W/m² -3,8 °C -2,7 °C 0,0 km/h (0 Bft)
18.12.2018 10:52 -2,7 °C 92 % 1026,9 hPa 0,0 mm 0,0 km/h (0 Bft) N-NW 331 ° 0 min 0,000 mm 0,0 UV-I 19 W/m² -3,8 °C -2,7 °C 0,0 km/h (0 Bft)
18.12.2018 10:53 -2,7 °C 92 % 1026,8 hPa 0,0 mm 0,0 km/h (0 Bft) N-NW 330 ° 0 min 0,000 mm 0,0 UV-I 19 W/m² -3,8 °C -2,7 °C 0,0 km/h (0 Bft)
18.12.2018 10:54 -2,6 °C 92 % 1026,8 hPa 0,0 mm 0,0 km/h (0 Bft) N-NW 330 ° 0 min 0,000 mm 0,0 UV-I 21 W/m² -3,7 °C -2,6 °C 0,0 km/h (0 Bft)
18.12.2018 10:55 -2,6 °C 92 % 1026,8 hPa 0,0 mm 0,0 km/h (0 Bft) N-NW 330 ° 0 min 0,000 mm 0,0 UV-I 25 W/m² -3,7 °C -2,6 °C 0,0 km/h (0 Bft)
18.12.2018 10:56 -2,5 °C 92 % 1026,8 hPa 0,0 mm 0,0 km/h (0 Bft) N-NW 330 ° 0 min 0,000 mm 0,0 UV-I 21 W/m² -3,6 °C -2,5 °C 0,0 km/h (0 Bft)
18.12.2018 10:57 -2,4 °C 92 % 1026,7 hPa 0,0 mm 0,0 km/h (0 Bft) N-NW 330 ° 0 min 0,000 mm 0,0 UV-I 19 W/m² -3,5 °C -2,4 °C 0,0 km/h (0 Bft)
18.12.2018 10:58 -2,4 °C 92 % 1026,7 hPa 0,0 mm 0,0 km/h (0 Bft) N-NW 330 ° 0 min 0,000 mm 0,0 UV-I 19 W/m² -3,5 °C -2,4 °C 0,0 km/h (0 Bft)
18.12.2018 10:59 -2,4 °C 92 % 1026,8 hPa 0,0 mm 0,0 km/h (0 Bft) N-NW 330 ° 0 min 0,000 mm 0,0 UV-I 19 W/m² -3,5 °C -2,4 °C 0,0 km/h (0 Bft)
18.12.2018 11:00 -2,3 °C 91 % 1026,8 hPa 0,0 mm 0,0 km/h (0 Bft) N-NW 330 ° 0 min 0,000 mm 0,0 UV-I 19 W/m² -3,6 °C -2,3 °C 0,0 km/h (0 Bft)
18.12.2018 11:01 -2,3 °C 91 % 1026,8 hPa 0,0 mm 0,0 km/h (0 Bft) N-NW 330 ° 0 min 0,000 mm 0,0 UV-I 19 W/m² -3,6 °C -2,3 °C 0,0 km/h (0 Bft)
18.12.2018 11:02 -2,3 °C 91 % 1026,8 hPa 0,0 mm 0,0 km/h (0 Bft) N-NW 330 ° 0 min 0,000 mm 0,0 UV-I 19 W/m² -3,6 °C -2,3 °C 0,0 km/h (0 Bft)
18.12.2018 11:03 -2,3 °C 91 % 1026,7 hPa 0,0 mm 0,0 km/h (0 Bft) N-NW 330 ° 0 min 0,000 mm 0,0 UV-I 19 W/m² -3,6 °C -2,3 °C 0,0 km/h (0 Bft)
18.12.2018 11:04 -2,2 °C 91 % 1026,8 hPa 0,0 mm 0,0 km/h (0 Bft) N-NW 330 ° 0 min 0,000 mm 0,0 UV-I 19 W/m² -3,5 °C -2,2 °C 0,0 km/h (0 Bft)
18.12.2018 11:05 -2,2 °C 91 % 1026,7 hPa 0,0 mm 0,0 km/h (0 Bft) N-NW 330 ° 0 min 0,000 mm 0,0 UV-I 21 W/m² -3,5 °C -2,2 °C 0,0 km/h (0 Bft)
18.12.2018 11:06 -2,2 °C 91 % 1026,7 hPa 0,0 mm 0,0 km/h (0 Bft) N-NW 330 ° 0 min 0,000 mm 0,0 UV-I 21 W/m² -3,5 °C -2,2 °C 0,0 km/h (0 Bft)
18.12.2018 11:07 -2,1 °C 91 % 1026,7 hPa 0,0 mm 0,0 km/h (0 Bft) N-NW 330 ° 0 min 0,000 mm 0,0 UV-I 21 W/m² -3,4 °C -2,1 °C 0,0 km/h (0 Bft)
18.12.2018 11:08 -2,1 °C 91 % 1026,6 hPa 0,0 mm 0,4 km/h (0 Bft) N-NW 329 ° 0 min 0,000 mm 0,0 UV-I 21 W/m² -3,4 °C -2,1 °C 3,2 km/h (1 Bft)
18.12.2018 11:09 -2,1 °C 91 % 1026,6 hPa 0,0 mm 0,6 km/h (0 Bft) N-NW 329 ° 0 min 0,000 mm 0,0 UV-I 21 W/m² -3,4 °C -2,1 °C 3,2 km/h (1 Bft)
18.12.2018 11:10 -2,0 °C 90 % 1026,6 hPa 0,0 mm 0,0 km/h (0 Bft) N-NW 329 ° 0 min 0,000 mm 0,0 UV-I 21 W/m² -3,4 °C -2,0 °C 0,0 km/h (0 Bft)
18.12.2018 11:11 -1,9 °C 90 % 1026,6 hPa 0,0 mm 0,0 km/h (0 Bft) N-NW 329 ° 0 min 0,000 mm 0,0 UV-I 21 W/m² -3,3 °C -1,9 °C 0,0 km/h (0 Bft)
18.12.2018 11:12 -1,9 °C 90 % 1026,6 hPa 0,0 mm 0,0 km/h (0 Bft) N-NW 329 ° 0 min 0,000 mm 0,0 UV-I 21 W/m² -3,3 °C -1,9 °C 0,0 km/h (0 Bft)
18.12.2018 11:13 -1,9 °C 90 % 1026,6 hPa 0,0 mm 0,0 km/h (0 Bft) N-NW 329 ° 0 min 0,000 mm 0,0 UV-I 21 W/m² -3,3 °C -1,9 °C 0,0 km/h (0 Bft)
18.12.2018 11:14 -1,8 °C 89 % 1026,6 hPa 0,0 mm 0,0 km/h (0 Bft) N-NW 329 ° 0 min 0,000 mm 0,0 UV-I 21 W/m² -3,4 °C -1,8 °C 0,0 km/h (0 Bft)
18.12.2018 11:15 -1,8 °C 89 % 1026,6 hPa 0,0 mm 0,0 km/h (0 Bft) N-NW 329 ° 0 min 0,000 mm 0,0 UV-I 21 W/m² -3,4 °C -1,8 °C 0,0 km/h (0 Bft)
18.12.2018 11:16 -1,8 °C 89 % 1026,5 hPa 0,0 mm 0,0 km/h (0 Bft) N-NW 329 ° 0 min 0,000 mm 0,0 UV-I 21 W/m² -3,4 °C -1,8 °C 0,0 km/h (0 Bft)
18.12.2018 11:17 -1,7 °C 89 % 1026,5 hPa 0,0 mm 0,0 km/h (0 Bft) N-NW 329 ° 0 min 0,000 mm 0,0 UV-I 21 W/m² -3,3 °C -1,7 °C 0,0 km/h (0 Bft)
18.12.2018 11:18 -1,7 °C 89 % 1026,5 hPa 0,0 mm 0,0 km/h (0 Bft) N-NW 329 ° 0 min 0,000 mm 0,0 UV-I 21 W/m² -3,3 °C -1,7 °C 0,0 km/h (0 Bft)
18.12.2018 11:19 -1,7 °C 89 % 1026,4 hPa 0,0 mm 0,0 km/h (0 Bft) N-NW 329 ° 0 min 0,000 mm 0,0 UV-I 21 W/m² -3,3 °C -1,7 °C 0,0 km/h (0 Bft)
18.12.2018 11:20 -1,7 °C 88 % 1026,4 hPa 0,0 mm 0,0 km/h (0 Bft) N-NW 329 ° 0 min 0,000 mm 0,0 UV-I 21 W/m² -3,4 °C -1,7 °C 0,0 km/h (0 Bft)
18.12.2018 11:21 -1,6 °C 88 % 1026,4 hPa 0,0 mm 0,0 km/h (0 Bft) N-NW 329 ° 0 min 0,000 mm 0,0 UV-I 21 W/m² -3,3 °C -1,6 °C 0,0 km/h (0 Bft)
18.12.2018 11:22 -1,6 °C 88 % 1026,4 hPa 0,0 mm 0,0 km/h (0 Bft) N-NW 329 ° 0 min 0,000 mm 0,0 UV-I 21 W/m² -3,3 °C -1,6 °C 0,0 km/h (0 Bft)
18.12.2018 11:23 -1,6 °C 88 % 1026,4 hPa 0,0 mm 0,0 km/h (0 Bft) N-NW 329 ° 0 min 0,000 mm 0,0 UV-I 21 W/m² -3,3 °C -1,6 °C 0,0 km/h (0 Bft)
18.12.2018 11:24 -1,6 °C 88 % 1026,4 hPa 0,0 mm 0,0 km/h (0 Bft) N-NW 329 ° 0 min 0,000 mm 0,0 UV-I 21 W/m² -3,3 °C -1,6 °C 0,0 km/h (0 Bft)
18.12.2018 11:25 -1,5 °C 88 % 1026,4 hPa 0,0 mm 0,0 km/h (0 Bft) N-NW 329 ° 0 min 0,000 mm 0,0 UV-I 21 W/m² -3,2 °C -1,5 °C 0,0 km/h (0 Bft)
18.12.2018 11:26 -1,6 °C 88 % 1026,3 hPa 0,0 mm 0,0 km/h (0 Bft) N-NW 329 ° 0 min 0,000 mm 0,0 UV-I 21 W/m² -3,3 °C -1,6 °C 0,0 km/h (0 Bft)
18.12.2018 11:27 -1,5 °C 87 % 1026,3 hPa 0,0 mm 0,0 km/h (0 Bft) N-NW 329 ° 0 min 0,000 mm 0,0 UV-I 21 W/m² -3,4 °C -1,5 °C 0,0 km/h (0 Bft)
18.12.2018 11:28 -1,5 °C 87 % 1026,4 hPa 0,0 mm 0,0 km/h (0 Bft) N-NW 329 ° 0 min 0,000 mm 0,0 UV-I 21 W/m² -3,4 °C -1,5 °C 0,0 km/h (0 Bft)
18.12.2018 11:29 -1,4 °C 87 % 1026,4 hPa 0,0 mm 0,0 km/h (0 Bft) N-NW 329 ° 0 min 0,000 mm 0,0 UV-I 21 W/m² -3,3 °C -1,4 °C 0,0 km/h (0 Bft)
18.12.2018 11:30 -1,4 °C 87 % 1026,3 hPa 0,0 mm 0,3 km/h (0 Bft) N-NW 329 ° 0 min 0,000 mm 0,0 UV-I 21 W/m² -3,3 °C -1,4 °C 1,6 km/h (1 Bft)
18.12.2018 11:31 -1,4 °C 87 % 1026,4 hPa 0,0 mm 1,2 km/h (1 Bft) N-NW 329 ° 0 min 0,000 mm 0,0 UV-I 21 W/m² -3,3 °C -1,4 °C 3,2 km/h (1 Bft)
18.12.2018 11:32 -1,4 °C 87 % 1026,3 hPa 0,0 mm 0,4 km/h (0 Bft) N-NW 329 ° 0 min 0,000 mm 0,0 UV-I 21 W/m² -3,3 °C -1,4 °C 1,6 km/h (1 Bft)
18.12.2018 11:33 -1,3 °C 86 % 1026,3 hPa 0,0 mm 0,0 km/h (0 Bft) N-NW 329 ° 0 min 0,000 mm 0,0 UV-I 21 W/m² -3,3 °C -1,3 °C 0,0 km/h (0 Bft)
18.12.2018 11:34 -1,3 °C 86 % 1026,3 hPa 0,0 mm 0,0 km/h (0 Bft) N-NW 329 ° 0 min 0,000 mm 0,0 UV-I 21 W/m² -3,3 °C -1,3 °C 0,0 km/h (0 Bft)
18.12.2018 11:35 -1,3 °C 86 % 1026,3 hPa 0,0 mm 0,0 km/h (0 Bft) N-NW 329 ° 0 min 0,000 mm 0,0 UV-I 21 W/m² -3,3 °C -1,3 °C 0,0 km/h (0 Bft)
18.12.2018 11:36 -1,3 °C 86 % 1026,3 hPa 0,0 mm 0,0 km/h (0 Bft) N-NW 329 ° 0 min 0,000 mm 0,0 UV-I 21 W/m² -3,3 °C -1,3 °C 0,0 km/h (0 Bft)
18.12.2018 11:37 -1,3 °C 86 % 1026,2 hPa 0,0 mm 0,0 km/h (0 Bft) N-NW 329 ° 0 min 0,000 mm 0,0 UV-I 21 W/m² -3,3 °C -1,3 °C 0,0 km/h (0 Bft)
18.12.2018 11:38 -1,2 °C 85 % 1026,3 hPa 0,0 mm 0,0 km/h (0 Bft) N-NW 329 ° 0 min 0,000 mm 0,0 UV-I 21 W/m² -3,4 °C -1,2 °C 0,0 km/h (0 Bft)
18.12.2018 11:39 -1,2 °C 85 % 1026,3 hPa 0,0 mm 0,0 km/h (0 Bft) N-NW 329 ° 0 min 0,000 mm 0,0 UV-I 21 W/m² -3,4 °C -1,2 °C 0,0 km/h (0 Bft)
18.12.2018 11:40 -1,2 °C 85 % 1026,2 hPa 0,0 mm 0,0 km/h (0 Bft) N-NW 329 ° 0 min 0,000 mm 0,0 UV-I 21 W/m² -3,4 °C -1,2 °C 0,0 km/h (0 Bft)
18.12.2018 11:41 -1,2 °C 85 % 1026,1 hPa 0,0 mm 0,0 km/h (0 Bft) N-NW 329 ° 0 min 0,000 mm 0,0 UV-I 21 W/m² -3,4 °C -1,2 °C 0,0 km/h (0 Bft)
18.12.2018 11:42 -1,1 °C 85 % 1026,1 hPa 0,0 mm 0,0 km/h (0 Bft) N-NW 329 ° 0 min 0,000 mm 0,0 UV-I 21 W/m² -3,3 °C -1,1 °C 0,0 km/h (0 Bft)
18.12.2018 11:43 -1,1 °C 85 % 1026,1 hPa 0,0 mm 0,0 km/h (0 Bft) N-NW 329 ° 0 min 0,000 mm 0,0 UV-I 21 W/m² -3,3 °C -1,1 °C 0,0 km/h (0 Bft)
18.12.2018 11:44 -1,1 °C 85 % 1026,1 hPa 0,0 mm 0,0 km/h (0 Bft) N-NW 329 ° 0 min 0,000 mm 0,0 UV-I 21 W/m² -3,3 °C -1,1 °C 0,0 km/h (0 Bft)
18.12.2018 11:45 -1,1 °C 85 % 1026,1 hPa 0,0 mm 0,0 km/h (0 Bft) N-NW 329 ° 0 min 0,000 mm 0,0 UV-I 21 W/m² -3,3 °C -1,1 °C 0,0 km/h (0 Bft)
18.12.2018 11:46 -1,1 °C 84 % 1026,1 hPa 0,0 mm 0,0 km/h (0 Bft) N-NW 329 ° 0 min 0,000 mm 0,0 UV-I 21 W/m² -3,4 °C -1,1 °C 0,0 km/h (0 Bft)
18.12.2018 11:47 -1,0 °C 84 % 1026,1 hPa 0,0 mm 0,0 km/h (0 Bft) N-NW 329 ° 0 min 0,000 mm 0,0 UV-I 21 W/m² -3,4 °C -1,0 °C 0,0 km/h (0 Bft)
18.12.2018 11:48 -1,0 °C 84 % 1026,0 hPa 0,0 mm 0,0 km/h (0 Bft) N-NW 329 ° 0 min 0,000 mm 0,0 UV-I 21 W/m² -3,4 °C -1,0 °C 0,0 km/h (0 Bft)
18.12.2018 11:49 -0,9 °C 84 % 1026,1 hPa 0,0 mm 0,0 km/h (0 Bft) N-NW 329 ° 0 min 0,000 mm 0,0 UV-I 21 W/m² -3,3 °C -0,9 °C 0,0 km/h (0 Bft)
18.12.2018 11:50 -0,9 °C 84 % 1026,0 hPa 0,0 mm 0,0 km/h (0 Bft) N-NW 329 ° 0 min 0,000 mm 0,0 UV-I 23 W/m² -3,3 °C -0,9 °C 0,0 km/h (0 Bft)
18.12.2018 11:51 -0,9 °C 84 % 1026,0 hPa 0,0 mm 0,0 km/h (0 Bft) N-NW 329 ° 0 min 0,000 mm 0,0 UV-I 23 W/m² -3,3 °C -0,9 °C 0,0 km/h (0 Bft)
18.12.2018 11:52 -0,9 °C 84 % 1026,0 hPa 0,0 mm 0,0 km/h (0 Bft) N-NW 329 ° 0 min 0,000 mm 0,0 UV-I 35 W/m² -3,3 °C -0,9 °C 0,0 km/h (0 Bft)
18.12.2018 11:53 -0,9 °C 84 % 1026,0 hPa 0,0 mm 0,0 km/h (0 Bft) N-NW 329 ° 0 min 0,000 mm 0,0 UV-I 33 W/m² -3,3 °C -0,9 °C 0,0 km/h (0 Bft)
18.12.2018 11:54 -0,8 °C 83 % 1026,0 hPa 0,0 mm 0,0 km/h (0 Bft) N-NW 329 ° 0 min 0,000 mm 0,9 UV-I 72 W/m² -3,3 °C -0,8 °C 0,0 km/h (0 Bft)
18.12.2018 11:55 -0,8 °C 83 % 1026,0 hPa 0,0 mm 0,0 km/h (0 Bft) N-NW 329 ° 0 min 0,000 mm 0,9 UV-I 63 W/m² -3,3 °C -0,8 °C 0,0 km/h (0 Bft)
18.12.2018 11:56 -0,6 °C 83 % 1026,0 hPa 0,0 mm 0,0 km/h (0 Bft) N-NW 329 ° 0 min 0,000 mm 0,0 UV-I 51 W/m² -3,1 °C -0,6 °C 0,0 km/h (0 Bft)
18.12.2018 11:57 -0,4 °C 81 % 1026,0 hPa 0,0 mm 0,0 km/h (0 Bft) N-NW 329 ° 0 min 0,000 mm 0,0 UV-I 33 W/m² -3,3 °C -0,4 °C 0,0 km/h (0 Bft)
18.12.2018 11:58 -0,3 °C 80 % 1026,1 hPa 0,0 mm 0,0 km/h (0 Bft) N-NW 329 ° 0 min 0,000 mm 0,0 UV-I 26 W/m² -3,3 °C -0,3 °C 0,0 km/h (0 Bft)
18.12.2018 11:59 -0,2 °C 80 % 1026,0 hPa 0,0 mm 0,0 km/h (0 Bft) N-NW 329 ° 0 min 0,000 mm 0,0 UV-I 26 W/m² -3,2 °C -0,2 °C 0,0 km/h (0 Bft)
18.12.2018 12:00 -0,1 °C 80 % 1026,1 hPa 0,0 mm 0,0 km/h (0 Bft) N-NW 329 ° 0 min 0,000 mm 0,0 UV-I 35 W/m² -3,1 °C -0,1 °C 0,0 km/h (0 Bft)
18.12.2018 12:01 0,1 °C 80 % 1026,0 hPa 0,0 mm 0,0 km/h (0 Bft) N-NW 329 ° 0 min 0,000 mm 0,0 UV-I 51 W/m² -2,9 °C 0,1 °C 0,0 km/h (0 Bft)
18.12.2018 12:02 0,3 °C 79 % 1026,1 hPa 0,0 mm 0,0 km/h (0 Bft) N-NW 329 ° 0 min 0,000 mm 0,0 UV-I 51 W/m² -2,9 °C 0,3 °C 0,0 km/h (0 Bft)
18.12.2018 12:03 0,5 °C 78 % 1026,1 hPa 0,0 mm 0,0 km/h (0 Bft) N-NW 329 ° 0 min 0,000 mm 0,0 UV-I 51 W/m² -2,9 °C 0,5 °C 0,0 km/h (0 Bft)
18.12.2018 12:04 0,6 °C 77 % 1026,1 hPa 0,0 mm 0,0 km/h (0 Bft) N-NW 329 ° 0 min 0,000 mm 0,0 UV-I 40 W/m² -3,0 °C 0,6 °C 0,0 km/h (0 Bft)
18.12.2018 12:05 0,6 °C 76 % 1026,1 hPa 0,0 mm 0,0 km/h (0 Bft) N-NW 329 ° 0 min 0,000 mm 0,0 UV-I 21 W/m² -3,1 °C 0,6 °C 0,0 km/h (0 Bft)
18.12.2018 12:06 0,6 °C 76 % 1026,1 hPa 0,0 mm 0,0 km/h (0 Bft) N-NW 329 ° 0 min 0,000 mm 0,0 UV-I 23 W/m² -3,1 °C 0,6 °C 0,0 km/h (0 Bft)
18.12.2018 12:07 0,6 °C 77 % 1026,0 hPa 0,0 mm 0,0 km/h (0 Bft) N-NW 329 ° 0 min 0,000 mm 0,0 UV-I 23 W/m² -3,0 °C 0,6 °C 0,0 km/h (0 Bft)
18.12.2018 12:08 0,6 °C 77 % 1026,0 hPa 0,0 mm 0,0 km/h (0 Bft) N-NW 329 ° 0 min 0,000 mm 0,0 UV-I 23 W/m² -3,0 °C 0,6 °C 0,0 km/h (0 Bft)
18.12.2018 12:09 0,6 °C 77 % 1026,0 hPa 0,0 mm 0,0 km/h (0 Bft) N-NW 329 ° 0 min 0,000 mm 0,0 UV-I 21 W/m² -3,0 °C 0,6 °C 0,0 km/h (0 Bft)
18.12.2018 12:10 0,6 °C 77 % 1026,0 hPa 0,0 mm 0,0 km/h (0 Bft) N-NW 329 ° 0 min 0,000 mm 0,0 UV-I 23 W/m² -3,0 °C 0,6 °C 0,0 km/h (0 Bft)
18.12.2018 12:11 0,5 °C 78 % 1026,0 hPa 0,0 mm 0,0 km/h (0 Bft) N-NW 329 ° 0 min 0,000 mm 0,0 UV-I 21 W/m² -2,9 °C 0,5 °C 0,0 km/h (0 Bft)
18.12.2018 12:12 0,5 °C 78 % 1025,9 hPa 0,0 mm 0,0 km/h (0 Bft) N-NW 329 ° 0 min 0,000 mm 0,0 UV-I 21 W/m² -2,9 °C 0,5 °C 0,0 km/h (0 Bft)
18.12.2018 12:13 0,5 °C 78 % 1026,0 hPa 0,0 mm 0,0 km/h (0 Bft) N-NW 329 ° 0 min 0,000 mm 0,0 UV-I 21 W/m² -2,9 °C 0,5 °C 0,0 km/h (0 Bft)
18.12.2018 12:14 0,5 °C 78 % 1026,0 hPa 0,0 mm 0,0 km/h (0 Bft) N-NW 329 ° 0 min 0,000 mm 0,0 UV-I 21 W/m² -2,9 °C 0,5 °C 0,0 km/h (0 Bft)
18.12.2018 12:15 0,4 °C 78 % 1026,0 hPa 0,0 mm 0,0 km/h (0 Bft) N-NW 329 ° 0 min 0,000 mm 0,0 UV-I 23 W/m² -3,0 °C 0,4 °C 0,0 km/h (0 Bft)
18.12.2018 12:16 0,4 °C 78 % 1025,9 hPa 0,0 mm 0,0 km/h (0 Bft) N-NW 329 ° 0 min 0,000 mm 0,0 UV-I 23 W/m² -3,0 °C 0,4 °C 0,0 km/h (0 Bft)
18.12.2018 12:17 0,5 °C 78 % 1025,9 hPa 0,0 mm 0,0 km/h (0 Bft) N-NW 329 ° 0 min 0,000 mm 0,0 UV-I 21 W/m² -2,9 °C 0,5 °C 0,0 km/h (0 Bft)
18.12.2018 12:18 0,5 °C 78 % 1025,9 hPa 0,0 mm 0,0 km/h (0 Bft) N-NW 329 ° 0 min 0,000 mm 0,0 UV-I 21 W/m² -2,9 °C 0,5 °C 0,0 km/h (0 Bft)
18.12.2018 12:19 0,5 °C 78 % 1025,8 hPa 0,0 mm 0,0 km/h (0 Bft) N-NW 329 ° 0 min 0,000 mm 0,0 UV-I 21 W/m² -2,9 °C 0,5 °C 0,0 km/h (0 Bft)
18.12.2018 12:20 0,5 °C 78 % 1025,8 hPa 0,0 mm 0,0 km/h (0 Bft) N-NW 329 ° 0 min 0,000 mm 0,0 UV-I 21 W/m² -2,9 °C 0,5 °C 0,0 km/h (0 Bft)
18.12.2018 12:21 0,5 °C 78 % 1025,9 hPa 0,0 mm 0,0 km/h (0 Bft) N-NW 329 ° 0 min 0,000 mm 0,0 UV-I 21 W/m² -2,9 °C 0,5 °C 0,0 km/h (0 Bft)
18.12.2018 12:22 0,5 °C 78 % 1025,9 hPa 0,0 mm 0,0 km/h (0 Bft) N-NW 329 ° 0 min 0,000 mm 0,0 UV-I 21 W/m² -2,9 °C 0,5 °C 0,0 km/h (0 Bft)
18.12.2018 12:23 0,5 °C 78 % 1025,9 hPa 0,0 mm 0,0 km/h (0 Bft) N-NW 329 ° 0 min 0,000 mm 0,0 UV-I 21 W/m² -2,9 °C 0,5 °C 0,0 km/h (0 Bft)
18.12.2018 12:24 0,6 °C 78 % 1025,8 hPa 0,0 mm 0,0 km/h (0 Bft) N-NW 329 ° 0 min 0,000 mm 0,0 UV-I 25 W/m² -2,8 °C 0,6 °C 0,0 km/h (0 Bft)
18.12.2018 12:25 0,5 °C 78 % 1025,8 hPa 0,0 mm 0,0 km/h (0 Bft) N-NW 329 ° 0 min 0,000 mm 0,0 UV-I 35 W/m² -2,9 °C 0,5 °C 0,0 km/h (0 Bft)
18.12.2018 12:26 0,7 °C 79 % 1025,8 hPa 0,0 mm 0,0 km/h (0 Bft) N-NW 329 ° 0 min 0,000 mm 0,0 UV-I 39 W/m² -2,5 °C 0,7 °C 0,0 km/h (0 Bft)
18.12.2018 12:27 0,8 °C 78 % 1025,8 hPa 0,0 mm 0,0 km/h (0 Bft) N-NW 329 ° 0 min 0,000 mm 0,0 UV-I 30 W/m² -2,6 °C 0,8 °C 0,0 km/h (0 Bft)
18.12.2018 12:28 0,9 °C 78 % 1025,8 hPa 0,0 mm 0,0 km/h (0 Bft) N-NW 329 ° 0 min 0,000 mm 0,0 UV-I 21 W/m² -2,5 °C 0,9 °C 0,0 km/h (0 Bft)
18.12.2018 12:29 1,0 °C 78 % 1025,8 hPa 0,0 mm 0,0 km/h (0 Bft) N-NW 329 ° 0 min 0,000 mm 0,0 UV-I 23 W/m² -2,4 °C 1,0 °C 0,0 km/h (0 Bft)
18.12.2018 12:30 1,1 °C 77 % 1025,8 hPa 0,0 mm 0,0 km/h (0 Bft) N-NW 329 ° 0 min 0,000 mm 0,0 UV-I 23 W/m² -2,5 °C 1,1 °C 0,0 km/h (0 Bft)
18.12.2018 12:31 1,1 °C 77 % 1025,8 hPa 0,0 mm 0,0 km/h (0 Bft) N-NW 329 ° 0 min 0,000 mm 0,0 UV-I 25 W/m² -2,5 °C 1,1 °C 0,0 km/h (0 Bft)
18.12.2018 12:32 1,1 °C 77 % 1025,8 hPa 0,0 mm 0,0 km/h (0 Bft) N-NW 329 ° 0 min 0,000 mm 0,0 UV-I 23 W/m² -2,5 °C 1,1 °C 0,0 km/h (0 Bft)
18.12.2018 12:33 1,1 °C 77 % 1025,8 hPa 0,0 mm 0,0 km/h (0 Bft) N-NW 329 ° 0 min 0,000 mm 0,0 UV-I 23 W/m² -2,5 °C 1,1 °C 0,0 km/h (0 Bft)
18.12.2018 12:34 1,1 °C 77 % 1025,8 hPa 0,0 mm 0,0 km/h (0 Bft) N-NW 329 ° 0 min 0,000 mm 0,0 UV-I 21 W/m² -2,5 °C 1,1 °C 0,0 km/h (0 Bft)
18.12.2018 12:35 1,1 °C 77 % 1025,7 hPa 0,0 mm 0,0 km/h (0 Bft) N-NW 329 ° 0 min 0,000 mm 0,0 UV-I 21 W/m² -2,5 °C 1,1 °C 0,0 km/h (0 Bft)
18.12.2018 12:36 1,1 °C 78 % 1025,7 hPa 0,0 mm 0,3 km/h (0 Bft) N-NW 329 ° 0 min 0,000 mm 0,0 UV-I 21 W/m² -2,3 °C 1,1 °C 1,6 km/h (1 Bft)
18.12.2018 12:37 1,1 °C 78 % 1025,7 hPa 0,0 mm 0,0 km/h (0 Bft) N-NW 329 ° 0 min 0,000 mm 0,0 UV-I 21 W/m² -2,3 °C 1,1 °C 0,0 km/h (0 Bft)
18.12.2018 12:38 1,1 °C 78 % 1025,7 hPa 0,0 mm 0,8 km/h (0 Bft) N-NW 329 ° 0 min 0,000 mm 0,0 UV-I 21 W/m² -2,3 °C 1,1 °C 3,2 km/h (1 Bft)
18.12.2018 12:39 1,1 °C 78 % 1025,7 hPa 0,0 mm 0,1 km/h (0 Bft) N-NW 329 ° 0 min 0,000 mm 0,0 UV-I 21 W/m² -2,3 °C 1,1 °C 1,6 km/h (1 Bft)
18.12.2018 12:40 1,1 °C 78 % 1025,7 hPa 0,0 mm 0,0 km/h (0 Bft) N-NW 329 ° 0 min 0,000 mm 0,0 UV-I 21 W/m² -2,3 °C 1,1 °C 0,0 km/h (0 Bft)
18.12.2018 12:41 1,0 °C 78 % 1025,6 hPa 0,0 mm 2,5 km/h (1 Bft) O-SO 109 ° 0 min 0,000 mm 0,0 UV-I 23 W/m² -2,4 °C 1,0 °C 3,2 km/h (1 Bft)
18.12.2018 12:42 1,0 °C 78 % 1025,6 hPa 0,0 mm 1,9 km/h (1 Bft) O-SO 109 ° 0 min 0,000 mm 0,0 UV-I 25 W/m² -2,4 °C 1,0 °C 3,2 km/h (1 Bft)
18.12.2018 12:43 1,0 °C 78 % 1025,6 hPa 0,0 mm 1,0 km/h (0 Bft) O-SO 109 ° 0 min 0,000 mm 0,0 UV-I 25 W/m² -2,4 °C 1,0 °C 1,6 km/h (1 Bft)
18.12.2018 12:44 1,1 °C 78 % 1025,5 hPa 0,0 mm 0,7 km/h (0 Bft) O-SO 109 ° 0 min 0,000 mm 0,0 UV-I 23 W/m² -2,3 °C 1,1 °C 3,2 km/h (1 Bft)
18.12.2018 12:45 1,1 °C 78 % 1025,5 hPa 0,0 mm 0,5 km/h (0 Bft) O-SO 109 ° 0 min 0,000 mm 0,0 UV-I 21 W/m² -2,3 °C 1,1 °C 1,6 km/h (1 Bft)
18.12.2018 12:46 1,1 °C 78 % 1025,5 hPa 0,0 mm 0,0 km/h (0 Bft) O-SO 109 ° 0 min 0,000 mm 0,0 UV-I 23 W/m² -2,3 °C 1,1 °C 0,0 km/h (0 Bft)
18.12.2018 12:47 1,1 °C 78 % 1025,4 hPa 0,0 mm 0,0 km/h (0 Bft) O-SO 109 ° 0 min 0,000 mm 0,0 UV-I 23 W/m² -2,3 °C 1,1 °C 0,0 km/h (0 Bft)
18.12.2018 12:48 1,1 °C 78 % 1025,4 hPa 0,0 mm 0,0 km/h (0 Bft) O-SO 109 ° 0 min 0,000 mm 0,0 UV-I 23 W/m² -2,3 °C 1,1 °C 0,0 km/h (0 Bft)
18.12.2018 12:49 1,1 °C 78 % 1025,4 hPa 0,0 mm 0,0 km/h (0 Bft) O-SO 109 ° 0 min 0,000 mm 0,0 UV-I 21 W/m² -2,3 °C 1,1 °C 0,0 km/h (0 Bft)
18.12.2018 12:50 1,1 °C 78 % 1025,4 hPa 0,0 mm 0,0 km/h (0 Bft) O-SO 109 ° 0 min 0,000 mm 0,0 UV-I 21 W/m² -2,3 °C 1,1 °C 0,0 km/h (0 Bft)
18.12.2018 12:51 1,0 °C 78 % 1025,4 hPa 0,0 mm 0,0 km/h (0 Bft) O-SO 109 ° 0 min 0,000 mm 0,0 UV-I 21 W/m² -2,4 °C 1,0 °C 0,0 km/h (0 Bft)
18.12.2018 12:52 1,1 °C 78 % 1025,4 hPa 0,0 mm 0,0 km/h (0 Bft) O-SO 109 ° 0 min 0,000 mm 0,0 UV-I 23 W/m² -2,3 °C 1,1 °C 0,0 km/h (0 Bft)
18.12.2018 12:53 1,0 °C 78 % 1025,4 hPa 0,0 mm 0,0 km/h (0 Bft) O-SO 109 ° 0 min 0,000 mm 0,0 UV-I 23 W/m² -2,4 °C 1,0 °C 0,0 km/h (0 Bft)
18.12.2018 12:54 1,0 °C 79 % 1025,3 hPa 0,0 mm 0,0 km/h (0 Bft) O-SO 109 ° 0 min 0,000 mm 0,0 UV-I 23 W/m² -2,2 °C 1,0 °C 0,0 km/h (0 Bft)
18.12.2018 12:55 1,0 °C 79 % 1025,3 hPa 0,0 mm 0,0 km/h (0 Bft) O-SO 109 ° 0 min 0,000 mm 0,0 UV-I 21 W/m² -2,2 °C 1,0 °C 0,0 km/h (0 Bft)
18.12.2018 12:56 1,0 °C 79 % 1025,4 hPa 0,0 mm 0,0 km/h (0 Bft) O-SO 109 ° 0 min 0,000 mm 0,0 UV-I 23 W/m² -2,2 °C 1,0 °C 0,0 km/h (0 Bft)
18.12.2018 12:57 1,0 °C 79 % 1025,3 hPa 0,0 mm 0,0 km/h (0 Bft) O-SO 109 ° 0 min 0,000 mm 0,0 UV-I 23 W/m² -2,2 °C 1,0 °C 0,0 km/h (0 Bft)
18.12.2018 12:58 1,0 °C 79 % 1025,3 hPa 0,0 mm 0,0 km/h (0 Bft) O-SO 109 ° 0 min 0,000 mm 0,0 UV-I 23 W/m² -2,2 °C 1,0 °C 0,0 km/h (0 Bft)
18.12.2018 12:59 1,0 °C 79 % 1025,3 hPa 0,0 mm 0,0 km/h (0 Bft) O-SO 109 ° 0 min 0,000 mm 0,0 UV-I 23 W/m² -2,2 °C 1,0 °C 0,0 km/h (0 Bft)
18.12.2018 13:00 1,0 °C 79 % 1025,3 hPa 0,0 mm 0,7 km/h (0 Bft) O-SO 109 ° 0 min 0,000 mm 0,0 UV-I 23 W/m² -2,2 °C 1,0 °C 3,2 km/h (1 Bft)
18.12.2018 13:01 1,0 °C 79 % 1025,2 hPa 0,0 mm 0,7 km/h (0 Bft) O-SO 109 ° 0 min 0,000 mm 0,0 UV-I 23 W/m² -2,2 °C 1,0 °C 3,2 km/h (1 Bft)
18.12.2018 13:02 1,0 °C 79 % 1025,2 hPa 0,0 mm 0,0 km/h (0 Bft) O-SO 109 ° 0 min 0,000 mm 0,0 UV-I 21 W/m² -2,2 °C 1,0 °C 0,0 km/h (0 Bft)
18.12.2018 13:03 1,0 °C 79 % 1025,3 hPa 0,0 mm 0,0 km/h (0 Bft) O-SO 109 ° 0 min 0,000 mm 0,0 UV-I 21 W/m² -2,2 °C 1,0 °C 0,0 km/h (0 Bft)
18.12.2018 13:04 1,0 °C 79 % 1025,3 hPa 0,0 mm 0,0 km/h (0 Bft) O-SO 109 ° 0 min 0,000 mm 0,0 UV-I 25 W/m² -2,2 °C 1,0 °C 0,0 km/h (0 Bft)
18.12.2018 13:05 0,9 °C 79 % 1025,3 hPa 0,0 mm 0,0 km/h (0 Bft) O-SO 109 ° 0 min 0,000 mm 0,0 UV-I 28 W/m² -2,3 °C 0,9 °C 0,0 km/h (0 Bft)
18.12.2018 13:06 1,0 °C 79 % 1025,3 hPa 0,0 mm 0,0 km/h (0 Bft) O-SO 109 ° 0 min 0,000 mm 0,0 UV-I 32 W/m² -2,2 °C 1,0 °C 0,0 km/h (0 Bft)
18.12.2018 13:07 1,0 °C 80 % 1025,2 hPa 0,0 mm 0,0 km/h (0 Bft) O-SO 109 ° 0 min 0,000 mm 0,0 UV-I 25 W/m² -2,1 °C 1,0 °C 0,0 km/h (0 Bft)
18.12.2018 13:08 1,0 °C 80 % 1025,2 hPa 0,0 mm 0,0 km/h (0 Bft) O-SO 109 ° 0 min 0,000 mm 0,0 UV-I 25 W/m² -2,1 °C 1,0 °C 0,0 km/h (0 Bft)
18.12.2018 13:09 1,0 °C 80 % 1025,2 hPa 0,0 mm 0,0 km/h (0 Bft) O-SO 109 ° 0 min 0,000 mm 0,0 UV-I 23 W/m² -2,1 °C 1,0 °C 0,0 km/h (0 Bft)
18.12.2018 13:10 1,0 °C 80 % 1025,2 hPa 0,0 mm 0,0 km/h (0 Bft) O-SO 109 ° 0 min 0,000 mm 0,0 UV-I 23 W/m² -2,1 °C 1,0 °C 0,0 km/h (0 Bft)
18.12.2018 13:11 1,0 °C 80 % 1025,2 hPa 0,0 mm 0,1 km/h (0 Bft) O-SO 109 ° 0 min 0,000 mm 0,0 UV-I 23 W/m² -2,1 °C 1,0 °C 1,6 km/h (1 Bft)
18.12.2018 13:12 1,0 °C 80 % 1025,2 hPa 0,0 mm 0,0 km/h (0 Bft) O-SO 109 ° 0 min 0,000 mm 0,0 UV-I 21 W/m² -2,1 °C 1,0 °C 0,0 km/h (0 Bft)
18.12.2018 13:13 1,0 °C 80 % 1025,2 hPa 0,0 mm 0,0 km/h (0 Bft) O-SO 109 ° 0 min 0,000 mm 0,0 UV-I 21 W/m² -2,1 °C 1,0 °C 0,0 km/h (0 Bft)
18.12.2018 13:14 0,9 °C 80 % 1025,2 hPa 0,0 mm 0,0 km/h (0 Bft) O-SO 109 ° 0 min 0,000 mm 0,0 UV-I 21 W/m² -2,2 °C 0,9 °C 0,0 km/h (0 Bft)
18.12.2018 13:15 1,0 °C 80 % 1025,1 hPa 0,0 mm 0,0 km/h (0 Bft) O-SO 109 ° 0 min 0,000 mm 0,0 UV-I 21 W/m² -2,1 °C 1,0 °C 0,0 km/h (0 Bft)
18.12.2018 13:16 1,0 °C 80 % 1025,1 hPa 0,0 mm 0,7 km/h (0 Bft) O-SO 109 ° 0 min 0,000 mm 0,0 UV-I 21 W/m² -2,1 °C 1,0 °C 3,2 km/h (1 Bft)
18.12.2018 13:17 1,0 °C 80 % 1025,0 hPa 0,0 mm 1,7 km/h (1 Bft) O-SO 109 ° 0 min 0,000 mm 0,0 UV-I 21 W/m² -2,1 °C 1,0 °C 3,2 km/h (1 Bft)
18.12.2018 13:18 1,0 °C 80 % 1025,0 hPa 0,0 mm 0,3 km/h (0 Bft) O-SO 109 ° 0 min 0,000 mm 0,0 UV-I 21 W/m² -2,1 °C 1,0 °C 1,6 km/h (1 Bft)
18.12.2018 13:19 1,0 °C 80 % 1024,9 hPa 0,0 mm 2,1 km/h (1 Bft) O-SO 109 ° 0 min 0,000 mm 0,0 UV-I 21 W/m² -2,1 °C 1,0 °C 3,2 km/h (1 Bft)
18.12.2018 13:20 1,0 °C 80 % 1024,9 hPa 0,0 mm 0,0 km/h (0 Bft) O-SO 109 ° 0 min 0,000 mm 0,0 UV-I 21 W/m² -2,1 °C 1,0 °C 0,0 km/h (0 Bft)
18.12.2018 13:21 0,9 °C 80 % 1024,8 hPa 0,0 mm 0,0 km/h (0 Bft) O-SO 109 ° 0 min 0,000 mm 0,0 UV-I 21 W/m² -2,2 °C 0,9 °C 0,0 km/h (0 Bft)
18.12.2018 13:22 1,0 °C 80 % 1024,8 hPa 0,0 mm 0,0 km/h (0 Bft) O-SO 109 ° 0 min 0,000 mm 0,0 UV-I 21 W/m² -2,1 °C 1,0 °C 0,0 km/h (0 Bft)
18.12.2018 13:23 1,0 °C 80 % 1024,8 hPa 0,0 mm 0,0 km/h (0 Bft) O-SO 109 ° 0 min 0,000 mm 0,0 UV-I 21 W/m² -2,1 °C 1,0 °C 0,0 km/h (0 Bft)
18.12.2018 13:24 1,0 °C 80 % 1024,7 hPa 0,0 mm 0,0 km/h (0 Bft) O-SO 109 ° 0 min 0,000 mm 0,0 UV-I 21 W/m² -2,1 °C 1,0 °C 0,0 km/h (0 Bft)
18.12.2018 13:25 1,0 °C 80 % 1024,7 hPa 0,0 mm 0,0 km/h (0 Bft) O-SO 109 ° 0 min 0,000 mm 0,0 UV-I 21 W/m² -2,1 °C 1,0 °C 0,0 km/h (0 Bft)
18.12.2018 13:26 1,0 °C 80 % 1024,7 hPa 0,0 mm 0,0 km/h (0 Bft) O-SO 109 ° 0 min 0,000 mm 0,0 UV-I 21 W/m² -2,1 °C 1,0 °C 0,0 km/h (0 Bft)
18.12.2018 13:27 1,0 °C 81 % 1024,7 hPa 0,0 mm 0,0 km/h (0 Bft) O-SO 109 ° 0 min 0,000 mm 0,0 UV-I 23 W/m² -1,9 °C 1,0 °C 0,0 km/h (0 Bft)
18.12.2018 13:28 1,0 °C 80 % 1024,6 hPa 0,0 mm 0,0 km/h (0 Bft) O-SO 109 ° 0 min 0,000 mm 0,0 UV-I 21 W/m² -2,1 °C 1,0 °C 0,0 km/h (0 Bft)
18.12.2018 13:29 1,0 °C 81 % 1024,5 hPa 0,0 mm 0,0 km/h (0 Bft) O-SO 109 ° 0 min 0,000 mm 0,0 UV-I 21 W/m² -1,9 °C 1,0 °C 0,0 km/h (0 Bft)
18.12.2018 13:30 1,0 °C 80 % 1024,5 hPa 0,0 mm 0,0 km/h (0 Bft) O-SO 109 ° 0 min 0,000 mm 0,0 UV-I 21 W/m² -2,1 °C 1,0 °C 0,0 km/h (0 Bft)
18.12.2018 13:31 1,0 °C 80 % 1024,4 hPa 0,0 mm 0,0 km/h (0 Bft) O-SO 109 ° 0 min 0,000 mm 0,0 UV-I 21 W/m² -2,1 °C 1,0 °C 0,0 km/h (0 Bft)
18.12.2018 13:32 1,0 °C 80 % 1024,4 hPa 0,0 mm 0,0 km/h (0 Bft) O-SO 109 ° 0 min 0,000 mm 0,0 UV-I 21 W/m² -2,1 °C 1,0 °C 0,0 km/h (0 Bft)
18.12.2018 13:33 1,0 °C 80 % 1024,4 hPa 0,0 mm 0,0 km/h (0 Bft) O-SO 109 ° 0 min 0,000 mm 0,0 UV-I 21 W/m² -2,1 °C 1,0 °C 0,0 km/h (0 Bft)
18.12.2018 13:34 1,0 °C 80 % 1024,4 hPa 0,0 mm 0,0 km/h (0 Bft) O-SO 109 ° 0 min 0,000 mm 0,0 UV-I 23 W/m² -2,1 °C 1,0 °C 0,0 km/h (0 Bft)
18.12.2018 13:35 1,0 °C 80 % 1024,4 hPa 0,0 mm 0,0 km/h (0 Bft) O-SO 109 ° 0 min 0,000 mm 0,0 UV-I 23 W/m² -2,1 °C 1,0 °C 0,0 km/h (0 Bft)
18.12.2018 13:36 1,0 °C 80 % 1024,4 hPa 0,0 mm 0,0 km/h (0 Bft) O-SO 109 ° 0 min 0,000 mm 0,0 UV-I 21 W/m² -2,1 °C 1,0 °C 0,0 km/h (0 Bft)
18.12.2018 13:37 1,0 °C 80 % 1024,4 hPa 0,0 mm 0,0 km/h (0 Bft) O-SO 109 ° 0 min 0,000 mm 0,0 UV-I 25 W/m² -2,1 °C 1,0 °C 0,0 km/h (0 Bft)
18.12.2018 13:38 1,0 °C 80 % 1024,5 hPa 0,0 mm 0,0 km/h (0 Bft) O-SO 109 ° 0 min 0,000 mm 0,0 UV-I 30 W/m² -2,1 °C 1,0 °C 0,0 km/h (0 Bft)
18.12.2018 13:39 1,0 °C 80 % 1024,4 hPa 0,0 mm 0,0 km/h (0 Bft) O-SO 109 ° 0 min 0,000 mm 0,0 UV-I 30 W/m² -2,1 °C 1,0 °C 0,0 km/h (0 Bft)
18.12.2018 13:40 1,0 °C 80 % 1024,4 hPa 0,0 mm 0,0 km/h (0 Bft) O-SO 109 ° 0 min 0,000 mm 0,0 UV-I 35 W/m² -2,1 °C 1,0 °C 0,0 km/h (0 Bft)
18.12.2018 13:41 1,0 °C 80 % 1024,5 hPa 0,0 mm 0,0 km/h (0 Bft) O-SO 109 ° 0 min 0,000 mm 0,0 UV-I 37 W/m² -2,1 °C 1,0 °C 0,0 km/h (0 Bft)
18.12.2018 13:42 1,0 °C 80 % 1024,4 hPa 0,0 mm 1,1 km/h (1 Bft) O-SO 109 ° 0 min 0,000 mm 0,0 UV-I 35 W/m² -2,1 °C 1,0 °C 4,8 km/h (1 Bft)
18.12.2018 13:43 1,0 °C 80 % 1024,3 hPa 0,0 mm 1,4 km/h (1 Bft) O-SO 109 ° 0 min 0,000 mm 0,0 UV-I 32 W/m² -2,1 °C 1,0 °C 3,2 km/h (1 Bft)
18.12.2018 13:44 1,0 °C 80 % 1024,4 hPa 0,0 mm 1,8 km/h (1 Bft) O-SO 109 ° 0 min 0,000 mm 0,0 UV-I 72 W/m² -2,1 °C 1,0 °C 3,2 km/h (1 Bft)
18.12.2018 13:45 0,9 °C 79 % 1024,3 hPa 0,0 mm 0,7 km/h (0 Bft) O-SO 109 ° 0 min 0,000 mm 0,8 UV-I 72 W/m² -2,3 °C 0,9 °C 1,6 km/h (1 Bft)
18.12.2018 13:46 0,8 °C 80 % 1024,4 hPa 0,0 mm 0,5 km/h (0 Bft) O-SO 109 ° 0 min 0,000 mm 0,8 UV-I 72 W/m² -2,2 °C 0,8 °C 1,6 km/h (1 Bft)
18.12.2018 13:47 0,8 °C 79 % 1024,4 hPa 0,0 mm 0,0 km/h (0 Bft) O-SO 109 ° 0 min 0,000 mm 0,8 UV-I 193 W/m² -2,4 °C 0,8 °C 0,0 km/h (0 Bft)
18.12.2018 13:48 0,8 °C 80 % 1024,4 hPa 0,0 mm 0,0 km/h (0 Bft) O-SO 109 ° 0 min 0,000 mm 0,8 UV-I 192 W/m² -2,2 °C 0,8 °C 0,0 km/h (0 Bft)
18.12.2018 13:49 0,8 °C 80 % 1024,6 hPa 0,0 mm 0,0 km/h (0 Bft) O-SO 109 ° 0 min 0,000 mm 0,8 UV-I 193 W/m² -2,2 °C 0,8 °C 0,0 km/h (0 Bft)
18.12.2018 13:50 1,0 °C 79 % 1024,5 hPa 0,0 mm 0,0 km/h (0 Bft) O-SO 109 ° 0 min 0,000 mm 0,8 UV-I 172 W/m² -2,2 °C 1,0 °C 0,0 km/h (0 Bft)
18.12.2018 13:51 1,1 °C 79 % 1024,5 hPa 0,0 mm 1,8 km/h (1 Bft) O-SO 109 ° 0 min 0,000 mm 0,8 UV-I 179 W/m² -2,1 °C 1,1 °C 4,8 km/h (1 Bft)
18.12.2018 13:52 1,3 °C 79 % 1024,4 hPa 0,0 mm 1,2 km/h (1 Bft) O-SO 109 ° 0 min 0,000 mm 0,8 UV-I 202 W/m² -1,9 °C 1,3 °C 1,6 km/h (1 Bft)
18.12.2018 13:53 1,6 °C 79 % 1024,4 hPa 0,0 mm 2,2 km/h (1 Bft) O-SO 109 ° 0 min 0,000 mm 0,8 UV-I 220 W/m² -1,6 °C 1,6 °C 3,2 km/h (1 Bft)
18.12.2018 13:54 1,9 °C 77 % 1024,3 hPa 0,0 mm 2,7 km/h (1 Bft) O-SO 109 ° 0 min 0,000 mm 0,8 UV-I 230 W/m² -1,7 °C 1,9 °C 4,8 km/h (1 Bft)
18.12.2018 13:55 2,1 °C 77 % 1024,2 hPa 0,0 mm 3,3 km/h (1 Bft) O-SO 109 ° 0 min 0,000 mm 0,8 UV-I 236 W/m² -1,5 °C 2,1 °C 4,8 km/h (1 Bft)
18.12.2018 13:56 2,1 °C 76 % 1024,2 hPa 0,0 mm 3,0 km/h (1 Bft) O-SO 115 ° 0 min 0,000 mm 0,8 UV-I 213 W/m² -1,7 °C 2,1 °C 4,8 km/h (1 Bft)
18.12.2018 13:57 2,1 °C 76 % 1024,1 hPa 0,0 mm 3,8 km/h (1 Bft) O-SO 114 ° 0 min 0,000 mm 0,8 UV-I 181 W/m² -1,7 °C 2,1 °C 6,4 km/h (2 Bft)
18.12.2018 13:58 2,1 °C 76 % 1024,1 hPa 0,0 mm 1,3 km/h (1 Bft) O-SO 114 ° 0 min 0,000 mm 0,8 UV-I 141 W/m² -1,7 °C 2,1 °C 3,2 km/h (1 Bft)
18.12.2018 13:59 1,9 °C 75 % 1024,1 hPa 0,0 mm 0,6 km/h (0 Bft) O-SO 114 ° 0 min 0,000 mm 0,7 UV-I 83 W/m² -2,1 °C 1,9 °C 1,6 km/h (1 Bft)
18.12.2018 14:00 1,8 °C 76 % 1024,0 hPa 0,0 mm 0,3 km/h (0 Bft) O-SO 114 ° 0 min 0,025 mm 0,0 UV-I 39 W/m² -2,0 °C 1,8 °C 1,6 km/h (1 Bft)
18.12.2018 14:01 1,7 °C 76 % 1024,0 hPa 0,0 mm 0,0 km/h (0 Bft) O-SO 114 ° 0 min 0,000 mm 0,0 UV-I 21 W/m² -2,1 °C 1,7 °C 0,0 km/h (0 Bft)
18.12.2018 14:02 1,6 °C 76 % 1024,0 hPa 0,0 mm 0,0 km/h (0 Bft) O-SO 114 ° 0 min 0,000 mm 0,0 UV-I 21 W/m² -2,2 °C 1,6 °C 0,0 km/h (0 Bft)
18.12.2018 14:04 1,3 °C 77 % 1024,0 hPa 0,0 mm 0,1 km/h (0 Bft) O-SO 114 ° 0 min 0,000 mm 0,0 UV-I 21 W/m² -2,3 °C 1,3 °C 1,6 km/h (1 Bft)
18.12.2018 14:05 1,3 °C 78 % 1023,9 hPa 0,0 mm 0,4 km/h (0 Bft) O-SO 114 ° 0 min 0,000 mm 0,0 UV-I 21 W/m² -2,1 °C 1,3 °C 1,6 km/h (1 Bft)
18.12.2018 14:06 1,3 °C 77 % 1023,8 hPa 0,0 mm 0,2 km/h (0 Bft) O-SO 114 ° 0 min 0,000 mm 0,0 UV-I 21 W/m² -2,3 °C 1,3 °C 1,6 km/h (1 Bft)
18.12.2018 14:07 1,3 °C 78 % 1023,9 hPa 0,0 mm 0,2 km/h (0 Bft) O-SO 114 ° 0 min 0,000 mm 0,0 UV-I 21 W/m² -2,1 °C 1,3 °C 1,6 km/h (1 Bft)
18.12.2018 14:08 1,3 °C 78 % 1023,8 hPa 0,0 mm 1,0 km/h (0 Bft) O-SO 114 ° 0 min 0,000 mm 0,0 UV-I 21 W/m² -2,1 °C 1,3 °C 1,6 km/h (1 Bft)
18.12.2018 14:09 1,4 °C 77 % 1023,8 hPa 0,0 mm 1,5 km/h (1 Bft) O-SO 114 ° 0 min 0,000 mm 0,0 UV-I 21 W/m² -2,2 °C 1,4 °C 3,2 km/h (1 Bft)
18.12.2018 14:10 1,4 °C 78 % 1023,8 hPa 0,0 mm 0,5 km/h (0 Bft) O-SO 114 ° 0 min 0,000 mm 0,0 UV-I 21 W/m² -2,0 °C 1,4 °C 1,6 km/h (1 Bft)
18.12.2018 14:11 1,5 °C 78 % 1023,8 hPa 0,0 mm 0,0 km/h (0 Bft) O-SO 114 ° 0 min 0,000 mm 0,0 UV-I 21 W/m² -1,9 °C 1,5 °C 0,0 km/h (0 Bft)
18.12.2018 14:12 1,6 °C 77 % 1023,8 hPa 0,0 mm 0,0 km/h (0 Bft) O-SO 114 ° 0 min 0,000 mm 0,0 UV-I 21 W/m² -2,0 °C 1,6 °C 0,0 km/h (0 Bft)
18.12.2018 14:13 1,4 °C 77 % 1023,8 hPa 0,0 mm 0,0 km/h (0 Bft) O-SO 114 ° 0 min 0,000 mm 0,0 UV-I 21 W/m² -2,2 °C 1,4 °C 0,0 km/h (0 Bft)
18.12.2018 14:14 1,4 °C 77 % 1023,7 hPa 0,0 mm 0,0 km/h (0 Bft) O-SO 114 ° 0 min 0,000 mm 0,0 UV-I 21 W/m² -2,2 °C 1,4 °C 0,0 km/h (0 Bft)
18.12.2018 14:15 1,4 °C 77 % 1023,8 hPa 0,0 mm 0,0 km/h (0 Bft) O-SO 114 ° 0 min 0,000 mm 0,0 UV-I 21 W/m² -2,2 °C 1,4 °C 0,0 km/h (0 Bft)
18.12.2018 14:16 1,4 °C 77 % 1023,7 hPa 0,0 mm 0,0 km/h (0 Bft) O-SO 114 ° 0 min 0,000 mm 0,0 UV-I 21 W/m² -2,2 °C 1,4 °C 0,0 km/h (0 Bft)
18.12.2018 14:17 1,3 °C 77 % 1023,8 hPa 0,0 mm 0,0 km/h (0 Bft) O-SO 114 ° 0 min 0,000 mm 0,0 UV-I 21 W/m² -2,3 °C 1,3 °C 0,0 km/h (0 Bft)
18.12.2018 14:18 1,3 °C 78 % 1023,8 hPa 0,0 mm 0,0 km/h (0 Bft) O-SO 114 ° 0 min 0,000 mm 0,0 UV-I 21 W/m² -2,1 °C 1,3 °C 0,0 km/h (0 Bft)
18.12.2018 14:19 1,3 °C 78 % 1023,7 hPa 0,0 mm 0,0 km/h (0 Bft) O-SO 114 ° 0 min 0,000 mm 0,0 UV-I 21 W/m² -2,1 °C 1,3 °C 0,0 km/h (0 Bft)
18.12.2018 14:20 1,3 °C 78 % 1023,8 hPa 0,0 mm 0,0 km/h (0 Bft) O-SO 114 ° 0 min 0,000 mm 0,0 UV-I 21 W/m² -2,1 °C 1,3 °C 0,0 km/h (0 Bft)
18.12.2018 14:21 1,4 °C 78 % 1023,6 hPa 0,0 mm 0,0 km/h (0 Bft) O-SO 114 ° 0 min 0,000 mm 0,0 UV-I 21 W/m² -2,0 °C 1,4 °C 0,0 km/h (0 Bft)
18.12.2018 14:22 1,4 °C 78 % 1023,7 hPa 0,0 mm 0,0 km/h (0 Bft) O-SO 114 ° 0 min 0,000 mm 0,0 UV-I 21 W/m² -2,0 °C 1,4 °C 0,0 km/h (0 Bft)
18.12.2018 14:23 1,6 °C 77 % 1023,6 hPa 0,0 mm 0,0 km/h (0 Bft) O-SO 114 ° 0 min 0,000 mm 0,0 UV-I 21 W/m² -2,0 °C 1,6 °C 0,0 km/h (0 Bft)
18.12.2018 14:24 1,6 °C 77 % 1023,6 hPa 0,0 mm 0,0 km/h (0 Bft) O-SO 114 ° 0 min 0,000 mm 0,0 UV-I 21 W/m² -2,0 °C 1,6 °C 0,0 km/h (0 Bft)
18.12.2018 14:25 1,7 °C 76 % 1023,6 hPa 0,0 mm 0,1 km/h (0 Bft) O-SO 114 ° 0 min 0,000 mm 0,0 UV-I 21 W/m² -2,1 °C 1,7 °C 3,2 km/h (1 Bft)
18.12.2018 14:26 1,7 °C 76 % 1023,6 hPa 0,0 mm 0,5 km/h (0 Bft) O-SO 114 ° 0 min 0,000 mm 0,0 UV-I 21 W/m² -2,1 °C 1,7 °C 3,2 km/h (1 Bft)
18.12.2018 14:27 1,7 °C 76 % 1023,6 hPa 0,0 mm 0,0 km/h (0 Bft) O-SO 114 ° 0 min 0,000 mm 0,0 UV-I 21 W/m² -2,1 °C 1,7 °C 0,0 km/h (0 Bft)
18.12.2018 14:28 1,7 °C 76 % 1023,6 hPa 0,0 mm 0,0 km/h (0 Bft) O-SO 114 ° 0 min 0,000 mm 0,0 UV-I 21 W/m² -2,1 °C 1,7 °C 0,0 km/h (0 Bft)
18.12.2018 14:29 1,7 °C 76 % 1023,6 hPa 0,0 mm 0,0 km/h (0 Bft) O-SO 114 ° 0 min 0,000 mm 0,0 UV-I 21 W/m² -2,1 °C 1,7 °C 0,0 km/h (0 Bft)
18.12.2018 14:30 1,8 °C 76 % 1023,6 hPa 0,0 mm 0,0 km/h (0 Bft) O-SO 114 ° 0 min 0,000 mm 0,0 UV-I 21 W/m² -2,0 °C 1,8 °C 0,0 km/h (0 Bft)
18.12.2018 14:31 1,8 °C 75 % 1023,6 hPa 0,0 mm 0,4 km/h (0 Bft) O-SO 114 ° 0 min 0,000 mm 0,0 UV-I 21 W/m² -2,1 °C 1,8 °C 1,6 km/h (1 Bft)
18.12.2018 14:32 1,8 °C 75 % 1023,6 hPa 0,0 mm 0,1 km/h (0 Bft) O-SO 114 ° 0 min 0,000 mm 0,0 UV-I 21 W/m² -2,1 °C 1,8 °C 1,6 km/h (1 Bft)
18.12.2018 14:33 1,8 °C 75 % 1023,5 hPa 0,0 mm 0,0 km/h (0 Bft) O-SO 114 ° 0 min 0,000 mm 0,0 UV-I 21 W/m² -2,1 °C 1,8 °C 0,0 km/h (0 Bft)
18.12.2018 14:34 1,8 °C 75 % 1023,5 hPa 0,0 mm 0,8 km/h (0 Bft) O-SO 114 ° 0 min 0,000 mm 0,0 UV-I 21 W/m² -2,1 °C 1,8 °C 1,6 km/h (1 Bft)
18.12.2018 14:35 1,8 °C 76 % 1023,5 hPa 0,0 mm 1,4 km/h (1 Bft) O-SO 114 ° 0 min 0,000 mm 0,0 UV-I 21 W/m² -2,0 °C 1,8 °C 3,2 km/h (1 Bft)
18.12.2018 14:36 1,8 °C 75 % 1023,5 hPa 0,0 mm 2,3 km/h (1 Bft) O-SO 114 ° 0 min 0,000 mm 0,0 UV-I 21 W/m² -2,1 °C 1,8 °C 3,2 km/h (1 Bft)
18.12.2018 14:37 1,8 °C 76 % 1023,5 hPa 0,0 mm 0,6 km/h (0 Bft) O-SO 114 ° 0 min 0,000 mm 0,0 UV-I 21 W/m² -2,0 °C 1,8 °C 1,6 km/h (1 Bft)
18.12.2018 14:38 1,8 °C 76 % 1023,4 hPa 0,0 mm 1,7 km/h (1 Bft) O-SO 114 ° 0 min 0,000 mm 0,0 UV-I 21 W/m² -2,0 °C 1,8 °C 3,2 km/h (1 Bft)
18.12.2018 14:39 1,8 °C 76 % 1023,4 hPa 0,0 mm 0,8 km/h (0 Bft) O-SO 114 ° 0 min 0,000 mm 0,0 UV-I 21 W/m² -2,0 °C 1,8 °C 3,2 km/h (1 Bft)
18.12.2018 14:40 1,7 °C 76 % 1023,4 hPa 0,0 mm 0,0 km/h (0 Bft) O-SO 114 ° 0 min 0,000 mm 0,0 UV-I 21 W/m² -2,1 °C 1,7 °C 0,0 km/h (0 Bft)
18.12.2018 14:41 1,7 °C 76 % 1023,4 hPa 0,0 mm 0,5 km/h (0 Bft) O-SO 114 ° 0 min 0,000 mm 0,0 UV-I 21 W/m² -2,1 °C 1,7 °C 3,2 km/h (1 Bft)
18.12.2018 14:42 1,7 °C 76 % 1023,4 hPa 0,0 mm 1,4 km/h (1 Bft) O-SO 114 ° 0 min 0,000 mm 0,0 UV-I 21 W/m² -2,1 °C 1,7 °C 3,2 km/h (1 Bft)
18.12.2018 14:43 1,7 °C 76 % 1023,3 hPa 0,0 mm 0,3 km/h (0 Bft) O-SO 114 ° 0 min 0,000 mm 0,0 UV-I 21 W/m² -2,1 °C 1,7 °C 1,6 km/h (1 Bft)
18.12.2018 14:44 1,6 °C 76 % 1023,3 hPa 0,0 mm 1,0 km/h (0 Bft) O-SO 114 ° 0 min 0,000 mm 0,0 UV-I 21 W/m² -2,2 °C 1,6 °C 3,2 km/h (1 Bft)
18.12.2018 14:45 1,6 °C 76 % 1023,3 hPa 0,0 mm 0,3 km/h (0 Bft) O-SO 114 ° 0 min 0,000 mm 0,0 UV-I 21 W/m² -2,2 °C 1,6 °C 1,6 km/h (1 Bft)
18.12.2018 14:46 1,6 °C 77 % 1023,3 hPa 0,0 mm 1,0 km/h (0 Bft) O-SO 114 ° 0 min 0,000 mm 0,0 UV-I 21 W/m² -2,0 °C 1,6 °C 3,2 km/h (1 Bft)
18.12.2018 14:47 1,6 °C 77 % 1023,3 hPa 0,0 mm 1,5 km/h (1 Bft) O-SO 114 ° 0 min 0,000 mm 0,0 UV-I 21 W/m² -2,0 °C 1,6 °C 3,2 km/h (1 Bft)
18.12.2018 14:48 1,6 °C 77 % 1023,3 hPa 0,0 mm 0,8 km/h (0 Bft) O-SO 114 ° 0 min 0,000 mm 0,0 UV-I 21 W/m² -2,0 °C 1,6 °C 1,6 km/h (1 Bft)
18.12.2018 14:49 1,6 °C 77 % 1023,3 hPa 0,0 mm 2,8 km/h (1 Bft) O-NO 60 ° 0 min 0,000 mm 0,0 UV-I 21 W/m² -2,0 °C 1,6 °C 4,8 km/h (1 Bft)
18.12.2018 14:50 1,6 °C 77 % 1023,2 hPa 0,0 mm 0,1 km/h (0 Bft) O-NO 61 ° 0 min 0,000 mm 0,0 UV-I 21 W/m² -2,0 °C 1,6 °C 1,6 km/h (1 Bft)
18.12.2018 14:51 1,6 °C 77 % 1023,3 hPa 0,0 mm 0,0 km/h (0 Bft) O-NO 61 ° 0 min 0,000 mm 0,0 UV-I 21 W/m² -2,0 °C 1,6 °C 0,0 km/h (0 Bft)
18.12.2018 14:52 1,6 °C 77 % 1023,2 hPa 0,0 mm 0,0 km/h (0 Bft) O-NO 61 ° 0 min 0,000 mm 0,0 UV-I 21 W/m² -2,0 °C 1,6 °C 0,0 km/h (0 Bft)
18.12.2018 14:53 1,6 °C 77 % 1023,2 hPa 0,0 mm 0,1 km/h (0 Bft) O-NO 61 ° 0 min 0,000 mm 0,0 UV-I 21 W/m² -2,0 °C 1,6 °C 1,6 km/h (1 Bft)
18.12.2018 14:54 1,6 °C 77 % 1023,2 hPa 0,0 mm 0,0 km/h (0 Bft) O-NO 61 ° 0 min 0,000 mm 0,0 UV-I 21 W/m² -2,0 °C 1,6 °C 0,0 km/h (0 Bft)
18.12.2018 14:55 1,6 °C 77 % 1023,2 hPa 0,0 mm 0,0 km/h (0 Bft) O-NO 60 ° 0 min 0,000 mm 0,0 UV-I 21 W/m² -2,0 °C 1,6 °C 0,0 km/h (0 Bft)
18.12.2018 14:56 1,6 °C 76 % 1023,3 hPa 0,0 mm 0,0 km/h (0 Bft) O-NO 60 ° 0 min 0,000 mm 0,0 UV-I 21 W/m² -2,2 °C 1,6 °C 0,0 km/h (0 Bft)
18.12.2018 14:57 1,5 °C 76 % 1023,2 hPa 0,0 mm 0,0 km/h (0 Bft) O-NO 60 ° 0 min 0,000 mm 0,0 UV-I 21 W/m² -2,3 °C 1,5 °C 0,0 km/h (0 Bft)
18.12.2018 14:58 1,5 °C 76 % 1023,2 hPa 0,0 mm 0,0 km/h (0 Bft) O-NO 60 ° 0 min 0,000 mm 0,0 UV-I 21 W/m² -2,3 °C 1,5 °C 0,0 km/h (0 Bft)
18.12.2018 14:59 1,6 °C 76 % 1023,2 hPa 0,0 mm 0,0 km/h (0 Bft) O-NO 61 ° 0 min 0,000 mm 0,0 UV-I 21 W/m² -2,2 °C 1,6 °C 0,0 km/h (0 Bft)
18.12.2018 15:00 1,5 °C 76 % 1023,2 hPa 0,0 mm 0,0 km/h (0 Bft) O-NO 60 ° 0 min 0,000 mm 0,0 UV-I 21 W/m² -2,3 °C 1,5 °C 0,0 km/h (0 Bft)
18.12.2018 15:01 1,5 °C 76 % 1023,2 hPa 0,0 mm 0,0 km/h (0 Bft) O-NO 61 ° 0 min 0,000 mm 0,0 UV-I 21 W/m² -2,3 °C 1,5 °C 0,0 km/h (0 Bft)
18.12.2018 15:02 1,5 °C 76 % 1023,1 hPa 0,0 mm 0,0 km/h (0 Bft) O-NO 61 ° 0 min 0,000 mm 0,0 UV-I 21 W/m² -2,3 °C 1,5 °C 0,0 km/h (0 Bft)
18.12.2018 15:03 1,4 °C 76 % 1023,2 hPa 0,0 mm 1,3 km/h (1 Bft) O-NO 61 ° 0 min 0,000 mm 0,0 UV-I 19 W/m² -2,4 °C 1,4 °C 3,2 km/h (1 Bft)
18.12.2018 15:04 1,4 °C 76 % 1023,1 hPa 0,0 mm 2,3 km/h (1 Bft) O-NO 61 ° 0 min 0,000 mm 0,0 UV-I 19 W/m² -2,4 °C 1,4 °C 3,2 km/h (1 Bft)
18.12.2018 15:05 1,4 °C 76 % 1023,1 hPa 0,0 mm 2,2 km/h (1 Bft) O-NO 61 ° 0 min 0,000 mm 0,0 UV-I 19 W/m² -2,4 °C 1,4 °C 3,2 km/h (1 Bft)
18.12.2018 15:06 1,4 °C 76 % 1023,1 hPa 0,0 mm 1,0 km/h (0 Bft) O-NO 61 ° 0 min 0,000 mm 0,0 UV-I 19 W/m² -2,4 °C 1,4 °C 3,2 km/h (1 Bft)
18.12.2018 15:07 1,4 °C 76 % 1023,0 hPa 0,0 mm 0,0 km/h (0 Bft) O-NO 61 ° 0 min 0,000 mm 0,0 UV-I 19 W/m² -2,4 °C 1,4 °C 0,0 km/h (0 Bft)
18.12.2018 15:08 1,4 °C 76 % 1023,1 hPa 0,0 mm 1,5 km/h (1 Bft) O-NO 61 ° 0 min 0,000 mm 0,0 UV-I 19 W/m² -2,4 °C 1,4 °C 3,2 km/h (1 Bft)
18.12.2018 15:09 1,4 °C 76 % 1023,1 hPa 0,0 mm 1,8 km/h (1 Bft) O-NO 61 ° 0 min 0,000 mm 0,0 UV-I 19 W/m² -2,4 °C 1,4 °C 3,2 km/h (1 Bft)
18.12.2018 15:10 1,4 °C 75 % 1023,1 hPa 0,0 mm 0,0 km/h (0 Bft) O-NO 61 ° 0 min 0,000 mm 0,0 UV-I 19 W/m² -2,5 °C 1,4 °C 0,0 km/h (0 Bft)
18.12.2018 15:11 1,4 °C 75 % 1023,1 hPa 0,0 mm 0,4 km/h (0 Bft) O-NO 61 ° 0 min 0,000 mm 0,0 UV-I 19 W/m² -2,5 °C 1,4 °C 1,6 km/h (1 Bft)
18.12.2018 15:12 1,4 °C 76 % 1023,1 hPa 0,0 mm 0,0 km/h (0 Bft) O-NO 61 ° 0 min 0,000 mm 0,0 UV-I 18 W/m² -2,4 °C 1,4 °C 0,0 km/h (0 Bft)
18.12.2018 15:13 1,4 °C 76 % 1023,1 hPa 0,0 mm 0,5 km/h (0 Bft) O-NO 61 ° 0 min 0,000 mm 0,0 UV-I 18 W/m² -2,4 °C 1,4 °C 3,2 km/h (1 Bft)
18.12.2018 15:14 1,4 °C 76 % 1023,1 hPa 0,0 mm 1,2 km/h (1 Bft) O-NO 61 ° 0 min 0,000 mm 0,0 UV-I 18 W/m² -2,4 °C 1,4 °C 3,2 km/h (1 Bft)
18.12.2018 15:15 1,4 °C 76 % 1023,0 hPa 0,0 mm 1,5 km/h (1 Bft) O-NO 61 ° 0 min 0,000 mm 0,0 UV-I 18 W/m² -2,4 °C 1,4 °C 3,2 km/h (1 Bft)
18.12.2018 15:16 1,4 °C 77 % 1022,9 hPa 0,0 mm 2,2 km/h (1 Bft) O-NO 61 ° 0 min 0,000 mm 0,0 UV-I 18 W/m² -2,2 °C 1,4 °C 3,2 km/h (1 Bft)
18.12.2018 15:17 1,4 °C 77 % 1022,9 hPa 0,0 mm 2,0 km/h (1 Bft) O-NO 61 ° 0 min 0,000 mm 0,0 UV-I 18 W/m² -2,2 °C 1,4 °C 3,2 km/h (1 Bft)
18.12.2018 15:18 1,4 °C 77 % 1022,9 hPa 0,0 mm 0,8 km/h (0 Bft) O-NO 61 ° 0 min 0,000 mm 0,0 UV-I 18 W/m² -2,2 °C 1,4 °C 1,6 km/h (1 Bft)
18.12.2018 15:19 1,4 °C 77 % 1022,8 hPa 0,0 mm 0,2 km/h (0 Bft) O-NO 61 ° 0 min 0,000 mm 0,0 UV-I 18 W/m² -2,2 °C 1,4 °C 1,6 km/h (1 Bft)
18.12.2018 15:20 1,4 °C 77 % 1022,8 hPa 0,0 mm 0,0 km/h (0 Bft) O-NO 61 ° 0 min 0,000 mm 0,0 UV-I 16 W/m² -2,2 °C 1,4 °C 0,0 km/h (0 Bft)
18.12.2018 15:21 1,4 °C 77 % 1022,8 hPa 0,0 mm 1,1 km/h (1 Bft) O-NO 61 ° 0 min 0,000 mm 0,0 UV-I 16 W/m² -2,2 °C 1,4 °C 3,2 km/h (1 Bft)
18.12.2018 15:22 1,4 °C 77 % 1022,7 hPa 0,0 mm 0,3 km/h (0 Bft) O-NO 61 ° 0 min 0,000 mm 0,0 UV-I 16 W/m² -2,2 °C 1,4 °C 3,2 km/h (1 Bft)
18.12.2018 15:23 1,4 °C 76 % 1022,7 hPa 0,0 mm 0,9 km/h (0 Bft) O-NO 61 ° 0 min 0,000 mm 0,0 UV-I 16 W/m² -2,4 °C 1,4 °C 3,2 km/h (1 Bft)
18.12.2018 15:24 1,4 °C 76 % 1022,7 hPa 0,0 mm 0,0 km/h (0 Bft) O-NO 61 ° 0 min 0,000 mm 0,0 UV-I 16 W/m² -2,4 °C 1,4 °C 0,0 km/h (0 Bft)
18.12.2018 15:25 1,3 °C 76 % 1022,7 hPa 0,0 mm 1,6 km/h (1 Bft) O-NO 61 ° 0 min 0,000 mm 0,0 UV-I 16 W/m² -2,5 °C 1,3 °C 3,2 km/h (1 Bft)
18.12.2018 15:26 1,4 °C 76 % 1022,7 hPa 0,0 mm 1,3 km/h (1 Bft) O 101 ° 0 min 0,000 mm 0,0 UV-I 16 W/m² -2,4 °C 1,4 °C 3,2 km/h (1 Bft)
18.12.2018 15:27 1,3 °C 77 % 1022,6 hPa 0,0 mm 0,5 km/h (0 Bft) O 101 ° 0 min 0,000 mm 0,0 UV-I 16 W/m² -2,3 °C 1,3 °C 1,6 km/h (1 Bft)
18.12.2018 15:28 1,3 °C 77 % 1022,7 hPa 0,0 mm 0,4 km/h (0 Bft) O 101 ° 0 min 0,000 mm 0,0 UV-I 14 W/m² -2,3 °C 1,3 °C 1,6 km/h (1 Bft)
18.12.2018 15:29 1,3 °C 77 % 1022,6 hPa 0,0 mm 0,0 km/h (0 Bft) O 101 ° 0 min 0,000 mm 0,0 UV-I 14 W/m² -2,3 °C 1,3 °C 0,0 km/h (0 Bft)
18.12.2018 15:30 1,3 °C 77 % 1022,6 hPa 0,0 mm 0,0 km/h (0 Bft) O 101 ° 0 min 0,000 mm 0,0 UV-I 14 W/m² -2,3 °C 1,3 °C 0,0 km/h (0 Bft)
18.12.2018 15:31 1,3 °C 76 % 1022,6 hPa 0,0 mm 0,0 km/h (0 Bft) O 101 ° 0 min 0,000 mm 0,0 UV-I 14 W/m² -2,5 °C 1,3 °C 0,0 km/h (0 Bft)
18.12.2018 15:32 1,3 °C 76 % 1022,6 hPa 0,0 mm 0,0 km/h (0 Bft) O 101 ° 0 min 0,000 mm 0,0 UV-I 14 W/m² -2,5 °C 1,3 °C 0,0 km/h (0 Bft)
18.12.2018 15:33 1,3 °C 77 % 1022,6 hPa 0,0 mm 0,0 km/h (0 Bft) O 101 ° 0 min 0,000 mm 0,0 UV-I 14 W/m² -2,3 °C 1,3 °C 0,0 km/h (0 Bft)
18.12.2018 15:34 1,3 °C 76 % 1022,5 hPa 0,0 mm 0,0 km/h (0 Bft) O 101 ° 0 min 0,000 mm 0,0 UV-I 14 W/m² -2,5 °C 1,3 °C 0,0 km/h (0 Bft)
18.12.2018 15:35 1,3 °C 76 % 1022,5 hPa 0,0 mm 0,0 km/h (0 Bft) O 101 ° 0 min 0,000 mm 0,0 UV-I 14 W/m² -2,5 °C 1,3 °C 0,0 km/h (0 Bft)
18.12.2018 15:36 1,2 °C 76 % 1022,4 hPa 0,0 mm 0,0 km/h (0 Bft) O 101 ° 0 min 0,000 mm 0,0 UV-I 14 W/m² -2,5 °C 1,2 °C 0,0 km/h (0 Bft)
18.12.2018 15:37 1,2 °C 76 % 1022,4 hPa 0,0 mm 0,7 km/h (0 Bft) O 101 ° 0 min 0,000 mm 0,0 UV-I 14 W/m² -2,5 °C 1,2 °C 1,6 km/h (1 Bft)
18.12.2018 15:38 1,2 °C 76 % 1022,4 hPa 0,0 mm 1,4 km/h (1 Bft) O 101 ° 0 min 0,000 mm 0,0 UV-I 14 W/m² -2,5 °C 1,2 °C 3,2 km/h (1 Bft)
18.12.2018 15:39 1,2 °C 76 % 1022,4 hPa 0,0 mm 2,9 km/h (1 Bft) O 101 ° 0 min 0,000 mm 0,0 UV-I 14 W/m² -2,5 °C 1,2 °C 4,8 km/h (1 Bft)
18.12.2018 15:40 1,1 °C 76 % 1022,4 hPa 0,0 mm 1,2 km/h (1 Bft) O 101 ° 0 min 0,000 mm 0,0 UV-I 12 W/m² -2,6 °C 1,1 °C 3,2 km/h (1 Bft)
18.12.2018 15:41 1,1 °C 76 % 1022,5 hPa 0,0 mm 0,0 km/h (0 Bft) O 101 ° 0 min 0,000 mm 0,0 UV-I 12 W/m² -2,6 °C 1,1 °C 0,0 km/h (0 Bft)
18.12.2018 15:42 1,1 °C 77 % 1022,5 hPa 0,0 mm 1,7 km/h (1 Bft) O 101 ° 0 min 0,000 mm 0,0 UV-I 12 W/m² -2,5 °C 1,1 °C 4,8 km/h (1 Bft)
18.12.2018 15:43 1,1 °C 77 % 1022,4 hPa 0,0 mm 0,4 km/h (0 Bft) O 101 ° 0 min 0,000 mm 0,0 UV-I 12 W/m² -2,5 °C 1,1 °C 1,6 km/h (1 Bft)
18.12.2018 15:44 1,1 °C 77 % 1022,4 hPa 0,0 mm 2,1 km/h (1 Bft) O 101 ° 0 min 0,000 mm 0,0 UV-I 12 W/m² -2,5 °C 1,1 °C 3,2 km/h (1 Bft)
18.12.2018 15:45 1,1 °C 77 % 1022,4 hPa 0,0 mm 3,5 km/h (1 Bft) O-SO 103 ° 0 min 0,000 mm 0,0 UV-I 12 W/m² -2,5 °C 1,1 °C 4,8 km/h (1 Bft)
18.12.2018 15:46 1,0 °C 77 % 1022,4 hPa 0,0 mm 1,3 km/h (1 Bft) O-SO 103 ° 0 min 0,000 mm 0,0 UV-I 12 W/m² -2,6 °C 1,0 °C 3,2 km/h (1 Bft)
18.12.2018 15:47 1,0 °C 77 % 1022,4 hPa 0,0 mm 1,0 km/h (0 Bft) O-SO 103 ° 0 min 0,000 mm 0,0 UV-I 12 W/m² -2,6 °C 1,0 °C 3,2 km/h (1 Bft)
18.12.2018 15:48 1,0 °C 77 % 1022,4 hPa 0,0 mm 0,8 km/h (0 Bft) O-SO 103 ° 0 min 0,000 mm 0,0 UV-I 12 W/m² -2,6 °C 1,0 °C 3,2 km/h (1 Bft)
18.12.2018 15:49 0,9 °C 77 % 1022,4 hPa 0,0 mm 1,3 km/h (1 Bft) O-SO 103 ° 0 min 0,000 mm 0,0 UV-I 12 W/m² -2,7 °C 0,9 °C 3,2 km/h (1 Bft)
18.12.2018 15:50 0,9 °C 77 % 1022,3 hPa 0,0 mm 1,6 km/h (1 Bft) S-SO 153 ° 0 min 0,000 mm 0,0 UV-I 12 W/m² -2,7 °C 0,9 °C 4,8 km/h (1 Bft)
18.12.2018 15:51 0,9 °C 76 % 1022,3 hPa 0,0 mm 1,9 km/h (1 Bft) S-SO 153 ° 0 min 0,000 mm 0,0 UV-I 12 W/m² -2,8 °C 0,9 °C 3,2 km/h (1 Bft)
18.12.2018 15:52 0,9 °C 76 % 1022,2 hPa 0,0 mm 0,6 km/h (0 Bft) S-SO 153 ° 0 min 0,000 mm 0,0 UV-I 11 W/m² -2,8 °C 0,9 °C 1,6 km/h (1 Bft)
18.12.2018 15:53 0,9 °C 77 % 1022,2 hPa 0,0 mm 1,0 km/h (0 Bft) SO 127 ° 0 min 0,000 mm 0,0 UV-I 11 W/m² -2,7 °C 0,9 °C 3,2 km/h (1 Bft)
18.12.2018 15:54 0,9 °C 77 % 1022,1 hPa 0,0 mm 0,1 km/h (0 Bft) SO 127 ° 0 min 0,000 mm 0,0 UV-I 11 W/m² -2,7 °C 0,9 °C 1,6 km/h (1 Bft)
18.12.2018 15:55 0,8 °C 77 % 1022,2 hPa 0,0 mm 0,0 km/h (0 Bft) SO 127 ° 0 min 0,000 mm 0,0 UV-I 11 W/m² -2,8 °C 0,8 °C 0,0 km/h (0 Bft)
18.12.2018 15:56 0,9 °C 77 % 1022,2 hPa 0,0 mm 0,0 km/h (0 Bft) SO 127 ° 0 min 0,000 mm 0,0 UV-I 11 W/m² -2,7 °C 0,9 °C 0,0 km/h (0 Bft)
18.12.2018 15:57 0,8 °C 77 % 1022,2 hPa 0,0 mm 0,5 km/h (0 Bft) SO 127 ° 0 min 0,000 mm 0,0 UV-I 11 W/m² -2,8 °C 0,8 °C 1,6 km/h (1 Bft)
18.12.2018 15:58 0,8 °C 77 % 1022,2 hPa 0,0 mm 1,1 km/h (1 Bft) SO 127 ° 0 min 0,000 mm 0,0 UV-I 11 W/m² -2,8 °C 0,8 °C 3,2 km/h (1 Bft)
18.12.2018 15:59 0,8 °C 76 % 1022,2 hPa 0,0 mm 2,0 km/h (1 Bft) SO 127 ° 0 min 0,000 mm 0,0 UV-I 11 W/m² -2,9 °C 0,8 °C 3,2 km/h (1 Bft)
18.12.2018 16:00 0,8 °C 76 % 1022,2 hPa 0,0 mm 1,5 km/h (1 Bft) SO 127 ° 0 min 0,000 mm 0,0 UV-I 11 W/m² -2,9 °C 0,8 °C 3,2 km/h (1 Bft)
18.12.2018 16:01 0,8 °C 76 % 1022,2 hPa 0,0 mm 1,2 km/h (1 Bft) SO 127 ° 0 min 0,000 mm 0,0 UV-I 11 W/m² -2,9 °C 0,8 °C 1,6 km/h (1 Bft)
18.12.2018 16:02 0,8 °C 76 % 1022,2 hPa 0,0 mm 0,7 km/h (0 Bft) SO 127 ° 0 min 0,000 mm 0,0 UV-I 11 W/m² -2,9 °C 0,8 °C 1,6 km/h (1 Bft)
18.12.2018 16:03 0,8 °C 76 % 1022,2 hPa 0,0 mm 1,0 km/h (0 Bft) SO 127 ° 0 min 0,000 mm 0,0 UV-I 9 W/m² -2,9 °C 0,8 °C 1,6 km/h (1 Bft)
18.12.2018 16:04 0,7 °C 76 % 1022,2 hPa 0,0 mm 0,3 km/h (0 Bft) SO 127 ° 0 min 0,000 mm 0,0 UV-I 9 W/m² -3,0 °C 0,7 °C 1,6 km/h (1 Bft)
18.12.2018 16:05 0,7 °C 77 % 1022,2 hPa 0,0 mm 1,0 km/h (0 Bft) SO 127 ° 0 min 0,000 mm 0,0 UV-I 9 W/m² -2,9 °C 0,7 °C 1,6 km/h (1 Bft)
18.12.2018 16:06 0,7 °C 77 % 1022,2 hPa 0,0 mm 0,6 km/h (0 Bft) SO 127 ° 0 min 0,000 mm 0,0 UV-I 9 W/m² -2,9 °C 0,7 °C 1,6 km/h (1 Bft)
18.12.2018 16:07 0,7 °C 77 % 1022,2 hPa 0,0 mm 0,9 km/h (0 Bft) SO 127 ° 0 min 0,000 mm 0,0 UV-I 9 W/m² -2,9 °C 0,7 °C 1,6 km/h (1 Bft)
18.12.2018 16:08 0,7 °C 77 % 1022,2 hPa 0,0 mm 0,3 km/h (0 Bft) SO 127 ° 0 min 0,000 mm 0,0 UV-I 7 W/m² -2,9 °C 0,7 °C 1,6 km/h (1 Bft)
18.12.2018 16:09 0,7 °C 77 % 1022,2 hPa 0,0 mm 0,1 km/h (0 Bft) SO 127 ° 0 min 0,000 mm 0,0 UV-I 7 W/m² -2,9 °C 0,7 °C 1,6 km/h (1 Bft)
18.12.2018 16:10 0,7 °C 77 % 1022,2 hPa 0,0 mm 0,0 km/h (0 Bft) SO 127 ° 0 min 0,000 mm 0,0 UV-I 7 W/m² -2,9 °C 0,7 °C 0,0 km/h (0 Bft)
18.12.2018 16:11 0,6 °C 77 % 1022,1 hPa 0,0 mm 0,0 km/h (0 Bft) SO 127 ° 0 min 0,000 mm 0,0 UV-I 7 W/m² -3,0 °C 0,6 °C 0,0 km/h (0 Bft)
18.12.2018 16:12 0,6 °C 77 % 1022,2 hPa 0,0 mm 0,5 km/h (0 Bft) SO 127 ° 0 min 0,000 mm 0,0 UV-I 5 W/m² -3,0 °C 0,6 °C 3,2 km/h (1 Bft)
18.12.2018 16:13 0,6 °C 77 % 1022,1 hPa 0,0 mm 0,7 km/h (0 Bft) SO 127 ° 0 min 0,000 mm 0,0 UV-I 5 W/m² -3,0 °C 0,6 °C 3,2 km/h (1 Bft)
18.12.2018 16:14 0,6 °C 77 % 1022,1 hPa 0,0 mm 0,0 km/h (0 Bft) SO 127 ° 0 min 0,000 mm 0,0 UV-I 5 W/m² -3,0 °C 0,6 °C 0,0 km/h (0 Bft)
18.12.2018 16:15 0,6 °C 77 % 1022,1 hPa 0,0 mm 0,0 km/h (0 Bft) SO 127 ° 0 min 0,000 mm 0,0 UV-I 5 W/m² -3,0 °C 0,6 °C 0,0 km/h (0 Bft)
18.12.2018 16:16 0,6 °C 77 % 1022,1 hPa 0,0 mm 0,0 km/h (0 Bft) SO 127 ° 0 min 0,000 mm 0,0 UV-I 5 W/m² -3,0 °C 0,6 °C 0,0 km/h (0 Bft)
18.12.2018 16:17 0,6 °C 77 % 1022,1 hPa 0,0 mm 0,2 km/h (0 Bft) SO 127 ° 0 min 0,000 mm 0,0 UV-I 0 W/m² -3,0 °C 0,6 °C 1,6 km/h (1 Bft)
18.12.2018 16:18 0,5 °C 77 % 1022,1 hPa 0,0 mm 0,0 km/h (0 Bft) SO 127 ° 0 min 0,000 mm 0,0 UV-I 0 W/m² -3,1 °C 0,5 °C 0,0 km/h (0 Bft)
18.12.2018 16:19 0,5 °C 77 % 1022,1 hPa 0,0 mm 0,0 km/h (0 Bft) SO 127 ° 0 min 0,000 mm 0,0 UV-I 0 W/m² -3,1 °C 0,5 °C 0,0 km/h (0 Bft)
18.12.2018 16:20 0,5 °C 76 % 1022,1 hPa 0,0 mm 0,0 km/h (0 Bft) SO 127 ° 0 min 0,000 mm 0,0 UV-I 0 W/m² -3,2 °C 0,5 °C 0,0 km/h (0 Bft)
18.12.2018 16:21 0,4 °C 77 % 1022,0 hPa 0,0 mm 0,0 km/h (0 Bft) SO 127 ° 0 min 0,000 mm 0,0 UV-I 0 W/m² -3,1 °C 0,4 °C 0,0 km/h (0 Bft)
18.12.2018 16:22 0,4 °C 77 % 1022,0 hPa 0,0 mm 0,0 km/h (0 Bft) SO 127 ° 0 min 0,000 mm 0,0 UV-I 0 W/m² -3,1 °C 0,4 °C 0,0 km/h (0 Bft)
18.12.2018 16:23 0,4 °C 77 % 1022,0 hPa 0,0 mm 0,0 km/h (0 Bft) SO 127 ° 0 min 0,000 mm 0,0 UV-I 0 W/m² -3,1 °C 0,4 °C 0,0 km/h (0 Bft)
18.12.2018 16:24 0,4 °C 77 % 1022,0 hPa 0,0 mm 0,0 km/h (0 Bft) SO 127 ° 0 min 0,000 mm 0,0 UV-I 0 W/m² -3,1 °C 0,4 °C 0,0 km/h (0 Bft)
18.12.2018 16:25 0,4 °C 77 % 1022,0 hPa 0,0 mm 0,3 km/h (0 Bft) SO 127 ° 0 min 0,000 mm 0,0 UV-I 0 W/m² -3,1 °C 0,4 °C 1,6 km/h (1 Bft)
18.12.2018 16:26 0,4 °C 77 % 1021,9 hPa 0,0 mm 0,3 km/h (0 Bft) SO 127 ° 0 min 0,000 mm 0,0 UV-I 0 W/m² -3,1 °C 0,4 °C 1,6 km/h (1 Bft)
18.12.2018 16:27 0,3 °C 77 % 1021,9 hPa 0,0 mm 0,6 km/h (0 Bft) SO 127 ° 0 min 0,000 mm 0,0 UV-I 0 W/m² -3,2 °C 0,3 °C 3,2 km/h (1 Bft)
18.12.2018 16:28 0,3 °C 77 % 1021,9 hPa 0,0 mm 0,3 km/h (0 Bft) SO 127 ° 0 min 0,000 mm 0,0 UV-I 0 W/m² -3,2 °C 0,3 °C 1,6 km/h (1 Bft)
18.12.2018 16:29 0,3 °C 77 % 1021,9 hPa 0,0 mm 0,0 km/h (0 Bft) SO 127 ° 0 min 0,000 mm 0,0 UV-I 0 W/m² -3,2 °C 0,3 °C 0,0 km/h (0 Bft)
18.12.2018 16:30 0,3 °C 77 % 1021,9 hPa 0,0 mm 0,0 km/h (0 Bft) SO 127 ° 0 min 0,000 mm 0,0 UV-I 0 W/m² -3,2 °C 0,3 °C 0,0 km/h (0 Bft)
18.12.2018 16:31 0,3 °C 77 % 1021,9 hPa 0,0 mm 0,0 km/h (0 Bft) SO 127 ° 0 min 0,000 mm 0,0 UV-I 0 W/m² -3,2 °C 0,3 °C 0,0 km/h (0 Bft)
18.12.2018 16:32 0,2 °C 77 % 1021,9 hPa 0,0 mm 0,0 km/h (0 Bft) SO 127 ° 0 min 0,000 mm 0,0 UV-I 0 W/m² -3,3 °C 0,2 °C 0,0 km/h (0 Bft)
18.12.2018 16:33 0,2 °C 77 % 1021,9 hPa 0,0 mm 0,0 km/h (0 Bft) SO 127 ° 0 min 0,000 mm 0,0 UV-I 0 W/m² -3,3 °C 0,2 °C 0,0 km/h (0 Bft)
18.12.2018 16:34 0,1 °C 77 % 1021,9 hPa 0,0 mm 0,0 km/h (0 Bft) SO 127 ° 0 min 0,000 mm 0,0 UV-I 0 W/m² -3,4 °C 0,1 °C 0,0 km/h (0 Bft)
18.12.2018 16:35 0,1 °C 77 % 1021,8 hPa 0,0 mm 0,0 km/h (0 Bft) SO 127 ° 0 min 0,000 mm 0,0 UV-I 0 W/m² -3,4 °C 0,1 °C 0,0 km/h (0 Bft)
18.12.2018 16:36 0,1 °C 77 % 1021,8 hPa 0,0 mm 0,0 km/h (0 Bft) SO 127 ° 0 min 0,000 mm 0,0 UV-I 0 W/m² -3,4 °C 0,1 °C 0,0 km/h (0 Bft)
18.12.2018 16:37 0,1 °C 77 % 1021,8 hPa 0,0 mm 0,0 km/h (0 Bft) SO 127 ° 0 min 0,000 mm 0,0 UV-I 0 W/m² -3,4 °C 0,1 °C 0,0 km/h (0 Bft)
18.12.2018 16:38 0,0 °C 77 % 1021,8 hPa 0,0 mm 0,0 km/h (0 Bft) SO 127 ° 0 min 0,000 mm 0,0 UV-I 0 W/m² -3,5 °C 0,0 °C 0,0 km/h (0 Bft)
18.12.2018 16:39 0,0 °C 77 % 1021,8 hPa 0,0 mm 0,0 km/h (0 Bft) SO 127 ° 0 min 0,000 mm 0,0 UV-I 0 W/m² -3,5 °C 0,0 °C 0,0 km/h (0 Bft)
18.12.2018 16:40 0,0 °C 78 % 1021,8 hPa 0,0 mm 0,0 km/h (0 Bft) SO 127 ° 0 min 0,000 mm 0,0 UV-I 0 W/m² -3,4 °C 0,0 °C 0,0 km/h (0 Bft)
18.12.2018 16:41 -0,1 °C 78 % 1021,7 hPa 0,0 mm 0,0 km/h (0 Bft) SO 127 ° 0 min 0,000 mm 0,0 UV-I 0 W/m² -3,5 °C -0,1 °C 0,0 km/h (0 Bft)
18.12.2018 16:42 -0,1 °C 77 % 1021,7 hPa 0,0 mm 0,0 km/h (0 Bft) SO 127 ° 0 min 0,000 mm 0,0 UV-I 0 W/m² -3,6 °C -0,1 °C 0,0 km/h (0 Bft)
18.12.2018 16:43 -0,1 °C 77 % 1021,7 hPa 0,0 mm 0,0 km/h (0 Bft) SO 127 ° 0 min 0,000 mm 0,0 UV-I 0 W/m² -3,6 °C -0,1 °C 0,0 km/h (0 Bft)
18.12.2018 16:44 -0,1 °C 77 % 1021,7 hPa 0,0 mm 0,0 km/h (0 Bft) SO 127 ° 0 min 0,000 mm 0,0 UV-I 0 W/m² -3,6 °C -0,1 °C 0,0 km/h (0 Bft)
18.12.2018 16:45 -0,2 °C 77 % 1021,8 hPa 0,0 mm 0,0 km/h (0 Bft) SO 127 ° 0 min 0,000 mm 0,0 UV-I 0 W/m² -3,7 °C -0,2 °C 0,0 km/h (0 Bft)
18.12.2018 16:46 -0,2 °C 77 % 1021,8 hPa 0,0 mm 1,8 km/h (1 Bft) SO 127 ° 0 min 0,000 mm 0,0 UV-I 0 W/m² -3,7 °C -0,2 °C 3,2 km/h (1 Bft)
18.12.2018 16:47 -0,2 °C 77 % 1021,7 hPa 0,0 mm 0,3 km/h (0 Bft) SO 127 ° 0 min 0,000 mm 0,0 UV-I 0 W/m² -3,7 °C -0,2 °C 1,6 km/h (1 Bft)
18.12.2018 16:48 -0,2 °C 76 % 1021,8 hPa 0,0 mm 0,0 km/h (0 Bft) SO 127 ° 0 min 0,000 mm 0,0 UV-I 0 W/m² -3,9 °C -0,2 °C 0,0 km/h (0 Bft)
18.12.2018 16:49 -0,3 °C 76 % 1021,8 hPa 0,0 mm 0,0 km/h (0 Bft) SO 127 ° 0 min 0,000 mm 0,0 UV-I 0 W/m² -4,0 °C -0,3 °C 0,0 km/h (0 Bft)
18.12.2018 16:50 -0,3 °C 76 % 1021,8 hPa 0,0 mm 0,0 km/h (0 Bft) SO 127 ° 0 min 0,000 mm 0,0 UV-I 0 W/m² -4,0 °C -0,3 °C 0,0 km/h (0 Bft)
18.12.2018 16:51 -0,4 °C 76 % 1021,8 hPa 0,0 mm 0,0 km/h (0 Bft) SO 127 ° 0 min 0,000 mm 0,0 UV-I 0 W/m² -4,1 °C -0,4 °C 0,0 km/h (0 Bft)
18.12.2018 16:52 -0,4 °C 76 % 1021,8 hPa 0,0 mm 0,0 km/h (0 Bft) SO 127 ° 0 min 0,000 mm 0,0 UV-I 0 W/m² -4,1 °C -0,4 °C 0,0 km/h (0 Bft)
18.12.2018 16:53 -0,4 °C 76 % 1021,8 hPa 0,0 mm 0,0 km/h (0 Bft) SO 127 ° 0 min 0,000 mm 0,0 UV-I 0 W/m² -4,1 °C -0,4 °C 0,0 km/h (0 Bft)
18.12.2018 16:54 -0,5 °C 76 % 1021,7 hPa 0,0 mm 0,0 km/h (0 Bft) SO 127 ° 0 min 0,000 mm 0,0 UV-I 0 W/m² -4,2 °C -0,5 °C 0,0 km/h (0 Bft)
18.12.2018 16:55 -0,6 °C 76 % 1021,7 hPa 0,0 mm 0,0 km/h (0 Bft) SO 127 ° 0 min 0,000 mm 0,0 UV-I 0 W/m² -4,3 °C -0,6 °C 0,0 km/h (0 Bft)
18.12.2018 16:56 -0,6 °C 76 % 1021,8 hPa 0,0 mm 0,0 km/h (0 Bft) SO 127 ° 0 min 0,000 mm 0,0 UV-I 0 W/m² -4,3 °C -0,6 °C 0,0 km/h (0 Bft)
18.12.2018 16:57 -0,6 °C 77 % 1021,7 hPa 0,0 mm 0,0 km/h (0 Bft) SO 127 ° 0 min 0,000 mm 0,0 UV-I 0 W/m² -4,1 °C -0,6 °C 0,0 km/h (0 Bft)
18.12.2018 16:58 -0,7 °C 77 % 1021,7 hPa 0,0 mm 0,0 km/h (0 Bft) SO 127 ° 0 min 0,000 mm 0,0 UV-I 0 W/m² -4,2 °C -0,7 °C 0,0 km/h (0 Bft)
18.12.2018 16:59 -0,8 °C 77 % 1021,8 hPa 0,0 mm 2,0 km/h (1 Bft) SO 127 ° 0 min 0,000 mm 0,0 UV-I 0 W/m² -4,3 °C -0,8 °C 4,8 km/h (1 Bft)
18.12.2018 17:00 -0,8 °C 76 % 1021,8 hPa 0,0 mm 4,5 km/h (1 Bft) S 188 ° 0 min 0,000 mm 0,0 UV-I 0 W/m² -4,5 °C -0,8 °C 4,8 km/h (1 Bft)
18.12.2018 17:01 -0,9 °C 77 % 1021,8 hPa 0,0 mm 5,5 km/h (1 Bft) S 188 ° 0 min 0,000 mm 0,0 UV-I 0 W/m² -4,4 °C -2,8 °C 6,4 km/h (2 Bft)
18.12.2018 17:02 -1,1 °C 77 % 1021,8 hPa 0,0 mm 4,8 km/h (1 Bft) S 188 ° 0 min 0,000 mm 0,0 UV-I 0 W/m² -4,6 °C -2,7 °C 4,8 km/h (1 Bft)
18.12.2018 17:03 -1,1 °C 78 % 1021,8 hPa 0,0 mm 2,2 km/h (1 Bft) S 188 ° 0 min 0,000 mm 0,0 UV-I 0 W/m² -4,4 °C -1,1 °C 4,8 km/h (1 Bft)
18.12.2018 17:04 -1,2 °C 78 % 1021,9 hPa 0,0 mm 0,0 km/h (0 Bft) S 188 ° 0 min 0,000 mm 0,0 UV-I 0 W/m² -4,5 °C -1,2 °C 0,0 km/h (0 Bft)
18.12.2018 17:05 -1,3 °C 78 % 1021,9 hPa 0,0 mm 0,0 km/h (0 Bft) S 188 ° 0 min 0,000 mm 0,0 UV-I 0 W/m² -4,6 °C -1,3 °C 0,0 km/h (0 Bft)
18.12.2018 17:06 -1,4 °C 78 % 1021,9 hPa 0,0 mm 0,0 km/h (0 Bft) S 188 ° 0 min 0,000 mm 0,0 UV-I 0 W/m² -4,7 °C -1,4 °C 0,0 km/h (0 Bft)
18.12.2018 17:07 -1,4 °C 77 % 1021,9 hPa 0,0 mm 0,0 km/h (0 Bft) S 188 ° 0 min 0,000 mm 0,0 UV-I 0 W/m² -4,9 °C -1,4 °C 0,0 km/h (0 Bft)
18.12.2018 17:08 -1,4 °C 78 % 1021,9 hPa 0,0 mm 0,0 km/h (0 Bft) S 188 ° 0 min 0,000 mm 0,0 UV-I 0 W/m² -4,7 °C -1,4 °C 0,0 km/h (0 Bft)
18.12.2018 17:09 -1,5 °C 78 % 1021,9 hPa 0,0 mm 0,0 km/h (0 Bft) S 188 ° 0 min 0,000 mm 0,0 UV-I 0 W/m² -4,8 °C -1,5 °C 0,0 km/h (0 Bft)
18.12.2018 17:10 -1,6 °C 78 % 1022,0 hPa 0,0 mm 0,0 km/h (0 Bft) S 188 ° 0 min 0,000 mm 0,0 UV-I 0 W/m² -4,9 °C -1,6 °C 0,0 km/h (0 Bft)
18.12.2018 17:11 -1,6 °C 78 % 1021,9 hPa 0,0 mm 0,0 km/h (0 Bft) S 188 ° 0 min 0,000 mm 0,0 UV-I 0 W/m² -4,9 °C -1,6 °C 0,0 km/h (0 Bft)
18.12.2018 17:12 -1,6 °C 78 % 1022,0 hPa 0,0 mm 0,0 km/h (0 Bft) S 188 ° 0 min 0,000 mm 0,0 UV-I 0 W/m² -4,9 °C -1,6 °C 0,0 km/h (0 Bft)
18.12.2018 17:13 -1,6 °C 79 % 1022,0 hPa 0,0 mm 0,0 km/h (0 Bft) S 188 ° 0 min 0,000 mm 0,0 UV-I 0 W/m² -4,8 °C -1,6 °C 0,0 km/h (0 Bft)
18.12.2018 17:14 -1,7 °C 79 % 1022,0 hPa 0,0 mm 0,0 km/h (0 Bft) S 188 ° 0 min 0,000 mm 0,0 UV-I 0 W/m² -4,8 °C -1,7 °C 0,0 km/h (0 Bft)
18.12.2018 17:15 -1,7 °C 79 % 1022,0 hPa 0,0 mm 0,0 km/h (0 Bft) S 188 ° 0 min 0,000 mm 0,0 UV-I 0 W/m² -4,8 °C -1,7 °C 0,0 km/h (0 Bft)
18.12.2018 17:16 -1,7 °C 79 % 1022,1 hPa 0,0 mm 0,0 km/h (0 Bft) S 188 ° 0 min 0,000 mm 0,0 UV-I 0 W/m² -4,8 °C -1,7 °C 0,0 km/h (0 Bft)
18.12.2018 17:17 -1,8 °C 79 % 1022,0 hPa 0,0 mm 0,0 km/h (0 Bft) S 188 ° 0 min 0,000 mm 0,0 UV-I 0 W/m² -4,9 °C -1,8 °C 0,0 km/h (0 Bft)
18.12.2018 17:18 -1,8 °C 79 % 1022,1 hPa 0,0 mm 0,0 km/h (0 Bft) S 188 ° 0 min 0,000 mm 0,0 UV-I 0 W/m² -4,9 °C -1,8 °C 0,0 km/h (0 Bft)
18.12.2018 17:19 -1,8 °C 79 % 1022,1 hPa 0,0 mm 0,0 km/h (0 Bft) S 188 ° 0 min 0,000 mm 0,0 UV-I 0 W/m² -4,9 °C -1,8 °C 0,0 km/h (0 Bft)
18.12.2018 17:20 -1,9 °C 79 % 1022,2 hPa 0,0 mm 0,8 km/h (0 Bft) S 188 ° 0 min 0,000 mm 0,0 UV-I 0 W/m² -5,0 °C -1,9 °C 3,2 km/h (1 Bft)
18.12.2018 17:21 -1,9 °C 80 % 1022,1 hPa 0,0 mm 0,2 km/h (0 Bft) S 188 ° 0 min 0,000 mm 0,0 UV-I 0 W/m² -4,9 °C -1,9 °C 1,6 km/h (1 Bft)
18.12.2018 17:22 -1,9 °C 80 % 1022,1 hPa 0,0 mm 0,1 km/h (0 Bft) S 188 ° 0 min 0,000 mm 0,0 UV-I 0 W/m² -4,9 °C -1,9 °C 1,6 km/h (1 Bft)
18.12.2018 17:23 -2,0 °C 80 % 1022,1 hPa 0,0 mm 0,6 km/h (0 Bft) S 188 ° 0 min 0,000 mm 0,0 UV-I 0 W/m² -5,0 °C -2,0 °C 3,2 km/h (1 Bft)
18.12.2018 17:24 -2,0 °C 80 % 1022,1 hPa 0,0 mm 1,5 km/h (1 Bft) S 188 ° 0 min 0,000 mm 0,0 UV-I 0 W/m² -5,0 °C -2,0 °C 3,2 km/h (1 Bft)
18.12.2018 17:25 -2,1 °C 81 % 1022,2 hPa 0,0 mm 1,8 km/h (1 Bft) S 188 ° 0 min 0,000 mm 0,0 UV-I 0 W/m² -4,9 °C -2,1 °C 4,8 km/h (1 Bft)
18.12.2018 17:26 -2,1 °C 81 % 1022,2 hPa 0,0 mm 1,4 km/h (1 Bft) S 188 ° 0 min 0,000 mm 0,0 UV-I 0 W/m² -4,9 °C -2,1 °C 3,2 km/h (1 Bft)
18.12.2018 17:27 -2,1 °C 82 % 1022,2 hPa 0,0 mm 0,2 km/h (0 Bft) S 188 ° 0 min 0,000 mm 0,0 UV-I 0 W/m² -4,7 °C -2,1 °C 1,6 km/h (1 Bft)
18.12.2018 17:28 -2,1 °C 82 % 1022,2 hPa 0,0 mm 0,6 km/h (0 Bft) S 188 ° 0 min 0,000 mm 0,0 UV-I 0 W/m² -4,7 °C -2,1 °C 1,6 km/h (1 Bft)
18.12.2018 17:29 -2,1 °C 82 % 1022,2 hPa 0,0 mm 0,0 km/h (0 Bft) S 188 ° 0 min 0,000 mm 0,0 UV-I 0 W/m² -4,7 °C -2,1 °C 0,0 km/h (0 Bft)
18.12.2018 17:30 -2,1 °C 82 % 1022,2 hPa 0,0 mm 0,0 km/h (0 Bft) S 188 ° 0 min 0,000 mm 0,0 UV-I 0 W/m² -4,7 °C -2,1 °C 0,0 km/h (0 Bft)
18.12.2018 17:31 -2,2 °C 82 % 1022,1 hPa 0,0 mm 0,0 km/h (0 Bft) S 188 ° 0 min 0,000 mm 0,0 UV-I 0 W/m² -4,8 °C -2,2 °C 0,0 km/h (0 Bft)
18.12.2018 17:32 -2,2 °C 82 % 1022,2 hPa 0,0 mm 0,0 km/h (0 Bft) S 188 ° 0 min 0,000 mm 0,0 UV-I 0 W/m² -4,8 °C -2,2 °C 0,0 km/h (0 Bft)
18.12.2018 17:33 -2,2 °C 82 % 1022,2 hPa 0,0 mm 0,0 km/h (0 Bft) S 188 ° 0 min 0,000 mm 0,0 UV-I 0 W/m² -4,8 °C -2,2 °C 0,0 km/h (0 Bft)
18.12.2018 17:34 -2,2 °C 81 % 1022,1 hPa 0,0 mm 0,0 km/h (0 Bft) S 188 ° 0 min 0,000 mm 0,0 UV-I 0 W/m² -5,0 °C -2,2 °C 0,0 km/h (0 Bft)
18.12.2018 17:35 -2,2 °C 81 % 1022,2 hPa 0,0 mm 0,0 km/h (0 Bft) S 188 ° 0 min 0,000 mm 0,0 UV-I 0 W/m² -5,0 °C -2,2 °C 0,0 km/h (0 Bft)
18.12.2018 17:36 -2,3 °C 81 % 1022,2 hPa 0,0 mm 0,0 km/h (0 Bft) S 188 ° 0 min 0,000 mm 0,0 UV-I 0 W/m² -5,1 °C -2,3 °C 0,0 km/h (0 Bft)
18.12.2018 17:37 -2,3 °C 81 % 1022,2 hPa 0,0 mm 0,0 km/h (0 Bft) S 188 ° 0 min 0,000 mm 0,0 UV-I 0 W/m² -5,1 °C -2,3 °C 0,0 km/h (0 Bft)
18.12.2018 17:38 -2,3 °C 81 % 1022,2 hPa 0,0 mm 0,0 km/h (0 Bft) S 188 ° 0 min 0,000 mm 0,0 UV-I 0 W/m² -5,1 °C -2,3 °C 0,0 km/h (0 Bft)
18.12.2018 17:39 -2,3 °C 81 % 1022,2 hPa 0,0 mm 0,7 km/h (0 Bft) S 188 ° 0 min 0,000 mm 0,0 UV-I 0 W/m² -5,1 °C -2,3 °C 3,2 km/h (1 Bft)
18.12.2018 17:40 -2,3 °C 82 % 1022,2 hPa 0,0 mm 3,0 km/h (1 Bft) S 188 ° 0 min 0,000 mm 0,0 UV-I 0 W/m² -4,9 °C -2,3 °C 4,8 km/h (1 Bft)
18.12.2018 17:41 -2,3 °C 82 % 1022,2 hPa 0,0 mm 2,7 km/h (1 Bft) S 188 ° 0 min 0,000 mm 0,0 UV-I 0 W/m² -4,9 °C -2,3 °C 4,8 km/h (1 Bft)
18.12.2018 17:42 -2,3 °C 82 % 1022,2 hPa 0,0 mm 3,0 km/h (1 Bft) S 188 ° 0 min 0,000 mm 0,0 UV-I 0 W/m² -4,9 °C -2,3 °C 4,8 km/h (1 Bft)
18.12.2018 17:43 -2,3 °C 82 % 1022,1 hPa 0,0 mm 4,5 km/h (1 Bft) S 188 ° 0 min 0,000 mm 0,0 UV-I 0 W/m² -4,9 °C -2,3 °C 6,4 km/h (2 Bft)
18.12.2018 17:44 -2,3 °C 83 % 1022,2 hPa 0,0 mm 4,6 km/h (1 Bft) S 188 ° 0 min 0,000 mm 0,0 UV-I 0 W/m² -4,8 °C -4,0 °C 6,4 km/h (2 Bft)
18.12.2018 17:45 -2,2 °C 83 % 1022,1 hPa 0,0 mm 3,7 km/h (1 Bft) S 188 ° 0 min 0,000 mm 0,0 UV-I 0 W/m² -4,7 °C -2,2 °C 4,8 km/h (1 Bft)
18.12.2018 17:46 -2,3 °C 83 % 1022,2 hPa 0,0 mm 2,0 km/h (1 Bft) S 188 ° 0 min 0,000 mm 0,0 UV-I 0 W/m² -4,8 °C -2,3 °C 3,2 km/h (1 Bft)
18.12.2018 17:47 -2,2 °C 83 % 1022,1 hPa 0,0 mm 1,9 km/h (1 Bft) S 188 ° 0 min 0,000 mm 0,0 UV-I 0 W/m² -4,7 °C -2,2 °C 3,2 km/h (1 Bft)
18.12.2018 17:48 -2,2 °C 83 % 1022,1 hPa 0,0 mm 2,4 km/h (1 Bft) S 188 ° 0 min 0,000 mm 0,0 UV-I 0 W/m² -4,7 °C -2,2 °C 4,8 km/h (1 Bft)
18.12.2018 17:49 -2,2 °C 83 % 1022,1 hPa 0,0 mm 3,3 km/h (1 Bft) S 188 ° 0 min 0,000 mm 0,0 UV-I 0 W/m² -4,7 °C -2,2 °C 6,4 km/h (2 Bft)
18.12.2018 17:50 -2,2 °C 83 % 1022,2 hPa 0,0 mm 3,5 km/h (1 Bft) S 188 ° 0 min 0,000 mm 0,0 UV-I 0 W/m² -4,7 °C -2,2 °C 4,8 km/h (1 Bft)
18.12.2018 17:51 -2,2 °C 83 % 1022,2 hPa 0,0 mm 2,6 km/h (1 Bft) S 188 ° 0 min 0,000 mm 0,0 UV-I 0 W/m² -4,7 °C -2,2 °C 4,8 km/h (1 Bft)
18.12.2018 17:52 -2,1 °C 83 % 1022,2 hPa 0,0 mm 2,4 km/h (1 Bft) S 188 ° 0 min 0,000 mm 0,0 UV-I 0 W/m² -4,6 °C -2,1 °C 4,8 km/h (1 Bft)
18.12.2018 17:53 -2,1 °C 83 % 1022,2 hPa 0,0 mm 0,3 km/h (0 Bft) S 188 ° 0 min 0,000 mm 0,0 UV-I 0 W/m² -4,6 °C -2,1 °C 1,6 km/h (1 Bft)
18.12.2018 17:54 -2,1 °C 83 % 1022,2 hPa 0,0 mm 1,6 km/h (1 Bft) S 188 ° 0 min 0,000 mm 0,0 UV-I 0 W/m² -4,6 °C -2,1 °C 3,2 km/h (1 Bft)
18.12.2018 17:55 -2,1 °C 83 % 1022,1 hPa 0,0 mm 1,3 km/h (1 Bft) S 188 ° 0 min 0,000 mm 0,0 UV-I 0 W/m² -4,6 °C -2,1 °C 3,2 km/h (1 Bft)
18.12.2018 17:56 -2,1 °C 83 % 1022,2 hPa 0,0 mm 2,7 km/h (1 Bft) S 188 ° 0 min 0,000 mm 0,0 UV-I 0 W/m² -4,6 °C -2,1 °C 4,8 km/h (1 Bft)
18.12.2018 17:57 -2,1 °C 84 % 1022,1 hPa 0,0 mm 1,3 km/h (1 Bft) S 188 ° 0 min 0,000 mm 0,0 UV-I 0 W/m² -4,4 °C -2,1 °C 3,2 km/h (1 Bft)
18.12.2018 17:58 -2,1 °C 84 % 1022,1 hPa 0,0 mm 1,1 km/h (1 Bft) S 188 ° 0 min 0,000 mm 0,0 UV-I 0 W/m² -4,4 °C -2,1 °C 1,6 km/h (1 Bft)
18.12.2018 17:59 -2,1 °C 84 % 1022,0 hPa 0,0 mm 2,2 km/h (1 Bft) S 188 ° 0 min 0,000 mm 0,0 UV-I 0 W/m² -4,4 °C -2,1 °C 4,8 km/h (1 Bft)
18.12.2018 18:00 -2,1 °C 84 % 1022,0 hPa 0,0 mm 1,7 km/h (1 Bft) S 188 ° 0 min 0,000 mm 0,0 UV-I 0 W/m² -4,4 °C -2,1 °C 3,2 km/h (1 Bft)
18.12.2018 18:01 -2,1 °C 84 % 1022,0 hPa 0,0 mm 1,8 km/h (1 Bft) S 188 ° 0 min 0,000 mm 0,0 UV-I 0 W/m² -4,4 °C -2,1 °C 3,2 km/h (1 Bft)
18.12.2018 18:02 -2,1 °C 84 % 1022,0 hPa 0,0 mm 2,3 km/h (1 Bft) S 188 ° 0 min 0,000 mm 0,0 UV-I 0 W/m² -4,4 °C -2,1 °C 4,8 km/h (1 Bft)
18.12.2018 18:03 -2,0 °C 84 % 1022,1 hPa 0,0 mm 1,1 km/h (1 Bft) S 188 ° 0 min 0,000 mm 0,0 UV-I 0 W/m² -4,3 °C -2,0 °C 3,2 km/h (1 Bft)
18.12.2018 18:04 -2,0 °C 84 % 1022,0 hPa 0,0 mm 0,9 km/h (0 Bft) S 188 ° 0 min 0,000 mm 0,0 UV-I 0 W/m² -4,3 °C -2,0 °C 1,6 km/h (1 Bft)
18.12.2018 18:05 -2,0 °C 83 % 1022,0 hPa 0,0 mm 0,0 km/h (0 Bft) S 188 ° 0 min 0,000 mm 0,0 UV-I 0 W/m² -4,5 °C -2,0 °C 0,0 km/h (0 Bft)
18.12.2018 18:06 -2,0 °C 83 % 1022,1 hPa 0,0 mm 0,7 km/h (0 Bft) S 188 ° 0 min 0,000 mm 0,0 UV-I 0 W/m² -4,5 °C -2,0 °C 3,2 km/h (1 Bft)
18.12.2018 18:07 -2,0 °C 83 % 1022,0 hPa 0,0 mm 0,0 km/h (0 Bft) S 188 ° 0 min 0,000 mm 0,0 UV-I 0 W/m² -4,5 °C -2,0 °C 0,0 km/h (0 Bft)
18.12.2018 18:08 -2,0 °C 83 % 1022,1 hPa 0,0 mm 0,0 km/h (0 Bft) S 188 ° 0 min 0,000 mm 0,0 UV-I 0 W/m² -4,5 °C -2,0 °C 0,0 km/h (0 Bft)
18.12.2018 18:09 -1,9 °C 83 % 1022,1 hPa 0,0 mm 0,0 km/h (0 Bft) S 188 ° 0 min 0,000 mm 0,0 UV-I 0 W/m² -4,4 °C -1,9 °C 0,0 km/h (0 Bft)
18.12.2018 18:10 -1,9 °C 83 % 1022,1 hPa 0,0 mm 0,0 km/h (0 Bft) S 188 ° 0 min 0,000 mm 0,0 UV-I 0 W/m² -4,4 °C -1,9 °C 0,0 km/h (0 Bft)
18.12.2018 18:11 -1,9 °C 83 % 1022,0 hPa 0,0 mm 0,0 km/h (0 Bft) S 188 ° 0 min 0,000 mm 0,0 UV-I 0 W/m² -4,4 °C -1,9 °C 0,0 km/h (0 Bft)
18.12.2018 18:12 -1,9 °C 83 % 1022,0 hPa 0,0 mm 0,0 km/h (0 Bft) S 188 ° 0 min 0,000 mm 0,0 UV-I 0 W/m² -4,4 °C -1,9 °C 0,0 km/h (0 Bft)
18.12.2018 18:13 -2,0 °C 83 % 1022,0 hPa 0,0 mm 0,0 km/h (0 Bft) S 188 ° 0 min 0,000 mm 0,0 UV-I 0 W/m² -4,5 °C -2,0 °C 0,0 km/h (0 Bft)
18.12.2018 18:14 -2,1 °C 83 % 1022,0 hPa 0,0 mm 0,0 km/h (0 Bft) S 188 ° 0 min 0,000 mm 0,0 UV-I 0 W/m² -4,6 °C -2,1 °C 0,0 km/h (0 Bft)
18.12.2018 18:15 -2,1 °C 83 % 1022,0 hPa 0,0 mm 0,0 km/h (0 Bft) S 188 ° 0 min 0,000 mm 0,0 UV-I 0 W/m² -4,6 °C -2,1 °C 0,0 km/h (0 Bft)
18.12.2018 18:16 -2,1 °C 83 % 1022,0 hPa 0,0 mm 0,0 km/h (0 Bft) S 188 ° 0 min 0,000 mm 0,0 UV-I 0 W/m² -4,6 °C -2,1 °C 0,0 km/h (0 Bft)
18.12.2018 18:17 -2,1 °C 83 % 1022,0 hPa 0,0 mm 0,0 km/h (0 Bft) S 188 ° 0 min 0,000 mm 0,0 UV-I 0 W/m² -4,6 °C -2,1 °C 0,0 km/h (0 Bft)
18.12.2018 18:18 -2,2 °C 83 % 1022,0 hPa 0,0 mm 1,3 km/h (1 Bft) S 188 ° 0 min 0,000 mm 0,0 UV-I 0 W/m² -4,7 °C -2,2 °C 3,2 km/h (1 Bft)
18.12.2018 18:19 -2,2 °C 83 % 1022,0 hPa 0,0 mm 2,1 km/h (1 Bft) S 188 ° 0 min 0,000 mm 0,0 UV-I 0 W/m² -4,7 °C -2,2 °C 3,2 km/h (1 Bft)
18.12.2018 18:20 -2,2 °C 84 % 1022,0 hPa 0,0 mm 2,0 km/h (1 Bft) S 188 ° 0 min 0,000 mm 0,0 UV-I 0 W/m² -4,5 °C -2,2 °C 3,2 km/h (1 Bft)
18.12.2018 18:21 -2,2 °C 84 % 1022,0 hPa 0,0 mm 2,8 km/h (1 Bft) S 188 ° 0 min 0,000 mm 0,0 UV-I 0 W/m² -4,5 °C -2,2 °C 3,2 km/h (1 Bft)
18.12.2018 18:22 -2,1 °C 84 % 1022,0 hPa 0,0 mm 2,1 km/h (1 Bft) S 188 ° 0 min 0,000 mm 0,0 UV-I 0 W/m² -4,4 °C -2,1 °C 4,8 km/h (1 Bft)
18.12.2018 18:23 -2,1 °C 84 % 1022,0 hPa 0,0 mm 2,6 km/h (1 Bft) S 188 ° 0 min 0,000 mm 0,0 UV-I 0 W/m² -4,4 °C -2,1 °C 4,8 km/h (1 Bft)
18.12.2018 18:24 -2,1 °C 84 % 1022,0 hPa 0,0 mm 2,1 km/h (1 Bft) S 188 ° 0 min 0,000 mm 0,0 UV-I 0 W/m² -4,4 °C -2,1 °C 4,8 km/h (1 Bft)
18.12.2018 18:25 -2,1 °C 84 % 1022,0 hPa 0,0 mm 2,1 km/h (1 Bft) S 188 ° 0 min 0,000 mm 0,0 UV-I 0 W/m² -4,4 °C -2,1 °C 4,8 km/h (1 Bft)
18.12.2018 18:26 -2,2 °C 84 % 1022,0 hPa 0,0 mm 1,8 km/h (1 Bft) S 188 ° 0 min 0,000 mm 0,0 UV-I 0 W/m² -4,5 °C -2,2 °C 4,8 km/h (1 Bft)
18.12.2018 18:27 -2,1 °C 84 % 1021,9 hPa 0,0 mm 3,7 km/h (1 Bft) S 188 ° 0 min 0,000 mm 0,0 UV-I 0 W/m² -4,4 °C -2,1 °C 4,8 km/h (1 Bft)
18.12.2018 18:28 -2,2 °C 84 % 1021,9 hPa 0,0 mm 4,2 km/h (1 Bft) S 188 ° 0 min 0,000 mm 0,0 UV-I 0 W/m² -4,5 °C -2,2 °C 4,8 km/h (1 Bft)
18.12.2018 18:29 -2,1 °C 84 % 1021,9 hPa 0,0 mm 2,5 km/h (1 Bft) S 188 ° 0 min 0,000 mm 0,0 UV-I 0 W/m² -4,4 °C -2,1 °C 4,8 km/h (1 Bft)
18.12.2018 18:30 -2,2 °C 84 % 1021,9 hPa 0,0 mm 0,0 km/h (0 Bft) S 188 ° 0 min 0,000 mm 0,0 UV-I 0 W/m² -4,5 °C -2,2 °C 0,0 km/h (0 Bft)
18.12.2018 18:31 -2,2 °C 84 % 1021,9 hPa 0,0 mm 0,0 km/h (0 Bft) S 188 ° 0 min 0,000 mm 0,0 UV-I 0 W/m² -4,5 °C -2,2 °C 0,0 km/h (0 Bft)
18.12.2018 18:32 -2,2 °C 84 % 1021,9 hPa 0,0 mm 0,0 km/h (0 Bft) S 188 ° 0 min 0,000 mm 0,0 UV-I 0 W/m² -4,5 °C -2,2 °C 0,0 km/h (0 Bft)
18.12.2018 18:33 -2,2 °C 84 % 1021,9 hPa 0,0 mm 0,0 km/h (0 Bft) S 188 ° 0 min 0,000 mm 0,0 UV-I 0 W/m² -4,5 °C -2,2 °C 0,0 km/h (0 Bft)
18.12.2018 18:34 -2,2 °C 84 % 1022,0 hPa 0,0 mm 0,0 km/h (0 Bft) S 188 ° 0 min 0,000 mm 0,0 UV-I 0 W/m² -4,5 °C -2,2 °C 0,0 km/h (0 Bft)
18.12.2018 18:35 -2,2 °C 84 % 1021,9 hPa 0,0 mm 0,0 km/h (0 Bft) S 188 ° 0 min 0,000 mm 0,0 UV-I 0 W/m² -4,5 °C -2,2 °C 0,0 km/h (0 Bft)
18.12.2018 18:36 -2,2 °C 84 % 1021,9 hPa 0,0 mm 0,0 km/h (0 Bft) S 188 ° 0 min 0,000 mm 0,0 UV-I 0 W/m² -4,5 °C -2,2 °C 0,0 km/h (0 Bft)
18.12.2018 18:37 -2,3 °C 84 % 1021,9 hPa 0,0 mm 0,0 km/h (0 Bft) S 188 ° 0 min 0,000 mm 0,0 UV-I 0 W/m² -4,6 °C -2,3 °C 0,0 km/h (0 Bft)
18.12.2018 18:38 -2,3 °C 84 % 1021,9 hPa 0,0 mm 0,0 km/h (0 Bft) S 188 ° 0 min 0,000 mm 0,0 UV-I 0 W/m² -4,6 °C -2,3 °C 0,0 km/h (0 Bft)
18.12.2018 18:39 -2,3 °C 84 % 1021,9 hPa 0,0 mm 0,0 km/h (0 Bft) S 188 ° 0 min 0,000 mm 0,0 UV-I 0 W/m² -4,6 °C -2,3 °C 0,0 km/h (0 Bft)
18.12.2018 18:40 -2,3 °C 84 % 1021,9 hPa 0,0 mm 0,0 km/h (0 Bft) S 188 ° 0 min 0,000 mm 0,0 UV-I 0 W/m² -4,6 °C -2,3 °C 0,0 km/h (0 Bft)
18.12.2018 18:41 -2,3 °C 84 % 1021,9 hPa 0,0 mm 0,0 km/h (0 Bft) S 188 ° 0 min 0,000 mm 0,0 UV-I 0 W/m² -4,6 °C -2,3 °C 0,0 km/h (0 Bft)
18.12.2018 18:42 -2,4 °C 84 % 1021,9 hPa 0,0 mm 0,0 km/h (0 Bft) S 188 ° 0 min 0,000 mm 0,0 UV-I 0 W/m² -4,7 °C -2,4 °C 0,0 km/h (0 Bft)
18.12.2018 18:43 -2,4 °C 84 % 1021,9 hPa 0,0 mm 0,0 km/h (0 Bft) S 188 ° 0 min 0,000 mm 0,0 UV-I 0 W/m² -4,7 °C -2,4 °C 0,0 km/h (0 Bft)
18.12.2018 18:44 -2,4 °C 84 % 1021,9 hPa 0,0 mm 0,0 km/h (0 Bft) S 188 ° 0 min 0,000 mm 0,0 UV-I 0 W/m² -4,7 °C -2,4 °C 0,0 km/h (0 Bft)
18.12.2018 18:45 -2,4 °C 84 % 1021,9 hPa 0,0 mm 0,0 km/h (0 Bft) S 188 ° 0 min 0,000 mm 0,0 UV-I 0 W/m² -4,7 °C -2,4 °C 0,0 km/h (0 Bft)
18.12.2018 18:46 -2,4 °C 84 % 1021,9 hPa 0,0 mm 0,0 km/h (0 Bft) S 188 ° 0 min 0,000 mm 0,0 UV-I 0 W/m² -4,7 °C -2,4 °C 0,0 km/h (0 Bft)
18.12.2018 18:47 -2,4 °C 84 % 1021,8 hPa 0,0 mm 0,0 km/h (0 Bft) S 188 ° 0 min 0,000 mm 0,0 UV-I 0 W/m² -4,7 °C -2,4 °C 0,0 km/h (0 Bft)
18.12.2018 18:48 -2,4 °C 85 % 1021,9 hPa 0,0 mm 0,0 km/h (0 Bft) S 188 ° 0 min 0,000 mm 0,0 UV-I 0 W/m² -4,6 °C -2,4 °C 0,0 km/h (0 Bft)
18.12.2018 18:49 -2,5 °C 85 % 1021,8 hPa 0,0 mm 0,0 km/h (0 Bft) S 188 ° 0 min 0,000 mm 0,0 UV-I 0 W/m² -4,7 °C -2,5 °C 0,0 km/h (0 Bft)
18.12.2018 18:50 -2,5 °C 85 % 1021,8 hPa 0,0 mm 0,0 km/h (0 Bft) S 188 ° 0 min 0,000 mm 0,0 UV-I 0 W/m² -4,7 °C -2,5 °C 0,0 km/h (0 Bft)
18.12.2018 18:51 -2,5 °C 85 % 1021,8 hPa 0,0 mm 0,0 km/h (0 Bft) S 188 ° 0 min 0,000 mm 0,0 UV-I 0 W/m² -4,7 °C -2,5 °C 0,0 km/h (0 Bft)
18.12.2018 18:52 -2,5 °C 85 % 1021,8 hPa 0,0 mm 0,0 km/h (0 Bft) S 188 ° 0 min 0,000 mm 0,0 UV-I 0 W/m² -4,7 °C -2,5 °C 0,0 km/h (0 Bft)
18.12.2018 18:53 -2,5 °C 85 % 1021,8 hPa 0,0 mm 0,0 km/h (0 Bft) S 188 ° 0 min 0,000 mm 0,0 UV-I 0 W/m² -4,7 °C -2,5 °C 0,0 km/h (0 Bft)
18.12.2018 18:54 -2,5 °C 85 % 1021,8 hPa 0,0 mm 0,0 km/h (0 Bft) S 188 ° 0 min 0,000 mm 0,0 UV-I 0 W/m² -4,7 °C -2,5 °C 0,0 km/h (0 Bft)
18.12.2018 18:55 -2,6 °C 85 % 1021,8 hPa 0,0 mm 0,0 km/h (0 Bft) S 188 ° 0 min 0,000 mm 0,0 UV-I 0 W/m² -4,8 °C -2,6 °C 0,0 km/h (0 Bft)
18.12.2018 18:56 -2,6 °C 85 % 1021,8 hPa 0,0 mm 0,0 km/h (0 Bft) S 188 ° 0 min 0,000 mm 0,0 UV-I 0 W/m² -4,8 °C -2,6 °C 0,0 km/h (0 Bft)
18.12.2018 18:57 -2,6 °C 85 % 1021,8 hPa 0,0 mm 0,0 km/h (0 Bft) S 188 ° 0 min 0,000 mm 0,0 UV-I 0 W/m² -4,8 °C -2,6 °C 0,0 km/h (0 Bft)
18.12.2018 18:58 -2,6 °C 85 % 1021,9 hPa 0,0 mm 0,0 km/h (0 Bft) S 188 ° 0 min 0,000 mm 0,0 UV-I 0 W/m² -4,8 °C -2,6 °C 0,0 km/h (0 Bft)
18.12.2018 18:59 -2,6 °C 85 % 1021,8 hPa 0,0 mm 0,0 km/h (0 Bft) S 188 ° 0 min 0,000 mm 0,0 UV-I 0 W/m² -4,8 °C -2,6 °C 0,0 km/h (0 Bft)
18.12.2018 19:00 -2,7 °C 84 % 1021,8 hPa 0,0 mm 0,0 km/h (0 Bft) S 188 ° 0 min 0,000 mm 0,0 UV-I 0 W/m² -5,0 °C -2,7 °C 0,0 km/h (0 Bft)
18.12.2018 19:01 -2,7 °C 84 % 1021,8 hPa 0,0 mm 0,0 km/h (0 Bft) S 188 ° 0 min 0,000 mm 0,0 UV-I 0 W/m² -5,0 °C -2,7 °C 0,0 km/h (0 Bft)
18.12.2018 19:02 -2,8 °C 84 % 1021,8 hPa 0,0 mm 0,0 km/h (0 Bft) S 188 ° 0 min 0,000 mm 0,0 UV-I 0 W/m² -5,1 °C -2,8 °C 0,0 km/h (0 Bft)
18.12.2018 19:03 -2,8 °C 84 % 1021,8 hPa 0,0 mm 1,5 km/h (1 Bft) S 188 ° 0 min 0,000 mm 0,0 UV-I 0 W/m² -5,1 °C -2,8 °C 4,8 km/h (1 Bft)
18.12.2018 19:04 -2,8 °C 84 % 1021,8 hPa 0,0 mm 2,7 km/h (1 Bft) S 188 ° 0 min 0,000 mm 0,0 UV-I 0 W/m² -5,1 °C -2,8 °C 4,8 km/h (1 Bft)
18.12.2018 19:05 -2,8 °C 85 % 1021,8 hPa 0,0 mm 2,4 km/h (1 Bft) S 188 ° 0 min 0,000 mm 0,0 UV-I 0 W/m² -5,0 °C -2,8 °C 3,2 km/h (1 Bft)
18.12.2018 19:06 -2,9 °C 85 % 1021,8 hPa 0,0 mm 2,7 km/h (1 Bft) S 188 ° 0 min 0,000 mm 0,0 UV-I 0 W/m² -5,1 °C -2,9 °C 3,2 km/h (1 Bft)
18.12.2018 19:07 -2,9 °C 85 % 1021,8 hPa 0,0 mm 2,3 km/h (1 Bft) S 188 ° 0 min 0,000 mm 0,0 UV-I 0 W/m² -5,1 °C -2,9 °C 3,2 km/h (1 Bft)
18.12.2018 19:08 -2,9 °C 85 % 1021,8 hPa 0,0 mm 3,7 km/h (1 Bft) S 188 ° 0 min 0,000 mm 0,0 UV-I 0 W/m² -5,1 °C -2,9 °C 4,8 km/h (1 Bft)
18.12.2018 19:09 -2,9 °C 85 % 1021,8 hPa 0,0 mm 0,1 km/h (0 Bft) S 188 ° 0 min 0,000 mm 0,0 UV-I 0 W/m² -5,1 °C -2,9 °C 1,6 km/h (1 Bft)
18.12.2018 19:10 -2,9 °C 85 % 1021,8 hPa 0,0 mm 0,0 km/h (0 Bft) S 188 ° 0 min 0,000 mm 0,0 UV-I 0 W/m² -5,1 °C -2,9 °C 0,0 km/h (0 Bft)
18.12.2018 19:11 -2,9 °C 85 % 1021,8 hPa 0,0 mm 0,0 km/h (0 Bft) S 188 ° 0 min 0,000 mm 0,0 UV-I 0 W/m² -5,1 °C -2,9 °C 0,0 km/h (0 Bft)
18.12.2018 19:12 -3,0 °C 85 % 1021,8 hPa 0,0 mm 0,0 km/h (0 Bft) S 188 ° 0 min 0,000 mm 0,0 UV-I 0 W/m² -5,2 °C -3,0 °C 0,0 km/h (0 Bft)
18.12.2018 19:13 -3,0 °C 85 % 1021,8 hPa 0,0 mm 0,0 km/h (0 Bft) S 188 ° 0 min 0,000 mm 0,0 UV-I 0 W/m² -5,2 °C -3,0 °C 0,0 km/h (0 Bft)
18.12.2018 19:14 -3,0 °C 85 % 1021,8 hPa 0,0 mm 0,0 km/h (0 Bft) S 188 ° 0 min 0,000 mm 0,0 UV-I 0 W/m² -5,2 °C -3,0 °C 0,0 km/h (0 Bft)
18.12.2018 19:15 -3,1 °C 85 % 1021,9 hPa 0,0 mm 0,0 km/h (0 Bft) S 188 ° 0 min 0,000 mm 0,0 UV-I 0 W/m² -5,3 °C -3,1 °C 0,0 km/h (0 Bft)
18.12.2018 19:16 -3,1 °C 85 % 1021,8 hPa 0,0 mm 0,1 km/h (0 Bft) S 188 ° 0 min 0,000 mm 0,0 UV-I 0 W/m² -5,3 °C -3,1 °C 1,6 km/h (1 Bft)
18.12.2018 19:17 -3,1 °C 85 % 1021,8 hPa 0,0 mm 2,0 km/h (1 Bft) S 188 ° 0 min 0,000 mm 0,0 UV-I 0 W/m² -5,3 °C -3,1 °C 3,2 km/h (1 Bft)
18.12.2018 19:18 -3,1 °C 85 % 1021,8 hPa 0,0 mm 2,3 km/h (1 Bft) S 188 ° 0 min 0,000 mm 0,0 UV-I 0 W/m² -5,3 °C -3,1 °C 3,2 km/h (1 Bft)
18.12.2018 19:19 -3,1 °C 85 % 1021,8 hPa 0,0 mm 2,8 km/h (1 Bft) S 188 ° 0 min 0,000 mm 0,0 UV-I 0 W/m² -5,3 °C -3,1 °C 3,2 km/h (1 Bft)
18.12.2018 19:20 -3,2 °C 85 % 1021,8 hPa 0,0 mm 1,2 km/h (1 Bft) S 188 ° 0 min 0,000 mm 0,0 UV-I 0 W/m² -5,4 °C -3,2 °C 1,6 km/h (1 Bft)
18.12.2018 19:21 -3,2 °C 85 % 1021,8 hPa 0,0 mm 1,5 km/h (1 Bft) S 188 ° 0 min 0,000 mm 0,0 UV-I 0 W/m² -5,4 °C -3,2 °C 3,2 km/h (1 Bft)
18.12.2018 19:22 -3,2 °C 85 % 1021,8 hPa 0,0 mm 0,2 km/h (0 Bft) S 188 ° 0 min 0,000 mm 0,0 UV-I 0 W/m² -5,4 °C -3,2 °C 1,6 km/h (1 Bft)
18.12.2018 19:23 -3,2 °C 85 % 1021,9 hPa 0,0 mm 0,0 km/h (0 Bft) S 188 ° 0 min 0,000 mm 0,0 UV-I 0 W/m² -5,4 °C -3,2 °C 0,0 km/h (0 Bft)
18.12.2018 19:24 -3,3 °C 85 % 1021,8 hPa 0,0 mm 0,0 km/h (0 Bft) S 188 ° 0 min 0,000 mm 0,0 UV-I 0 W/m² -5,5 °C -3,3 °C 0,0 km/h (0 Bft)
18.12.2018 19:25 -3,3 °C 85 % 1021,8 hPa 0,0 mm 0,0 km/h (0 Bft) S 188 ° 0 min 0,000 mm 0,0 UV-I 0 W/m² -5,5 °C -3,3 °C 0,0 km/h (0 Bft)
18.12.2018 19:26 -3,3 °C 85 % 1021,8 hPa 0,0 mm 0,0 km/h (0 Bft) S 188 ° 0 min 0,000 mm 0,0 UV-I 0 W/m² -5,5 °C -3,3 °C 0,0 km/h (0 Bft)
18.12.2018 19:27 -3,3 °C 84 % 1021,7 hPa 0,0 mm 0,0 km/h (0 Bft) S 188 ° 0 min 0,000 mm 0,0 UV-I 0 W/m² -5,6 °C -3,3 °C 0,0 km/h (0 Bft)
18.12.2018 19:28 -3,4 °C 84 % 1021,7 hPa 0,0 mm 0,0 km/h (0 Bft) S 188 ° 0 min 0,000 mm 0,0 UV-I 0 W/m² -5,7 °C -3,4 °C 0,0 km/h (0 Bft)
18.12.2018 19:29 -3,4 °C 84 % 1021,7 hPa 0,0 mm 0,0 km/h (0 Bft) S 188 ° 0 min 0,000 mm 0,0 UV-I 0 W/m² -5,7 °C -3,4 °C 0,0 km/h (0 Bft)
18.12.2018 19:30 -3,4 °C 84 % 1021,6 hPa 0,0 mm 0,0 km/h (0 Bft) S 188 ° 0 min 0,000 mm 0,0 UV-I 0 W/m² -5,7 °C -3,4 °C 0,0 km/h (0 Bft)
18.12.2018 19:31 -3,4 °C 84 % 1021,7 hPa 0,0 mm 0,0 km/h (0 Bft) S 188 ° 0 min 0,000 mm 0,0 UV-I 0 W/m² -5,7 °C -3,4 °C 0,0 km/h (0 Bft)
18.12.2018 19:32 -3,4 °C 84 % 1021,7 hPa 0,0 mm 0,0 km/h (0 Bft) S 188 ° 0 min 0,000 mm 0,0 UV-I 0 W/m² -5,7 °C -3,4 °C 0,0 km/h (0 Bft)
18.12.2018 19:33 -3,5 °C 84 % 1021,7 hPa 0,0 mm 0,0 km/h (0 Bft) S 188 ° 0 min 0,000 mm 0,0 UV-I 0 W/m² -5,8 °C -3,5 °C 0,0 km/h (0 Bft)
18.12.2018 19:34 -3,5 °C 84 % 1021,7 hPa 0,0 mm 0,0 km/h (0 Bft) S 188 ° 0 min 0,000 mm 0,0 UV-I 0 W/m² -5,8 °C -3,5 °C 0,0 km/h (0 Bft)
18.12.2018 19:35 -3,6 °C 84 % 1021,7 hPa 0,0 mm 0,0 km/h (0 Bft) S 188 ° 0 min 0,000 mm 0,0 UV-I 0 W/m² -5,9 °C -3,6 °C 0,0 km/h (0 Bft)
18.12.2018 19:36 -3,6 °C 84 % 1021,7 hPa 0,0 mm 0,0 km/h (0 Bft) S 188 ° 0 min 0,000 mm 0,0 UV-I 0 W/m² -5,9 °C -3,6 °C 0,0 km/h (0 Bft)
18.12.2018 19:37 -3,6 °C 84 % 1021,7 hPa 0,0 mm 0,0 km/h (0 Bft) S 188 ° 0 min 0,000 mm 0,0 UV-I 0 W/m² -5,9 °C -3,6 °C 0,0 km/h (0 Bft)
18.12.2018 19:38 -3,6 °C 85 % 1021,7 hPa 0,0 mm 0,0 km/h (0 Bft) S 188 ° 0 min 0,000 mm 0,0 UV-I 0 W/m² -5,7 °C -3,6 °C 0,0 km/h (0 Bft)
18.12.2018 19:39 -3,6 °C 85 % 1021,8 hPa 0,0 mm 0,0 km/h (0 Bft) S 188 ° 0 min 0,000 mm 0,0 UV-I 0 W/m² -5,7 °C -3,6 °C 0,0 km/h (0 Bft)
18.12.2018 19:40 -3,7 °C 85 % 1021,6 hPa 0,0 mm 0,0 km/h (0 Bft) S 188 ° 0 min 0,000 mm 0,0 UV-I 0 W/m² -5,8 °C -3,7 °C 0,0 km/h (0 Bft)
18.12.2018 19:41 -3,7 °C 85 % 1021,6 hPa 0,0 mm 0,0 km/h (0 Bft) S 188 ° 0 min 0,000 mm 0,0 UV-I 0 W/m² -5,8 °C -3,7 °C 0,0 km/h (0 Bft)
18.12.2018 19:42 -3,7 °C 85 % 1021,6 hPa 0,0 mm 0,0 km/h (0 Bft) S 188 ° 0 min 0,000 mm 0,0 UV-I 0 W/m² -5,8 °C -3,7 °C 0,0 km/h (0 Bft)
18.12.2018 19:43 -3,7 °C 85 % 1021,7 hPa 0,0 mm 0,0 km/h (0 Bft) S 188 ° 0 min 0,000 mm 0,0 UV-I 0 W/m² -5,8 °C -3,7 °C 0,0 km/h (0 Bft)
18.12.2018 19:44 -3,8 °C 84 % 1021,7 hPa 0,0 mm 0,0 km/h (0 Bft) S 188 ° 0 min 0,000 mm 0,0 UV-I 0 W/m² -6,1 °C -3,8 °C 0,0 km/h (0 Bft)
18.12.2018 19:45 -3,8 °C 84 % 1021,7 hPa 0,0 mm 0,0 km/h (0 Bft) S 188 ° 0 min 0,000 mm 0,0 UV-I 0 W/m² -6,1 °C -3,8 °C 0,0 km/h (0 Bft)
18.12.2018 19:46 -3,8 °C 84 % 1021,6 hPa 0,0 mm 0,0 km/h (0 Bft) S 188 ° 0 min 0,000 mm 0,0 UV-I 0 W/m² -6,1 °C -3,8 °C 0,0 km/h (0 Bft)
18.12.2018 19:47 -3,8 °C 84 % 1021,7 hPa 0,0 mm 0,0 km/h (0 Bft) S 188 ° 0 min 0,000 mm 0,0 UV-I 0 W/m² -6,1 °C -3,8 °C 0,0 km/h (0 Bft)
18.12.2018 19:48 -3,9 °C 84 % 1021,7 hPa 0,0 mm 0,0 km/h (0 Bft) S 188 ° 0 min 0,000 mm 0,0 UV-I 0 W/m² -6,2 °C -3,9 °C 0,0 km/h (0 Bft)
18.12.2018 19:49 -3,9 °C 84 % 1021,6 hPa 0,0 mm 0,0 km/h (0 Bft) S 188 ° 0 min 0,000 mm 0,0 UV-I 0 W/m² -6,2 °C -3,9 °C 0,0 km/h (0 Bft)
18.12.2018 19:50 -3,9 °C 84 % 1021,7 hPa 0,0 mm 0,0 km/h (0 Bft) S 188 ° 0 min 0,000 mm 0,0 UV-I 0 W/m² -6,2 °C -3,9 °C 0,0 km/h (0 Bft)
18.12.2018 19:51 -3,9 °C 84 % 1021,7 hPa 0,0 mm 0,0 km/h (0 Bft) S 188 ° 0 min 0,000 mm 0,0 UV-I 0 W/m² -6,2 °C -3,9 °C 0,0 km/h (0 Bft)
18.12.2018 19:52 -4,0 °C 84 % 1021,7 hPa 0,0 mm 0,0 km/h (0 Bft) S 188 ° 0 min 0,000 mm 0,0 UV-I 0 W/m² -6,3 °C -4,0 °C 0,0 km/h (0 Bft)
18.12.2018 19:53 -4,0 °C 84 % 1021,7 hPa 0,0 mm 0,0 km/h (0 Bft) S 188 ° 0 min 0,000 mm 0,0 UV-I 0 W/m² -6,3 °C -4,0 °C 0,0 km/h (0 Bft)
18.12.2018 19:54 -4,1 °C 84 % 1021,7 hPa 0,0 mm 0,0 km/h (0 Bft) S 188 ° 0 min 0,000 mm 0,0 UV-I 0 W/m² -6,4 °C -4,1 °C 0,0 km/h (0 Bft)
18.12.2018 19:55 -4,1 °C 84 % 1021,6 hPa 0,0 mm 0,0 km/h (0 Bft) S 188 ° 0 min 0,000 mm 0,0 UV-I 0 W/m² -6,4 °C -4,1 °C 0,0 km/h (0 Bft)
18.12.2018 19:56 -4,1 °C 84 % 1021,6 hPa 0,0 mm 0,0 km/h (0 Bft) S 188 ° 0 min 0,000 mm 0,0 UV-I 0 W/m² -6,4 °C -4,1 °C 0,0 km/h (0 Bft)
18.12.2018 19:57 -4,1 °C 84 % 1021,6 hPa 0,0 mm 0,0 km/h (0 Bft) S 188 ° 0 min 0,000 mm 0,0 UV-I 0 W/m² -6,4 °C -4,1 °C 0,0 km/h (0 Bft)
18.12.2018 19:58 -4,1 °C 84 % 1021,6 hPa 0,0 mm 0,0 km/h (0 Bft) S 188 ° 0 min 0,000 mm 0,0 UV-I 0 W/m² -6,4 °C -4,1 °C 0,0 km/h (0 Bft)
18.12.2018 19:59 -4,2 °C 84 % 1021,6 hPa 0,0 mm 0,0 km/h (0 Bft) S 188 ° 0 min 0,000 mm 0,0 UV-I 0 W/m² -6,5 °C -4,2 °C 0,0 km/h (0 Bft)
18.12.2018 20:00 -4,2 °C 84 % 1021,6 hPa 0,0 mm 0,0 km/h (0 Bft) S 188 ° 0 min 0,000 mm 0,0 UV-I 0 W/m² -6,5 °C -4,2 °C 0,0 km/h (0 Bft)
18.12.2018 20:01 -4,2 °C 84 % 1021,7 hPa 0,0 mm 0,0 km/h (0 Bft) S 188 ° 0 min 0,000 mm 0,0 UV-I 0 W/m² -6,5 °C -4,2 °C 0,0 km/h (0 Bft)
18.12.2018 20:02 -4,2 °C 84 % 1021,6 hPa 0,0 mm 0,0 km/h (0 Bft) S 188 ° 0 min 0,000 mm 0,0 UV-I 0 W/m² -6,5 °C -4,2 °C 0,0 km/h (0 Bft)
18.12.2018 20:03 -4,3 °C 84 % 1021,8 hPa 0,0 mm 0,9 km/h (0 Bft) S 188 ° 0 min 0,000 mm 0,0 UV-I 0 W/m² -6,6 °C -4,3 °C 1,6 km/h (1 Bft)
18.12.2018 20:04 -4,3 °C 84 % 1021,8 hPa 0,0 mm 0,1 km/h (0 Bft) S 188 ° 0 min 0,000 mm 0,0 UV-I 0 W/m² -6,6 °C -4,3 °C 1,6 km/h (1 Bft)
18.12.2018 20:05 -4,3 °C 84 % 1021,7 hPa 0,0 mm 0,0 km/h (0 Bft) S 188 ° 0 min 0,000 mm 0,0 UV-I 0 W/m² -6,6 °C -4,3 °C 0,0 km/h (0 Bft)
18.12.2018 20:06 -4,3 °C 84 % 1021,7 hPa 0,0 mm 0,1 km/h (0 Bft) S 188 ° 0 min 0,000 mm 0,0 UV-I 0 W/m² -6,6 °C -4,3 °C 1,6 km/h (1 Bft)
18.12.2018 20:07 -4,3 °C 84 % 1021,7 hPa 0,0 mm 1,4 km/h (1 Bft) S 188 ° 0 min 0,000 mm 0,0 UV-I 0 W/m² -6,6 °C -4,3 °C 3,2 km/h (1 Bft)
18.12.2018 20:08 -4,3 °C 84 % 1021,7 hPa 0,0 mm 0,4 km/h (0 Bft) S 188 ° 0 min 0,000 mm 0,0 UV-I 0 W/m² -6,6 °C -4,3 °C 3,2 km/h (1 Bft)
18.12.2018 20:09 -4,3 °C 85 % 1021,7 hPa 0,0 mm 0,0 km/h (0 Bft) S 188 ° 0 min 0,000 mm 0,0 UV-I 0 W/m² -6,4 °C -4,3 °C 0,0 km/h (0 Bft)
18.12.2018 20:10 -4,3 °C 85 % 1021,8 hPa 0,0 mm 0,1 km/h (0 Bft) S 188 ° 0 min 0,000 mm 0,0 UV-I 0 W/m² -6,4 °C -4,3 °C 1,6 km/h (1 Bft)
18.12.2018 20:11 -4,2 °C 85 % 1021,7 hPa 0,0 mm 0,3 km/h (0 Bft) S 188 ° 0 min 0,000 mm 0,0 UV-I 0 W/m² -6,3 °C -4,2 °C 1,6 km/h (1 Bft)
18.12.2018 20:12 -4,2 °C 85 % 1021,7 hPa 0,0 mm 0,1 km/h (0 Bft) S 188 ° 0 min 0,000 mm 0,0 UV-I 0 W/m² -6,3 °C -4,2 °C 1,6 km/h (1 Bft)
18.12.2018 20:13 -4,2 °C 85 % 1021,7 hPa 0,0 mm 0,2 km/h (0 Bft) S 188 ° 0 min 0,000 mm 0,0 UV-I 0 W/m² -6,3 °C -4,2 °C 1,6 km/h (1 Bft)
18.12.2018 20:14 -4,1 °C 85 % 1021,6 hPa 0,0 mm 0,3 km/h (0 Bft) S 188 ° 0 min 0,000 mm 0,0 UV-I 0 W/m² -6,2 °C -4,1 °C 1,6 km/h (1 Bft)
18.12.2018 20:15 -4,1 °C 85 % 1021,6 hPa 0,0 mm 0,2 km/h (0 Bft) S 188 ° 0 min 0,000 mm 0,0 UV-I 0 W/m² -6,2 °C -4,1 °C 1,6 km/h (1 Bft)
18.12.2018 20:16 -4,1 °C 85 % 1021,6 hPa 0,0 mm 0,0 km/h (0 Bft) S 188 ° 0 min 0,000 mm 0,0 UV-I 0 W/m² -6,2 °C -4,1 °C 0,0 km/h (0 Bft)
18.12.2018 20:17 -4,1 °C 85 % 1021,6 hPa 0,0 mm 0,0 km/h (0 Bft) S 188 ° 0 min 0,000 mm 0,0 UV-I 0 W/m² -6,2 °C -4,1 °C 0,0 km/h (0 Bft)
18.12.2018 20:18 -4,1 °C 85 % 1021,5 hPa 0,0 mm 0,0 km/h (0 Bft) S 188 ° 0 min 0,000 mm 0,0 UV-I 0 W/m² -6,2 °C -4,1 °C 0,0 km/h (0 Bft)
18.12.2018 20:19 -4,1 °C 85 % 1021,5 hPa 0,0 mm 0,0 km/h (0 Bft) S 188 ° 0 min 0,000 mm 0,0 UV-I 0 W/m² -6,2 °C -4,1 °C 0,0 km/h (0 Bft)
18.12.2018 20:20 -4,1 °C 85 % 1021,4 hPa 0,0 mm 0,3 km/h (0 Bft) S 188 ° 0 min 0,000 mm 0,0 UV-I 0 W/m² -6,2 °C -4,1 °C 1,6 km/h (1 Bft)
18.12.2018 20:21 -4,1 °C 85 % 1021,3 hPa 0,0 mm 0,0 km/h (0 Bft) S 188 ° 0 min 0,000 mm 0,0 UV-I 0 W/m² -6,2 °C -4,1 °C 0,0 km/h (0 Bft)
18.12.2018 20:22 -4,1 °C 85 % 1021,3 hPa 0,0 mm 0,0 km/h (0 Bft) S 188 ° 0 min 0,000 mm 0,0 UV-I 0 W/m² -6,2 °C -4,1 °C 0,0 km/h (0 Bft)
18.12.2018 20:23 -4,1 °C 85 % 1021,3 hPa 0,0 mm 0,0 km/h (0 Bft) S 188 ° 0 min 0,000 mm 0,0 UV-I 0 W/m² -6,2 °C -4,1 °C 0,0 km/h (0 Bft)
18.12.2018 20:24 -4,1 °C 85 % 1021,3 hPa 0,0 mm 0,0 km/h (0 Bft) S 188 ° 0 min 0,000 mm 0,0 UV-I 0 W/m² -6,2 °C -4,1 °C 0,0 km/h (0 Bft)
18.12.2018 20:25 -4,1 °C 85 % 1021,3 hPa 0,0 mm 0,0 km/h (0 Bft) S 188 ° 0 min 0,000 mm 0,0 UV-I 0 W/m² -6,2 °C -4,1 °C 0,0 km/h (0 Bft)
18.12.2018 20:26 -4,1 °C 84 % 1021,3 hPa 0,0 mm 0,0 km/h (0 Bft) S 188 ° 0 min 0,000 mm 0,0 UV-I 0 W/m² -6,4 °C -4,1 °C 0,0 km/h (0 Bft)
18.12.2018 20:27 -4,1 °C 84 % 1021,3 hPa 0,0 mm 0,0 km/h (0 Bft) S 188 ° 0 min 0,000 mm 0,0 UV-I 0 W/m² -6,4 °C -4,1 °C 0,0 km/h (0 Bft)
18.12.2018 20:28 -4,2 °C 84 % 1021,2 hPa 0,0 mm 0,0 km/h (0 Bft) S 188 ° 0 min 0,000 mm 0,0 UV-I 0 W/m² -6,5 °C -4,2 °C 0,0 km/h (0 Bft)
18.12.2018 20:29 -4,2 °C 84 % 1021,2 hPa 0,0 mm 0,0 km/h (0 Bft) S 188 ° 0 min 0,000 mm 0,0 UV-I 0 W/m² -6,5 °C -4,2 °C 0,0 km/h (0 Bft)
18.12.2018 20:30 -4,2 °C 84 % 1021,2 hPa 0,0 mm 0,0 km/h (0 Bft) S 188 ° 0 min 0,000 mm 0,0 UV-I 0 W/m² -6,5 °C -4,2 °C 0,0 km/h (0 Bft)
18.12.2018 20:31 -4,2 °C 84 % 1021,2 hPa 0,0 mm 0,0 km/h (0 Bft) S 188 ° 0 min 0,000 mm 0,0 UV-I 0 W/m² -6,5 °C -4,2 °C 0,0 km/h (0 Bft)
18.12.2018 20:32 -4,2 °C 84 % 1021,2 hPa 0,0 mm 0,0 km/h (0 Bft) S 188 ° 0 min 0,000 mm 0,0 UV-I 0 W/m² -6,5 °C -4,2 °C 0,0 km/h (0 Bft)
18.12.2018 20:33 -4,2 °C 84 % 1021,2 hPa 0,0 mm 0,0 km/h (0 Bft) S 188 ° 0 min 0,000 mm 0,0 UV-I 0 W/m² -6,5 °C -4,2 °C 0,0 km/h (0 Bft)
18.12.2018 20:34 -4,3 °C 84 % 1021,2 hPa 0,0 mm 0,0 km/h (0 Bft) S 188 ° 0 min 0,000 mm 0,0 UV-I 0 W/m² -6,6 °C -4,3 °C 0,0 km/h (0 Bft)
18.12.2018 20:35 -4,3 °C 84 % 1021,2 hPa 0,0 mm 0,0 km/h (0 Bft) S 188 ° 0 min 0,000 mm 0,0 UV-I 0 W/m² -6,6 °C -4,3 °C 0,0 km/h (0 Bft)
18.12.2018 20:36 -4,3 °C 84 % 1021,2 hPa 0,0 mm 0,0 km/h (0 Bft) S 188 ° 0 min 0,000 mm 0,0 UV-I 0 W/m² -6,6 °C -4,3 °C 0,0 km/h (0 Bft)
18.12.2018 20:37 -4,3 °C 84 % 1021,2 hPa 0,0 mm 0,0 km/h (0 Bft) S 188 ° 0 min 0,000 mm 0,0 UV-I 0 W/m² -6,6 °C -4,3 °C 0,0 km/h (0 Bft)
18.12.2018 20:38 -4,4 °C 84 % 1021,2 hPa 0,0 mm 0,4 km/h (0 Bft) S 188 ° 0 min 0,000 mm 0,0 UV-I 0 W/m² -6,7 °C -4,4 °C 1,6 km/h (1 Bft)
18.12.2018 20:39 -4,4 °C 83 % 1021,2 hPa 0,0 mm 0,4 km/h (0 Bft) S 188 ° 0 min 0,000 mm 0,0 UV-I 0 W/m² -6,8 °C -4,4 °C 1,6 km/h (1 Bft)
18.12.2018 20:40 -4,4 °C 83 % 1021,2 hPa 0,0 mm 0,0 km/h (0 Bft) S 188 ° 0 min 0,000 mm 0,0 UV-I 0 W/m² -6,8 °C -4,4 °C 0,0 km/h (0 Bft)
18.12.2018 20:41 -4,5 °C 83 % 1021,1 hPa 0,0 mm 0,0 km/h (0 Bft) S 188 ° 0 min 0,000 mm 0,0 UV-I 0 W/m² -6,9 °C -4,5 °C 0,0 km/h (0 Bft)
18.12.2018 20:42 -4,5 °C 83 % 1021,1 hPa 0,0 mm 0,3 km/h (0 Bft) S 188 ° 0 min 0,000 mm 0,0 UV-I 0 W/m² -6,9 °C -4,5 °C 1,6 km/h (1 Bft)
18.12.2018 20:43 -4,6 °C 83 % 1021,2 hPa 0,0 mm 0,0 km/h (0 Bft) S 188 ° 0 min 0,000 mm 0,0 UV-I 0 W/m² -7,0 °C -4,6 °C 0,0 km/h (0 Bft)
18.12.2018 20:44 -4,6 °C 83 % 1021,1 hPa 0,0 mm 0,0 km/h (0 Bft) S 188 ° 0 min 0,000 mm 0,0 UV-I 0 W/m² -7,0 °C -4,6 °C 0,0 km/h (0 Bft)
18.12.2018 20:45 -4,7 °C 83 % 1021,1 hPa 0,0 mm 0,0 km/h (0 Bft) S 188 ° 0 min 0,000 mm 0,0 UV-I 0 W/m² -7,1 °C -4,7 °C 0,0 km/h (0 Bft)
18.12.2018 20:46 -4,7 °C 83 % 1021,2 hPa 0,0 mm 0,0 km/h (0 Bft) S 188 ° 0 min 0,000 mm 0,0 UV-I 0 W/m² -7,1 °C -4,7 °C 0,0 km/h (0 Bft)
18.12.2018 20:47 -4,7 °C 83 % 1021,2 hPa 0,0 mm 0,0 km/h (0 Bft) S 188 ° 0 min 0,000 mm 0,0 UV-I 0 W/m² -7,1 °C -4,7 °C 0,0 km/h (0 Bft)
18.12.2018 20:48 -4,7 °C 83 % 1021,1 hPa 0,0 mm 0,0 km/h (0 Bft) S 188 ° 0 min 0,000 mm 0,0 UV-I 0 W/m² -7,1 °C -4,7 °C 0,0 km/h (0 Bft)
18.12.2018 20:49 -4,8 °C 84 % 1021,2 hPa 0,0 mm 0,0 km/h (0 Bft) S 188 ° 0 min 0,000 mm 0,0 UV-I 0 W/m² -7,1 °C -4,8 °C 0,0 km/h (0 Bft)
18.12.2018 20:50 -4,8 °C 84 % 1021,2 hPa 0,0 mm 0,0 km/h (0 Bft) S 188 ° 0 min 0,000 mm 0,0 UV-I 0 W/m² -7,1 °C -4,8 °C 0,0 km/h (0 Bft)
18.12.2018 20:51 -4,8 °C 84 % 1021,2 hPa 0,0 mm 0,0 km/h (0 Bft) S 188 ° 0 min 0,000 mm 0,0 UV-I 0 W/m² -7,1 °C -4,8 °C 0,0 km/h (0 Bft)
18.12.2018 20:52 -4,8 °C 84 % 1021,2 hPa 0,0 mm 0,0 km/h (0 Bft) S 188 ° 0 min 0,000 mm 0,0 UV-I 0 W/m² -7,1 °C -4,8 °C 0,0 km/h (0 Bft)
18.12.2018 20:53 -4,8 °C 84 % 1021,2 hPa 0,0 mm 0,0 km/h (0 Bft) S 188 ° 0 min 0,000 mm 0,0 UV-I 0 W/m² -7,1 °C -4,8 °C 0,0 km/h (0 Bft)
18.12.2018 20:54 -4,9 °C 84 % 1021,2 hPa 0,0 mm 0,0 km/h (0 Bft) S 188 ° 0 min 0,000 mm 0,0 UV-I 0 W/m² -7,2 °C -4,9 °C 0,0 km/h (0 Bft)
18.12.2018 20:55 -4,9 °C 84 % 1021,2 hPa 0,0 mm 0,0 km/h (0 Bft) S 188 ° 0 min 0,000 mm 0,0 UV-I 0 W/m² -7,2 °C -4,9 °C 0,0 km/h (0 Bft)
18.12.2018 20:56 -4,9 °C 85 % 1021,1 hPa 0,0 mm 0,0 km/h (0 Bft) S 188 ° 0 min 0,000 mm 0,0 UV-I 0 W/m² -7,0 °C -4,9 °C 0,0 km/h (0 Bft)
18.12.2018 20:57 -4,9 °C 85 % 1021,1 hPa 0,0 mm 0,0 km/h (0 Bft) S 188 ° 0 min 0,000 mm 0,0 UV-I 0 W/m² -7,0 °C -4,9 °C 0,0 km/h (0 Bft)
18.12.2018 20:58 -4,9 °C 85 % 1021,1 hPa 0,0 mm 0,0 km/h (0 Bft) S 188 ° 0 min 0,000 mm 0,0 UV-I 0 W/m² -7,0 °C -4,9 °C 0,0 km/h (0 Bft)
18.12.2018 20:59 -4,9 °C 85 % 1021,1 hPa 0,0 mm 0,0 km/h (0 Bft) S 188 ° 0 min 0,000 mm 0,0 UV-I 0 W/m² -7,0 °C -4,9 °C 0,0 km/h (0 Bft)
18.12.2018 21:00 -4,9 °C 85 % 1021,1 hPa 0,0 mm 0,0 km/h (0 Bft) S 188 ° 0 min 0,000 mm 0,0 UV-I 0 W/m² -7,0 °C -4,9 °C 0,0 km/h (0 Bft)
18.12.2018 21:01 -4,9 °C 85 % 1021,1 hPa 0,0 mm 0,0 km/h (0 Bft) S 188 ° 0 min 0,000 mm 0,0 UV-I 0 W/m² -7,0 °C -4,9 °C 0,0 km/h (0 Bft)
18.12.2018 21:02 -4,9 °C 85 % 1021,1 hPa 0,0 mm 0,0 km/h (0 Bft) S 188 ° 0 min 0,000 mm 0,0 UV-I 0 W/m² -7,0 °C -4,9 °C 0,0 km/h (0 Bft)
18.12.2018 21:03 -5,0 °C 85 % 1021,1 hPa 0,0 mm 0,0 km/h (0 Bft) S 188 ° 0 min 0,000 mm 0,0 UV-I 0 W/m² -7,1 °C -5,0 °C 0,0 km/h (0 Bft)
18.12.2018 21:04 -5,0 °C 85 % 1021,1 hPa 0,0 mm 0,0 km/h (0 Bft) S 188 ° 0 min 0,000 mm 0,0 UV-I 0 W/m² -7,1 °C -5,0 °C 0,0 km/h (0 Bft)
18.12.2018 21:05 -5,1 °C 85 % 1021,1 hPa 0,0 mm 0,0 km/h (0 Bft) S 188 ° 0 min 0,000 mm 0,0 UV-I 0 W/m² -7,2 °C -5,1 °C 0,0 km/h (0 Bft)
18.12.2018 21:06 -5,0 °C 85 % 1021,1 hPa 0,0 mm 0,0 km/h (0 Bft) S 188 ° 0 min 0,000 mm 0,0 UV-I 0 W/m² -7,1 °C -5,0 °C 0,0 km/h (0 Bft)
18.12.2018 21:07 -5,1 °C 85 % 1021,1 hPa 0,0 mm 0,0 km/h (0 Bft) S 188 ° 0 min 0,000 mm 0,0 UV-I 0 W/m² -7,2 °C -5,1 °C 0,0 km/h (0 Bft)
18.12.2018 21:08 -5,1 °C 85 % 1021,2 hPa 0,0 mm 0,0 km/h (0 Bft) S 188 ° 0 min 0,000 mm 0,0 UV-I 0 W/m² -7,2 °C -5,1 °C 0,0 km/h (0 Bft)
18.12.2018 21:09 -5,1 °C 85 % 1021,2 hPa 0,0 mm 0,4 km/h (0 Bft) S 188 ° 0 min 0,000 mm 0,0 UV-I 0 W/m² -7,2 °C -5,1 °C 1,6 km/h (1 Bft)
18.12.2018 21:10 -5,1 °C 85 % 1021,2 hPa 0,0 mm 0,8 km/h (0 Bft) S 188 ° 0 min 0,000 mm 0,0 UV-I 0 W/m² -7,2 °C -5,1 °C 3,2 km/h (1 Bft)
18.12.2018 21:11 -5,1 °C 85 % 1021,2 hPa 0,0 mm 0,0 km/h (0 Bft) S 188 ° 0 min 0,000 mm 0,0 UV-I 0 W/m² -7,2 °C -5,1 °C 0,0 km/h (0 Bft)
18.12.2018 21:12 -5,1 °C 85 % 1021,1 hPa 0,0 mm 0,0 km/h (0 Bft) S 188 ° 0 min 0,000 mm 0,0 UV-I 0 W/m² -7,2 °C -5,1 °C 0,0 km/h (0 Bft)
18.12.2018 21:13 -5,1 °C 86 % 1021,1 hPa 0,0 mm 1,1 km/h (1 Bft) S 188 ° 0 min 0,000 mm 0,0 UV-I 0 W/m² -7,1 °C -5,1 °C 4,8 km/h (1 Bft)
18.12.2018 21:14 -5,1 °C 86 % 1021,1 hPa 0,0 mm 2,5 km/h (1 Bft) S 188 ° 0 min 0,000 mm 0,0 UV-I 0 W/m² -7,1 °C -5,1 °C 3,2 km/h (1 Bft)
18.12.2018 21:15 -5,0 °C 86 % 1021,1 hPa 0,0 mm 0,3 km/h (0 Bft) S 188 ° 0 min 0,000 mm 0,0 UV-I 0 W/m² -7,0 °C -5,0 °C 1,6 km/h (1 Bft)
18.12.2018 21:16 -4,9 °C 86 % 1021,1 hPa 0,0 mm 0,0 km/h (0 Bft) S 188 ° 0 min 0,000 mm 0,0 UV-I 0 W/m² -6,9 °C -4,9 °C 0,0 km/h (0 Bft)
18.12.2018 21:17 -4,9 °C 86 % 1021,0 hPa 0,0 mm 0,0 km/h (0 Bft) S 188 ° 0 min 0,000 mm 0,0 UV-I 0 W/m² -6,9 °C -4,9 °C 0,0 km/h (0 Bft)
18.12.2018 21:18 -4,9 °C 86 % 1021,1 hPa 0,0 mm 0,0 km/h (0 Bft) S 188 ° 0 min 0,000 mm 0,0 UV-I 0 W/m² -6,9 °C -4,9 °C 0,0 km/h (0 Bft)
18.12.2018 21:19 -4,9 °C 86 % 1021,0 hPa 0,0 mm 0,0 km/h (0 Bft) S 188 ° 0 min 0,000 mm 0,0 UV-I 0 W/m² -6,9 °C -4,9 °C 0,0 km/h (0 Bft)
18.12.2018 21:20 -4,9 °C 86 % 1021,0 hPa 0,0 mm 0,0 km/h (0 Bft) S 188 ° 0 min 0,000 mm 0,0 UV-I 0 W/m² -6,9 °C -4,9 °C 0,0 km/h (0 Bft)
18.12.2018 21:21 -4,9 °C 86 % 1021,0 hPa 0,0 mm 0,0 km/h (0 Bft) S 188 ° 0 min 0,000 mm 0,0 UV-I 0 W/m² -6,9 °C -4,9 °C 0,0 km/h (0 Bft)
18.12.2018 21:22 -4,9 °C 86 % 1021,0 hPa 0,0 mm 0,0 km/h (0 Bft) S 188 ° 0 min 0,000 mm 0,0 UV-I 0 W/m² -6,9 °C -4,9 °C 0,0 km/h (0 Bft)
18.12.2018 21:23 -4,9 °C 86 % 1021,0 hPa 0,0 mm 0,0 km/h (0 Bft) S 188 ° 0 min 0,000 mm 0,0 UV-I 0 W/m² -6,9 °C -4,9 °C 0,0 km/h (0 Bft)
18.12.2018 21:24 -4,9 °C 86 % 1021,1 hPa 0,0 mm 0,0 km/h (0 Bft) S 188 ° 0 min 0,000 mm 0,0 UV-I 0 W/m² -6,9 °C -4,9 °C 0,0 km/h (0 Bft)
18.12.2018 21:25 -4,9 °C 86 % 1021,1 hPa 0,0 mm 0,0 km/h (0 Bft) S 188 ° 0 min 0,000 mm 0,0 UV-I 0 W/m² -6,9 °C -4,9 °C 0,0 km/h (0 Bft)
18.12.2018 21:26 -4,9 °C 86 % 1021,1 hPa 0,0 mm 0,0 km/h (0 Bft) S 188 ° 0 min 0,000 mm 0,0 UV-I 0 W/m² -6,9 °C -4,9 °C 0,0 km/h (0 Bft)
18.12.2018 21:27 -4,9 °C 85 % 1021,0 hPa 0,0 mm 0,0 km/h (0 Bft) S 188 ° 0 min 0,000 mm 0,0 UV-I 0 W/m² -7,0 °C -4,9 °C 0,0 km/h (0 Bft)
18.12.2018 21:28 -4,9 °C 85 % 1021,0 hPa 0,0 mm 0,0 km/h (0 Bft) S 188 ° 0 min 0,000 mm 0,0 UV-I 0 W/m² -7,0 °C -4,9 °C 0,0 km/h (0 Bft)
18.12.2018 21:29 -4,9 °C 85 % 1021,0 hPa 0,0 mm 0,0 km/h (0 Bft) S 188 ° 0 min 0,000 mm 0,0 UV-I 0 W/m² -7,0 °C -4,9 °C 0,0 km/h (0 Bft)
18.12.2018 21:30 -4,9 °C 85 % 1021,0 hPa 0,0 mm 0,0 km/h (0 Bft) S 188 ° 0 min 0,000 mm 0,0 UV-I 0 W/m² -7,0 °C -4,9 °C 0,0 km/h (0 Bft)
18.12.2018 21:31 -4,9 °C 85 % 1021,0 hPa 0,0 mm 0,0 km/h (0 Bft) S 188 ° 0 min 0,000 mm 0,0 UV-I 0 W/m² -7,0 °C -4,9 °C 0,0 km/h (0 Bft)
18.12.2018 21:32 -5,0 °C 85 % 1021,0 hPa 0,0 mm 0,0 km/h (0 Bft) S 188 ° 0 min 0,000 mm 0,0 UV-I 0 W/m² -7,1 °C -5,0 °C 0,0 km/h (0 Bft)
18.12.2018 21:33 -5,0 °C 85 % 1021,0 hPa 0,0 mm 0,0 km/h (0 Bft) S 188 ° 0 min 0,000 mm 0,0 UV-I 0 W/m² -7,1 °C -5,0 °C 0,0 km/h (0 Bft)
18.12.2018 21:34 -5,1 °C 85 % 1021,0 hPa 0,0 mm 0,0 km/h (0 Bft) S 188 ° 0 min 0,000 mm 0,0 UV-I 0 W/m² -7,2 °C -5,1 °C 0,0 km/h (0 Bft)
18.12.2018 21:35 -5,1 °C 85 % 1021,1 hPa 0,0 mm 0,0 km/h (0 Bft) S 188 ° 0 min 0,000 mm 0,0 UV-I 0 W/m² -7,2 °C -5,1 °C 0,0 km/h (0 Bft)
18.12.2018 21:36 -5,1 °C 85 % 1021,1 hPa 0,0 mm 0,0 km/h (0 Bft) S 188 ° 0 min 0,000 mm 0,0 UV-I 0 W/m² -7,2 °C -5,1 °C 0,0 km/h (0 Bft)
18.12.2018 21:37 -5,1 °C 85 % 1021,1 hPa 0,0 mm 0,0 km/h (0 Bft) S 188 ° 0 min 0,000 mm 0,0 UV-I 0 W/m² -7,2 °C -5,1 °C 0,0 km/h (0 Bft)
18.12.2018 21:38 -5,1 °C 85 % 1021,1 hPa 0,0 mm 0,0 km/h (0 Bft) S 188 ° 0 min 0,000 mm 0,0 UV-I 0 W/m² -7,2 °C -5,1 °C 0,0 km/h (0 Bft)
18.12.2018 21:39 -5,1 °C 85 % 1021,1 hPa 0,0 mm 0,0 km/h (0 Bft) S 188 ° 0 min 0,000 mm 0,0 UV-I 0 W/m² -7,2 °C -5,1 °C 0,0 km/h (0 Bft)
18.12.2018 21:40 -5,1 °C 85 % 1021,1 hPa 0,0 mm 0,0 km/h (0 Bft) S 188 ° 0 min 0,000 mm 0,0 UV-I 0 W/m² -7,2 °C -5,1 °C 0,0 km/h (0 Bft)
18.12.2018 21:41 -5,1 °C 85 % 1021,1 hPa 0,0 mm 0,0 km/h (0 Bft) S 188 ° 0 min 0,000 mm 0,0 UV-I 0 W/m² -7,2 °C -5,1 °C 0,0 km/h (0 Bft)
18.12.2018 21:42 -5,2 °C 85 % 1021,1 hPa 0,0 mm 0,0 km/h (0 Bft) S 188 ° 0 min 0,000 mm 0,0 UV-I 0 W/m² -7,3 °C -5,2 °C 0,0 km/h (0 Bft)
18.12.2018 21:43 -5,2 °C 85 % 1021,1 hPa 0,0 mm 0,0 km/h (0 Bft) S 188 ° 0 min 0,000 mm 0,0 UV-I 0 W/m² -7,3 °C -5,2 °C 0,0 km/h (0 Bft)
18.12.2018 21:44 -5,2 °C 85 % 1021,0 hPa 0,0 mm 0,0 km/h (0 Bft) S 188 ° 0 min 0,000 mm 0,0 UV-I 0 W/m² -7,3 °C -5,2 °C 0,0 km/h (0 Bft)
18.12.2018 21:45 -5,2 °C 85 % 1021,0 hPa 0,0 mm 0,0 km/h (0 Bft) S 188 ° 0 min 0,000 mm 0,0 UV-I 0 W/m² -7,3 °C -5,2 °C 0,0 km/h (0 Bft)
18.12.2018 21:46 -5,2 °C 85 % 1021,0 hPa 0,0 mm 0,0 km/h (0 Bft) S 188 ° 0 min 0,000 mm 0,0 UV-I 0 W/m² -7,3 °C -5,2 °C 0,0 km/h (0 Bft)
18.12.2018 21:47 -5,2 °C 85 % 1020,9 hPa 0,0 mm 0,0 km/h (0 Bft) S 188 ° 0 min 0,000 mm 0,0 UV-I 0 W/m² -7,3 °C -5,2 °C 0,0 km/h (0 Bft)
18.12.2018 21:48 -5,2 °C 85 % 1020,9 hPa 0,0 mm 0,0 km/h (0 Bft) S 188 ° 0 min 0,000 mm 0,0 UV-I 0 W/m² -7,3 °C -5,2 °C 0,0 km/h (0 Bft)
18.12.2018 21:49 -5,2 °C 85 % 1020,9 hPa 0,0 mm 0,0 km/h (0 Bft) S 188 ° 0 min 0,000 mm 0,0 UV-I 0 W/m² -7,3 °C -5,2 °C 0,0 km/h (0 Bft)
18.12.2018 21:50 -5,3 °C 85 % 1020,9 hPa 0,0 mm 0,0 km/h (0 Bft) S 188 ° 0 min 0,000 mm 0,0 UV-I 0 W/m² -7,4 °C -5,3 °C 0,0 km/h (0 Bft)
18.12.2018 21:51 -5,3 °C 85 % 1020,8 hPa 0,0 mm 0,0 km/h (0 Bft) S 188 ° 0 min 0,000 mm 0,0 UV-I 0 W/m² -7,4 °C -5,3 °C 0,0 km/h (0 Bft)
18.12.2018 21:52 -5,3 °C 85 % 1020,8 hPa 0,0 mm 0,0 km/h (0 Bft) S 188 ° 0 min 0,000 mm 0,0 UV-I 0 W/m² -7,4 °C -5,3 °C 0,0 km/h (0 Bft)
18.12.2018 21:53 -5,3 °C 86 % 1020,9 hPa 0,0 mm 0,0 km/h (0 Bft) S 188 ° 0 min 0,000 mm 0,0 UV-I 0 W/m² -7,3 °C -5,3 °C 0,0 km/h (0 Bft)
18.12.2018 21:54 -5,3 °C 86 % 1020,9 hPa 0,0 mm 0,0 km/h (0 Bft) S 188 ° 0 min 0,000 mm 0,0 UV-I 0 W/m² -7,3 °C -5,3 °C 0,0 km/h (0 Bft)
18.12.2018 21:55 -5,4 °C 85 % 1021,0 hPa 0,0 mm 0,0 km/h (0 Bft) S 188 ° 0 min 0,000 mm 0,0 UV-I 0 W/m² -7,5 °C -5,4 °C 0,0 km/h (0 Bft)
18.12.2018 21:56 -5,4 °C 86 % 1021,0 hPa 0,0 mm 0,0 km/h (0 Bft) S 188 ° 0 min 0,000 mm 0,0 UV-I 0 W/m² -7,4 °C -5,4 °C 0,0 km/h (0 Bft)
18.12.2018 21:57 -5,4 °C 86 % 1021,1 hPa 0,0 mm 0,0 km/h (0 Bft) S 188 ° 0 min 0,000 mm 0,0 UV-I 0 W/m² -7,4 °C -5,4 °C 0,0 km/h (0 Bft)
18.12.2018 21:58 -5,4 °C 86 % 1021,1 hPa 0,0 mm 0,0 km/h (0 Bft) S 188 ° 0 min 0,000 mm 0,0 UV-I 0 W/m² -7,4 °C -5,4 °C 0,0 km/h (0 Bft)
18.12.2018 21:59 -5,4 °C 86 % 1021,2 hPa 0,0 mm 0,0 km/h (0 Bft) S 188 ° 0 min 0,000 mm 0,0 UV-I 0 W/m² -7,4 °C -5,4 °C 0,0 km/h (0 Bft)
18.12.2018 22:00 -5,4 °C 86 % 1021,2 hPa 0,0 mm 0,0 km/h (0 Bft) S 188 ° 0 min 0,000 mm 0,0 UV-I 0 W/m² -7,4 °C -5,4 °C 0,0 km/h (0 Bft)
18.12.2018 22:01 -5,5 °C 86 % 1021,2 hPa 0,0 mm 0,0 km/h (0 Bft) S 188 ° 0 min 0,000 mm 0,0 UV-I 0 W/m² -7,5 °C -5,5 °C 0,0 km/h (0 Bft)
18.12.2018 22:02 -5,5 °C 86 % 1021,2 hPa 0,0 mm 0,3 km/h (0 Bft) W 271 ° 0 min 0,000 mm 0,0 UV-I 0 W/m² -7,5 °C -5,5 °C 3,2 km/h (1 Bft)
18.12.2018 22:03 -5,5 °C 86 % 1021,2 hPa 0,0 mm 1,3 km/h (1 Bft) W 271 ° 0 min 0,000 mm 0,0 UV-I 0 W/m² -7,5 °C -5,5 °C 1,6 km/h (1 Bft)
18.12.2018 22:04 -5,6 °C 86 % 1021,2 hPa 0,0 mm 3,1 km/h (1 Bft) S-SW 194 ° 0 min 0,000 mm 0,0 UV-I 0 W/m² -7,6 °C -5,6 °C 4,8 km/h (1 Bft)
18.12.2018 22:05 -5,5 °C 86 % 1021,1 hPa 0,0 mm 1,8 km/h (1 Bft) W-SW 240 ° 0 min 0,000 mm 0,0 UV-I 0 W/m² -7,5 °C -5,5 °C 3,2 km/h (1 Bft)
18.12.2018 22:06 -5,6 °C 87 % 1021,1 hPa 0,0 mm 2,9 km/h (1 Bft) SW 217 ° 0 min 0,000 mm 0,0 UV-I 0 W/m² -7,4 °C -5,6 °C 4,8 km/h (1 Bft)
18.12.2018 22:07 -5,5 °C 87 % 1021,1 hPa 0,0 mm 3,4 km/h (1 Bft) SW 217 ° 0 min 0,000 mm 0,0 UV-I 0 W/m² -7,3 °C -5,5 °C 4,8 km/h (1 Bft)
18.12.2018 22:08 -5,4 °C 87 % 1021,1 hPa 0,0 mm 2,8 km/h (1 Bft) SW 217 ° 0 min 0,000 mm 0,0 UV-I 0 W/m² -7,2 °C -5,4 °C 4,8 km/h (1 Bft)
18.12.2018 22:09 -5,4 °C 87 % 1021,1 hPa 0,0 mm 4,0 km/h (1 Bft) SW 217 ° 0 min 0,000 mm 0,0 UV-I 0 W/m² -7,2 °C -5,4 °C 6,4 km/h (2 Bft)
18.12.2018 22:10 -5,3 °C 88 % 1021,1 hPa 0,0 mm 5,4 km/h (1 Bft) S-SW 213 ° 0 min 0,000 mm 0,0 UV-I 0 W/m² -7,0 °C -7,8 °C 6,4 km/h (2 Bft)
18.12.2018 22:11 -5,3 °C 88 % 1021,1 hPa 0,0 mm 3,4 km/h (1 Bft) S-SW 213 ° 0 min 0,000 mm 0,0 UV-I 0 W/m² -7,0 °C -5,3 °C 4,8 km/h (1 Bft)
18.12.2018 22:13 -5,1 °C 88 % 1021,1 hPa 0,0 mm 3,0 km/h (1 Bft) S-SW 213 ° 0 min 0,000 mm 0,0 UV-I 0 W/m² -6,8 °C -5,1 °C 4,8 km/h (1 Bft)
18.12.2018 22:14 -4,9 °C 88 % 1021,1 hPa 0,0 mm 2,2 km/h (1 Bft) S-SW 213 ° 0 min 0,000 mm 0,0 UV-I 0 W/m² -6,6 °C -4,9 °C 3,2 km/h (1 Bft)
18.12.2018 22:15 -4,9 °C 88 % 1021,1 hPa 0,0 mm 3,7 km/h (1 Bft) S-SW 213 ° 0 min 0,000 mm 0,0 UV-I 0 W/m² -6,6 °C -4,9 °C 4,8 km/h (1 Bft)
18.12.2018 22:16 -4,8 °C 88 % 1021,1 hPa 0,0 mm 2,7 km/h (1 Bft) S-SW 213 ° 0 min 0,000 mm 0,0 UV-I 0 W/m² -6,5 °C -4,8 °C 4,8 km/h (1 Bft)
18.12.2018 22:17 -4,8 °C 88 % 1021,1 hPa 0,0 mm 2,3 km/h (1 Bft) S-SW 213 ° 0 min 0,000 mm 0,0 UV-I 0 W/m² -6,5 °C -4,8 °C 3,2 km/h (1 Bft)
18.12.2018 22:18 -4,7 °C 87 % 1021,1 hPa 0,0 mm 0,9 km/h (0 Bft) S-SW 213 ° 0 min 0,000 mm 0,0 UV-I 0 W/m² -6,5 °C -4,7 °C 1,6 km/h (1 Bft)
18.12.2018 22:19 -4,7 °C 87 % 1021,2 hPa 0,0 mm 0,0 km/h (0 Bft) S-SW 213 ° 0 min 0,000 mm 0,0 UV-I 0 W/m² -6,5 °C -4,7 °C 0,0 km/h (0 Bft)
18.12.2018 22:20 -4,7 °C 87 % 1021,2 hPa 0,0 mm 0,0 km/h (0 Bft) S-SW 213 ° 0 min 0,000 mm 0,0 UV-I 0 W/m² -6,5 °C -4,7 °C 0,0 km/h (0 Bft)
18.12.2018 22:21 -4,7 °C 87 % 1021,2 hPa 0,0 mm 0,0 km/h (0 Bft) S-SW 213 ° 0 min 0,000 mm 0,0 UV-I 0 W/m² -6,5 °C -4,7 °C 0,0 km/h (0 Bft)
18.12.2018 22:22 -4,6 °C 87 % 1021,3 hPa 0,0 mm 0,0 km/h (0 Bft) S-SW 213 ° 0 min 0,000 mm 0,0 UV-I 0 W/m² -6,4 °C -4,6 °C 0,0 km/h (0 Bft)
18.12.2018 22:23 -4,6 °C 87 % 1021,3 hPa 0,0 mm 0,0 km/h (0 Bft) S-SW 213 ° 0 min 0,000 mm 0,0 UV-I 0 W/m² -6,4 °C -4,6 °C 0,0 km/h (0 Bft)
18.12.2018 22:24 -4,6 °C 86 % 1021,3 hPa 0,0 mm 0,0 km/h (0 Bft) S-SW 213 ° 0 min 0,000 mm 0,0 UV-I 0 W/m² -6,6 °C -4,6 °C 0,0 km/h (0 Bft)
18.12.2018 22:25 -4,6 °C 86 % 1021,2 hPa 0,0 mm 0,0 km/h (0 Bft) S-SW 213 ° 0 min 0,000 mm 0,0 UV-I 0 W/m² -6,6 °C -4,6 °C 0,0 km/h (0 Bft)
18.12.2018 22:26 -4,6 °C 86 % 1021,1 hPa 0,0 mm 0,0 km/h (0 Bft) S-SW 213 ° 0 min 0,000 mm 0,0 UV-I 0 W/m² -6,6 °C -4,6 °C 0,0 km/h (0 Bft)
18.12.2018 22:27 -4,6 °C 86 % 1021,1 hPa 0,0 mm 0,0 km/h (0 Bft) S-SW 213 ° 0 min 0,000 mm 0,0 UV-I 0 W/m² -6,6 °C -4,6 °C 0,0 km/h (0 Bft)
18.12.2018 22:28 -4,6 °C 86 % 1021,1 hPa 0,0 mm 0,0 km/h (0 Bft) S-SW 213 ° 0 min 0,000 mm 0,0 UV-I 0 W/m² -6,6 °C -4,6 °C 0,0 km/h (0 Bft)
18.12.2018 22:29 -4,7 °C 86 % 1021,0 hPa 0,0 mm 0,0 km/h (0 Bft) S-SW 213 ° 0 min 0,000 mm 0,0 UV-I 0 W/m² -6,7 °C -4,7 °C 0,0 km/h (0 Bft)
18.12.2018 22:30 -4,6 °C 85 % 1021,0 hPa 0,0 mm 0,0 km/h (0 Bft) S-SW 213 ° 0 min 0,000 mm 0,0 UV-I 0 W/m² -6,7 °C -4,6 °C 0,0 km/h (0 Bft)
18.12.2018 22:31 -4,6 °C 86 % 1021,0 hPa 0,0 mm 0,0 km/h (0 Bft) S-SW 213 ° 0 min 0,000 mm 0,0 UV-I 0 W/m² -6,6 °C -4,6 °C 0,0 km/h (0 Bft)
18.12.2018 22:32 -4,6 °C 86 % 1021,0 hPa 0,0 mm 2,5 km/h (1 Bft) S-SW 213 ° 0 min 0,000 mm 0,0 UV-I 0 W/m² -6,6 °C -4,6 °C 4,8 km/h (1 Bft)
18.12.2018 22:33 -4,6 °C 86 % 1020,9 hPa 0,0 mm 4,7 km/h (1 Bft) S-SW 213 ° 0 min 0,000 mm 0,0 UV-I 0 W/m² -6,6 °C -6,6 °C 6,4 km/h (2 Bft)
18.12.2018 22:34 -4,5 °C 85 % 1020,9 hPa 0,0 mm 1,1 km/h (1 Bft) S-SW 213 ° 0 min 0,000 mm 0,0 UV-I 0 W/m² -6,6 °C -4,5 °C 3,2 km/h (1 Bft)
18.12.2018 22:35 -4,5 °C 85 % 1020,9 hPa 0,0 mm 0,1 km/h (0 Bft) S-SW 213 ° 0 min 0,000 mm 0,0 UV-I 0 W/m² -6,6 °C -4,5 °C 1,6 km/h (1 Bft)
18.12.2018 22:36 -4,6 °C 84 % 1020,9 hPa 0,0 mm 0,0 km/h (0 Bft) S-SW 213 ° 0 min 0,000 mm 0,0 UV-I 0 W/m² -6,9 °C -4,6 °C 0,0 km/h (0 Bft)
18.12.2018 22:37 -4,6 °C 84 % 1020,9 hPa 0,0 mm 0,0 km/h (0 Bft) S-SW 213 ° 0 min 0,000 mm 0,0 UV-I 0 W/m² -6,9 °C -4,6 °C 0,0 km/h (0 Bft)
18.12.2018 22:38 -4,6 °C 84 % 1021,0 hPa 0,0 mm 0,0 km/h (0 Bft) S-SW 213 ° 0 min 0,000 mm 0,0 UV-I 0 W/m² -6,9 °C -4,6 °C 0,0 km/h (0 Bft)
18.12.2018 22:39 -4,7 °C 84 % 1020,9 hPa 0,0 mm 0,0 km/h (0 Bft) S-SW 213 ° 0 min 0,000 mm 0,0 UV-I 0 W/m² -7,0 °C -4,7 °C 0,0 km/h (0 Bft)
18.12.2018 22:40 -4,7 °C 84 % 1020,9 hPa 0,0 mm 0,0 km/h (0 Bft) S-SW 213 ° 0 min 0,000 mm 0,0 UV-I 0 W/m² -7,0 °C -4,7 °C 0,0 km/h (0 Bft)
18.12.2018 22:41 -4,7 °C 84 % 1020,9 hPa 0,0 mm 0,0 km/h (0 Bft) S-SW 213 ° 0 min 0,000 mm 0,0 UV-I 0 W/m² -7,0 °C -4,7 °C 0,0 km/h (0 Bft)
18.12.2018 22:42 -4,7 °C 84 % 1020,9 hPa 0,0 mm 0,0 km/h (0 Bft) S-SW 213 ° 0 min 0,000 mm 0,0 UV-I 0 W/m² -7,0 °C -4,7 °C 0,0 km/h (0 Bft)
18.12.2018 22:43 -4,6 °C 84 % 1020,9 hPa 0,0 mm 0,0 km/h (0 Bft) S-SW 213 ° 0 min 0,000 mm 0,0 UV-I 0 W/m² -6,9 °C -4,6 °C 0,0 km/h (0 Bft)
18.12.2018 22:44 -4,6 °C 84 % 1020,8 hPa 0,0 mm 0,0 km/h (0 Bft) S-SW 213 ° 0 min 0,000 mm 0,0 UV-I 0 W/m² -6,9 °C -4,6 °C 0,0 km/h (0 Bft)
18.12.2018 22:45 -4,7 °C 84 % 1020,8 hPa 0,0 mm 0,0 km/h (0 Bft) S-SW 213 ° 0 min 0,000 mm 0,0 UV-I 0 W/m² -7,0 °C -4,7 °C 0,0 km/h (0 Bft)
18.12.2018 22:46 -4,7 °C 84 % 1020,8 hPa 0,0 mm 0,0 km/h (0 Bft) S-SW 213 ° 0 min 0,000 mm 0,0 UV-I 0 W/m² -7,0 °C -4,7 °C 0,0 km/h (0 Bft)
18.12.2018 22:47 -4,7 °C 83 % 1020,8 hPa 0,0 mm 0,0 km/h (0 Bft) S-SW 213 ° 0 min 0,000 mm 0,0 UV-I 0 W/m² -7,1 °C -4,7 °C 0,0 km/h (0 Bft)
18.12.2018 22:48 -4,7 °C 83 % 1020,8 hPa 0,0 mm 0,0 km/h (0 Bft) S-SW 213 ° 0 min 0,000 mm 0,0 UV-I 0 W/m² -7,1 °C -4,7 °C 0,0 km/h (0 Bft)
18.12.2018 22:49 -4,7 °C 83 % 1020,7 hPa 0,0 mm 0,0 km/h (0 Bft) S-SW 213 ° 0 min 0,000 mm 0,0 UV-I 0 W/m² -7,1 °C -4,7 °C 0,0 km/h (0 Bft)
18.12.2018 22:50 -4,7 °C 83 % 1020,7 hPa 0,0 mm 0,0 km/h (0 Bft) S-SW 213 ° 0 min 0,000 mm 0,0 UV-I 0 W/m² -7,1 °C -4,7 °C 0,0 km/h (0 Bft)
18.12.2018 22:51 -4,7 °C 83 % 1020,7 hPa 0,0 mm 0,0 km/h (0 Bft) S-SW 213 ° 0 min 0,000 mm 0,0 UV-I 0 W/m² -7,1 °C -4,7 °C 0,0 km/h (0 Bft)
18.12.2018 22:52 -4,7 °C 83 % 1020,7 hPa 0,0 mm 0,0 km/h (0 Bft) S-SW 213 ° 0 min 0,000 mm 0,0 UV-I 0 W/m² -7,1 °C -4,7 °C 0,0 km/h (0 Bft)
18.12.2018 22:53 -4,7 °C 83 % 1020,7 hPa 0,0 mm 0,0 km/h (0 Bft) S-SW 213 ° 0 min 0,000 mm 0,0 UV-I 0 W/m² -7,1 °C -4,7 °C 0,0 km/h (0 Bft)
18.12.2018 22:54 -4,8 °C 84 % 1020,6 hPa 0,0 mm 0,0 km/h (0 Bft) S-SW 213 ° 0 min 0,000 mm 0,0 UV-I 0 W/m² -7,1 °C -4,8 °C 0,0 km/h (0 Bft)
18.12.2018 22:55 -4,8 °C 84 % 1020,6 hPa 0,0 mm 0,0 km/h (0 Bft) S-SW 213 ° 0 min 0,000 mm 0,0 UV-I 0 W/m² -7,1 °C -4,8 °C 0,0 km/h (0 Bft)
18.12.2018 22:56 -4,8 °C 84 % 1020,6 hPa 0,0 mm 0,0 km/h (0 Bft) S-SW 213 ° 0 min 0,000 mm 0,0 UV-I 0 W/m² -7,1 °C -4,8 °C 0,0 km/h (0 Bft)
18.12.2018 22:57 -4,8 °C 84 % 1020,6 hPa 0,0 mm 0,0 km/h (0 Bft) S-SW 213 ° 0 min 0,000 mm 0,0 UV-I 0 W/m² -7,1 °C -4,8 °C 0,0 km/h (0 Bft)
18.12.2018 22:58 -4,8 °C 84 % 1020,4 hPa 0,0 mm 0,0 km/h (0 Bft) S-SW 213 ° 0 min 0,000 mm 0,0 UV-I 0 W/m² -7,1 °C -4,8 °C 0,0 km/h (0 Bft)
18.12.2018 22:59 -4,8 °C 84 % 1020,5 hPa 0,0 mm 0,0 km/h (0 Bft) S-SW 213 ° 0 min 0,000 mm 0,0 UV-I 0 W/m² -7,1 °C -4,8 °C 0,0 km/h (0 Bft)
18.12.2018 23:00 -4,8 °C 84 % 1020,4 hPa 0,0 mm 0,0 km/h (0 Bft) S-SW 213 ° 0 min 0,000 mm 0,0 UV-I 0 W/m² -7,1 °C -4,8 °C 0,0 km/h (0 Bft)
18.12.2018 23:01 -4,8 °C 84 % 1020,3 hPa 0,0 mm 0,0 km/h (0 Bft) S-SW 213 ° 0 min 0,000 mm 0,0 UV-I 0 W/m² -7,1 °C -4,8 °C 0,0 km/h (0 Bft)
18.12.2018 23:02 -4,9 °C 84 % 1020,3 hPa 0,0 mm 0,3 km/h (0 Bft) S-SW 213 ° 0 min 0,000 mm 0,0 UV-I 0 W/m² -7,2 °C -4,9 °C 1,6 km/h (1 Bft)
18.12.2018 23:03 -4,9 °C 84 % 1020,3 hPa 0,0 mm 0,0 km/h (0 Bft) S-SW 213 ° 0 min 0,000 mm 0,0 UV-I 0 W/m² -7,2 °C -4,9 °C 0,0 km/h (0 Bft)
18.12.2018 23:04 -4,9 °C 84 % 1020,3 hPa 0,0 mm 0,0 km/h (0 Bft) S-SW 213 ° 0 min 0,000 mm 0,0 UV-I 0 W/m² -7,2 °C -4,9 °C 0,0 km/h (0 Bft)
18.12.2018 23:05 -4,9 °C 84 % 1020,4 hPa 0,0 mm 0,0 km/h (0 Bft) S-SW 213 ° 0 min 0,000 mm 0,0 UV-I 0 W/m² -7,2 °C -4,9 °C 0,0 km/h (0 Bft)
18.12.2018 23:06 -4,9 °C 84 % 1020,3 hPa 0,0 mm 0,0 km/h (0 Bft) S-SW 213 ° 0 min 0,000 mm 0,0 UV-I 0 W/m² -7,2 °C -4,9 °C 0,0 km/h (0 Bft)
18.12.2018 23:07 -4,9 °C 84 % 1020,3 hPa 0,0 mm 0,0 km/h (0 Bft) S-SW 213 ° 0 min 0,000 mm 0,0 UV-I 0 W/m² -7,2 °C -4,9 °C 0,0 km/h (0 Bft)
18.12.2018 23:08 -5,0 °C 84 % 1020,3 hPa 0,0 mm 0,0 km/h (0 Bft) S-SW 213 ° 0 min 0,000 mm 0,0 UV-I 0 W/m² -7,3 °C -5,0 °C 0,0 km/h (0 Bft)
18.12.2018 23:09 -5,0 °C 84 % 1020,3 hPa 0,0 mm 0,0 km/h (0 Bft) S-SW 213 ° 0 min 0,000 mm 0,0 UV-I 0 W/m² -7,3 °C -5,0 °C 0,0 km/h (0 Bft)
18.12.2018 23:10 -5,1 °C 84 % 1020,3 hPa 0,0 mm 0,0 km/h (0 Bft) S-SW 213 ° 0 min 0,000 mm 0,0 UV-I 0 W/m² -7,4 °C -5,1 °C 0,0 km/h (0 Bft)
18.12.2018 23:11 -5,1 °C 84 % 1020,3 hPa 0,0 mm 0,0 km/h (0 Bft) S-SW 213 ° 0 min 0,000 mm 0,0 UV-I 0 W/m² -7,4 °C -5,1 °C 0,0 km/h (0 Bft)
18.12.2018 23:12 -5,1 °C 84 % 1020,3 hPa 0,0 mm 0,0 km/h (0 Bft) S-SW 213 ° 0 min 0,000 mm 0,0 UV-I 0 W/m² -7,4 °C -5,1 °C 0,0 km/h (0 Bft)
18.12.2018 23:13 -5,2 °C 84 % 1020,3 hPa 0,0 mm 0,0 km/h (0 Bft) S-SW 213 ° 0 min 0,000 mm 0,0 UV-I 0 W/m² -7,5 °C -5,2 °C 0,0 km/h (0 Bft)
18.12.2018 23:14 -5,2 °C 84 % 1020,3 hPa 0,0 mm 0,0 km/h (0 Bft) S-SW 213 ° 0 min 0,000 mm 0,0 UV-I 0 W/m² -7,5 °C -5,2 °C 0,0 km/h (0 Bft)
18.12.2018 23:15 -5,2 °C 84 % 1020,3 hPa 0,0 mm 0,0 km/h (0 Bft) S-SW 213 ° 0 min 0,000 mm 0,0 UV-I 0 W/m² -7,5 °C -5,2 °C 0,0 km/h (0 Bft)
18.12.2018 23:16 -5,2 °C 84 % 1020,3 hPa 0,0 mm 0,0 km/h (0 Bft) S-SW 213 ° 0 min 0,000 mm 0,0 UV-I 0 W/m² -7,5 °C -5,2 °C 0,0 km/h (0 Bft)
18.12.2018 23:17 -5,2 °C 84 % 1020,3 hPa 0,0 mm 0,0 km/h (0 Bft) S-SW 213 ° 0 min 0,000 mm 0,0 UV-I 0 W/m² -7,5 °C -5,2 °C 0,0 km/h (0 Bft)
18.12.2018 23:18 -5,3 °C 84 % 1020,3 hPa 0,0 mm 0,0 km/h (0 Bft) S-SW 213 ° 0 min 0,000 mm 0,0 UV-I 0 W/m² -7,6 °C -5,3 °C 0,0 km/h (0 Bft)
18.12.2018 23:19 -5,3 °C 84 % 1020,3 hPa 0,0 mm 0,0 km/h (0 Bft) S-SW 213 ° 0 min 0,000 mm 0,0 UV-I 0 W/m² -7,6 °C -5,3 °C 0,0 km/h (0 Bft)
18.12.2018 23:20 -5,3 °C 84 % 1020,3 hPa 0,0 mm 0,0 km/h (0 Bft) S-SW 213 ° 0 min 0,000 mm 0,0 UV-I 0 W/m² -7,6 °C -5,3 °C 0,0 km/h (0 Bft)
18.12.2018 23:21 -5,3 °C 84 % 1020,3 hPa 0,0 mm 0,0 km/h (0 Bft) S-SW 213 ° 0 min 0,000 mm 0,0 UV-I 0 W/m² -7,6 °C -5,3 °C 0,0 km/h (0 Bft)
18.12.2018 23:22 -5,4 °C 84 % 1020,2 hPa 0,0 mm 0,0 km/h (0 Bft) S-SW 213 ° 0 min 0,000 mm 0,0 UV-I 0 W/m² -7,7 °C -5,4 °C 0,0 km/h (0 Bft)
18.12.2018 23:23 -5,4 °C 84 % 1020,2 hPa 0,0 mm 0,0 km/h (0 Bft) S-SW 213 ° 0 min 0,000 mm 0,0 UV-I 0 W/m² -7,7 °C -5,4 °C 0,0 km/h (0 Bft)
18.12.2018 23:24 -5,4 °C 84 % 1020,2 hPa 0,0 mm 0,0 km/h (0 Bft) S-SW 213 ° 0 min 0,000 mm 0,0 UV-I 0 W/m² -7,7 °C -5,4 °C 0,0 km/h (0 Bft)
18.12.2018 23:25 -5,4 °C 84 % 1020,2 hPa 0,0 mm 0,0 km/h (0 Bft) S-SW 213 ° 0 min 0,000 mm 0,0 UV-I 0 W/m² -7,7 °C -5,4 °C 0,0 km/h (0 Bft)
18.12.2018 23:26 -5,4 °C 84 % 1020,2 hPa 0,0 mm 0,0 km/h (0 Bft) S-SW 213 ° 0 min 0,000 mm 0,0 UV-I 0 W/m² -7,7 °C -5,4 °C 0,0 km/h (0 Bft)
18.12.2018 23:27 -5,4 °C 84 % 1020,2 hPa 0,0 mm 0,0 km/h (0 Bft) S-SW 213 ° 0 min 0,000 mm 0,0 UV-I 0 W/m² -7,7 °C -5,4 °C 0,0 km/h (0 Bft)
18.12.2018 23:28 -5,4 °C 84 % 1020,1 hPa 0,0 mm 0,0 km/h (0 Bft) S-SW 213 ° 0 min 0,000 mm 0,0 UV-I 0 W/m² -7,7 °C -5,4 °C 0,0 km/h (0 Bft)
18.12.2018 23:29 -5,5 °C 84 % 1020,2 hPa 0,0 mm 0,0 km/h (0 Bft) S-SW 213 ° 0 min 0,000 mm 0,0 UV-I 0 W/m² -7,8 °C -5,5 °C 0,0 km/h (0 Bft)
18.12.2018 23:30 -5,6 °C 84 % 1020,2 hPa 0,0 mm 0,0 km/h (0 Bft) S-SW 213 ° 0 min 0,000 mm 0,0 UV-I 0 W/m² -7,9 °C -5,6 °C 0,0 km/h (0 Bft)
18.12.2018 23:31 -5,6 °C 84 % 1020,1 hPa 0,0 mm 0,0 km/h (0 Bft) S-SW 213 ° 0 min 0,000 mm 0,0 UV-I 0 W/m² -7,9 °C -5,6 °C 0,0 km/h (0 Bft)
18.12.2018 23:32 -5,6 °C 84 % 1020,2 hPa 0,0 mm 0,0 km/h (0 Bft) S-SW 213 ° 0 min 0,000 mm 0,0 UV-I 0 W/m² -7,9 °C -5,6 °C 0,0 km/h (0 Bft)
18.12.2018 23:33 -5,6 °C 84 % 1020,2 hPa 0,0 mm 0,0 km/h (0 Bft) S-SW 213 ° 0 min 0,000 mm 0,0 UV-I 0 W/m² -7,9 °C -5,6 °C 0,0 km/h (0 Bft)
18.12.2018 23:34 -5,6 °C 84 % 1020,1 hPa 0,0 mm 0,0 km/h (0 Bft) S-SW 213 ° 0 min 0,000 mm 0,0 UV-I 0 W/m² -7,9 °C -5,6 °C 0,0 km/h (0 Bft)
18.12.2018 23:35 -5,7 °C 84 % 1020,1 hPa 0,0 mm 0,0 km/h (0 Bft) S-SW 213 ° 0 min 0,000 mm 0,0 UV-I 0 W/m² -8,0 °C -5,7 °C 0,0 km/h (0 Bft)
18.12.2018 23:36 -5,7 °C 84 % 1020,1 hPa 0,0 mm 0,0 km/h (0 Bft) S-SW 213 ° 0 min 0,000 mm 0,0 UV-I 0 W/m² -8,0 °C -5,7 °C 0,0 km/h (0 Bft)
18.12.2018 23:37 -5,7 °C 84 % 1020,0 hPa 0,0 mm 0,0 km/h (0 Bft) S-SW 213 ° 0 min 0,000 mm 0,0 UV-I 0 W/m² -8,0 °C -5,7 °C 0,0 km/h (0 Bft)
18.12.2018 23:38 -5,7 °C 84 % 1020,1 hPa 0,0 mm 0,0 km/h (0 Bft) S-SW 213 ° 0 min 0,000 mm 0,0 UV-I 0 W/m² -8,0 °C -5,7 °C 0,0 km/h (0 Bft)
18.12.2018 23:39 -5,7 °C 84 % 1020,0 hPa 0,0 mm 0,0 km/h (0 Bft) S-SW 213 ° 0 min 0,000 mm 0,0 UV-I 0 W/m² -8,0 °C -5,7 °C 0,0 km/h (0 Bft)
18.12.2018 23:40 -5,8 °C 84 % 1020,1 hPa 0,0 mm 0,0 km/h (0 Bft) S-SW 213 ° 0 min 0,000 mm 0,0 UV-I 0 W/m² -8,1 °C -5,8 °C 0,0 km/h (0 Bft)
18.12.2018 23:41 -5,8 °C 85 % 1020,1 hPa 0,0 mm 0,0 km/h (0 Bft) S-SW 213 ° 0 min 0,000 mm 0,0 UV-I 0 W/m² -7,9 °C -5,8 °C 0,0 km/h (0 Bft)
18.12.2018 23:42 -5,8 °C 85 % 1020,1 hPa 0,0 mm 0,0 km/h (0 Bft) S-SW 213 ° 0 min 0,000 mm 0,0 UV-I 0 W/m² -7,9 °C -5,8 °C 0,0 km/h (0 Bft)
18.12.2018 23:43 -5,8 °C 84 % 1020,1 hPa 0,0 mm 0,0 km/h (0 Bft) S-SW 213 ° 0 min 0,000 mm 0,0 UV-I 0 W/m² -8,1 °C -5,8 °C 0,0 km/h (0 Bft)
18.12.2018 23:44 -5,8 °C 85 % 1020,1 hPa 0,0 mm 0,0 km/h (0 Bft) S-SW 213 ° 0 min 0,000 mm 0,0 UV-I 0 W/m² -7,9 °C -5,8 °C 0,0 km/h (0 Bft)
18.12.2018 23:45 -5,8 °C 85 % 1020,1 hPa 0,0 mm 0,0 km/h (0 Bft) S-SW 213 ° 0 min 0,000 mm 0,0 UV-I 0 W/m² -7,9 °C -5,8 °C 0,0 km/h (0 Bft)
18.12.2018 23:46 -5,8 °C 85 % 1020,1 hPa 0,0 mm 0,0 km/h (0 Bft) S-SW 213 ° 0 min 0,000 mm 0,0 UV-I 0 W/m² -7,9 °C -5,8 °C 0,0 km/h (0 Bft)
18.12.2018 23:47 -5,8 °C 85 % 1020,1 hPa 0,0 mm 0,0 km/h (0 Bft) S-SW 213 ° 0 min 0,000 mm 0,0 UV-I 0 W/m² -7,9 °C -5,8 °C 0,0 km/h (0 Bft)
18.12.2018 23:48 -5,8 °C 85 % 1020,0 hPa 0,0 mm 0,0 km/h (0 Bft) S-SW 213 ° 0 min 0,000 mm 0,0 UV-I 0 W/m² -7,9 °C -5,8 °C 0,0 km/h (0 Bft)
18.12.2018 23:49 -5,8 °C 85 % 1020,0 hPa 0,0 mm 0,0 km/h (0 Bft) S-SW 213 ° 0 min 0,000 mm 0,0 UV-I 0 W/m² -7,9 °C -5,8 °C 0,0 km/h (0 Bft)
18.12.2018 23:50 -5,8 °C 85 % 1020,0 hPa 0,0 mm 0,0 km/h (0 Bft) S-SW 213 ° 0 min 0,000 mm 0,0 UV-I 0 W/m² -7,9 °C -5,8 °C 0,0 km/h (0 Bft)
18.12.2018 23:51 -5,8 °C 85 % 1020,0 hPa 0,0 mm 0,0 km/h (0 Bft) S-SW 213 ° 0 min 0,000 mm 0,0 UV-I 0 W/m² -7,9 °C -5,8 °C 0,0 km/h (0 Bft)
18.12.2018 23:52 -5,9 °C 86 % 1020,0 hPa 0,0 mm 0,0 km/h (0 Bft) S-SW 213 ° 0 min 0,000 mm 0,0 UV-I 0 W/m² -7,9 °C -5,9 °C 0,0 km/h (0 Bft)
18.12.2018 23:53 -5,9 °C 86 % 1020,0 hPa 0,0 mm 0,0 km/h (0 Bft) S-SW 213 ° 0 min 0,000 mm 0,0 UV-I 0 W/m² -7,9 °C -5,9 °C 0,0 km/h (0 Bft)
18.12.2018 23:54 -5,9 °C 85 % 1020,0 hPa 0,0 mm 0,0 km/h (0 Bft) S-SW 213 ° 0 min 0,000 mm 0,0 UV-I 0 W/m² -8,0 °C -5,9 °C 0,0 km/h (0 Bft)
18.12.2018 23:55 -5,9 °C 86 % 1020,0 hPa 0,0 mm 0,0 km/h (0 Bft) S-SW 213 ° 0 min 0,000 mm 0,0 UV-I 0 W/m² -7,9 °C -5,9 °C 0,0 km/h (0 Bft)
18.12.2018 23:56 -5,9 °C 85 % 1020,0 hPa 0,0 mm 0,0 km/h (0 Bft) S-SW 213 ° 0 min 0,000 mm 0,0 UV-I 0 W/m² -8,0 °C -5,9 °C 0,0 km/h (0 Bft)
18.12.2018 23:57 -5,9 °C 85 % 1020,0 hPa 0,0 mm 0,0 km/h (0 Bft) S-SW 213 ° 0 min 0,000 mm 0,0 UV-I 0 W/m² -8,0 °C -5,9 °C 0,0 km/h (0 Bft)
18.12.2018 23:58 -5,9 °C 85 % 1020,0 hPa 0,0 mm 0,0 km/h (0 Bft) S-SW 213 ° 0 min 0,000 mm 0,0 UV-I 0 W/m² -8,0 °C -5,9 °C 0,0 km/h (0 Bft)
18.12.2018 23:59 -5,9 °C 85 % 1019,9 hPa 0,0 mm 0,0 km/h (0 Bft) S-SW 213 ° 0 min 0,000 mm 0,0 UV-I 0 W/m² -8,0 °C -5,9 °C 0,0 km/h (0 Bft)
_ Min-Zeit 23:59 15:11 23:59 - 23:59 - - - - - - 23:43 22:10 23:59
Minimum _ -5,9 °C 75 % 1019,9 hPa - 0,0 km/h (0 Bft) - - - - - - -8,1 °C -7,8 °C 0,0 km/h (0 Bft)
_ Max-Zeit 13:58 10:59 00:07 23:59 00:18 - - 23:59 14:00 11:55 13:55 00:02 13:58 00:18
Maximum _ 2,1 °C 92 % 1029,9 hPa 0,0 mm 7,9 km/h
S (2 Bft)
- - 0 min 0,025 mm 0,9 UV-I 236 W/m² -0,6 °C 2,1 °C 11,3 km/h
S (2 Bft)
Durchschnitt _ -2,0 °C 85 % 1025,3 hPa #0,0 mm 0,4 km/h (0 Bft) S - #0 min. #0,025 mm 0,8 UV-I 8 W/m² -4,2 °C -2,1 °C 0,9 km/h (0 Bft)